<?xml version="1.0" encoding="UTF-8" standalone="no" ?>
<gpx xmlns="http://www.topografix.com/GPX/1/1" xmlns:xsi="http://www.w3.org/2001/XMLSchema-instance" xsi:schemaLocation="http://www.topografix.com/GPX/1/1 http://www.topografix.com/GPX/1/1/gpx.xsd" version="1.1" creator="VisuGPX - https://www.visugpx.com">
  <metadata>
    <name>Sanary-sur-Mer-ceyreste,le camp,sanary</name>
    <desc><![CDATA[
]]></desc>
  </metadata>
  <trk>
    <name><![CDATA[Sanary-sur-Mer]]></name>
    <trkseg>
      <trkpt lat="43.12763" lon="5.78469">
        <ele>38.539833</ele>
        <time>2022-08-14T04:45:44Z</time>
      </trkpt>
      <trkpt lat="43.12766" lon="5.78474">
        <ele>38.539894</ele>
        <time>2022-08-14T04:45:46Z</time>
      </trkpt>
      <trkpt lat="43.12768" lon="5.78478">
        <ele>38.54166</ele>
        <time>2022-08-14T04:45:48Z</time>
      </trkpt>
      <trkpt lat="43.12796" lon="5.78514">
        <ele>38.544403</ele>
        <time>2022-08-14T04:45:50Z</time>
      </trkpt>
      <trkpt lat="43.12799" lon="5.78511">
        <ele>38.559662</ele>
        <time>2022-08-14T04:45:52Z</time>
      </trkpt>
      <trkpt lat="43.12802" lon="5.78508">
        <ele>38.575893</ele>
        <time>2022-08-14T04:45:54Z</time>
      </trkpt>
      <trkpt lat="43.12802" lon="5.78504">
        <ele>38.630962</ele>
        <time>2022-08-14T04:45:56Z</time>
      </trkpt>
      <trkpt lat="43.12801" lon="5.78501">
        <ele>38.668053</ele>
        <time>2022-08-14T04:45:58Z</time>
      </trkpt>
      <trkpt lat="43.128" lon="5.78499">
        <ele>39.132427</ele>
        <time>2022-08-14T04:46:14Z</time>
      </trkpt>
      <trkpt lat="43.12797" lon="5.78497">
        <ele>39.205044</ele>
        <time>2022-08-14T04:46:16Z</time>
      </trkpt>
      <trkpt lat="43.12795" lon="5.78496">
        <ele>39.241386</ele>
        <time>2022-08-14T04:46:18Z</time>
      </trkpt>
      <trkpt lat="43.12791" lon="5.78495">
        <ele>39.313725</ele>
        <time>2022-08-14T04:46:20Z</time>
      </trkpt>
      <trkpt lat="43.12787" lon="5.78494">
        <ele>39.385002</ele>
        <time>2022-08-14T04:46:22Z</time>
      </trkpt>
      <trkpt lat="43.12782" lon="5.78497">
        <ele>39.419975</ele>
        <time>2022-08-14T04:46:24Z</time>
      </trkpt>
      <trkpt lat="43.12777" lon="5.78501">
        <ele>39.487953</ele>
        <time>2022-08-14T04:46:26Z</time>
      </trkpt>
      <trkpt lat="43.12772" lon="5.78498">
        <ele>39.521675</ele>
        <time>2022-08-14T04:46:28Z</time>
      </trkpt>
      <trkpt lat="43.12771" lon="5.78491">
        <ele>39.590073</ele>
        <time>2022-08-14T04:46:30Z</time>
      </trkpt>
      <trkpt lat="43.12775" lon="5.78483">
        <ele>39.624676</ele>
        <time>2022-08-14T04:46:32Z</time>
      </trkpt>
      <trkpt lat="43.12782" lon="5.78475">
        <ele>39.694031</ele>
        <time>2022-08-14T04:46:34Z</time>
      </trkpt>
      <trkpt lat="43.12789" lon="5.78466">
        <ele>39.758839</ele>
        <time>2022-08-14T04:46:36Z</time>
      </trkpt>
      <trkpt lat="43.12798" lon="5.78456">
        <ele>39.811993</ele>
        <time>2022-08-14T04:46:38Z</time>
      </trkpt>
      <trkpt lat="43.12808" lon="5.78446">
        <ele>39.83186</ele>
        <time>2022-08-14T04:46:40Z</time>
      </trkpt>
      <trkpt lat="43.12819" lon="5.78436">
        <ele>39.848602</ele>
        <time>2022-08-14T04:46:42Z</time>
      </trkpt>
      <trkpt lat="43.1283" lon="5.78425">
        <ele>39.838768</ele>
        <time>2022-08-14T04:46:44Z</time>
      </trkpt>
      <trkpt lat="43.12842" lon="5.78413">
        <ele>39.766552</ele>
        <time>2022-08-14T04:46:46Z</time>
      </trkpt>
      <trkpt lat="43.12855" lon="5.78402">
        <ele>39.702484</ele>
        <time>2022-08-14T04:46:48Z</time>
      </trkpt>
      <trkpt lat="43.12868" lon="5.7839">
        <ele>39.526497</ele>
        <time>2022-08-14T04:46:50Z</time>
      </trkpt>
      <trkpt lat="43.12881" lon="5.78378">
        <ele>39.419495</ele>
        <time>2022-08-14T04:46:52Z</time>
      </trkpt>
      <trkpt lat="43.12894" lon="5.78365">
        <ele>39.17387</ele>
        <time>2022-08-14T04:46:54Z</time>
      </trkpt>
      <trkpt lat="43.12908" lon="5.78351">
        <ele>39.035339</ele>
        <time>2022-08-14T04:46:56Z</time>
      </trkpt>
      <trkpt lat="43.12922" lon="5.78337">
        <ele>38.728394</ele>
        <time>2022-08-14T04:46:58Z</time>
      </trkpt>
      <trkpt lat="43.12935" lon="5.78323">
        <ele>38.557659</ele>
        <time>2022-08-14T04:47:00Z</time>
      </trkpt>
      <trkpt lat="43.12948" lon="5.78309">
        <ele>38.371544</ele>
        <time>2022-08-14T04:47:02Z</time>
      </trkpt>
      <trkpt lat="43.1296" lon="5.78296">
        <ele>37.957623</ele>
        <time>2022-08-14T04:47:04Z</time>
      </trkpt>
      <trkpt lat="43.12972" lon="5.78284">
        <ele>37.467724</ele>
        <time>2022-08-14T04:47:06Z</time>
      </trkpt>
      <trkpt lat="43.12983" lon="5.78272">
        <ele>37.193268</ele>
        <time>2022-08-14T04:47:08Z</time>
      </trkpt>
      <trkpt lat="43.12994" lon="5.78262">
        <ele>36.591957</ele>
        <time>2022-08-14T04:47:10Z</time>
      </trkpt>
      <trkpt lat="43.13004" lon="5.78252">
        <ele>36.265907</ele>
        <time>2022-08-14T04:47:12Z</time>
      </trkpt>
      <trkpt lat="43.13014" lon="5.78243">
        <ele>35.925671</ele>
        <time>2022-08-14T04:47:14Z</time>
      </trkpt>
      <trkpt lat="43.13023" lon="5.78235">
        <ele>35.203327</ele>
        <time>2022-08-14T04:47:16Z</time>
      </trkpt>
      <trkpt lat="43.13033" lon="5.78226">
        <ele>34.814758</ele>
        <time>2022-08-14T04:47:18Z</time>
      </trkpt>
      <trkpt lat="43.13042" lon="5.78218">
        <ele>33.551582</ele>
        <time>2022-08-14T04:47:20Z</time>
      </trkpt>
      <trkpt lat="43.1305" lon="5.7821">
        <ele>33.100273</ele>
        <time>2022-08-14T04:47:22Z</time>
      </trkpt>
      <trkpt lat="43.13058" lon="5.78202">
        <ele>32.628937</ele>
        <time>2022-08-14T04:47:24Z</time>
      </trkpt>
      <trkpt lat="43.13067" lon="5.78196">
        <ele>31.636343</ele>
        <time>2022-08-14T04:47:26Z</time>
      </trkpt>
      <trkpt lat="43.13074" lon="5.78189">
        <ele>30.607449</ele>
        <time>2022-08-14T04:47:28Z</time>
      </trkpt>
      <trkpt lat="43.1308" lon="5.78184">
        <ele>30.071651</ele>
        <time>2022-08-14T04:47:30Z</time>
      </trkpt>
      <trkpt lat="43.13083" lon="5.78183">
        <ele>28.96229</ele>
        <time>2022-08-14T04:47:32Z</time>
      </trkpt>
      <trkpt lat="43.13087" lon="5.78181">
        <ele>20.884878</ele>
        <time>2022-08-14T04:47:52Z</time>
      </trkpt>
      <trkpt lat="43.13088" lon="5.78177">
        <ele>19.983591</ele>
        <time>2022-08-14T04:47:54Z</time>
      </trkpt>
      <trkpt lat="43.13092" lon="5.78173">
        <ele>19.55739</ele>
        <time>2022-08-14T04:47:56Z</time>
      </trkpt>
      <trkpt lat="43.13098" lon="5.78168">
        <ele>18.75816</ele>
        <time>2022-08-14T04:47:58Z</time>
      </trkpt>
      <trkpt lat="43.13104" lon="5.78161">
        <ele>18.38422</ele>
        <time>2022-08-14T04:48:00Z</time>
      </trkpt>
      <trkpt lat="43.13112" lon="5.78155">
        <ele>17.334927</ele>
        <time>2022-08-14T04:48:02Z</time>
      </trkpt>
      <trkpt lat="43.13119" lon="5.78148">
        <ele>17.001623</ele>
        <time>2022-08-14T04:48:04Z</time>
      </trkpt>
      <trkpt lat="43.13127" lon="5.78141">
        <ele>16.672087</ele>
        <time>2022-08-14T04:48:06Z</time>
      </trkpt>
      <trkpt lat="43.13135" lon="5.78134">
        <ele>16.034025</ele>
        <time>2022-08-14T04:48:08Z</time>
      </trkpt>
      <trkpt lat="43.13144" lon="5.78128">
        <ele>15.73645</ele>
        <time>2022-08-14T04:48:10Z</time>
      </trkpt>
      <trkpt lat="43.13153" lon="5.78123">
        <ele>15.148625</ele>
        <time>2022-08-14T04:48:12Z</time>
      </trkpt>
      <trkpt lat="43.13163" lon="5.78117">
        <ele>14.600736</ele>
        <time>2022-08-14T04:48:14Z</time>
      </trkpt>
      <trkpt lat="43.13172" lon="5.78112">
        <ele>14.346622</ele>
        <time>2022-08-14T04:48:16Z</time>
      </trkpt>
      <trkpt lat="43.13181" lon="5.78106">
        <ele>14.097109</ele>
        <time>2022-08-14T04:48:18Z</time>
      </trkpt>
      <trkpt lat="43.13192" lon="5.781">
        <ele>13.608643</ele>
        <time>2022-08-14T04:48:20Z</time>
      </trkpt>
      <trkpt lat="43.13202" lon="5.78094">
        <ele>13.383064</ele>
        <time>2022-08-14T04:48:22Z</time>
      </trkpt>
      <trkpt lat="43.13212" lon="5.78088">
        <ele>13.171509</ele>
        <time>2022-08-14T04:48:24Z</time>
      </trkpt>
      <trkpt lat="43.13224" lon="5.7808">
        <ele>12.792371</ele>
        <time>2022-08-14T04:48:26Z</time>
      </trkpt>
      <trkpt lat="43.13236" lon="5.78072">
        <ele>12.623459</ele>
        <time>2022-08-14T04:48:28Z</time>
      </trkpt>
      <trkpt lat="43.13248" lon="5.78065">
        <ele>12.319826</ele>
        <time>2022-08-14T04:48:30Z</time>
      </trkpt>
      <trkpt lat="43.13262" lon="5.78057">
        <ele>12.05574</ele>
        <time>2022-08-14T04:48:32Z</time>
      </trkpt>
      <trkpt lat="43.13276" lon="5.7805">
        <ele>11.830137</ele>
        <time>2022-08-14T04:48:34Z</time>
      </trkpt>
      <trkpt lat="43.1329" lon="5.78044">
        <ele>11.738643</ele>
        <time>2022-08-14T04:48:36Z</time>
      </trkpt>
      <trkpt lat="43.13306" lon="5.78037">
        <ele>11.597821</ele>
        <time>2022-08-14T04:48:38Z</time>
      </trkpt>
      <trkpt lat="43.1332" lon="5.7803">
        <ele>11.549994</ele>
        <time>2022-08-14T04:48:40Z</time>
      </trkpt>
      <trkpt lat="43.13336" lon="5.78024">
        <ele>11.522638</ele>
        <time>2022-08-14T04:48:42Z</time>
      </trkpt>
      <trkpt lat="43.13352" lon="5.78017">
        <ele>11.517612</ele>
        <time>2022-08-14T04:48:44Z</time>
      </trkpt>
      <trkpt lat="43.13369" lon="5.7801">
        <ele>11.548127</ele>
        <time>2022-08-14T04:48:46Z</time>
      </trkpt>
      <trkpt lat="43.13385" lon="5.78">
        <ele>11.659628</ele>
        <time>2022-08-14T04:48:48Z</time>
      </trkpt>
      <trkpt lat="43.134" lon="5.77988">
        <ele>11.745711</ele>
        <time>2022-08-14T04:48:50Z</time>
      </trkpt>
      <trkpt lat="43.13417" lon="5.77975">
        <ele>11.958022</ele>
        <time>2022-08-14T04:48:52Z</time>
      </trkpt>
      <trkpt lat="43.13433" lon="5.77961">
        <ele>12.082548</ele>
        <time>2022-08-14T04:48:54Z</time>
      </trkpt>
      <trkpt lat="43.13449" lon="5.77948">
        <ele>12.355784</ele>
        <time>2022-08-14T04:48:56Z</time>
      </trkpt>
      <trkpt lat="43.13466" lon="5.77934">
        <ele>12.499193</ele>
        <time>2022-08-14T04:48:58Z</time>
      </trkpt>
      <trkpt lat="43.13483" lon="5.7792">
        <ele>12.798656</ele>
        <time>2022-08-14T04:49:00Z</time>
      </trkpt>
      <trkpt lat="43.13501" lon="5.77906">
        <ele>13.086481</ele>
        <time>2022-08-14T04:49:02Z</time>
      </trkpt>
      <trkpt lat="43.13517" lon="5.7789">
        <ele>13.086481</ele>
        <time>2022-08-14T04:49:04Z</time>
      </trkpt>
      <trkpt lat="43.13532" lon="5.77873">
        <ele>13.344049</ele>
        <time>2022-08-14T04:49:06Z</time>
      </trkpt>
      <trkpt lat="43.13545" lon="5.77854">
        <ele>13.450842</ele>
        <time>2022-08-14T04:49:08Z</time>
      </trkpt>
      <trkpt lat="43.13557" lon="5.77835">
        <ele>13.597527</ele>
        <time>2022-08-14T04:49:10Z</time>
      </trkpt>
      <trkpt lat="43.13569" lon="5.77817">
        <ele>13.655046</ele>
        <time>2022-08-14T04:49:12Z</time>
      </trkpt>
      <trkpt lat="43.13581" lon="5.77799">
        <ele>13.749397</ele>
        <time>2022-08-14T04:49:14Z</time>
      </trkpt>
      <trkpt lat="43.13594" lon="5.77783">
        <ele>13.795473</ele>
        <time>2022-08-14T04:49:16Z</time>
      </trkpt>
      <trkpt lat="43.13608" lon="5.77768">
        <ele>13.844557</ele>
        <time>2022-08-14T04:49:18Z</time>
      </trkpt>
      <trkpt lat="43.13622" lon="5.77752">
        <ele>13.964533</ele>
        <time>2022-08-14T04:49:20Z</time>
      </trkpt>
      <trkpt lat="43.13634" lon="5.77734">
        <ele>14.042688</ele>
        <time>2022-08-14T04:49:22Z</time>
      </trkpt>
      <trkpt lat="43.13646" lon="5.77716">
        <ele>14.137057</ele>
        <time>2022-08-14T04:49:24Z</time>
      </trkpt>
      <trkpt lat="43.13659" lon="5.77698">
        <ele>14.247641</ele>
        <time>2022-08-14T04:49:26Z</time>
      </trkpt>
      <trkpt lat="43.13672" lon="5.77679">
        <ele>14.496901</ele>
        <time>2022-08-14T04:49:28Z</time>
      </trkpt>
      <trkpt lat="43.13685" lon="5.77661">
        <ele>14.631169</ele>
        <time>2022-08-14T04:49:30Z</time>
      </trkpt>
      <trkpt lat="43.13698" lon="5.77642">
        <ele>14.908801</ele>
        <time>2022-08-14T04:49:32Z</time>
      </trkpt>
      <trkpt lat="43.13711" lon="5.77622">
        <ele>15.040331</ele>
        <time>2022-08-14T04:49:34Z</time>
      </trkpt>
      <trkpt lat="43.13724" lon="5.77602">
        <ele>15.172353</ele>
        <time>2022-08-14T04:49:36Z</time>
      </trkpt>
      <trkpt lat="43.13736" lon="5.77582">
        <ele>15.292562</ele>
        <time>2022-08-14T04:49:38Z</time>
      </trkpt>
      <trkpt lat="43.13748" lon="5.7756">
        <ele>15.487164</ele>
        <time>2022-08-14T04:49:40Z</time>
      </trkpt>
      <trkpt lat="43.13759" lon="5.77539">
        <ele>15.556088</ele>
        <time>2022-08-14T04:49:42Z</time>
      </trkpt>
      <trkpt lat="43.13769" lon="5.77518">
        <ele>15.598082</ele>
        <time>2022-08-14T04:49:44Z</time>
      </trkpt>
      <trkpt lat="43.13779" lon="5.77497">
        <ele>15.619746</ele>
        <time>2022-08-14T04:49:46Z</time>
      </trkpt>
      <trkpt lat="43.13788" lon="5.77477">
        <ele>15.572662</ele>
        <time>2022-08-14T04:49:48Z</time>
      </trkpt>
      <trkpt lat="43.13796" lon="5.77457">
        <ele>15.420023</ele>
        <time>2022-08-14T04:49:50Z</time>
      </trkpt>
      <trkpt lat="43.13805" lon="5.77437">
        <ele>15.310732</ele>
        <time>2022-08-14T04:49:52Z</time>
      </trkpt>
      <trkpt lat="43.13813" lon="5.77418">
        <ele>15.011744</ele>
        <time>2022-08-14T04:49:54Z</time>
      </trkpt>
      <trkpt lat="43.13821" lon="5.77398">
        <ele>15.011744</ele>
        <time>2022-08-14T04:49:56Z</time>
      </trkpt>
      <trkpt lat="43.13829" lon="5.77378">
        <ele>14.632276</ele>
        <time>2022-08-14T04:49:58Z</time>
      </trkpt>
      <trkpt lat="43.13836" lon="5.77357">
        <ele>14.421545</ele>
        <time>2022-08-14T04:50:00Z</time>
      </trkpt>
      <trkpt lat="43.13842" lon="5.77337">
        <ele>13.96734</ele>
        <time>2022-08-14T04:50:02Z</time>
      </trkpt>
      <trkpt lat="43.13849" lon="5.77317">
        <ele>13.738562</ele>
        <time>2022-08-14T04:50:04Z</time>
      </trkpt>
      <trkpt lat="43.13856" lon="5.77297">
        <ele>13.288895</ele>
        <time>2022-08-14T04:50:06Z</time>
      </trkpt>
      <trkpt lat="43.13862" lon="5.77277">
        <ele>12.907376</ele>
        <time>2022-08-14T04:50:08Z</time>
      </trkpt>
      <trkpt lat="43.13866" lon="5.77255">
        <ele>12.550381</ele>
        <time>2022-08-14T04:50:10Z</time>
      </trkpt>
      <trkpt lat="43.13872" lon="5.77235">
        <ele>12.374277</ele>
        <time>2022-08-14T04:50:12Z</time>
      </trkpt>
      <trkpt lat="43.13878" lon="5.77215">
        <ele>12.010886</ele>
        <time>2022-08-14T04:50:14Z</time>
      </trkpt>
      <trkpt lat="43.13884" lon="5.77195">
        <ele>11.818291</ele>
        <time>2022-08-14T04:50:16Z</time>
      </trkpt>
      <trkpt lat="43.13889" lon="5.77174">
        <ele>11.407055</ele>
        <time>2022-08-14T04:50:18Z</time>
      </trkpt>
      <trkpt lat="43.13895" lon="5.77154">
        <ele>11.18297</ele>
        <time>2022-08-14T04:50:20Z</time>
      </trkpt>
      <trkpt lat="43.139" lon="5.77134">
        <ele>10.948376</ele>
        <time>2022-08-14T04:50:22Z</time>
      </trkpt>
      <trkpt lat="43.13906" lon="5.77115">
        <ele>10.460474</ele>
        <time>2022-08-14T04:50:24Z</time>
      </trkpt>
      <trkpt lat="43.13911" lon="5.77096">
        <ele>10.213763</ele>
        <time>2022-08-14T04:50:26Z</time>
      </trkpt>
      <trkpt lat="43.13916" lon="5.77078">
        <ele>9.955912</ele>
        <time>2022-08-14T04:50:28Z</time>
      </trkpt>
      <trkpt lat="43.1392" lon="5.77061">
        <ele>9.192454</ele>
        <time>2022-08-14T04:50:30Z</time>
      </trkpt>
      <trkpt lat="43.13926" lon="5.77046">
        <ele>8.938761</ele>
        <time>2022-08-14T04:50:32Z</time>
      </trkpt>
      <trkpt lat="43.13937" lon="5.7704">
        <ele>8.695069</ele>
        <time>2022-08-14T04:50:34Z</time>
      </trkpt>
      <trkpt lat="43.13949" lon="5.77043">
        <ele>8.238329</ele>
        <time>2022-08-14T04:50:36Z</time>
      </trkpt>
      <trkpt lat="43.13961" lon="5.77047">
        <ele>8.03224</ele>
        <time>2022-08-14T04:50:38Z</time>
      </trkpt>
      <trkpt lat="43.13972" lon="5.77056">
        <ele>7.674664</ele>
        <time>2022-08-14T04:50:40Z</time>
      </trkpt>
      <trkpt lat="43.13981" lon="5.77068">
        <ele>7.523847</ele>
        <time>2022-08-14T04:50:42Z</time>
      </trkpt>
      <trkpt lat="43.13989" lon="5.77082">
        <ele>7.316067</ele>
        <time>2022-08-14T04:50:44Z</time>
      </trkpt>
      <trkpt lat="43.13997" lon="5.77097">
        <ele>7.254964</ele>
        <time>2022-08-14T04:50:46Z</time>
      </trkpt>
      <trkpt lat="43.14004" lon="5.77111">
        <ele>7.239134</ele>
        <time>2022-08-14T04:50:48Z</time>
      </trkpt>
      <trkpt lat="43.14011" lon="5.77126">
        <ele>7.282641</ele>
        <time>2022-08-14T04:50:50Z</time>
      </trkpt>
      <trkpt lat="43.1402" lon="5.77139">
        <ele>7.457643</ele>
        <time>2022-08-14T04:50:52Z</time>
      </trkpt>
      <trkpt lat="43.14029" lon="5.77148">
        <ele>7.587744</ele>
        <time>2022-08-14T04:50:54Z</time>
      </trkpt>
      <trkpt lat="43.14039" lon="5.77154">
        <ele>7.748281</ele>
        <time>2022-08-14T04:50:56Z</time>
      </trkpt>
      <trkpt lat="43.14052" lon="5.77158">
        <ele>8.14305</ele>
        <time>2022-08-14T04:50:58Z</time>
      </trkpt>
      <trkpt lat="43.14064" lon="5.77162">
        <ele>8.376472</ele>
        <time>2022-08-14T04:51:00Z</time>
      </trkpt>
      <trkpt lat="43.14077" lon="5.7716">
        <ele>8.902094</ele>
        <time>2022-08-14T04:51:02Z</time>
      </trkpt>
      <trkpt lat="43.1409" lon="5.77156">
        <ele>9.202245</ele>
        <time>2022-08-14T04:51:04Z</time>
      </trkpt>
      <trkpt lat="43.14101" lon="5.77149">
        <ele>9.8532</ele>
        <time>2022-08-14T04:51:06Z</time>
      </trkpt>
      <trkpt lat="43.14112" lon="5.77138">
        <ele>10.207536</ele>
        <time>2022-08-14T04:51:08Z</time>
      </trkpt>
      <trkpt lat="43.14121" lon="5.77126">
        <ele>10.954041</ele>
        <time>2022-08-14T04:51:10Z</time>
      </trkpt>
      <trkpt lat="43.14129" lon="5.77112">
        <ele>11.342133</ele>
        <time>2022-08-14T04:51:12Z</time>
      </trkpt>
      <trkpt lat="43.14136" lon="5.77097">
        <ele>12.140142</ele>
        <time>2022-08-14T04:51:14Z</time>
      </trkpt>
      <trkpt lat="43.14143" lon="5.77082">
        <ele>12.544333</ele>
        <time>2022-08-14T04:51:16Z</time>
      </trkpt>
      <trkpt lat="43.14149" lon="5.77067">
        <ele>13.359945</ele>
        <time>2022-08-14T04:51:18Z</time>
      </trkpt>
      <trkpt lat="43.14155" lon="5.77051">
        <ele>14.172022</ele>
        <time>2022-08-14T04:51:20Z</time>
      </trkpt>
      <trkpt lat="43.14162" lon="5.77035">
        <ele>14.576001</ele>
        <time>2022-08-14T04:51:22Z</time>
      </trkpt>
      <trkpt lat="43.14168" lon="5.77019">
        <ele>14.97747</ele>
        <time>2022-08-14T04:51:24Z</time>
      </trkpt>
      <trkpt lat="43.14174" lon="5.77003">
        <ele>15.802282</ele>
        <time>2022-08-14T04:51:26Z</time>
      </trkpt>
      <trkpt lat="43.1418" lon="5.76987">
        <ele>16.222065</ele>
        <time>2022-08-14T04:51:28Z</time>
      </trkpt>
      <trkpt lat="43.14185" lon="5.76971">
        <ele>17.076567</ele>
        <time>2022-08-14T04:51:30Z</time>
      </trkpt>
      <trkpt lat="43.1419" lon="5.76955">
        <ele>17.957624</ele>
        <time>2022-08-14T04:51:32Z</time>
      </trkpt>
      <trkpt lat="43.14196" lon="5.76941">
        <ele>18.414768</ele>
        <time>2022-08-14T04:51:34Z</time>
      </trkpt>
      <trkpt lat="43.14201" lon="5.76926">
        <ele>19.375015</ele>
        <time>2022-08-14T04:51:36Z</time>
      </trkpt>
      <trkpt lat="43.14207" lon="5.76911">
        <ele>19.868723</ele>
        <time>2022-08-14T04:51:38Z</time>
      </trkpt>
      <trkpt lat="43.14212" lon="5.76897">
        <ele>20.903778</ele>
        <time>2022-08-14T04:51:40Z</time>
      </trkpt>
      <trkpt lat="43.14221" lon="5.76887">
        <ele>21.443771</ele>
        <time>2022-08-14T04:51:42Z</time>
      </trkpt>
      <trkpt lat="43.14232" lon="5.76883">
        <ele>21.995321</ele>
        <time>2022-08-14T04:51:44Z</time>
      </trkpt>
      <trkpt lat="43.14243" lon="5.76878">
        <ele>23.117542</ele>
        <time>2022-08-14T04:51:46Z</time>
      </trkpt>
      <trkpt lat="43.14253" lon="5.76868">
        <ele>23.678905</ele>
        <time>2022-08-14T04:51:48Z</time>
      </trkpt>
      <trkpt lat="43.14258" lon="5.76854">
        <ele>24.773726</ele>
        <time>2022-08-14T04:51:50Z</time>
      </trkpt>
      <trkpt lat="43.14261" lon="5.76838">
        <ele>25.807453</ele>
        <time>2022-08-14T04:51:52Z</time>
      </trkpt>
      <trkpt lat="43.14265" lon="5.76823">
        <ele>26.76589</ele>
        <time>2022-08-14T04:51:54Z</time>
      </trkpt>
      <trkpt lat="43.14273" lon="5.76809">
        <ele>27.655996</ele>
        <time>2022-08-14T04:51:56Z</time>
      </trkpt>
      <trkpt lat="43.14283" lon="5.76799">
        <ele>28.075649</ele>
        <time>2022-08-14T04:51:58Z</time>
      </trkpt>
      <trkpt lat="43.14294" lon="5.7679">
        <ele>28.478262</ele>
        <time>2022-08-14T04:52:00Z</time>
      </trkpt>
      <trkpt lat="43.14304" lon="5.76784">
        <ele>28.865246</ele>
        <time>2022-08-14T04:52:02Z</time>
      </trkpt>
      <trkpt lat="43.14317" lon="5.7678">
        <ele>29.565893</ele>
        <time>2022-08-14T04:52:04Z</time>
      </trkpt>
      <trkpt lat="43.14329" lon="5.76778">
        <ele>29.859669</ele>
        <time>2022-08-14T04:52:06Z</time>
      </trkpt>
      <trkpt lat="43.14341" lon="5.76776">
        <ele>30.105961</ele>
        <time>2022-08-14T04:52:08Z</time>
      </trkpt>
      <trkpt lat="43.14353" lon="5.76775">
        <ele>30.452755</ele>
        <time>2022-08-14T04:52:10Z</time>
      </trkpt>
      <trkpt lat="43.14366" lon="5.76775">
        <ele>30.567633</ele>
        <time>2022-08-14T04:52:12Z</time>
      </trkpt>
      <trkpt lat="43.14378" lon="5.76774">
        <ele>30.656591</ele>
        <time>2022-08-14T04:52:14Z</time>
      </trkpt>
      <trkpt lat="43.14391" lon="5.76775">
        <ele>30.62991</ele>
        <time>2022-08-14T04:52:16Z</time>
      </trkpt>
      <trkpt lat="43.14405" lon="5.76777">
        <ele>30.575357</ele>
        <time>2022-08-14T04:52:18Z</time>
      </trkpt>
      <trkpt lat="43.14417" lon="5.76778">
        <ele>30.38023</ele>
        <time>2022-08-14T04:52:20Z</time>
      </trkpt>
      <trkpt lat="43.14428" lon="5.76779">
        <ele>30.248669</ele>
        <time>2022-08-14T04:52:22Z</time>
      </trkpt>
      <trkpt lat="43.14439" lon="5.76783">
        <ele>30.085135</ele>
        <time>2022-08-14T04:52:24Z</time>
      </trkpt>
      <trkpt lat="43.1445" lon="5.76786">
        <ele>29.691126</ele>
        <time>2022-08-14T04:52:26Z</time>
      </trkpt>
      <trkpt lat="43.14462" lon="5.76789">
        <ele>29.459467</ele>
        <time>2022-08-14T04:52:28Z</time>
      </trkpt>
      <trkpt lat="43.14473" lon="5.76791">
        <ele>29.195745</ele>
        <time>2022-08-14T04:52:30Z</time>
      </trkpt>
      <trkpt lat="43.14487" lon="5.76794">
        <ele>28.584244</ele>
        <time>2022-08-14T04:52:32Z</time>
      </trkpt>
      <trkpt lat="43.145" lon="5.76797">
        <ele>28.238022</ele>
        <time>2022-08-14T04:52:34Z</time>
      </trkpt>
      <trkpt lat="43.14513" lon="5.76801">
        <ele>27.460073</ele>
        <time>2022-08-14T04:52:36Z</time>
      </trkpt>
      <trkpt lat="43.14525" lon="5.76799">
        <ele>27.032177</ele>
        <time>2022-08-14T04:52:38Z</time>
      </trkpt>
      <trkpt lat="43.14535" lon="5.7679">
        <ele>26.114262</ele>
        <time>2022-08-14T04:52:40Z</time>
      </trkpt>
      <trkpt lat="43.14543" lon="5.76779">
        <ele>25.632267</ele>
        <time>2022-08-14T04:52:42Z</time>
      </trkpt>
      <trkpt lat="43.14552" lon="5.76769">
        <ele>24.651648</ele>
        <time>2022-08-14T04:52:44Z</time>
      </trkpt>
      <trkpt lat="43.1456" lon="5.76758">
        <ele>24.164545</ele>
        <time>2022-08-14T04:52:46Z</time>
      </trkpt>
      <trkpt lat="43.14568" lon="5.76746">
        <ele>23.690397</ele>
        <time>2022-08-14T04:52:48Z</time>
      </trkpt>
      <trkpt lat="43.14575" lon="5.76733">
        <ele>22.796316</ele>
        <time>2022-08-14T04:52:50Z</time>
      </trkpt>
      <trkpt lat="43.1458" lon="5.76719">
        <ele>22.384222</ele>
        <time>2022-08-14T04:52:52Z</time>
      </trkpt>
      <trkpt lat="43.14586" lon="5.76704">
        <ele>21.643398</ele>
        <time>2022-08-14T04:52:54Z</time>
      </trkpt>
      <trkpt lat="43.14591" lon="5.76689">
        <ele>21.318674</ele>
        <time>2022-08-14T04:52:56Z</time>
      </trkpt>
      <trkpt lat="43.14595" lon="5.76674">
        <ele>20.776354</ele>
        <time>2022-08-14T04:52:58Z</time>
      </trkpt>
      <trkpt lat="43.14599" lon="5.76659">
        <ele>20.41515</ele>
        <time>2022-08-14T04:53:00Z</time>
      </trkpt>
      <trkpt lat="43.14603" lon="5.76643">
        <ele>20.333721</ele>
        <time>2022-08-14T04:53:02Z</time>
      </trkpt>
      <trkpt lat="43.14607" lon="5.76628">
        <ele>20.362469</ele>
        <time>2022-08-14T04:53:04Z</time>
      </trkpt>
      <trkpt lat="43.14612" lon="5.76612">
        <ele>20.626682</ele>
        <time>2022-08-14T04:53:06Z</time>
      </trkpt>
      <trkpt lat="43.14619" lon="5.76598">
        <ele>21.129229</ele>
        <time>2022-08-14T04:53:08Z</time>
      </trkpt>
      <trkpt lat="43.14626" lon="5.76584">
        <ele>21.793667</ele>
        <time>2022-08-14T04:53:10Z</time>
      </trkpt>
      <trkpt lat="43.14636" lon="5.76572">
        <ele>22.189253</ele>
        <time>2022-08-14T04:53:12Z</time>
      </trkpt>
      <trkpt lat="43.14646" lon="5.7656">
        <ele>22.628887</ele>
        <time>2022-08-14T04:53:14Z</time>
      </trkpt>
      <trkpt lat="43.14657" lon="5.7655">
        <ele>23.625393</ele>
        <time>2022-08-14T04:53:16Z</time>
      </trkpt>
      <trkpt lat="43.14669" lon="5.76541">
        <ele>24.171972</ele>
        <time>2022-08-14T04:53:18Z</time>
      </trkpt>
      <trkpt lat="43.14679" lon="5.76532">
        <ele>25.331585</ele>
        <time>2022-08-14T04:53:20Z</time>
      </trkpt>
      <trkpt lat="43.1469" lon="5.76524">
        <ele>25.930273</ele>
        <time>2022-08-14T04:53:22Z</time>
      </trkpt>
      <trkpt lat="43.14702" lon="5.76516">
        <ele>27.147772</ele>
        <time>2022-08-14T04:53:24Z</time>
      </trkpt>
      <trkpt lat="43.14713" lon="5.76509">
        <ele>27.758453</ele>
        <time>2022-08-14T04:53:26Z</time>
      </trkpt>
      <trkpt lat="43.14724" lon="5.76501">
        <ele>28.366312</ele>
        <time>2022-08-14T04:53:28Z</time>
      </trkpt>
      <trkpt lat="43.14736" lon="5.76495">
        <ele>29.567764</ele>
        <time>2022-08-14T04:53:30Z</time>
      </trkpt>
      <trkpt lat="43.14747" lon="5.76488">
        <ele>30.160929</ele>
        <time>2022-08-14T04:53:32Z</time>
      </trkpt>
      <trkpt lat="43.14759" lon="5.76482">
        <ele>31.331318</ele>
        <time>2022-08-14T04:53:34Z</time>
      </trkpt>
      <trkpt lat="43.14771" lon="5.76477">
        <ele>32.471489</ele>
        <time>2022-08-14T04:53:36Z</time>
      </trkpt>
      <trkpt lat="43.14783" lon="5.76472">
        <ele>33.021011</ele>
        <time>2022-08-14T04:53:38Z</time>
      </trkpt>
      <trkpt lat="43.14795" lon="5.76468">
        <ele>33.550011</ele>
        <time>2022-08-14T04:53:40Z</time>
      </trkpt>
      <trkpt lat="43.14807" lon="5.76465">
        <ele>34.516289</ele>
        <time>2022-08-14T04:53:42Z</time>
      </trkpt>
      <trkpt lat="43.14819" lon="5.76463">
        <ele>34.940773</ele>
        <time>2022-08-14T04:53:44Z</time>
      </trkpt>
      <trkpt lat="43.14831" lon="5.76462">
        <ele>35.649677</ele>
        <time>2022-08-14T04:53:46Z</time>
      </trkpt>
      <trkpt lat="43.14843" lon="5.76461">
        <ele>35.928902</ele>
        <time>2022-08-14T04:53:48Z</time>
      </trkpt>
      <trkpt lat="43.14856" lon="5.7646">
        <ele>36.322594</ele>
        <time>2022-08-14T04:53:50Z</time>
      </trkpt>
      <trkpt lat="43.14867" lon="5.76458">
        <ele>36.452297</ele>
        <time>2022-08-14T04:53:52Z</time>
      </trkpt>
      <trkpt lat="43.14879" lon="5.76455">
        <ele>36.551479</ele>
        <time>2022-08-14T04:53:54Z</time>
      </trkpt>
      <trkpt lat="43.14889" lon="5.7645">
        <ele>36.520168</ele>
        <time>2022-08-14T04:53:56Z</time>
      </trkpt>
      <trkpt lat="43.149" lon="5.76445">
        <ele>36.446609</ele>
        <time>2022-08-14T04:53:58Z</time>
      </trkpt>
      <trkpt lat="43.14912" lon="5.76444">
        <ele>36.151836</ele>
        <time>2022-08-14T04:54:00Z</time>
      </trkpt>
      <trkpt lat="43.14924" lon="5.76446">
        <ele>35.935436</ele>
        <time>2022-08-14T04:54:02Z</time>
      </trkpt>
      <trkpt lat="43.14935" lon="5.76451">
        <ele>35.378929</ele>
        <time>2022-08-14T04:54:04Z</time>
      </trkpt>
      <trkpt lat="43.14945" lon="5.76458">
        <ele>35.043274</ele>
        <time>2022-08-14T04:54:06Z</time>
      </trkpt>
      <trkpt lat="43.14951" lon="5.76462">
        <ele>34.251842</ele>
        <time>2022-08-14T04:54:08Z</time>
      </trkpt>
      <trkpt lat="43.14961" lon="5.76468">
        <ele>33.789406</ele>
        <time>2022-08-14T04:54:10Z</time>
      </trkpt>
      <trkpt lat="43.14974" lon="5.76474">
        <ele>32.761463</ele>
        <time>2022-08-14T04:54:12Z</time>
      </trkpt>
      <trkpt lat="43.14986" lon="5.76478">
        <ele>32.208313</ele>
        <time>2022-08-14T04:54:14Z</time>
      </trkpt>
      <trkpt lat="43.15" lon="5.76482">
        <ele>31.059605</ele>
        <time>2022-08-14T04:54:16Z</time>
      </trkpt>
      <trkpt lat="43.15014" lon="5.76486">
        <ele>30.476383</ele>
        <time>2022-08-14T04:54:18Z</time>
      </trkpt>
      <trkpt lat="43.15027" lon="5.76489">
        <ele>29.892843</ele>
        <time>2022-08-14T04:54:20Z</time>
      </trkpt>
      <trkpt lat="43.15039" lon="5.7649">
        <ele>28.753139</ele>
        <time>2022-08-14T04:54:22Z</time>
      </trkpt>
      <trkpt lat="43.15052" lon="5.76488">
        <ele>28.200214</ele>
        <time>2022-08-14T04:54:24Z</time>
      </trkpt>
      <trkpt lat="43.15064" lon="5.76485">
        <ele>27.156315</ele>
        <time>2022-08-14T04:54:26Z</time>
      </trkpt>
      <trkpt lat="43.15076" lon="5.76481">
        <ele>26.197592</ele>
        <time>2022-08-14T04:54:28Z</time>
      </trkpt>
      <trkpt lat="43.15086" lon="5.76478">
        <ele>25.757175</ele>
        <time>2022-08-14T04:54:30Z</time>
      </trkpt>
      <trkpt lat="43.15102" lon="5.76472">
        <ele>24.96126</ele>
        <time>2022-08-14T04:54:33Z</time>
      </trkpt>
      <trkpt lat="43.15112" lon="5.76467">
        <ele>24.280149</ele>
        <time>2022-08-14T04:54:35Z</time>
      </trkpt>
      <trkpt lat="43.15122" lon="5.76461">
        <ele>23.990862</ele>
        <time>2022-08-14T04:54:37Z</time>
      </trkpt>
      <trkpt lat="43.15131" lon="5.76454">
        <ele>23.508198</ele>
        <time>2022-08-14T04:54:39Z</time>
      </trkpt>
      <trkpt lat="43.15141" lon="5.76448">
        <ele>23.330923</ele>
        <time>2022-08-14T04:54:41Z</time>
      </trkpt>
      <trkpt lat="43.15152" lon="5.76441">
        <ele>23.103409</ele>
        <time>2022-08-14T04:54:43Z</time>
      </trkpt>
      <trkpt lat="43.15163" lon="5.76432">
        <ele>23.056555</ele>
        <time>2022-08-14T04:54:45Z</time>
      </trkpt>
      <trkpt lat="43.15174" lon="5.76422">
        <ele>23.052803</ele>
        <time>2022-08-14T04:54:47Z</time>
      </trkpt>
      <trkpt lat="43.15184" lon="5.76413">
        <ele>23.187696</ele>
        <time>2022-08-14T04:54:49Z</time>
      </trkpt>
      <trkpt lat="43.15195" lon="5.76404">
        <ele>23.504967</ele>
        <time>2022-08-14T04:54:51Z</time>
      </trkpt>
      <trkpt lat="43.15205" lon="5.76395">
        <ele>23.735313</ele>
        <time>2022-08-14T04:54:53Z</time>
      </trkpt>
      <trkpt lat="43.15215" lon="5.76387">
        <ele>24.016741</ele>
        <time>2022-08-14T04:54:55Z</time>
      </trkpt>
      <trkpt lat="43.15225" lon="5.7638">
        <ele>24.345583</ele>
        <time>2022-08-14T04:54:57Z</time>
      </trkpt>
      <trkpt lat="43.15234" lon="5.76374">
        <ele>25.091824</ele>
        <time>2022-08-14T04:54:59Z</time>
      </trkpt>
      <trkpt lat="43.15244" lon="5.7637">
        <ele>25.952053</ele>
        <time>2022-08-14T04:55:01Z</time>
      </trkpt>
      <trkpt lat="43.15254" lon="5.76367">
        <ele>26.912603</ele>
        <time>2022-08-14T04:55:03Z</time>
      </trkpt>
      <trkpt lat="43.15264" lon="5.76364">
        <ele>27.424469</ele>
        <time>2022-08-14T04:55:05Z</time>
      </trkpt>
      <trkpt lat="43.15275" lon="5.7636">
        <ele>27.948053</ele>
        <time>2022-08-14T04:55:07Z</time>
      </trkpt>
      <trkpt lat="43.15287" lon="5.76356">
        <ele>29.022717</ele>
        <time>2022-08-14T04:55:09Z</time>
      </trkpt>
      <trkpt lat="43.153" lon="5.76355">
        <ele>29.562546</ele>
        <time>2022-08-14T04:55:11Z</time>
      </trkpt>
      <trkpt lat="43.15311" lon="5.76357">
        <ele>30.098043</ele>
        <time>2022-08-14T04:55:13Z</time>
      </trkpt>
      <trkpt lat="43.15323" lon="5.76359">
        <ele>30.625381</ele>
        <time>2022-08-14T04:55:15Z</time>
      </trkpt>
      <trkpt lat="43.15334" lon="5.76363">
        <ele>31.631302</ele>
        <time>2022-08-14T04:55:17Z</time>
      </trkpt>
      <trkpt lat="43.15345" lon="5.76367">
        <ele>32.111931</ele>
        <time>2022-08-14T04:55:19Z</time>
      </trkpt>
      <trkpt lat="43.15358" lon="5.76369">
        <ele>32.564846</ele>
        <time>2022-08-14T04:55:21Z</time>
      </trkpt>
      <trkpt lat="43.15372" lon="5.76369">
        <ele>33.406586</ele>
        <time>2022-08-14T04:55:23Z</time>
      </trkpt>
      <trkpt lat="43.15387" lon="5.7637">
        <ele>33.793224</ele>
        <time>2022-08-14T04:55:25Z</time>
      </trkpt>
      <trkpt lat="43.15402" lon="5.76374">
        <ele>34.144299</ele>
        <time>2022-08-14T04:55:27Z</time>
      </trkpt>
      <trkpt lat="43.15416" lon="5.76377">
        <ele>34.460167</ele>
        <time>2022-08-14T04:55:29Z</time>
      </trkpt>
      <trkpt lat="43.15429" lon="5.76379">
        <ele>34.994652</ele>
        <time>2022-08-14T04:55:31Z</time>
      </trkpt>
      <trkpt lat="43.15442" lon="5.76381">
        <ele>35.227085</ele>
        <time>2022-08-14T04:55:33Z</time>
      </trkpt>
      <trkpt lat="43.15453" lon="5.76384">
        <ele>35.598068</ele>
        <time>2022-08-14T04:55:35Z</time>
      </trkpt>
      <trkpt lat="43.15465" lon="5.76387">
        <ele>35.851387</ele>
        <time>2022-08-14T04:55:37Z</time>
      </trkpt>
      <trkpt lat="43.15477" lon="5.76389">
        <ele>35.932541</ele>
        <time>2022-08-14T04:55:39Z</time>
      </trkpt>
      <trkpt lat="43.15488" lon="5.76392">
        <ele>35.996468</ele>
        <time>2022-08-14T04:55:41Z</time>
      </trkpt>
      <trkpt lat="43.155" lon="5.76395">
        <ele>36.032585</ele>
        <time>2022-08-14T04:55:43Z</time>
      </trkpt>
      <trkpt lat="43.15511" lon="5.76397">
        <ele>36.014347</ele>
        <time>2022-08-14T04:55:45Z</time>
      </trkpt>
      <trkpt lat="43.15523" lon="5.76399">
        <ele>35.91539</ele>
        <time>2022-08-14T04:55:47Z</time>
      </trkpt>
      <trkpt lat="43.15535" lon="5.76402">
        <ele>35.831936</ele>
        <time>2022-08-14T04:55:49Z</time>
      </trkpt>
      <trkpt lat="43.15547" lon="5.76404">
        <ele>35.721798</ele>
        <time>2022-08-14T04:55:51Z</time>
      </trkpt>
      <trkpt lat="43.15559" lon="5.76407">
        <ele>35.584682</ele>
        <time>2022-08-14T04:55:53Z</time>
      </trkpt>
      <trkpt lat="43.15571" lon="5.7641">
        <ele>35.424641</ele>
        <time>2022-08-14T04:55:55Z</time>
      </trkpt>
      <trkpt lat="43.15583" lon="5.76412">
        <ele>35.079399</ele>
        <time>2022-08-14T04:55:57Z</time>
      </trkpt>
      <trkpt lat="43.15594" lon="5.76415">
        <ele>34.897366</ele>
        <time>2022-08-14T04:55:59Z</time>
      </trkpt>
      <trkpt lat="43.15606" lon="5.76418">
        <ele>34.702366</ele>
        <time>2022-08-14T04:56:01Z</time>
      </trkpt>
      <trkpt lat="43.15617" lon="5.7642">
        <ele>34.501549</ele>
        <time>2022-08-14T04:56:03Z</time>
      </trkpt>
      <trkpt lat="43.15628" lon="5.7642">
        <ele>34.109047</ele>
        <time>2022-08-14T04:56:05Z</time>
      </trkpt>
      <trkpt lat="43.15637" lon="5.76419">
        <ele>33.914219</ele>
        <time>2022-08-14T04:56:07Z</time>
      </trkpt>
      <trkpt lat="43.15648" lon="5.7642">
        <ele>33.726357</ele>
        <time>2022-08-14T04:56:09Z</time>
      </trkpt>
      <trkpt lat="43.15661" lon="5.7642">
        <ele>33.549675</ele>
        <time>2022-08-14T04:56:11Z</time>
      </trkpt>
      <trkpt lat="43.15673" lon="5.76422">
        <ele>33.222496</ele>
        <time>2022-08-14T04:56:13Z</time>
      </trkpt>
      <trkpt lat="43.15686" lon="5.76427">
        <ele>33.078156</ele>
        <time>2022-08-14T04:56:15Z</time>
      </trkpt>
      <trkpt lat="43.15698" lon="5.76434">
        <ele>32.842068</ele>
        <time>2022-08-14T04:56:17Z</time>
      </trkpt>
      <trkpt lat="43.15709" lon="5.76442">
        <ele>32.747231</ele>
        <time>2022-08-14T04:56:19Z</time>
      </trkpt>
      <trkpt lat="43.1572" lon="5.7645">
        <ele>32.629555</ele>
        <time>2022-08-14T04:56:21Z</time>
      </trkpt>
      <trkpt lat="43.1573" lon="5.76458">
        <ele>32.6036</ele>
        <time>2022-08-14T04:56:23Z</time>
      </trkpt>
      <trkpt lat="43.15739" lon="5.76466">
        <ele>32.629524</ele>
        <time>2022-08-14T04:56:25Z</time>
      </trkpt>
      <trkpt lat="43.15749" lon="5.76473">
        <ele>32.684441</ele>
        <time>2022-08-14T04:56:27Z</time>
      </trkpt>
      <trkpt lat="43.15759" lon="5.7648">
        <ele>32.879738</ele>
        <time>2022-08-14T04:56:29Z</time>
      </trkpt>
      <trkpt lat="43.15768" lon="5.76486">
        <ele>33.004059</ele>
        <time>2022-08-14T04:56:31Z</time>
      </trkpt>
      <trkpt lat="43.15777" lon="5.76492">
        <ele>33.330452</ele>
        <time>2022-08-14T04:56:33Z</time>
      </trkpt>
      <trkpt lat="43.15787" lon="5.76498">
        <ele>33.527298</ele>
        <time>2022-08-14T04:56:35Z</time>
      </trkpt>
      <trkpt lat="43.15797" lon="5.76502">
        <ele>33.730827</ele>
        <time>2022-08-14T04:56:37Z</time>
      </trkpt>
      <trkpt lat="43.15807" lon="5.76507">
        <ele>34.184113</ele>
        <time>2022-08-14T04:56:39Z</time>
      </trkpt>
      <trkpt lat="43.15817" lon="5.76511">
        <ele>34.66647</ele>
        <time>2022-08-14T04:56:41Z</time>
      </trkpt>
      <trkpt lat="43.15827" lon="5.76514">
        <ele>34.913303</ele>
        <time>2022-08-14T04:56:43Z</time>
      </trkpt>
      <trkpt lat="43.15837" lon="5.76514">
        <ele>35.159996</ele>
        <time>2022-08-14T04:56:45Z</time>
      </trkpt>
      <trkpt lat="43.15846" lon="5.76513">
        <ele>35.647816</ele>
        <time>2022-08-14T04:56:47Z</time>
      </trkpt>
      <trkpt lat="43.15854" lon="5.76512">
        <ele>35.647816</ele>
        <time>2022-08-14T04:56:49Z</time>
      </trkpt>
      <trkpt lat="43.15863" lon="5.7651">
        <ele>36.118111</ele>
        <time>2022-08-14T04:56:51Z</time>
      </trkpt>
      <trkpt lat="43.15872" lon="5.76509">
        <ele>36.343273</ele>
        <time>2022-08-14T04:56:53Z</time>
      </trkpt>
      <trkpt lat="43.15881" lon="5.76508">
        <ele>36.559986</ele>
        <time>2022-08-14T04:56:55Z</time>
      </trkpt>
      <trkpt lat="43.1589" lon="5.76503">
        <ele>36.770618</ele>
        <time>2022-08-14T04:56:57Z</time>
      </trkpt>
      <trkpt lat="43.15897" lon="5.76496">
        <ele>37.164452</ele>
        <time>2022-08-14T04:56:59Z</time>
      </trkpt>
      <trkpt lat="43.15903" lon="5.76487">
        <ele>37.352062</ele>
        <time>2022-08-14T04:57:01Z</time>
      </trkpt>
      <trkpt lat="43.15909" lon="5.76477">
        <ele>37.535229</ele>
        <time>2022-08-14T04:57:03Z</time>
      </trkpt>
      <trkpt lat="43.15914" lon="5.76466">
        <ele>37.899609</ele>
        <time>2022-08-14T04:57:05Z</time>
      </trkpt>
      <trkpt lat="43.15919" lon="5.76454">
        <ele>38.07497</ele>
        <time>2022-08-14T04:57:07Z</time>
      </trkpt>
      <trkpt lat="43.15925" lon="5.76441">
        <ele>38.444538</ele>
        <time>2022-08-14T04:57:09Z</time>
      </trkpt>
      <trkpt lat="43.15931" lon="5.76426">
        <ele>38.656239</ele>
        <time>2022-08-14T04:57:11Z</time>
      </trkpt>
      <trkpt lat="43.15939" lon="5.76413">
        <ele>38.889271</ele>
        <time>2022-08-14T04:57:13Z</time>
      </trkpt>
      <trkpt lat="43.15949" lon="5.76402">
        <ele>39.148018</ele>
        <time>2022-08-14T04:57:15Z</time>
      </trkpt>
      <trkpt lat="43.15959" lon="5.76392">
        <ele>39.733479</ele>
        <time>2022-08-14T04:57:17Z</time>
      </trkpt>
      <trkpt lat="43.15969" lon="5.76385">
        <ele>40.066032</ele>
        <time>2022-08-14T04:57:19Z</time>
      </trkpt>
      <trkpt lat="43.1598" lon="5.76379">
        <ele>40.435883</ele>
        <time>2022-08-14T04:57:21Z</time>
      </trkpt>
      <trkpt lat="43.15992" lon="5.76374">
        <ele>40.838226</ele>
        <time>2022-08-14T04:57:23Z</time>
      </trkpt>
      <trkpt lat="43.16004" lon="5.76371">
        <ele>41.742634</ele>
        <time>2022-08-14T04:57:25Z</time>
      </trkpt>
      <trkpt lat="43.16015" lon="5.76368">
        <ele>42.219666</ele>
        <time>2022-08-14T04:57:27Z</time>
      </trkpt>
      <trkpt lat="43.16026" lon="5.76367">
        <ele>43.185169</ele>
        <time>2022-08-14T04:57:29Z</time>
      </trkpt>
      <trkpt lat="43.16037" lon="5.76368">
        <ele>43.679054</ele>
        <time>2022-08-14T04:57:31Z</time>
      </trkpt>
      <trkpt lat="43.16048" lon="5.76368">
        <ele>44.171486</ele>
        <time>2022-08-14T04:57:33Z</time>
      </trkpt>
      <trkpt lat="43.1606" lon="5.76372">
        <ele>45.144333</ele>
        <time>2022-08-14T04:57:35Z</time>
      </trkpt>
      <trkpt lat="43.16071" lon="5.76375">
        <ele>46.092724</ele>
        <time>2022-08-14T04:57:37Z</time>
      </trkpt>
      <trkpt lat="43.16082" lon="5.76379">
        <ele>46.553677</ele>
        <time>2022-08-14T04:57:39Z</time>
      </trkpt>
      <trkpt lat="43.16093" lon="5.76383">
        <ele>46.995659</ele>
        <time>2022-08-14T04:57:41Z</time>
      </trkpt>
      <trkpt lat="43.16104" lon="5.76388">
        <ele>47.421516</ele>
        <time>2022-08-14T04:57:43Z</time>
      </trkpt>
      <trkpt lat="43.16114" lon="5.76392">
        <ele>47.818989</ele>
        <time>2022-08-14T04:57:45Z</time>
      </trkpt>
      <trkpt lat="43.16125" lon="5.76397">
        <ele>48.523224</ele>
        <time>2022-08-14T04:57:47Z</time>
      </trkpt>
      <trkpt lat="43.16135" lon="5.76401">
        <ele>48.838539</ele>
        <time>2022-08-14T04:57:49Z</time>
      </trkpt>
      <trkpt lat="43.16147" lon="5.76406">
        <ele>49.116112</ele>
        <time>2022-08-14T04:57:51Z</time>
      </trkpt>
      <trkpt lat="43.16158" lon="5.76409">
        <ele>49.566795</ele>
        <time>2022-08-14T04:57:53Z</time>
      </trkpt>
      <trkpt lat="43.16169" lon="5.76412">
        <ele>49.566795</ele>
        <time>2022-08-14T04:57:55Z</time>
      </trkpt>
      <trkpt lat="43.1618" lon="5.76415">
        <ele>49.871521</ele>
        <time>2022-08-14T04:57:57Z</time>
      </trkpt>
      <trkpt lat="43.16192" lon="5.76419">
        <ele>49.988838</ele>
        <time>2022-08-14T04:57:59Z</time>
      </trkpt>
      <trkpt lat="43.16203" lon="5.76422">
        <ele>50.077385</ele>
        <time>2022-08-14T04:58:01Z</time>
      </trkpt>
      <trkpt lat="43.16214" lon="5.76425">
        <ele>50.160664</ele>
        <time>2022-08-14T04:58:03Z</time>
      </trkpt>
      <trkpt lat="43.16225" lon="5.76428">
        <ele>50.133392</ele>
        <time>2022-08-14T04:58:05Z</time>
      </trkpt>
      <trkpt lat="43.16236" lon="5.7643">
        <ele>49.977592</ele>
        <time>2022-08-14T04:58:07Z</time>
      </trkpt>
      <trkpt lat="43.16247" lon="5.76432">
        <ele>49.682098</ele>
        <time>2022-08-14T04:58:09Z</time>
      </trkpt>
      <trkpt lat="43.16258" lon="5.76434">
        <ele>49.458336</ele>
        <time>2022-08-14T04:58:11Z</time>
      </trkpt>
      <trkpt lat="43.16269" lon="5.76436">
        <ele>48.861012</ele>
        <time>2022-08-14T04:58:13Z</time>
      </trkpt>
      <trkpt lat="43.1628" lon="5.76438">
        <ele>48.484009</ele>
        <time>2022-08-14T04:58:15Z</time>
      </trkpt>
      <trkpt lat="43.16292" lon="5.7644">
        <ele>48.082558</ele>
        <time>2022-08-14T04:58:17Z</time>
      </trkpt>
      <trkpt lat="43.16303" lon="5.76441">
        <ele>47.13047</ele>
        <time>2022-08-14T04:58:19Z</time>
      </trkpt>
      <trkpt lat="43.16314" lon="5.76444">
        <ele>46.588898</ele>
        <time>2022-08-14T04:58:21Z</time>
      </trkpt>
      <trkpt lat="43.16325" lon="5.76446">
        <ele>45.4333</ele>
        <time>2022-08-14T04:58:23Z</time>
      </trkpt>
      <trkpt lat="43.16336" lon="5.7645">
        <ele>44.844917</ele>
        <time>2022-08-14T04:58:25Z</time>
      </trkpt>
      <trkpt lat="43.16347" lon="5.76455">
        <ele>44.265358</ele>
        <time>2022-08-14T04:58:27Z</time>
      </trkpt>
      <trkpt lat="43.16356" lon="5.7646">
        <ele>43.677094</ele>
        <time>2022-08-14T04:58:29Z</time>
      </trkpt>
      <trkpt lat="43.16365" lon="5.76468">
        <ele>42.562511</ele>
        <time>2022-08-14T04:58:31Z</time>
      </trkpt>
      <trkpt lat="43.16373" lon="5.76476">
        <ele>42.048138</ele>
        <time>2022-08-14T04:58:33Z</time>
      </trkpt>
      <trkpt lat="43.1638" lon="5.76483">
        <ele>41.566811</ele>
        <time>2022-08-14T04:58:35Z</time>
      </trkpt>
      <trkpt lat="43.16388" lon="5.76491">
        <ele>41.116005</ele>
        <time>2022-08-14T04:58:37Z</time>
      </trkpt>
      <trkpt lat="43.16394" lon="5.76498">
        <ele>40.279278</ele>
        <time>2022-08-14T04:58:39Z</time>
      </trkpt>
      <trkpt lat="43.16401" lon="5.76506">
        <ele>39.905357</ele>
        <time>2022-08-14T04:58:41Z</time>
      </trkpt>
      <trkpt lat="43.16409" lon="5.76514">
        <ele>39.564075</ele>
        <time>2022-08-14T04:58:43Z</time>
      </trkpt>
      <trkpt lat="43.16416" lon="5.76521">
        <ele>39.01458</ele>
        <time>2022-08-14T04:58:45Z</time>
      </trkpt>
      <trkpt lat="43.16423" lon="5.7653">
        <ele>38.613789</ele>
        <time>2022-08-14T04:58:47Z</time>
      </trkpt>
      <trkpt lat="43.1643" lon="5.76538">
        <ele>38.486012</ele>
        <time>2022-08-14T04:58:49Z</time>
      </trkpt>
      <trkpt lat="43.16436" lon="5.76548">
        <ele>38.417316</ele>
        <time>2022-08-14T04:58:51Z</time>
      </trkpt>
      <trkpt lat="43.16443" lon="5.76558">
        <ele>38.417332</ele>
        <time>2022-08-14T04:58:53Z</time>
      </trkpt>
      <trkpt lat="43.16449" lon="5.76569">
        <ele>38.499565</ele>
        <time>2022-08-14T04:58:55Z</time>
      </trkpt>
      <trkpt lat="43.16456" lon="5.7658">
        <ele>38.611843</ele>
        <time>2022-08-14T04:58:57Z</time>
      </trkpt>
      <trkpt lat="43.16461" lon="5.7659">
        <ele>38.946743</ele>
        <time>2022-08-14T04:58:59Z</time>
      </trkpt>
      <trkpt lat="43.16466" lon="5.76601">
        <ele>39.171989</ele>
        <time>2022-08-14T04:59:01Z</time>
      </trkpt>
      <trkpt lat="43.16471" lon="5.76613">
        <ele>39.448666</ele>
        <time>2022-08-14T04:59:03Z</time>
      </trkpt>
      <trkpt lat="43.16476" lon="5.76625">
        <ele>39.760471</ele>
        <time>2022-08-14T04:59:05Z</time>
      </trkpt>
      <trkpt lat="43.1648" lon="5.76639">
        <ele>40.105415</ele>
        <time>2022-08-14T04:59:07Z</time>
      </trkpt>
      <trkpt lat="43.16484" lon="5.76653">
        <ele>40.86924</ele>
        <time>2022-08-14T04:59:09Z</time>
      </trkpt>
      <trkpt lat="43.16488" lon="5.76667">
        <ele>41.292961</ele>
        <time>2022-08-14T04:59:11Z</time>
      </trkpt>
      <trkpt lat="43.16491" lon="5.76679">
        <ele>42.200737</ele>
        <time>2022-08-14T04:59:13Z</time>
      </trkpt>
      <trkpt lat="43.16494" lon="5.76689">
        <ele>42.678524</ele>
        <time>2022-08-14T04:59:15Z</time>
      </trkpt>
      <trkpt lat="43.16498" lon="5.76704">
        <ele>43.166134</ele>
        <time>2022-08-14T04:59:17Z</time>
      </trkpt>
      <trkpt lat="43.16505" lon="5.76716">
        <ele>43.658451</ele>
        <time>2022-08-14T04:59:19Z</time>
      </trkpt>
      <trkpt lat="43.16509" lon="5.76734">
        <ele>44.637959</ele>
        <time>2022-08-14T04:59:21Z</time>
      </trkpt>
      <trkpt lat="43.16511" lon="5.76752">
        <ele>45.11013</ele>
        <time>2022-08-14T04:59:23Z</time>
      </trkpt>
      <trkpt lat="43.16517" lon="5.76767">
        <ele>45.559666</ele>
        <time>2022-08-14T04:59:25Z</time>
      </trkpt>
      <trkpt lat="43.16523" lon="5.7678">
        <ele>45.989285</ele>
        <time>2022-08-14T04:59:27Z</time>
      </trkpt>
      <trkpt lat="43.16531" lon="5.76793">
        <ele>46.396999</ele>
        <time>2022-08-14T04:59:29Z</time>
      </trkpt>
      <trkpt lat="43.16541" lon="5.76806">
        <ele>47.147476</ele>
        <time>2022-08-14T04:59:31Z</time>
      </trkpt>
      <trkpt lat="43.16551" lon="5.76816">
        <ele>47.467018</ele>
        <time>2022-08-14T04:59:33Z</time>
      </trkpt>
      <trkpt lat="43.16562" lon="5.76824">
        <ele>48.00087</ele>
        <time>2022-08-14T04:59:35Z</time>
      </trkpt>
      <trkpt lat="43.16573" lon="5.76831">
        <ele>48.00087</ele>
        <time>2022-08-14T04:59:37Z</time>
      </trkpt>
      <trkpt lat="43.16584" lon="5.76834">
        <ele>48.414978</ele>
        <time>2022-08-14T04:59:39Z</time>
      </trkpt>
      <trkpt lat="43.16594" lon="5.76836">
        <ele>48.599808</ele>
        <time>2022-08-14T04:59:41Z</time>
      </trkpt>
      <trkpt lat="43.16604" lon="5.76836">
        <ele>48.760811</ele>
        <time>2022-08-14T04:59:43Z</time>
      </trkpt>
      <trkpt lat="43.16616" lon="5.76839">
        <ele>49.015144</ele>
        <time>2022-08-14T04:59:45Z</time>
      </trkpt>
      <trkpt lat="43.16626" lon="5.76842">
        <ele>49.190773</ele>
        <time>2022-08-14T04:59:47Z</time>
      </trkpt>
      <trkpt lat="43.16637" lon="5.76847">
        <ele>49.258888</ele>
        <time>2022-08-14T04:59:49Z</time>
      </trkpt>
      <trkpt lat="43.16647" lon="5.76852">
        <ele>49.314293</ele>
        <time>2022-08-14T04:59:51Z</time>
      </trkpt>
      <trkpt lat="43.16658" lon="5.76859">
        <ele>49.300896</ele>
        <time>2022-08-14T04:59:53Z</time>
      </trkpt>
      <trkpt lat="43.16668" lon="5.76866">
        <ele>49.269394</ele>
        <time>2022-08-14T04:59:55Z</time>
      </trkpt>
      <trkpt lat="43.16678" lon="5.76873">
        <ele>49.13303</ele>
        <time>2022-08-14T04:59:57Z</time>
      </trkpt>
      <trkpt lat="43.16688" lon="5.7688">
        <ele>49.040665</ele>
        <time>2022-08-14T04:59:59Z</time>
      </trkpt>
      <trkpt lat="43.16699" lon="5.76887">
        <ele>48.930733</ele>
        <time>2022-08-14T05:00:01Z</time>
      </trkpt>
      <trkpt lat="43.16709" lon="5.76895">
        <ele>48.80352</ele>
        <time>2022-08-14T05:00:03Z</time>
      </trkpt>
      <trkpt lat="43.16718" lon="5.76902">
        <ele>48.660973</ele>
        <time>2022-08-14T05:00:05Z</time>
      </trkpt>
      <trkpt lat="43.16727" lon="5.76908">
        <ele>48.335991</ele>
        <time>2022-08-14T05:00:07Z</time>
      </trkpt>
      <trkpt lat="43.16737" lon="5.76915">
        <ele>47.974033</ele>
        <time>2022-08-14T05:00:09Z</time>
      </trkpt>
      <trkpt lat="43.16746" lon="5.76922">
        <ele>47.7826</ele>
        <time>2022-08-14T05:00:11Z</time>
      </trkpt>
      <trkpt lat="43.16754" lon="5.76929">
        <ele>47.587166</ele>
        <time>2022-08-14T05:00:13Z</time>
      </trkpt>
      <trkpt lat="43.16768" lon="5.76939">
        <ele>47.190559</ele>
        <time>2022-08-14T05:00:16Z</time>
      </trkpt>
      <trkpt lat="43.16777" lon="5.76946">
        <ele>46.993698</ele>
        <time>2022-08-14T05:00:18Z</time>
      </trkpt>
      <trkpt lat="43.16787" lon="5.76954">
        <ele>46.615158</ele>
        <time>2022-08-14T05:00:20Z</time>
      </trkpt>
      <trkpt lat="43.16797" lon="5.76961">
        <ele>46.270706</ele>
        <time>2022-08-14T05:00:22Z</time>
      </trkpt>
      <trkpt lat="43.16806" lon="5.76968">
        <ele>46.114601</ele>
        <time>2022-08-14T05:00:24Z</time>
      </trkpt>
      <trkpt lat="43.16815" lon="5.76977">
        <ele>45.97036</ele>
        <time>2022-08-14T05:00:26Z</time>
      </trkpt>
      <trkpt lat="43.16822" lon="5.76986">
        <ele>45.730373</ele>
        <time>2022-08-14T05:00:28Z</time>
      </trkpt>
      <trkpt lat="43.16829" lon="5.76996">
        <ele>45.627827</ele>
        <time>2022-08-14T05:00:30Z</time>
      </trkpt>
      <trkpt lat="43.16835" lon="5.77007">
        <ele>45.496761</ele>
        <time>2022-08-14T05:00:32Z</time>
      </trkpt>
      <trkpt lat="43.16842" lon="5.77018">
        <ele>45.460247</ele>
        <time>2022-08-14T05:00:34Z</time>
      </trkpt>
      <trkpt lat="43.16846" lon="5.7703">
        <ele>45.444668</ele>
        <time>2022-08-14T05:00:36Z</time>
      </trkpt>
      <trkpt lat="43.1685" lon="5.77042">
        <ele>45.468941</ele>
        <time>2022-08-14T05:00:38Z</time>
      </trkpt>
      <trkpt lat="43.16852" lon="5.77055">
        <ele>45.581913</ele>
        <time>2022-08-14T05:00:40Z</time>
      </trkpt>
      <trkpt lat="43.16855" lon="5.77068">
        <ele>45.75893</ele>
        <time>2022-08-14T05:00:42Z</time>
      </trkpt>
      <trkpt lat="43.16858" lon="5.77082">
        <ele>45.878067</ele>
        <time>2022-08-14T05:00:44Z</time>
      </trkpt>
      <trkpt lat="43.16861" lon="5.77095">
        <ele>46.009163</ele>
        <time>2022-08-14T05:00:46Z</time>
      </trkpt>
      <trkpt lat="43.16864" lon="5.77107">
        <ele>46.152756</ele>
        <time>2022-08-14T05:00:48Z</time>
      </trkpt>
      <trkpt lat="43.16869" lon="5.77118">
        <ele>46.471348</ele>
        <time>2022-08-14T05:00:50Z</time>
      </trkpt>
      <trkpt lat="43.16874" lon="5.7713">
        <ele>46.645969</ele>
        <time>2022-08-14T05:00:52Z</time>
      </trkpt>
      <trkpt lat="43.1688" lon="5.7714">
        <ele>46.825447</ele>
        <time>2022-08-14T05:00:54Z</time>
      </trkpt>
      <trkpt lat="43.16886" lon="5.77148">
        <ele>47.1856</ele>
        <time>2022-08-14T05:00:56Z</time>
      </trkpt>
      <trkpt lat="43.16894" lon="5.77154">
        <ele>47.551884</ele>
        <time>2022-08-14T05:00:58Z</time>
      </trkpt>
      <trkpt lat="43.16902" lon="5.77158">
        <ele>47.735329</ele>
        <time>2022-08-14T05:01:00Z</time>
      </trkpt>
      <trkpt lat="43.16911" lon="5.77162">
        <ele>47.917831</ele>
        <time>2022-08-14T05:01:02Z</time>
      </trkpt>
      <trkpt lat="43.16922" lon="5.77164">
        <ele>48.289585</ele>
        <time>2022-08-14T05:01:04Z</time>
      </trkpt>
      <trkpt lat="43.16932" lon="5.77166">
        <ele>48.675102</ele>
        <time>2022-08-14T05:01:06Z</time>
      </trkpt>
      <trkpt lat="43.16945" lon="5.77168">
        <ele>48.878151</ele>
        <time>2022-08-14T05:01:08Z</time>
      </trkpt>
      <trkpt lat="43.16958" lon="5.77169">
        <ele>49.08765</ele>
        <time>2022-08-14T05:01:10Z</time>
      </trkpt>
      <trkpt lat="43.1697" lon="5.77169">
        <ele>49.528404</ele>
        <time>2022-08-14T05:01:12Z</time>
      </trkpt>
      <trkpt lat="43.16982" lon="5.7717">
        <ele>49.761204</ele>
        <time>2022-08-14T05:01:14Z</time>
      </trkpt>
      <trkpt lat="43.16995" lon="5.77169">
        <ele>50.243717</ele>
        <time>2022-08-14T05:01:16Z</time>
      </trkpt>
      <trkpt lat="43.17007" lon="5.77168">
        <ele>50.494102</ele>
        <time>2022-08-14T05:01:18Z</time>
      </trkpt>
      <trkpt lat="43.17019" lon="5.77165">
        <ele>51.027493</ele>
        <time>2022-08-14T05:01:20Z</time>
      </trkpt>
      <trkpt lat="43.17032" lon="5.77163">
        <ele>51.578838</ele>
        <time>2022-08-14T05:01:22Z</time>
      </trkpt>
      <trkpt lat="43.17044" lon="5.7716">
        <ele>52.171265</ele>
        <time>2022-08-14T05:01:24Z</time>
      </trkpt>
      <trkpt lat="43.17056" lon="5.77157">
        <ele>52.467976</ele>
        <time>2022-08-14T05:01:26Z</time>
      </trkpt>
      <trkpt lat="43.17067" lon="5.77153">
        <ele>52.779682</ele>
        <time>2022-08-14T05:01:28Z</time>
      </trkpt>
      <trkpt lat="43.17079" lon="5.77149">
        <ele>53.096355</ele>
        <time>2022-08-14T05:01:30Z</time>
      </trkpt>
      <trkpt lat="43.1709" lon="5.77144">
        <ele>53.756714</ele>
        <time>2022-08-14T05:01:32Z</time>
      </trkpt>
      <trkpt lat="43.171" lon="5.77139">
        <ele>54.093605</ele>
        <time>2022-08-14T05:01:34Z</time>
      </trkpt>
      <trkpt lat="43.17111" lon="5.77134">
        <ele>54.776478</ele>
        <time>2022-08-14T05:01:36Z</time>
      </trkpt>
      <trkpt lat="43.17121" lon="5.77128">
        <ele>55.11665</ele>
        <time>2022-08-14T05:01:38Z</time>
      </trkpt>
      <trkpt lat="43.17131" lon="5.77122">
        <ele>55.796886</ele>
        <time>2022-08-14T05:01:40Z</time>
      </trkpt>
      <trkpt lat="43.17141" lon="5.77115">
        <ele>56.137703</ele>
        <time>2022-08-14T05:01:42Z</time>
      </trkpt>
      <trkpt lat="43.1715" lon="5.77107">
        <ele>56.485607</ele>
        <time>2022-08-14T05:01:44Z</time>
      </trkpt>
      <trkpt lat="43.17159" lon="5.77099">
        <ele>57.1964</ele>
        <time>2022-08-14T05:01:46Z</time>
      </trkpt>
      <trkpt lat="43.17168" lon="5.77091">
        <ele>57.56316</ele>
        <time>2022-08-14T05:01:48Z</time>
      </trkpt>
      <trkpt lat="43.17177" lon="5.77084">
        <ele>57.940834</ele>
        <time>2022-08-14T05:01:50Z</time>
      </trkpt>
      <trkpt lat="43.17186" lon="5.77077">
        <ele>58.326252</ele>
        <time>2022-08-14T05:01:52Z</time>
      </trkpt>
      <trkpt lat="43.17197" lon="5.77073">
        <ele>58.720287</ele>
        <time>2022-08-14T05:01:54Z</time>
      </trkpt>
      <trkpt lat="43.17207" lon="5.77072">
        <ele>59.528168</ele>
        <time>2022-08-14T05:01:56Z</time>
      </trkpt>
      <trkpt lat="43.17219" lon="5.77072">
        <ele>60.351574</ele>
        <time>2022-08-14T05:01:58Z</time>
      </trkpt>
      <trkpt lat="43.17232" lon="5.77072">
        <ele>60.760876</ele>
        <time>2022-08-14T05:02:00Z</time>
      </trkpt>
      <trkpt lat="43.17244" lon="5.77072">
        <ele>61.164131</ele>
        <time>2022-08-14T05:02:02Z</time>
      </trkpt>
      <trkpt lat="43.17256" lon="5.77073">
        <ele>61.939049</ele>
        <time>2022-08-14T05:02:04Z</time>
      </trkpt>
      <trkpt lat="43.17269" lon="5.77073">
        <ele>62.651134</ele>
        <time>2022-08-14T05:02:06Z</time>
      </trkpt>
      <trkpt lat="43.17282" lon="5.77073">
        <ele>62.976494</ele>
        <time>2022-08-14T05:02:08Z</time>
      </trkpt>
      <trkpt lat="43.17294" lon="5.77073">
        <ele>63.274132</ele>
        <time>2022-08-14T05:02:10Z</time>
      </trkpt>
      <trkpt lat="43.17308" lon="5.77073">
        <ele>63.760674</ele>
        <time>2022-08-14T05:02:12Z</time>
      </trkpt>
      <trkpt lat="43.1732" lon="5.77074">
        <ele>63.954895</ele>
        <time>2022-08-14T05:02:14Z</time>
      </trkpt>
      <trkpt lat="43.17333" lon="5.77074">
        <ele>64.212723</ele>
        <time>2022-08-14T05:02:16Z</time>
      </trkpt>
      <trkpt lat="43.17345" lon="5.77074">
        <ele>64.287514</ele>
        <time>2022-08-14T05:02:18Z</time>
      </trkpt>
      <trkpt lat="43.17357" lon="5.77075">
        <ele>64.31572</ele>
        <time>2022-08-14T05:02:20Z</time>
      </trkpt>
      <trkpt lat="43.1737" lon="5.77075">
        <ele>64.216064</ele>
        <time>2022-08-14T05:02:22Z</time>
      </trkpt>
      <trkpt lat="43.17383" lon="5.77076">
        <ele>63.973999</ele>
        <time>2022-08-14T05:02:24Z</time>
      </trkpt>
      <trkpt lat="43.17396" lon="5.77076">
        <ele>63.798317</ele>
        <time>2022-08-14T05:02:26Z</time>
      </trkpt>
      <trkpt lat="43.17408" lon="5.77076">
        <ele>63.591919</ele>
        <time>2022-08-14T05:02:28Z</time>
      </trkpt>
      <trkpt lat="43.17421" lon="5.77077">
        <ele>63.351482</ele>
        <time>2022-08-14T05:02:30Z</time>
      </trkpt>
      <trkpt lat="43.17434" lon="5.77081">
        <ele>62.827953</ele>
        <time>2022-08-14T05:02:32Z</time>
      </trkpt>
      <trkpt lat="43.17446" lon="5.77089">
        <ele>62.549095</ele>
        <time>2022-08-14T05:02:34Z</time>
      </trkpt>
      <trkpt lat="43.17456" lon="5.771">
        <ele>61.964844</ele>
        <time>2022-08-14T05:02:36Z</time>
      </trkpt>
      <trkpt lat="43.17466" lon="5.77113">
        <ele>61.666981</ele>
        <time>2022-08-14T05:02:38Z</time>
      </trkpt>
      <trkpt lat="43.17474" lon="5.77126">
        <ele>61.361824</ele>
        <time>2022-08-14T05:02:40Z</time>
      </trkpt>
      <trkpt lat="43.17483" lon="5.7714">
        <ele>61.053162</ele>
        <time>2022-08-14T05:02:42Z</time>
      </trkpt>
      <trkpt lat="43.17492" lon="5.77155">
        <ele>60.425468</ele>
        <time>2022-08-14T05:02:44Z</time>
      </trkpt>
      <trkpt lat="43.17501" lon="5.77168">
        <ele>60.104561</ele>
        <time>2022-08-14T05:02:46Z</time>
      </trkpt>
      <trkpt lat="43.17511" lon="5.77181">
        <ele>59.781719</ele>
        <time>2022-08-14T05:02:48Z</time>
      </trkpt>
      <trkpt lat="43.1752" lon="5.77194">
        <ele>59.456566</ele>
        <time>2022-08-14T05:02:50Z</time>
      </trkpt>
      <trkpt lat="43.17529" lon="5.77206">
        <ele>59.130074</ele>
        <time>2022-08-14T05:02:52Z</time>
      </trkpt>
      <trkpt lat="43.17539" lon="5.77217">
        <ele>58.479973</ele>
        <time>2022-08-14T05:02:54Z</time>
      </trkpt>
      <trkpt lat="43.1755" lon="5.77226">
        <ele>58.157928</ele>
        <time>2022-08-14T05:02:56Z</time>
      </trkpt>
      <trkpt lat="43.17561" lon="5.77233">
        <ele>57.840065</ele>
        <time>2022-08-14T05:02:58Z</time>
      </trkpt>
      <trkpt lat="43.17573" lon="5.77237">
        <ele>57.528114</ele>
        <time>2022-08-14T05:03:00Z</time>
      </trkpt>
      <trkpt lat="43.17584" lon="5.77238">
        <ele>56.929218</ele>
        <time>2022-08-14T05:03:02Z</time>
      </trkpt>
      <trkpt lat="43.17595" lon="5.77238">
        <ele>56.647655</ele>
        <time>2022-08-14T05:03:04Z</time>
      </trkpt>
      <trkpt lat="43.17605" lon="5.77239">
        <ele>56.115898</ele>
        <time>2022-08-14T05:03:06Z</time>
      </trkpt>
      <trkpt lat="43.17613" lon="5.77243">
        <ele>55.8773</ele>
        <time>2022-08-14T05:03:08Z</time>
      </trkpt>
      <trkpt lat="43.17621" lon="5.77249">
        <ele>55.482533</ele>
        <time>2022-08-14T05:03:10Z</time>
      </trkpt>
      <trkpt lat="43.17629" lon="5.77255">
        <ele>55.184368</ele>
        <time>2022-08-14T05:03:12Z</time>
      </trkpt>
      <trkpt lat="43.17636" lon="5.77261">
        <ele>55.071472</ele>
        <time>2022-08-14T05:03:14Z</time>
      </trkpt>
      <trkpt lat="43.17644" lon="5.77268">
        <ele>54.986053</ele>
        <time>2022-08-14T05:03:16Z</time>
      </trkpt>
      <trkpt lat="43.17653" lon="5.77274">
        <ele>54.880226</ele>
        <time>2022-08-14T05:03:18Z</time>
      </trkpt>
      <trkpt lat="43.17662" lon="5.77278">
        <ele>54.842522</ele>
        <time>2022-08-14T05:03:20Z</time>
      </trkpt>
      <trkpt lat="43.17672" lon="5.77283">
        <ele>54.817169</ele>
        <time>2022-08-14T05:03:22Z</time>
      </trkpt>
      <trkpt lat="43.17681" lon="5.77286">
        <ele>54.821819</ele>
        <time>2022-08-14T05:03:24Z</time>
      </trkpt>
      <trkpt lat="43.17689" lon="5.77291">
        <ele>54.839039</ele>
        <time>2022-08-14T05:03:26Z</time>
      </trkpt>
      <trkpt lat="43.17696" lon="5.77295">
        <ele>54.915886</ele>
        <time>2022-08-14T05:03:28Z</time>
      </trkpt>
      <trkpt lat="43.17703" lon="5.77299">
        <ele>54.964088</ele>
        <time>2022-08-14T05:03:30Z</time>
      </trkpt>
      <trkpt lat="43.17708" lon="5.77304">
        <ele>55.078674</ele>
        <time>2022-08-14T05:03:32Z</time>
      </trkpt>
      <trkpt lat="43.17714" lon="5.77308">
        <ele>55.14193</ele>
        <time>2022-08-14T05:03:34Z</time>
      </trkpt>
      <trkpt lat="43.1772" lon="5.77312">
        <ele>55.274658</ele>
        <time>2022-08-14T05:03:36Z</time>
      </trkpt>
      <trkpt lat="43.17724" lon="5.77316">
        <ele>55.342682</ele>
        <time>2022-08-14T05:03:38Z</time>
      </trkpt>
      <trkpt lat="43.17731" lon="5.77318">
        <ele>55.484272</ele>
        <time>2022-08-14T05:03:40Z</time>
      </trkpt>
      <trkpt lat="43.17737" lon="5.77322">
        <ele>55.63073</ele>
        <time>2022-08-14T05:03:42Z</time>
      </trkpt>
      <trkpt lat="43.17745" lon="5.77324">
        <ele>55.705956</ele>
        <time>2022-08-14T05:03:44Z</time>
      </trkpt>
      <trkpt lat="43.17753" lon="5.77324">
        <ele>55.783886</ele>
        <time>2022-08-14T05:03:46Z</time>
      </trkpt>
      <trkpt lat="43.17762" lon="5.77324">
        <ele>55.863586</ele>
        <time>2022-08-14T05:03:48Z</time>
      </trkpt>
      <trkpt lat="43.17771" lon="5.77322">
        <ele>56.029388</ele>
        <time>2022-08-14T05:03:50Z</time>
      </trkpt>
      <trkpt lat="43.1778" lon="5.7732">
        <ele>56.118366</ele>
        <time>2022-08-14T05:03:52Z</time>
      </trkpt>
      <trkpt lat="43.17789" lon="5.7732">
        <ele>56.211498</ele>
        <time>2022-08-14T05:03:54Z</time>
      </trkpt>
      <trkpt lat="43.17798" lon="5.77321">
        <ele>56.404835</ele>
        <time>2022-08-14T05:03:56Z</time>
      </trkpt>
      <trkpt lat="43.17806" lon="5.77322">
        <ele>56.507164</ele>
        <time>2022-08-14T05:03:58Z</time>
      </trkpt>
      <trkpt lat="43.17814" lon="5.77324">
        <ele>56.613762</ele>
        <time>2022-08-14T05:04:00Z</time>
      </trkpt>
      <trkpt lat="43.17823" lon="5.77327">
        <ele>56.83839</ele>
        <time>2022-08-14T05:04:02Z</time>
      </trkpt>
      <trkpt lat="43.17835" lon="5.7733">
        <ele>56.95332</ele>
        <time>2022-08-14T05:04:04Z</time>
      </trkpt>
      <trkpt lat="43.17845" lon="5.77332">
        <ele>57.193073</ele>
        <time>2022-08-14T05:04:06Z</time>
      </trkpt>
      <trkpt lat="43.17856" lon="5.77333">
        <ele>57.316753</ele>
        <time>2022-08-14T05:04:08Z</time>
      </trkpt>
      <trkpt lat="43.17869" lon="5.77332">
        <ele>57.444611</ele>
        <time>2022-08-14T05:04:10Z</time>
      </trkpt>
      <trkpt lat="43.17882" lon="5.77331">
        <ele>57.72271</ele>
        <time>2022-08-14T05:04:12Z</time>
      </trkpt>
      <trkpt lat="43.17895" lon="5.77328">
        <ele>57.872631</ele>
        <time>2022-08-14T05:04:14Z</time>
      </trkpt>
      <trkpt lat="43.17909" lon="5.77327">
        <ele>58.029896</ele>
        <time>2022-08-14T05:04:16Z</time>
      </trkpt>
      <trkpt lat="43.17922" lon="5.77324">
        <ele>58.366547</ele>
        <time>2022-08-14T05:04:18Z</time>
      </trkpt>
      <trkpt lat="43.17942" lon="5.77321">
        <ele>58.728821</ele>
        <time>2022-08-14T05:04:21Z</time>
      </trkpt>
      <trkpt lat="43.17957" lon="5.77319">
        <ele>59.110554</ele>
        <time>2022-08-14T05:04:23Z</time>
      </trkpt>
      <trkpt lat="43.17971" lon="5.77315">
        <ele>59.301746</ele>
        <time>2022-08-14T05:04:25Z</time>
      </trkpt>
      <trkpt lat="43.17985" lon="5.77311">
        <ele>59.694313</ele>
        <time>2022-08-14T05:04:27Z</time>
      </trkpt>
      <trkpt lat="43.17998" lon="5.77309">
        <ele>59.896526</ele>
        <time>2022-08-14T05:04:29Z</time>
      </trkpt>
      <trkpt lat="43.18009" lon="5.77306">
        <ele>60.301796</ele>
        <time>2022-08-14T05:04:31Z</time>
      </trkpt>
      <trkpt lat="43.18016" lon="5.77293">
        <ele>60.508934</ele>
        <time>2022-08-14T05:04:33Z</time>
      </trkpt>
      <trkpt lat="43.18018" lon="5.77275">
        <ele>60.719288</ele>
        <time>2022-08-14T05:04:35Z</time>
      </trkpt>
      <trkpt lat="43.18021" lon="5.77255">
        <ele>61.139759</ele>
        <time>2022-08-14T05:04:37Z</time>
      </trkpt>
      <trkpt lat="43.1802" lon="5.77235">
        <ele>61.551525</ele>
        <time>2022-08-14T05:04:39Z</time>
      </trkpt>
      <trkpt lat="43.18014" lon="5.77215">
        <ele>61.752125</ele>
        <time>2022-08-14T05:04:41Z</time>
      </trkpt>
      <trkpt lat="43.18012" lon="5.77195">
        <ele>61.945667</ele>
        <time>2022-08-14T05:04:43Z</time>
      </trkpt>
      <trkpt lat="43.18013" lon="5.77175">
        <ele>62.131969</ele>
        <time>2022-08-14T05:04:45Z</time>
      </trkpt>
      <trkpt lat="43.18016" lon="5.77156">
        <ele>62.309753</ele>
        <time>2022-08-14T05:04:47Z</time>
      </trkpt>
      <trkpt lat="43.1802" lon="5.77137">
        <ele>62.630116</ele>
        <time>2022-08-14T05:04:49Z</time>
      </trkpt>
      <trkpt lat="43.18033" lon="5.77113">
        <ele>62.903954</ele>
        <time>2022-08-14T05:04:52Z</time>
      </trkpt>
      <trkpt lat="43.18047" lon="5.77108">
        <ele>63.026783</ele>
        <time>2022-08-14T05:04:54Z</time>
      </trkpt>
      <trkpt lat="43.18062" lon="5.77106">
        <ele>63.135937</ele>
        <time>2022-08-14T05:04:56Z</time>
      </trkpt>
      <trkpt lat="43.18076" lon="5.77105">
        <ele>63.232056</ele>
        <time>2022-08-14T05:04:58Z</time>
      </trkpt>
      <trkpt lat="43.18088" lon="5.77103">
        <ele>63.313488</ele>
        <time>2022-08-14T05:05:00Z</time>
      </trkpt>
      <trkpt lat="43.18102" lon="5.77103">
        <ele>63.384743</ele>
        <time>2022-08-14T05:05:02Z</time>
      </trkpt>
      <trkpt lat="43.18116" lon="5.77102">
        <ele>63.505089</ele>
        <time>2022-08-14T05:05:04Z</time>
      </trkpt>
      <trkpt lat="43.18129" lon="5.77101">
        <ele>63.557434</ele>
        <time>2022-08-14T05:05:06Z</time>
      </trkpt>
      <trkpt lat="43.18143" lon="5.77099">
        <ele>63.605885</ele>
        <time>2022-08-14T05:05:08Z</time>
      </trkpt>
      <trkpt lat="43.18154" lon="5.77096">
        <ele>63.687511</ele>
        <time>2022-08-14T05:05:10Z</time>
      </trkpt>
      <trkpt lat="43.18166" lon="5.7709">
        <ele>63.739113</ele>
        <time>2022-08-14T05:05:12Z</time>
      </trkpt>
      <trkpt lat="43.18179" lon="5.77085">
        <ele>63.755238</ele>
        <time>2022-08-14T05:05:14Z</time>
      </trkpt>
      <trkpt lat="43.1819" lon="5.77079">
        <ele>63.765331</ele>
        <time>2022-08-14T05:05:16Z</time>
      </trkpt>
      <trkpt lat="43.18203" lon="5.77073">
        <ele>63.745323</ele>
        <time>2022-08-14T05:05:18Z</time>
      </trkpt>
      <trkpt lat="43.18214" lon="5.77068">
        <ele>63.723682</ele>
        <time>2022-08-14T05:05:20Z</time>
      </trkpt>
      <trkpt lat="43.18226" lon="5.77062">
        <ele>63.69474</ele>
        <time>2022-08-14T05:05:22Z</time>
      </trkpt>
      <trkpt lat="43.18238" lon="5.77056">
        <ele>63.6614</ele>
        <time>2022-08-14T05:05:24Z</time>
      </trkpt>
      <trkpt lat="43.1825" lon="5.77051">
        <ele>63.61969</ele>
        <time>2022-08-14T05:05:26Z</time>
      </trkpt>
      <trkpt lat="43.18263" lon="5.77046">
        <ele>63.5107</ele>
        <time>2022-08-14T05:05:28Z</time>
      </trkpt>
      <trkpt lat="43.18275" lon="5.77041">
        <ele>63.44397</ele>
        <time>2022-08-14T05:05:30Z</time>
      </trkpt>
      <trkpt lat="43.18288" lon="5.77036">
        <ele>63.294605</ele>
        <time>2022-08-14T05:05:32Z</time>
      </trkpt>
      <trkpt lat="43.18301" lon="5.77032">
        <ele>63.20805</ele>
        <time>2022-08-14T05:05:34Z</time>
      </trkpt>
      <trkpt lat="43.1831" lon="5.77029">
        <ele>63.115509</ele>
        <time>2022-08-14T05:05:36Z</time>
      </trkpt>
      <trkpt lat="43.18321" lon="5.77026">
        <ele>63.019592</ele>
        <time>2022-08-14T05:05:38Z</time>
      </trkpt>
      <trkpt lat="43.18332" lon="5.77023">
        <ele>62.826313</ele>
        <time>2022-08-14T05:05:40Z</time>
      </trkpt>
      <trkpt lat="43.18343" lon="5.77019">
        <ele>62.730419</ele>
        <time>2022-08-14T05:05:42Z</time>
      </trkpt>
      <trkpt lat="43.18356" lon="5.77018">
        <ele>62.548737</ele>
        <time>2022-08-14T05:05:44Z</time>
      </trkpt>
      <trkpt lat="43.1837" lon="5.77017">
        <ele>62.466167</ele>
        <time>2022-08-14T05:05:46Z</time>
      </trkpt>
      <trkpt lat="43.18379" lon="5.77013">
        <ele>62.391174</ele>
        <time>2022-08-14T05:05:48Z</time>
      </trkpt>
      <trkpt lat="43.1839" lon="5.77008">
        <ele>62.325623</ele>
        <time>2022-08-14T05:05:50Z</time>
      </trkpt>
      <trkpt lat="43.18404" lon="5.77004">
        <ele>62.220051</ele>
        <time>2022-08-14T05:05:52Z</time>
      </trkpt>
      <trkpt lat="43.18417" lon="5.77">
        <ele>62.180733</ele>
        <time>2022-08-14T05:05:54Z</time>
      </trkpt>
      <trkpt lat="43.18429" lon="5.76997">
        <ele>62.130135</ele>
        <time>2022-08-14T05:05:56Z</time>
      </trkpt>
      <trkpt lat="43.18442" lon="5.76995">
        <ele>62.121094</ele>
        <time>2022-08-14T05:05:58Z</time>
      </trkpt>
      <trkpt lat="43.18458" lon="5.76993">
        <ele>62.122028</ele>
        <time>2022-08-14T05:06:00Z</time>
      </trkpt>
      <trkpt lat="43.18471" lon="5.76989">
        <ele>62.141327</ele>
        <time>2022-08-14T05:06:02Z</time>
      </trkpt>
      <trkpt lat="43.18484" lon="5.76987">
        <ele>62.157135</ele>
        <time>2022-08-14T05:06:04Z</time>
      </trkpt>
      <trkpt lat="43.18496" lon="5.76985">
        <ele>62.195446</ele>
        <time>2022-08-14T05:06:06Z</time>
      </trkpt>
      <trkpt lat="43.18509" lon="5.76984">
        <ele>62.239574</ele>
        <time>2022-08-14T05:06:08Z</time>
      </trkpt>
      <trkpt lat="43.18521" lon="5.76983">
        <ele>62.264061</ele>
        <time>2022-08-14T05:06:10Z</time>
      </trkpt>
      <trkpt lat="43.18534" lon="5.76981">
        <ele>62.319588</ele>
        <time>2022-08-14T05:06:12Z</time>
      </trkpt>
      <trkpt lat="43.18581" lon="5.7696">
        <ele>62.350952</ele>
        <time>2022-08-14T05:06:20Z</time>
      </trkpt>
      <trkpt lat="43.18594" lon="5.76955">
        <ele>62.418903</ele>
        <time>2022-08-14T05:06:22Z</time>
      </trkpt>
      <trkpt lat="43.18606" lon="5.76947">
        <ele>62.502808</ele>
        <time>2022-08-14T05:06:24Z</time>
      </trkpt>
      <trkpt lat="43.18618" lon="5.7694">
        <ele>62.552227</ele>
        <time>2022-08-14T05:06:26Z</time>
      </trkpt>
      <trkpt lat="43.18629" lon="5.76933">
        <ele>62.666382</ele>
        <time>2022-08-14T05:06:28Z</time>
      </trkpt>
      <trkpt lat="43.18641" lon="5.76925">
        <ele>62.731892</ele>
        <time>2022-08-14T05:06:30Z</time>
      </trkpt>
      <trkpt lat="43.18652" lon="5.76917">
        <ele>62.875744</ele>
        <time>2022-08-14T05:06:32Z</time>
      </trkpt>
      <trkpt lat="43.18663" lon="5.76907">
        <ele>62.952721</ele>
        <time>2022-08-14T05:06:34Z</time>
      </trkpt>
      <trkpt lat="43.18673" lon="5.76898">
        <ele>63.123352</ele>
        <time>2022-08-14T05:06:36Z</time>
      </trkpt>
      <trkpt lat="43.18684" lon="5.76888">
        <ele>63.315269</ele>
        <time>2022-08-14T05:06:38Z</time>
      </trkpt>
      <trkpt lat="43.18696" lon="5.76878">
        <ele>63.417736</ele>
        <time>2022-08-14T05:06:40Z</time>
      </trkpt>
      <trkpt lat="43.18707" lon="5.76868">
        <ele>63.634277</ele>
        <time>2022-08-14T05:06:42Z</time>
      </trkpt>
      <trkpt lat="43.18718" lon="5.76858">
        <ele>63.747375</ele>
        <time>2022-08-14T05:06:44Z</time>
      </trkpt>
      <trkpt lat="43.1873" lon="5.76848">
        <ele>63.980724</ele>
        <time>2022-08-14T05:06:46Z</time>
      </trkpt>
      <trkpt lat="43.18741" lon="5.76838">
        <ele>64.218895</ele>
        <time>2022-08-14T05:06:48Z</time>
      </trkpt>
      <trkpt lat="43.18752" lon="5.76828">
        <ele>64.339401</ele>
        <time>2022-08-14T05:06:50Z</time>
      </trkpt>
      <trkpt lat="43.18763" lon="5.76817">
        <ele>64.583435</ele>
        <time>2022-08-14T05:06:52Z</time>
      </trkpt>
      <trkpt lat="43.18779" lon="5.76802">
        <ele>64.829758</ele>
        <time>2022-08-14T05:06:55Z</time>
      </trkpt>
      <trkpt lat="43.18791" lon="5.76791">
        <ele>64.952248</ele>
        <time>2022-08-14T05:06:57Z</time>
      </trkpt>
      <trkpt lat="43.18804" lon="5.7678">
        <ele>65.197769</ele>
        <time>2022-08-14T05:06:59Z</time>
      </trkpt>
      <trkpt lat="43.18841" lon="5.76745">
        <ele>65.43972</ele>
        <time>2022-08-14T05:07:05Z</time>
      </trkpt>
      <trkpt lat="43.18854" lon="5.76734">
        <ele>65.558533</ele>
        <time>2022-08-14T05:07:07Z</time>
      </trkpt>
      <trkpt lat="43.18868" lon="5.76723">
        <ele>65.675659</ele>
        <time>2022-08-14T05:07:09Z</time>
      </trkpt>
      <trkpt lat="43.18882" lon="5.76712">
        <ele>65.905518</ele>
        <time>2022-08-14T05:07:11Z</time>
      </trkpt>
      <trkpt lat="43.18895" lon="5.76702">
        <ele>66.018188</ele>
        <time>2022-08-14T05:07:13Z</time>
      </trkpt>
      <trkpt lat="43.18906" lon="5.76692">
        <ele>66.241432</ele>
        <time>2022-08-14T05:07:15Z</time>
      </trkpt>
      <trkpt lat="43.18918" lon="5.76681">
        <ele>66.469482</ele>
        <time>2022-08-14T05:07:17Z</time>
      </trkpt>
      <trkpt lat="43.1893" lon="5.76672">
        <ele>66.584488</ele>
        <time>2022-08-14T05:07:19Z</time>
      </trkpt>
      <trkpt lat="43.18941" lon="5.76663">
        <ele>66.815659</ele>
        <time>2022-08-14T05:07:21Z</time>
      </trkpt>
      <trkpt lat="43.18952" lon="5.76654">
        <ele>66.93306</ele>
        <time>2022-08-14T05:07:23Z</time>
      </trkpt>
      <trkpt lat="43.18962" lon="5.76645">
        <ele>67.168991</ele>
        <time>2022-08-14T05:07:25Z</time>
      </trkpt>
      <trkpt lat="43.18972" lon="5.76637">
        <ele>67.409492</ele>
        <time>2022-08-14T05:07:27Z</time>
      </trkpt>
      <trkpt lat="43.18981" lon="5.76628">
        <ele>67.532944</ele>
        <time>2022-08-14T05:07:29Z</time>
      </trkpt>
      <trkpt lat="43.18991" lon="5.76619">
        <ele>67.779961</ele>
        <time>2022-08-14T05:07:31Z</time>
      </trkpt>
      <trkpt lat="43.19001" lon="5.76611">
        <ele>68.027069</ele>
        <time>2022-08-14T05:07:33Z</time>
      </trkpt>
      <trkpt lat="43.19011" lon="5.76601">
        <ele>68.15126</ele>
        <time>2022-08-14T05:07:35Z</time>
      </trkpt>
      <trkpt lat="43.1902" lon="5.76592">
        <ele>68.403152</ele>
        <time>2022-08-14T05:07:37Z</time>
      </trkpt>
      <trkpt lat="43.19029" lon="5.76584">
        <ele>68.531418</ele>
        <time>2022-08-14T05:07:39Z</time>
      </trkpt>
      <trkpt lat="43.19041" lon="5.76576">
        <ele>68.793182</ele>
        <time>2022-08-14T05:07:41Z</time>
      </trkpt>
      <trkpt lat="43.19052" lon="5.76568">
        <ele>69.061005</ele>
        <time>2022-08-14T05:07:43Z</time>
      </trkpt>
      <trkpt lat="43.19062" lon="5.76559">
        <ele>69.19693</ele>
        <time>2022-08-14T05:07:45Z</time>
      </trkpt>
      <trkpt lat="43.19074" lon="5.76551">
        <ele>69.472954</ele>
        <time>2022-08-14T05:07:47Z</time>
      </trkpt>
      <trkpt lat="43.19084" lon="5.76544">
        <ele>69.613373</ele>
        <time>2022-08-14T05:07:49Z</time>
      </trkpt>
      <trkpt lat="43.19095" lon="5.76537">
        <ele>69.901642</ele>
        <time>2022-08-14T05:07:51Z</time>
      </trkpt>
      <trkpt lat="43.19108" lon="5.76529">
        <ele>70.19915</ele>
        <time>2022-08-14T05:07:53Z</time>
      </trkpt>
      <trkpt lat="43.19118" lon="5.76524">
        <ele>70.352486</ele>
        <time>2022-08-14T05:07:55Z</time>
      </trkpt>
      <trkpt lat="43.19128" lon="5.76517">
        <ele>70.510551</ele>
        <time>2022-08-14T05:07:57Z</time>
      </trkpt>
      <trkpt lat="43.19136" lon="5.76513">
        <ele>70.839508</ele>
        <time>2022-08-14T05:07:59Z</time>
      </trkpt>
      <trkpt lat="43.19146" lon="5.76508">
        <ele>71.190292</ele>
        <time>2022-08-14T05:08:01Z</time>
      </trkpt>
      <trkpt lat="43.19154" lon="5.76505">
        <ele>71.373505</ele>
        <time>2022-08-14T05:08:03Z</time>
      </trkpt>
      <trkpt lat="43.19167" lon="5.76501">
        <ele>71.750137</ele>
        <time>2022-08-14T05:08:05Z</time>
      </trkpt>
      <trkpt lat="43.19177" lon="5.76498">
        <ele>71.940689</ele>
        <time>2022-08-14T05:08:07Z</time>
      </trkpt>
      <trkpt lat="43.19186" lon="5.76496">
        <ele>72.320633</ele>
        <time>2022-08-14T05:08:09Z</time>
      </trkpt>
      <trkpt lat="43.19196" lon="5.76494">
        <ele>72.695084</ele>
        <time>2022-08-14T05:08:11Z</time>
      </trkpt>
      <trkpt lat="43.19252" lon="5.76496">
        <ele>72.878647</ele>
        <time>2022-08-14T05:08:23Z</time>
      </trkpt>
      <trkpt lat="43.19266" lon="5.76499">
        <ele>73.239273</ele>
        <time>2022-08-14T05:08:25Z</time>
      </trkpt>
      <trkpt lat="43.1928" lon="5.76498">
        <ele>73.598892</ele>
        <time>2022-08-14T05:08:27Z</time>
      </trkpt>
      <trkpt lat="43.19284" lon="5.76494">
        <ele>73.9702</ele>
        <time>2022-08-14T05:08:29Z</time>
      </trkpt>
      <trkpt lat="43.19283" lon="5.76473">
        <ele>74.358841</ele>
        <time>2022-08-14T05:08:31Z</time>
      </trkpt>
      <trkpt lat="43.19291" lon="5.76457">
        <ele>74.55912</ele>
        <time>2022-08-14T05:08:33Z</time>
      </trkpt>
      <trkpt lat="43.19297" lon="5.76445">
        <ele>74.962784</ele>
        <time>2022-08-14T05:08:35Z</time>
      </trkpt>
      <trkpt lat="43.193" lon="5.76434">
        <ele>75.166092</ele>
        <time>2022-08-14T05:08:37Z</time>
      </trkpt>
      <trkpt lat="43.19304" lon="5.76425">
        <ele>75.571579</ele>
        <time>2022-08-14T05:08:39Z</time>
      </trkpt>
      <trkpt lat="43.19313" lon="5.76411">
        <ele>75.77282</ele>
        <time>2022-08-14T05:08:41Z</time>
      </trkpt>
      <trkpt lat="43.19321" lon="5.76398">
        <ele>76.16848</ele>
        <time>2022-08-14T05:08:43Z</time>
      </trkpt>
      <trkpt lat="43.1933" lon="5.76387">
        <ele>76.36467</ele>
        <time>2022-08-14T05:08:45Z</time>
      </trkpt>
      <trkpt lat="43.19339" lon="5.76378">
        <ele>76.559555</ele>
        <time>2022-08-14T05:08:47Z</time>
      </trkpt>
      <trkpt lat="43.19348" lon="5.76368">
        <ele>76.946014</ele>
        <time>2022-08-14T05:08:49Z</time>
      </trkpt>
      <trkpt lat="43.19358" lon="5.76359">
        <ele>77.141182</ele>
        <time>2022-08-14T05:08:51Z</time>
      </trkpt>
      <trkpt lat="43.19369" lon="5.76352">
        <ele>77.337532</ele>
        <time>2022-08-14T05:08:53Z</time>
      </trkpt>
      <trkpt lat="43.19379" lon="5.76345">
        <ele>77.5355</ele>
        <time>2022-08-14T05:08:55Z</time>
      </trkpt>
      <trkpt lat="43.1939" lon="5.76339">
        <ele>77.946693</ele>
        <time>2022-08-14T05:08:57Z</time>
      </trkpt>
      <trkpt lat="43.19401" lon="5.76333">
        <ele>78.156265</ele>
        <time>2022-08-14T05:08:59Z</time>
      </trkpt>
      <trkpt lat="43.19411" lon="5.76328">
        <ele>78.371056</ele>
        <time>2022-08-14T05:09:01Z</time>
      </trkpt>
      <trkpt lat="43.19422" lon="5.76324">
        <ele>78.594078</ele>
        <time>2022-08-14T05:09:03Z</time>
      </trkpt>
      <trkpt lat="43.19431" lon="5.76319">
        <ele>78.81543</ele>
        <time>2022-08-14T05:09:05Z</time>
      </trkpt>
      <trkpt lat="43.1944" lon="5.76315">
        <ele>79.040642</ele>
        <time>2022-08-14T05:09:07Z</time>
      </trkpt>
      <trkpt lat="43.19448" lon="5.76312">
        <ele>79.27034</ele>
        <time>2022-08-14T05:09:09Z</time>
      </trkpt>
      <trkpt lat="43.19456" lon="5.76309">
        <ele>79.511124</ele>
        <time>2022-08-14T05:09:11Z</time>
      </trkpt>
      <trkpt lat="43.19464" lon="5.76305">
        <ele>80.027084</ele>
        <time>2022-08-14T05:09:13Z</time>
      </trkpt>
      <trkpt lat="43.19473" lon="5.76302">
        <ele>80.29715</ele>
        <time>2022-08-14T05:09:15Z</time>
      </trkpt>
      <trkpt lat="43.19481" lon="5.76299">
        <ele>80.578278</ele>
        <time>2022-08-14T05:09:17Z</time>
      </trkpt>
      <trkpt lat="43.19489" lon="5.76295">
        <ele>80.869957</ele>
        <time>2022-08-14T05:09:19Z</time>
      </trkpt>
      <trkpt lat="43.19497" lon="5.76293">
        <ele>81.172043</ele>
        <time>2022-08-14T05:09:21Z</time>
      </trkpt>
      <trkpt lat="43.19503" lon="5.7629">
        <ele>81.485214</ele>
        <time>2022-08-14T05:09:23Z</time>
      </trkpt>
      <trkpt lat="43.19509" lon="5.76288">
        <ele>82.135582</ele>
        <time>2022-08-14T05:09:25Z</time>
      </trkpt>
      <trkpt lat="43.19518" lon="5.76284">
        <ele>82.465652</ele>
        <time>2022-08-14T05:09:27Z</time>
      </trkpt>
      <trkpt lat="43.19527" lon="5.76281">
        <ele>82.800507</ele>
        <time>2022-08-14T05:09:29Z</time>
      </trkpt>
      <trkpt lat="43.19537" lon="5.76278">
        <ele>83.13887</ele>
        <time>2022-08-14T05:09:31Z</time>
      </trkpt>
      <trkpt lat="43.19548" lon="5.76273">
        <ele>83.476051</ele>
        <time>2022-08-14T05:09:33Z</time>
      </trkpt>
      <trkpt lat="43.19559" lon="5.7627">
        <ele>84.159897</ele>
        <time>2022-08-14T05:09:35Z</time>
      </trkpt>
      <trkpt lat="43.19572" lon="5.76266">
        <ele>84.505798</ele>
        <time>2022-08-14T05:09:37Z</time>
      </trkpt>
      <trkpt lat="43.19586" lon="5.7626">
        <ele>84.853378</ele>
        <time>2022-08-14T05:09:39Z</time>
      </trkpt>
      <trkpt lat="43.19601" lon="5.76253">
        <ele>85.20076</ele>
        <time>2022-08-14T05:09:41Z</time>
      </trkpt>
      <trkpt lat="43.19619" lon="5.76249">
        <ele>85.54805</ele>
        <time>2022-08-14T05:09:43Z</time>
      </trkpt>
      <trkpt lat="43.19638" lon="5.7625">
        <ele>85.896446</ele>
        <time>2022-08-14T05:09:45Z</time>
      </trkpt>
      <trkpt lat="43.19655" lon="5.76257">
        <ele>86.243477</ele>
        <time>2022-08-14T05:09:47Z</time>
      </trkpt>
      <trkpt lat="43.19671" lon="5.7627">
        <ele>86.931213</ele>
        <time>2022-08-14T05:09:49Z</time>
      </trkpt>
      <trkpt lat="43.19688" lon="5.76292">
        <ele>87.60833</ele>
        <time>2022-08-14T05:09:52Z</time>
      </trkpt>
      <trkpt lat="43.19698" lon="5.76305">
        <ele>87.941467</ele>
        <time>2022-08-14T05:09:54Z</time>
      </trkpt>
      <trkpt lat="43.19707" lon="5.76317">
        <ele>88.270828</ele>
        <time>2022-08-14T05:09:56Z</time>
      </trkpt>
      <trkpt lat="43.19716" lon="5.76326">
        <ele>88.598976</ele>
        <time>2022-08-14T05:09:58Z</time>
      </trkpt>
      <trkpt lat="43.19725" lon="5.76335">
        <ele>89.242516</ele>
        <time>2022-08-14T05:10:00Z</time>
      </trkpt>
      <trkpt lat="43.19734" lon="5.76342">
        <ele>89.562119</ele>
        <time>2022-08-14T05:10:02Z</time>
      </trkpt>
      <trkpt lat="43.19743" lon="5.76348">
        <ele>89.878517</ele>
        <time>2022-08-14T05:10:04Z</time>
      </trkpt>
      <trkpt lat="43.19754" lon="5.76352">
        <ele>90.193123</ele>
        <time>2022-08-14T05:10:06Z</time>
      </trkpt>
      <trkpt lat="43.19765" lon="5.76356">
        <ele>90.802284</ele>
        <time>2022-08-14T05:10:08Z</time>
      </trkpt>
      <trkpt lat="43.19781" lon="5.7636">
        <ele>91.086777</ele>
        <time>2022-08-14T05:10:11Z</time>
      </trkpt>
      <trkpt lat="43.19792" lon="5.76362">
        <ele>91.618057</ele>
        <time>2022-08-14T05:10:13Z</time>
      </trkpt>
      <trkpt lat="43.19802" lon="5.76362">
        <ele>92.052811</ele>
        <time>2022-08-14T05:10:15Z</time>
      </trkpt>
      <trkpt lat="43.19812" lon="5.76359">
        <ele>92.216614</ele>
        <time>2022-08-14T05:10:17Z</time>
      </trkpt>
      <trkpt lat="43.19823" lon="5.76355">
        <ele>92.347633</ele>
        <time>2022-08-14T05:10:19Z</time>
      </trkpt>
      <trkpt lat="43.19833" lon="5.76351">
        <ele>92.516464</ele>
        <time>2022-08-14T05:10:21Z</time>
      </trkpt>
      <trkpt lat="43.19844" lon="5.76346">
        <ele>92.548698</ele>
        <time>2022-08-14T05:10:23Z</time>
      </trkpt>
      <trkpt lat="43.19854" lon="5.76343">
        <ele>92.537094</ele>
        <time>2022-08-14T05:10:25Z</time>
      </trkpt>
      <trkpt lat="43.19865" lon="5.76338">
        <ele>92.484879</ele>
        <time>2022-08-14T05:10:27Z</time>
      </trkpt>
      <trkpt lat="43.19876" lon="5.76334">
        <ele>92.287544</ele>
        <time>2022-08-14T05:10:29Z</time>
      </trkpt>
      <trkpt lat="43.19887" lon="5.7633">
        <ele>92.159836</ele>
        <time>2022-08-14T05:10:31Z</time>
      </trkpt>
      <trkpt lat="43.19898" lon="5.76327">
        <ele>92.015739</ele>
        <time>2022-08-14T05:10:33Z</time>
      </trkpt>
      <trkpt lat="43.1991" lon="5.76322">
        <ele>91.689507</ele>
        <time>2022-08-14T05:10:35Z</time>
      </trkpt>
      <trkpt lat="43.19922" lon="5.76318">
        <ele>91.511032</ele>
        <time>2022-08-14T05:10:37Z</time>
      </trkpt>
      <trkpt lat="43.19934" lon="5.76313">
        <ele>91.324356</ele>
        <time>2022-08-14T05:10:39Z</time>
      </trkpt>
      <trkpt lat="43.19946" lon="5.76309">
        <ele>90.938583</ele>
        <time>2022-08-14T05:10:41Z</time>
      </trkpt>
      <trkpt lat="43.19959" lon="5.76307">
        <ele>90.744011</ele>
        <time>2022-08-14T05:10:43Z</time>
      </trkpt>
      <trkpt lat="43.19972" lon="5.76309">
        <ele>90.361832</ele>
        <time>2022-08-14T05:10:45Z</time>
      </trkpt>
      <trkpt lat="43.19984" lon="5.76317">
        <ele>90.174561</ele>
        <time>2022-08-14T05:10:47Z</time>
      </trkpt>
      <trkpt lat="43.19994" lon="5.76324">
        <ele>89.818298</ele>
        <time>2022-08-14T05:10:49Z</time>
      </trkpt>
      <trkpt lat="43.20004" lon="5.76318">
        <ele>89.484245</ele>
        <time>2022-08-14T05:10:51Z</time>
      </trkpt>
      <trkpt lat="43.20007" lon="5.76303">
        <ele>89.167946</ele>
        <time>2022-08-14T05:10:53Z</time>
      </trkpt>
      <trkpt lat="43.20008" lon="5.76286">
        <ele>88.857719</ele>
        <time>2022-08-14T05:10:55Z</time>
      </trkpt>
      <trkpt lat="43.20009" lon="5.76268">
        <ele>88.700691</ele>
        <time>2022-08-14T05:10:57Z</time>
      </trkpt>
      <trkpt lat="43.2001" lon="5.76251">
        <ele>88.371498</ele>
        <time>2022-08-14T05:10:59Z</time>
      </trkpt>
      <trkpt lat="43.20011" lon="5.76233">
        <ele>88.022743</ele>
        <time>2022-08-14T05:11:01Z</time>
      </trkpt>
      <trkpt lat="43.20012" lon="5.76215">
        <ele>87.677002</ele>
        <time>2022-08-14T05:11:03Z</time>
      </trkpt>
      <trkpt lat="43.2001" lon="5.76198">
        <ele>87.514282</ele>
        <time>2022-08-14T05:11:05Z</time>
      </trkpt>
      <trkpt lat="43.20008" lon="5.7618">
        <ele>87.222816</ele>
        <time>2022-08-14T05:11:07Z</time>
      </trkpt>
      <trkpt lat="43.20005" lon="5.76163">
        <ele>87.100029</ele>
        <time>2022-08-14T05:11:09Z</time>
      </trkpt>
      <trkpt lat="43.20003" lon="5.76146">
        <ele>86.921371</ele>
        <time>2022-08-14T05:11:11Z</time>
      </trkpt>
      <trkpt lat="43.20001" lon="5.76128">
        <ele>86.823555</ele>
        <time>2022-08-14T05:11:13Z</time>
      </trkpt>
      <trkpt lat="43.2" lon="5.76111">
        <ele>86.825836</ele>
        <time>2022-08-14T05:11:15Z</time>
      </trkpt>
      <trkpt lat="43.2" lon="5.76093">
        <ele>86.873367</ele>
        <time>2022-08-14T05:11:17Z</time>
      </trkpt>
      <trkpt lat="43.20001" lon="5.76075">
        <ele>87.148758</ele>
        <time>2022-08-14T05:11:19Z</time>
      </trkpt>
      <trkpt lat="43.20002" lon="5.76057">
        <ele>87.265999</ele>
        <time>2022-08-14T05:11:21Z</time>
      </trkpt>
      <trkpt lat="43.20005" lon="5.7604">
        <ele>87.524467</ele>
        <time>2022-08-14T05:11:23Z</time>
      </trkpt>
      <trkpt lat="43.2001" lon="5.76024">
        <ele>87.659531</ele>
        <time>2022-08-14T05:11:25Z</time>
      </trkpt>
      <trkpt lat="43.20016" lon="5.76008">
        <ele>87.934578</ele>
        <time>2022-08-14T05:11:27Z</time>
      </trkpt>
      <trkpt lat="43.20022" lon="5.75992">
        <ele>88.070305</ele>
        <time>2022-08-14T05:11:29Z</time>
      </trkpt>
      <trkpt lat="43.20026" lon="5.75976">
        <ele>88.334976</ele>
        <time>2022-08-14T05:11:31Z</time>
      </trkpt>
      <trkpt lat="43.20029" lon="5.75959">
        <ele>88.579155</ele>
        <time>2022-08-14T05:11:33Z</time>
      </trkpt>
      <trkpt lat="43.2003" lon="5.75942">
        <ele>88.692276</ele>
        <time>2022-08-14T05:11:35Z</time>
      </trkpt>
      <trkpt lat="43.20029" lon="5.75925">
        <ele>88.905647</ele>
        <time>2022-08-14T05:11:37Z</time>
      </trkpt>
      <trkpt lat="43.20029" lon="5.75907">
        <ele>89.005356</ele>
        <time>2022-08-14T05:11:39Z</time>
      </trkpt>
      <trkpt lat="43.20029" lon="5.75889">
        <ele>89.200027</ele>
        <time>2022-08-14T05:11:41Z</time>
      </trkpt>
      <trkpt lat="43.20029" lon="5.75862">
        <ele>89.39373</ele>
        <time>2022-08-14T05:11:44Z</time>
      </trkpt>
      <trkpt lat="43.20029" lon="5.75844">
        <ele>89.590195</ele>
        <time>2022-08-14T05:11:46Z</time>
      </trkpt>
      <trkpt lat="43.20029" lon="5.75825">
        <ele>89.797226</ele>
        <time>2022-08-14T05:11:48Z</time>
      </trkpt>
      <trkpt lat="43.20029" lon="5.75807">
        <ele>89.909431</ele>
        <time>2022-08-14T05:11:50Z</time>
      </trkpt>
      <trkpt lat="43.20029" lon="5.75789">
        <ele>90.027023</ele>
        <time>2022-08-14T05:11:52Z</time>
      </trkpt>
      <trkpt lat="43.20029" lon="5.75771">
        <ele>90.27562</ele>
        <time>2022-08-14T05:11:54Z</time>
      </trkpt>
      <trkpt lat="43.2003" lon="5.75752">
        <ele>90.409721</ele>
        <time>2022-08-14T05:11:56Z</time>
      </trkpt>
      <trkpt lat="43.20031" lon="5.75734">
        <ele>90.687737</ele>
        <time>2022-08-14T05:11:58Z</time>
      </trkpt>
      <trkpt lat="43.20032" lon="5.75716">
        <ele>90.830673</ele>
        <time>2022-08-14T05:12:00Z</time>
      </trkpt>
      <trkpt lat="43.20033" lon="5.75697">
        <ele>91.127213</ele>
        <time>2022-08-14T05:12:02Z</time>
      </trkpt>
      <trkpt lat="43.20034" lon="5.75679">
        <ele>91.279617</ele>
        <time>2022-08-14T05:12:04Z</time>
      </trkpt>
      <trkpt lat="43.20036" lon="5.75661">
        <ele>91.58754</ele>
        <time>2022-08-14T05:12:06Z</time>
      </trkpt>
      <trkpt lat="43.20039" lon="5.75642">
        <ele>91.74231</ele>
        <time>2022-08-14T05:12:08Z</time>
      </trkpt>
      <trkpt lat="43.20043" lon="5.75624">
        <ele>91.89502</ele>
        <time>2022-08-14T05:12:10Z</time>
      </trkpt>
      <trkpt lat="43.20046" lon="5.75607">
        <ele>92.045189</ele>
        <time>2022-08-14T05:12:12Z</time>
      </trkpt>
      <trkpt lat="43.20049" lon="5.75589">
        <ele>92.190529</ele>
        <time>2022-08-14T05:12:14Z</time>
      </trkpt>
      <trkpt lat="43.20052" lon="5.75572">
        <ele>92.328796</ele>
        <time>2022-08-14T05:12:16Z</time>
      </trkpt>
      <trkpt lat="43.20054" lon="5.75554">
        <ele>92.456444</ele>
        <time>2022-08-14T05:12:18Z</time>
      </trkpt>
      <trkpt lat="43.20055" lon="5.75536">
        <ele>92.687683</ele>
        <time>2022-08-14T05:12:20Z</time>
      </trkpt>
      <trkpt lat="43.20057" lon="5.75518">
        <ele>92.788956</ele>
        <time>2022-08-14T05:12:22Z</time>
      </trkpt>
      <trkpt lat="43.20059" lon="5.75499">
        <ele>92.883705</ele>
        <time>2022-08-14T05:12:24Z</time>
      </trkpt>
      <trkpt lat="43.20061" lon="5.7548">
        <ele>92.972069</ele>
        <time>2022-08-14T05:12:26Z</time>
      </trkpt>
      <trkpt lat="43.20063" lon="5.75461">
        <ele>93.055908</ele>
        <time>2022-08-14T05:12:28Z</time>
      </trkpt>
      <trkpt lat="43.20066" lon="5.75443">
        <ele>93.137924</ele>
        <time>2022-08-14T05:12:30Z</time>
      </trkpt>
      <trkpt lat="43.2007" lon="5.75425">
        <ele>93.298744</ele>
        <time>2022-08-14T05:12:32Z</time>
      </trkpt>
      <trkpt lat="43.20076" lon="5.75408">
        <ele>93.380211</ele>
        <time>2022-08-14T05:12:34Z</time>
      </trkpt>
      <trkpt lat="43.20081" lon="5.75391">
        <ele>93.54863</ele>
        <time>2022-08-14T05:12:36Z</time>
      </trkpt>
      <trkpt lat="43.20087" lon="5.75373">
        <ele>93.63562</ele>
        <time>2022-08-14T05:12:38Z</time>
      </trkpt>
      <trkpt lat="43.20092" lon="5.75356">
        <ele>93.816139</ele>
        <time>2022-08-14T05:12:40Z</time>
      </trkpt>
      <trkpt lat="43.20096" lon="5.75339">
        <ele>93.909439</ele>
        <time>2022-08-14T05:12:42Z</time>
      </trkpt>
      <trkpt lat="43.20101" lon="5.75321">
        <ele>94.003357</ele>
        <time>2022-08-14T05:12:44Z</time>
      </trkpt>
      <trkpt lat="43.20105" lon="5.75304">
        <ele>94.10051</ele>
        <time>2022-08-14T05:12:46Z</time>
      </trkpt>
      <trkpt lat="43.2011" lon="5.75286">
        <ele>94.288193</ele>
        <time>2022-08-14T05:12:48Z</time>
      </trkpt>
      <trkpt lat="43.20115" lon="5.75269">
        <ele>94.380028</ele>
        <time>2022-08-14T05:12:50Z</time>
      </trkpt>
      <trkpt lat="43.20119" lon="5.75251">
        <ele>94.463417</ele>
        <time>2022-08-14T05:12:52Z</time>
      </trkpt>
      <trkpt lat="43.20124" lon="5.75233">
        <ele>94.604881</ele>
        <time>2022-08-14T05:12:54Z</time>
      </trkpt>
      <trkpt lat="43.20128" lon="5.75214">
        <ele>94.662331</ele>
        <time>2022-08-14T05:12:56Z</time>
      </trkpt>
      <trkpt lat="43.20132" lon="5.75196">
        <ele>94.736504</ele>
        <time>2022-08-14T05:12:58Z</time>
      </trkpt>
      <trkpt lat="43.20137" lon="5.75177">
        <ele>94.761292</ele>
        <time>2022-08-14T05:13:00Z</time>
      </trkpt>
      <trkpt lat="43.20141" lon="5.75158">
        <ele>94.773926</ele>
        <time>2022-08-14T05:13:02Z</time>
      </trkpt>
      <trkpt lat="43.20145" lon="5.75139">
        <ele>94.774994</ele>
        <time>2022-08-14T05:13:04Z</time>
      </trkpt>
      <trkpt lat="43.2015" lon="5.75121">
        <ele>94.765152</ele>
        <time>2022-08-14T05:13:06Z</time>
      </trkpt>
      <trkpt lat="43.20156" lon="5.75103">
        <ele>94.745277</ele>
        <time>2022-08-14T05:13:08Z</time>
      </trkpt>
      <trkpt lat="43.20161" lon="5.75085">
        <ele>94.684723</ele>
        <time>2022-08-14T05:13:10Z</time>
      </trkpt>
      <trkpt lat="43.20166" lon="5.75066">
        <ele>94.644997</ele>
        <time>2022-08-14T05:13:12Z</time>
      </trkpt>
      <trkpt lat="43.20171" lon="5.75049">
        <ele>94.599808</ele>
        <time>2022-08-14T05:13:14Z</time>
      </trkpt>
      <trkpt lat="43.20177" lon="5.75031">
        <ele>94.551811</ele>
        <time>2022-08-14T05:13:16Z</time>
      </trkpt>
      <trkpt lat="43.20182" lon="5.75014">
        <ele>94.503792</ele>
        <time>2022-08-14T05:13:18Z</time>
      </trkpt>
      <trkpt lat="43.20186" lon="5.74996">
        <ele>94.45816</ele>
        <time>2022-08-14T05:13:20Z</time>
      </trkpt>
      <trkpt lat="43.2019" lon="5.74978">
        <ele>94.416412</ele>
        <time>2022-08-14T05:13:22Z</time>
      </trkpt>
      <trkpt lat="43.20195" lon="5.74961">
        <ele>94.341888</ele>
        <time>2022-08-14T05:13:24Z</time>
      </trkpt>
      <trkpt lat="43.20199" lon="5.74944">
        <ele>94.309235</ele>
        <time>2022-08-14T05:13:26Z</time>
      </trkpt>
      <trkpt lat="43.20203" lon="5.74926">
        <ele>94.277634</ele>
        <time>2022-08-14T05:13:28Z</time>
      </trkpt>
      <trkpt lat="43.20208" lon="5.74908">
        <ele>94.245819</ele>
        <time>2022-08-14T05:13:30Z</time>
      </trkpt>
      <trkpt lat="43.20211" lon="5.7489">
        <ele>94.179825</ele>
        <time>2022-08-14T05:13:32Z</time>
      </trkpt>
      <trkpt lat="43.20216" lon="5.74872">
        <ele>94.14312</ele>
        <time>2022-08-14T05:13:34Z</time>
      </trkpt>
      <trkpt lat="43.2022" lon="5.74855">
        <ele>94.104324</ele>
        <time>2022-08-14T05:13:36Z</time>
      </trkpt>
      <trkpt lat="43.20224" lon="5.74837">
        <ele>94.060333</ele>
        <time>2022-08-14T05:13:38Z</time>
      </trkpt>
      <trkpt lat="43.20227" lon="5.74819">
        <ele>94.009346</ele>
        <time>2022-08-14T05:13:40Z</time>
      </trkpt>
      <trkpt lat="43.20232" lon="5.74802">
        <ele>93.952278</ele>
        <time>2022-08-14T05:13:42Z</time>
      </trkpt>
      <trkpt lat="43.20235" lon="5.74784">
        <ele>93.885086</ele>
        <time>2022-08-14T05:13:44Z</time>
      </trkpt>
      <trkpt lat="43.2024" lon="5.74767">
        <ele>93.80645</ele>
        <time>2022-08-14T05:13:46Z</time>
      </trkpt>
      <trkpt lat="43.20244" lon="5.74749">
        <ele>93.718864</ele>
        <time>2022-08-14T05:13:48Z</time>
      </trkpt>
      <trkpt lat="43.20248" lon="5.74732">
        <ele>93.618759</ele>
        <time>2022-08-14T05:13:50Z</time>
      </trkpt>
      <trkpt lat="43.20252" lon="5.74714">
        <ele>93.390938</ele>
        <time>2022-08-14T05:13:52Z</time>
      </trkpt>
      <trkpt lat="43.20257" lon="5.74687">
        <ele>93.265244</ele>
        <time>2022-08-14T05:13:55Z</time>
      </trkpt>
      <trkpt lat="43.20261" lon="5.74669">
        <ele>92.997139</ele>
        <time>2022-08-14T05:13:57Z</time>
      </trkpt>
      <trkpt lat="43.20264" lon="5.74652">
        <ele>92.997139</ele>
        <time>2022-08-14T05:13:59Z</time>
      </trkpt>
      <trkpt lat="43.20268" lon="5.74634">
        <ele>92.714249</ele>
        <time>2022-08-14T05:14:01Z</time>
      </trkpt>
      <trkpt lat="43.20271" lon="5.74616">
        <ele>92.572807</ele>
        <time>2022-08-14T05:14:03Z</time>
      </trkpt>
      <trkpt lat="43.20274" lon="5.74598">
        <ele>92.431442</ele>
        <time>2022-08-14T05:14:05Z</time>
      </trkpt>
      <trkpt lat="43.20277" lon="5.7458">
        <ele>92.293228</ele>
        <time>2022-08-14T05:14:07Z</time>
      </trkpt>
      <trkpt lat="43.2028" lon="5.74562">
        <ele>92.15799</ele>
        <time>2022-08-14T05:14:09Z</time>
      </trkpt>
      <trkpt lat="43.20282" lon="5.74544">
        <ele>91.900742</ele>
        <time>2022-08-14T05:14:11Z</time>
      </trkpt>
      <trkpt lat="43.20285" lon="5.74525">
        <ele>91.783112</ele>
        <time>2022-08-14T05:14:13Z</time>
      </trkpt>
      <trkpt lat="43.20289" lon="5.74507">
        <ele>91.574745</ele>
        <time>2022-08-14T05:14:15Z</time>
      </trkpt>
      <trkpt lat="43.20291" lon="5.74488">
        <ele>91.483017</ele>
        <time>2022-08-14T05:14:17Z</time>
      </trkpt>
      <trkpt lat="43.20294" lon="5.7447">
        <ele>91.327133</ele>
        <time>2022-08-14T05:14:19Z</time>
      </trkpt>
      <trkpt lat="43.20297" lon="5.74451">
        <ele>91.262619</ele>
        <time>2022-08-14T05:14:21Z</time>
      </trkpt>
      <trkpt lat="43.20299" lon="5.74432">
        <ele>91.15905</ele>
        <time>2022-08-14T05:14:23Z</time>
      </trkpt>
      <trkpt lat="43.20301" lon="5.74413">
        <ele>91.119148</ele>
        <time>2022-08-14T05:14:25Z</time>
      </trkpt>
      <trkpt lat="43.20303" lon="5.74394">
        <ele>91.086639</ele>
        <time>2022-08-14T05:14:27Z</time>
      </trkpt>
      <trkpt lat="43.20305" lon="5.74375">
        <ele>91.042526</ele>
        <time>2022-08-14T05:14:29Z</time>
      </trkpt>
      <trkpt lat="43.20306" lon="5.74356">
        <ele>91.030411</ele>
        <time>2022-08-14T05:14:31Z</time>
      </trkpt>
      <trkpt lat="43.20307" lon="5.74336">
        <ele>91.027817</ele>
        <time>2022-08-14T05:14:33Z</time>
      </trkpt>
      <trkpt lat="43.20307" lon="5.74317">
        <ele>91.037521</ele>
        <time>2022-08-14T05:14:35Z</time>
      </trkpt>
      <trkpt lat="43.20308" lon="5.74296">
        <ele>91.083099</ele>
        <time>2022-08-14T05:14:37Z</time>
      </trkpt>
      <trkpt lat="43.20309" lon="5.74276">
        <ele>91.120354</ele>
        <time>2022-08-14T05:14:39Z</time>
      </trkpt>
      <trkpt lat="43.20309" lon="5.74256">
        <ele>91.227608</ele>
        <time>2022-08-14T05:14:41Z</time>
      </trkpt>
      <trkpt lat="43.2031" lon="5.74236">
        <ele>91.298447</ele>
        <time>2022-08-14T05:14:43Z</time>
      </trkpt>
      <trkpt lat="43.20311" lon="5.74217">
        <ele>91.381378</ele>
        <time>2022-08-14T05:14:45Z</time>
      </trkpt>
      <trkpt lat="43.20312" lon="5.74198">
        <ele>91.586395</ele>
        <time>2022-08-14T05:14:47Z</time>
      </trkpt>
      <trkpt lat="43.20312" lon="5.74179">
        <ele>91.840073</ele>
        <time>2022-08-14T05:14:49Z</time>
      </trkpt>
      <trkpt lat="43.20313" lon="5.7416">
        <ele>92.133026</ele>
        <time>2022-08-14T05:14:51Z</time>
      </trkpt>
      <trkpt lat="43.20314" lon="5.74141">
        <ele>92.467644</ele>
        <time>2022-08-14T05:14:53Z</time>
      </trkpt>
      <trkpt lat="43.20314" lon="5.74122">
        <ele>92.649567</ele>
        <time>2022-08-14T05:14:55Z</time>
      </trkpt>
      <trkpt lat="43.20315" lon="5.74103">
        <ele>93.039108</ele>
        <time>2022-08-14T05:14:57Z</time>
      </trkpt>
      <trkpt lat="43.20317" lon="5.74084">
        <ele>93.451202</ele>
        <time>2022-08-14T05:14:59Z</time>
      </trkpt>
      <trkpt lat="43.20319" lon="5.74066">
        <ele>93.665878</ele>
        <time>2022-08-14T05:15:01Z</time>
      </trkpt>
      <trkpt lat="43.20323" lon="5.74048">
        <ele>94.106918</ele>
        <time>2022-08-14T05:15:03Z</time>
      </trkpt>
      <trkpt lat="43.20326" lon="5.7403">
        <ele>94.557205</ele>
        <time>2022-08-14T05:15:05Z</time>
      </trkpt>
      <trkpt lat="43.20329" lon="5.74014">
        <ele>94.782532</ele>
        <time>2022-08-14T05:15:07Z</time>
      </trkpt>
      <trkpt lat="43.20329" lon="5.73997">
        <ele>95.226471</ele>
        <time>2022-08-14T05:15:09Z</time>
      </trkpt>
      <trkpt lat="43.20322" lon="5.73984">
        <ele>95.653099</ele>
        <time>2022-08-14T05:15:11Z</time>
      </trkpt>
      <trkpt lat="43.20312" lon="5.73978">
        <ele>96.052963</ele>
        <time>2022-08-14T05:15:13Z</time>
      </trkpt>
      <trkpt lat="43.20301" lon="5.73977">
        <ele>96.422668</ele>
        <time>2022-08-14T05:15:15Z</time>
      </trkpt>
      <trkpt lat="43.2029" lon="5.73977">
        <ele>96.767624</ele>
        <time>2022-08-14T05:15:17Z</time>
      </trkpt>
      <trkpt lat="43.20278" lon="5.73978">
        <ele>97.099457</ele>
        <time>2022-08-14T05:15:19Z</time>
      </trkpt>
      <trkpt lat="43.20266" lon="5.73978">
        <ele>97.427887</ele>
        <time>2022-08-14T05:15:21Z</time>
      </trkpt>
      <trkpt lat="43.20255" lon="5.73977">
        <ele>97.757721</ele>
        <time>2022-08-14T05:15:23Z</time>
      </trkpt>
      <trkpt lat="43.20247" lon="5.73968">
        <ele>98.092659</ele>
        <time>2022-08-14T05:15:25Z</time>
      </trkpt>
      <trkpt lat="43.20242" lon="5.73954">
        <ele>98.264145</ele>
        <time>2022-08-14T05:15:27Z</time>
      </trkpt>
      <trkpt lat="43.2024" lon="5.73939">
        <ele>98.623993</ele>
        <time>2022-08-14T05:15:29Z</time>
      </trkpt>
      <trkpt lat="43.20237" lon="5.73915">
        <ele>99.00267</ele>
        <time>2022-08-14T05:15:32Z</time>
      </trkpt>
      <trkpt lat="43.20235" lon="5.73897">
        <ele>99.385574</ele>
        <time>2022-08-14T05:15:34Z</time>
      </trkpt>
      <trkpt lat="43.20233" lon="5.73879">
        <ele>99.579552</ele>
        <time>2022-08-14T05:15:36Z</time>
      </trkpt>
      <trkpt lat="43.20231" lon="5.7386">
        <ele>99.956985</ele>
        <time>2022-08-14T05:15:38Z</time>
      </trkpt>
      <trkpt lat="43.20229" lon="5.73841">
        <ele>100.328506</ele>
        <time>2022-08-14T05:15:40Z</time>
      </trkpt>
      <trkpt lat="43.20227" lon="5.73821">
        <ele>100.511978</ele>
        <time>2022-08-14T05:15:42Z</time>
      </trkpt>
      <trkpt lat="43.20224" lon="5.73801">
        <ele>100.696335</ele>
        <time>2022-08-14T05:15:44Z</time>
      </trkpt>
      <trkpt lat="43.20221" lon="5.73781">
        <ele>100.879204</ele>
        <time>2022-08-14T05:15:46Z</time>
      </trkpt>
      <trkpt lat="43.20219" lon="5.7376">
        <ele>101.245789</ele>
        <time>2022-08-14T05:15:48Z</time>
      </trkpt>
      <trkpt lat="43.20216" lon="5.7374">
        <ele>101.427414</ele>
        <time>2022-08-14T05:15:50Z</time>
      </trkpt>
      <trkpt lat="43.20214" lon="5.73721">
        <ele>101.791321</ele>
        <time>2022-08-14T05:15:52Z</time>
      </trkpt>
      <trkpt lat="43.20213" lon="5.737">
        <ele>102.148499</ele>
        <time>2022-08-14T05:15:54Z</time>
      </trkpt>
      <trkpt lat="43.20213" lon="5.73669">
        <ele>102.325912</ele>
        <time>2022-08-14T05:15:57Z</time>
      </trkpt>
      <trkpt lat="43.20212" lon="5.73647">
        <ele>102.845238</ele>
        <time>2022-08-14T05:15:59Z</time>
      </trkpt>
      <trkpt lat="43.20208" lon="5.73625">
        <ele>103.011719</ele>
        <time>2022-08-14T05:16:01Z</time>
      </trkpt>
      <trkpt lat="43.20202" lon="5.73604">
        <ele>103.171974</ele>
        <time>2022-08-14T05:16:03Z</time>
      </trkpt>
      <trkpt lat="43.20192" lon="5.73576">
        <ele>103.324318</ele>
        <time>2022-08-14T05:16:06Z</time>
      </trkpt>
      <trkpt lat="43.20186" lon="5.73558">
        <ele>103.59761</ele>
        <time>2022-08-14T05:16:08Z</time>
      </trkpt>
      <trkpt lat="43.20179" lon="5.73539">
        <ele>103.714699</ele>
        <time>2022-08-14T05:16:10Z</time>
      </trkpt>
      <trkpt lat="43.20173" lon="5.73519">
        <ele>103.816483</ele>
        <time>2022-08-14T05:16:12Z</time>
      </trkpt>
      <trkpt lat="43.20166" lon="5.73499">
        <ele>103.901001</ele>
        <time>2022-08-14T05:16:14Z</time>
      </trkpt>
      <trkpt lat="43.2016" lon="5.73479">
        <ele>103.966408</ele>
        <time>2022-08-14T05:16:16Z</time>
      </trkpt>
      <trkpt lat="43.20153" lon="5.73457">
        <ele>104.003586</ele>
        <time>2022-08-14T05:16:18Z</time>
      </trkpt>
      <trkpt lat="43.20146" lon="5.73434">
        <ele>103.984886</ele>
        <time>2022-08-14T05:16:20Z</time>
      </trkpt>
      <trkpt lat="43.2014" lon="5.7341">
        <ele>103.849098</ele>
        <time>2022-08-14T05:16:22Z</time>
      </trkpt>
      <trkpt lat="43.20135" lon="5.73386">
        <ele>103.746338</ele>
        <time>2022-08-14T05:16:24Z</time>
      </trkpt>
      <trkpt lat="43.20127" lon="5.73361">
        <ele>103.459816</ele>
        <time>2022-08-14T05:16:26Z</time>
      </trkpt>
      <trkpt lat="43.20118" lon="5.73336">
        <ele>103.089188</ele>
        <time>2022-08-14T05:16:28Z</time>
      </trkpt>
      <trkpt lat="43.20108" lon="5.73311">
        <ele>102.875755</ele>
        <time>2022-08-14T05:16:30Z</time>
      </trkpt>
      <trkpt lat="43.20099" lon="5.73284">
        <ele>102.399765</ele>
        <time>2022-08-14T05:16:32Z</time>
      </trkpt>
      <trkpt lat="43.20089" lon="5.73257">
        <ele>102.141678</ele>
        <time>2022-08-14T05:16:34Z</time>
      </trkpt>
      <trkpt lat="43.20078" lon="5.73231">
        <ele>101.578781</ele>
        <time>2022-08-14T05:16:36Z</time>
      </trkpt>
      <trkpt lat="43.20069" lon="5.73202">
        <ele>100.953377</ele>
        <time>2022-08-14T05:16:38Z</time>
      </trkpt>
      <trkpt lat="43.2006" lon="5.73172">
        <ele>100.232574</ele>
        <time>2022-08-14T05:16:40Z</time>
      </trkpt>
      <trkpt lat="43.20052" lon="5.73141">
        <ele>99.834625</ele>
        <time>2022-08-14T05:16:42Z</time>
      </trkpt>
      <trkpt lat="43.20044" lon="5.7311">
        <ele>98.982758</ele>
        <time>2022-08-14T05:16:44Z</time>
      </trkpt>
      <trkpt lat="43.20034" lon="5.73078">
        <ele>98.518806</ele>
        <time>2022-08-14T05:16:46Z</time>
      </trkpt>
      <trkpt lat="43.20025" lon="5.73047">
        <ele>98.032852</ele>
        <time>2022-08-14T05:16:48Z</time>
      </trkpt>
      <trkpt lat="43.20014" lon="5.73014">
        <ele>97.001274</ele>
        <time>2022-08-14T05:16:50Z</time>
      </trkpt>
      <trkpt lat="43.20006" lon="5.72981">
        <ele>96.451912</ele>
        <time>2022-08-14T05:16:52Z</time>
      </trkpt>
      <trkpt lat="43.19997" lon="5.72947">
        <ele>95.280685</ele>
        <time>2022-08-14T05:16:54Z</time>
      </trkpt>
      <trkpt lat="43.1999" lon="5.72913">
        <ele>94.656113</ele>
        <time>2022-08-14T05:16:56Z</time>
      </trkpt>
      <trkpt lat="43.19983" lon="5.72879">
        <ele>93.999657</ele>
        <time>2022-08-14T05:16:58Z</time>
      </trkpt>
      <trkpt lat="43.19975" lon="5.72845">
        <ele>93.31163</ele>
        <time>2022-08-14T05:17:00Z</time>
      </trkpt>
      <trkpt lat="43.19968" lon="5.72812">
        <ele>92.592171</ele>
        <time>2022-08-14T05:17:02Z</time>
      </trkpt>
      <trkpt lat="43.1996" lon="5.72779">
        <ele>91.862839</ele>
        <time>2022-08-14T05:17:04Z</time>
      </trkpt>
      <trkpt lat="43.19954" lon="5.72747">
        <ele>90.319336</ele>
        <time>2022-08-14T05:17:06Z</time>
      </trkpt>
      <trkpt lat="43.19948" lon="5.72714">
        <ele>88.712173</ele>
        <time>2022-08-14T05:17:08Z</time>
      </trkpt>
      <trkpt lat="43.19943" lon="5.72682">
        <ele>88.712173</ele>
        <time>2022-08-14T05:17:10Z</time>
      </trkpt>
      <trkpt lat="43.19938" lon="5.72651">
        <ele>87.859894</ele>
        <time>2022-08-14T05:17:12Z</time>
      </trkpt>
      <trkpt lat="43.19933" lon="5.72619">
        <ele>86.123116</ele>
        <time>2022-08-14T05:17:14Z</time>
      </trkpt>
      <trkpt lat="43.19928" lon="5.72588">
        <ele>85.259216</ele>
        <time>2022-08-14T05:17:16Z</time>
      </trkpt>
      <trkpt lat="43.19922" lon="5.72559">
        <ele>84.395805</ele>
        <time>2022-08-14T05:17:18Z</time>
      </trkpt>
      <trkpt lat="43.1991" lon="5.72531">
        <ele>82.651428</ele>
        <time>2022-08-14T05:17:20Z</time>
      </trkpt>
      <trkpt lat="43.19899" lon="5.72504">
        <ele>81.776428</ele>
        <time>2022-08-14T05:17:22Z</time>
      </trkpt>
      <trkpt lat="43.19889" lon="5.72476">
        <ele>80.895729</ele>
        <time>2022-08-14T05:17:24Z</time>
      </trkpt>
      <trkpt lat="43.19879" lon="5.72449">
        <ele>80.895729</ele>
        <time>2022-08-14T05:17:26Z</time>
      </trkpt>
      <trkpt lat="43.19868" lon="5.72423">
        <ele>80.002113</ele>
        <time>2022-08-14T05:17:28Z</time>
      </trkpt>
      <trkpt lat="43.19855" lon="5.72399">
        <ele>78.199005</ele>
        <time>2022-08-14T05:17:30Z</time>
      </trkpt>
      <trkpt lat="43.19841" lon="5.72377">
        <ele>78.199005</ele>
        <time>2022-08-14T05:17:32Z</time>
      </trkpt>
      <trkpt lat="43.1983" lon="5.72358">
        <ele>77.291977</ele>
        <time>2022-08-14T05:17:34Z</time>
      </trkpt>
      <trkpt lat="43.19816" lon="5.72339">
        <ele>76.37767</ele>
        <time>2022-08-14T05:17:36Z</time>
      </trkpt>
      <trkpt lat="43.19803" lon="5.72322">
        <ele>74.540215</ele>
        <time>2022-08-14T05:17:38Z</time>
      </trkpt>
      <trkpt lat="43.1979" lon="5.72306">
        <ele>72.714981</ele>
        <time>2022-08-14T05:17:40Z</time>
      </trkpt>
      <trkpt lat="43.19775" lon="5.7229">
        <ele>71.814209</ele>
        <time>2022-08-14T05:17:42Z</time>
      </trkpt>
      <trkpt lat="43.1976" lon="5.72276">
        <ele>70.070206</ele>
        <time>2022-08-14T05:17:44Z</time>
      </trkpt>
      <trkpt lat="43.19745" lon="5.72262">
        <ele>69.231735</ele>
        <time>2022-08-14T05:17:46Z</time>
      </trkpt>
      <trkpt lat="43.1973" lon="5.72246">
        <ele>67.607353</ele>
        <time>2022-08-14T05:17:48Z</time>
      </trkpt>
      <trkpt lat="43.19718" lon="5.72227">
        <ele>66.832664</ele>
        <time>2022-08-14T05:17:50Z</time>
      </trkpt>
      <trkpt lat="43.19708" lon="5.7221">
        <ele>65.351601</ele>
        <time>2022-08-14T05:17:52Z</time>
      </trkpt>
      <trkpt lat="43.197" lon="5.7219">
        <ele>64.637512</ele>
        <time>2022-08-14T05:17:54Z</time>
      </trkpt>
      <trkpt lat="43.19695" lon="5.72169">
        <ele>63.296925</ele>
        <time>2022-08-14T05:17:56Z</time>
      </trkpt>
      <trkpt lat="43.19688" lon="5.72148">
        <ele>62.661011</ele>
        <time>2022-08-14T05:17:58Z</time>
      </trkpt>
      <trkpt lat="43.19682" lon="5.72129">
        <ele>61.505241</ele>
        <time>2022-08-14T05:18:00Z</time>
      </trkpt>
      <trkpt lat="43.19674" lon="5.72109">
        <ele>60.992073</ele>
        <time>2022-08-14T05:18:02Z</time>
      </trkpt>
      <trkpt lat="43.19665" lon="5.72095">
        <ele>60.085735</ele>
        <time>2022-08-14T05:18:04Z</time>
      </trkpt>
      <trkpt lat="43.19653" lon="5.72082">
        <ele>59.693401</ele>
        <time>2022-08-14T05:18:06Z</time>
      </trkpt>
      <trkpt lat="43.1964" lon="5.72067">
        <ele>59.026184</ele>
        <time>2022-08-14T05:18:08Z</time>
      </trkpt>
      <trkpt lat="43.19627" lon="5.72053">
        <ele>58.522064</ele>
        <time>2022-08-14T05:18:10Z</time>
      </trkpt>
      <trkpt lat="43.19614" lon="5.72038">
        <ele>58.342499</ele>
        <time>2022-08-14T05:18:12Z</time>
      </trkpt>
      <trkpt lat="43.19601" lon="5.72024">
        <ele>58.036022</ele>
        <time>2022-08-14T05:18:14Z</time>
      </trkpt>
      <trkpt lat="43.19589" lon="5.72009">
        <ele>57.916206</ele>
        <time>2022-08-14T05:18:16Z</time>
      </trkpt>
      <trkpt lat="43.19577" lon="5.71994">
        <ele>57.815533</ele>
        <time>2022-08-14T05:18:18Z</time>
      </trkpt>
      <trkpt lat="43.19567" lon="5.71977">
        <ele>57.665352</ele>
        <time>2022-08-14T05:18:20Z</time>
      </trkpt>
      <trkpt lat="43.19556" lon="5.71959">
        <ele>57.613228</ele>
        <time>2022-08-14T05:18:22Z</time>
      </trkpt>
      <trkpt lat="43.19546" lon="5.71941">
        <ele>57.571716</ele>
        <time>2022-08-14T05:18:24Z</time>
      </trkpt>
      <trkpt lat="43.19537" lon="5.71919">
        <ele>57.565655</ele>
        <time>2022-08-14T05:18:26Z</time>
      </trkpt>
      <trkpt lat="43.19526" lon="5.71897">
        <ele>57.601959</ele>
        <time>2022-08-14T05:18:28Z</time>
      </trkpt>
      <trkpt lat="43.19515" lon="5.71874">
        <ele>57.639294</ele>
        <time>2022-08-14T05:18:30Z</time>
      </trkpt>
      <trkpt lat="43.19506" lon="5.71851">
        <ele>57.684937</ele>
        <time>2022-08-14T05:18:32Z</time>
      </trkpt>
      <trkpt lat="43.19496" lon="5.7183">
        <ele>57.788635</ele>
        <time>2022-08-14T05:18:34Z</time>
      </trkpt>
      <trkpt lat="43.19486" lon="5.7181">
        <ele>57.840954</ele>
        <time>2022-08-14T05:18:36Z</time>
      </trkpt>
      <trkpt lat="43.19475" lon="5.71792">
        <ele>57.932484</ele>
        <time>2022-08-14T05:18:38Z</time>
      </trkpt>
      <trkpt lat="43.19463" lon="5.71775">
        <ele>57.967155</ele>
        <time>2022-08-14T05:18:40Z</time>
      </trkpt>
      <trkpt lat="43.19448" lon="5.71759">
        <ele>58.006603</ele>
        <time>2022-08-14T05:18:42Z</time>
      </trkpt>
      <trkpt lat="43.19436" lon="5.71749">
        <ele>58.002136</ele>
        <time>2022-08-14T05:18:44Z</time>
      </trkpt>
      <trkpt lat="43.19424" lon="5.71739">
        <ele>57.982933</ele>
        <time>2022-08-14T05:18:46Z</time>
      </trkpt>
      <trkpt lat="43.19413" lon="5.71729">
        <ele>57.913311</ele>
        <time>2022-08-14T05:18:48Z</time>
      </trkpt>
      <trkpt lat="43.19404" lon="5.71717">
        <ele>57.862633</ele>
        <time>2022-08-14T05:18:50Z</time>
      </trkpt>
      <trkpt lat="43.19393" lon="5.71704">
        <ele>57.724693</ele>
        <time>2022-08-14T05:18:52Z</time>
      </trkpt>
      <trkpt lat="43.19382" lon="5.71689">
        <ele>57.636681</ele>
        <time>2022-08-14T05:18:54Z</time>
      </trkpt>
      <trkpt lat="43.19371" lon="5.71673">
        <ele>57.422077</ele>
        <time>2022-08-14T05:18:56Z</time>
      </trkpt>
      <trkpt lat="43.19359" lon="5.71656">
        <ele>57.295887</ele>
        <time>2022-08-14T05:18:58Z</time>
      </trkpt>
      <trkpt lat="43.19348" lon="5.71639">
        <ele>57.008278</ele>
        <time>2022-08-14T05:19:00Z</time>
      </trkpt>
      <trkpt lat="43.19336" lon="5.71621">
        <ele>56.848377</ele>
        <time>2022-08-14T05:19:02Z</time>
      </trkpt>
      <trkpt lat="43.19326" lon="5.71603">
        <ele>56.501007</ele>
        <time>2022-08-14T05:19:04Z</time>
      </trkpt>
      <trkpt lat="43.19315" lon="5.71585">
        <ele>56.3153</ele>
        <time>2022-08-14T05:19:06Z</time>
      </trkpt>
      <trkpt lat="43.19304" lon="5.71566">
        <ele>55.92345</ele>
        <time>2022-08-14T05:19:08Z</time>
      </trkpt>
      <trkpt lat="43.19291" lon="5.71547">
        <ele>55.718681</ele>
        <time>2022-08-14T05:19:10Z</time>
      </trkpt>
      <trkpt lat="43.19277" lon="5.71527">
        <ele>55.294384</ele>
        <time>2022-08-14T05:19:12Z</time>
      </trkpt>
      <trkpt lat="43.19262" lon="5.71511">
        <ele>55.076118</ele>
        <time>2022-08-14T05:19:14Z</time>
      </trkpt>
      <trkpt lat="43.19248" lon="5.71496">
        <ele>54.632008</ele>
        <time>2022-08-14T05:19:16Z</time>
      </trkpt>
      <trkpt lat="43.19234" lon="5.71482">
        <ele>54.408379</ele>
        <time>2022-08-14T05:19:18Z</time>
      </trkpt>
      <trkpt lat="43.1922" lon="5.71467">
        <ele>53.96273</ele>
        <time>2022-08-14T05:19:20Z</time>
      </trkpt>
      <trkpt lat="43.1921" lon="5.71451">
        <ele>53.740551</ele>
        <time>2022-08-14T05:19:22Z</time>
      </trkpt>
      <trkpt lat="43.192" lon="5.71435">
        <ele>53.297478</ele>
        <time>2022-08-14T05:19:24Z</time>
      </trkpt>
      <trkpt lat="43.19192" lon="5.71419">
        <ele>53.076588</ele>
        <time>2022-08-14T05:19:26Z</time>
      </trkpt>
      <trkpt lat="43.19183" lon="5.714">
        <ele>52.637939</ele>
        <time>2022-08-14T05:19:28Z</time>
      </trkpt>
      <trkpt lat="43.19174" lon="5.7138">
        <ele>52.211723</ele>
        <time>2022-08-14T05:19:30Z</time>
      </trkpt>
      <trkpt lat="43.19165" lon="5.71359">
        <ele>51.80653</ele>
        <time>2022-08-14T05:19:32Z</time>
      </trkpt>
      <trkpt lat="43.19156" lon="5.71337">
        <ele>51.428993</ele>
        <time>2022-08-14T05:19:34Z</time>
      </trkpt>
      <trkpt lat="43.19151" lon="5.71312">
        <ele>51.082657</ele>
        <time>2022-08-14T05:19:36Z</time>
      </trkpt>
      <trkpt lat="43.19147" lon="5.71286">
        <ele>50.922085</ele>
        <time>2022-08-14T05:19:38Z</time>
      </trkpt>
      <trkpt lat="43.19142" lon="5.71262">
        <ele>50.619011</ele>
        <time>2022-08-14T05:19:40Z</time>
      </trkpt>
      <trkpt lat="43.19136" lon="5.71239">
        <ele>50.34565</ele>
        <time>2022-08-14T05:19:42Z</time>
      </trkpt>
      <trkpt lat="43.1913" lon="5.71218">
        <ele>50.095161</ele>
        <time>2022-08-14T05:19:44Z</time>
      </trkpt>
      <trkpt lat="43.19121" lon="5.71199">
        <ele>49.858276</ele>
        <time>2022-08-14T05:19:46Z</time>
      </trkpt>
      <trkpt lat="43.19109" lon="5.71183">
        <ele>49.62458</ele>
        <time>2022-08-14T05:19:48Z</time>
      </trkpt>
      <trkpt lat="43.19095" lon="5.71169">
        <ele>49.504688</ele>
        <time>2022-08-14T05:19:50Z</time>
      </trkpt>
      <trkpt lat="43.19081" lon="5.71156">
        <ele>49.259045</ele>
        <time>2022-08-14T05:19:52Z</time>
      </trkpt>
      <trkpt lat="43.19067" lon="5.71141">
        <ele>49.134235</ele>
        <time>2022-08-14T05:19:54Z</time>
      </trkpt>
      <trkpt lat="43.19053" lon="5.71125">
        <ele>49.008343</ele>
        <time>2022-08-14T05:19:56Z</time>
      </trkpt>
      <trkpt lat="43.1904" lon="5.71106">
        <ele>48.755543</ele>
        <time>2022-08-14T05:19:58Z</time>
      </trkpt>
      <trkpt lat="43.19026" lon="5.71086">
        <ele>48.505127</ele>
        <time>2022-08-14T05:20:00Z</time>
      </trkpt>
      <trkpt lat="43.19013" lon="5.71064">
        <ele>48.382069</ele>
        <time>2022-08-14T05:20:02Z</time>
      </trkpt>
      <trkpt lat="43.19" lon="5.71042">
        <ele>48.130177</ele>
        <time>2022-08-14T05:20:04Z</time>
      </trkpt>
      <trkpt lat="43.18988" lon="5.71021">
        <ele>47.998371</ele>
        <time>2022-08-14T05:20:06Z</time>
      </trkpt>
      <trkpt lat="43.18976" lon="5.71">
        <ele>47.703838</ele>
        <time>2022-08-14T05:20:08Z</time>
      </trkpt>
      <trkpt lat="43.18965" lon="5.70979">
        <ele>47.379051</ele>
        <time>2022-08-14T05:20:10Z</time>
      </trkpt>
      <trkpt lat="43.18952" lon="5.70959">
        <ele>47.031414</ele>
        <time>2022-08-14T05:20:12Z</time>
      </trkpt>
      <trkpt lat="43.18938" lon="5.70941">
        <ele>46.662323</ele>
        <time>2022-08-14T05:20:14Z</time>
      </trkpt>
      <trkpt lat="43.18924" lon="5.70923">
        <ele>46.469666</ele>
        <time>2022-08-14T05:20:16Z</time>
      </trkpt>
      <trkpt lat="43.1891" lon="5.70905">
        <ele>46.073647</ele>
        <time>2022-08-14T05:20:18Z</time>
      </trkpt>
      <trkpt lat="43.18896" lon="5.70887">
        <ele>45.662514</ele>
        <time>2022-08-14T05:20:20Z</time>
      </trkpt>
      <trkpt lat="43.18881" lon="5.7087">
        <ele>45.234722</ele>
        <time>2022-08-14T05:20:22Z</time>
      </trkpt>
      <trkpt lat="43.18866" lon="5.70855">
        <ele>45.011852</ele>
        <time>2022-08-14T05:20:24Z</time>
      </trkpt>
      <trkpt lat="43.1885" lon="5.7084">
        <ele>44.552746</ele>
        <time>2022-08-14T05:20:26Z</time>
      </trkpt>
      <trkpt lat="43.18834" lon="5.70825">
        <ele>44.317287</ele>
        <time>2022-08-14T05:20:28Z</time>
      </trkpt>
      <trkpt lat="43.18818" lon="5.70811">
        <ele>43.834682</ele>
        <time>2022-08-14T05:20:30Z</time>
      </trkpt>
      <trkpt lat="43.18802" lon="5.70796">
        <ele>43.587715</ele>
        <time>2022-08-14T05:20:32Z</time>
      </trkpt>
      <trkpt lat="43.18786" lon="5.70782">
        <ele>43.082706</ele>
        <time>2022-08-14T05:20:34Z</time>
      </trkpt>
      <trkpt lat="43.1877" lon="5.70767">
        <ele>42.824902</ele>
        <time>2022-08-14T05:20:36Z</time>
      </trkpt>
      <trkpt lat="43.18754" lon="5.70753">
        <ele>42.564053</ele>
        <time>2022-08-14T05:20:38Z</time>
      </trkpt>
      <trkpt lat="43.18739" lon="5.70739">
        <ele>42.041698</ele>
        <time>2022-08-14T05:20:40Z</time>
      </trkpt>
      <trkpt lat="43.18724" lon="5.70724">
        <ele>41.511177</ele>
        <time>2022-08-14T05:20:42Z</time>
      </trkpt>
      <trkpt lat="43.18712" lon="5.70706">
        <ele>41.24139</ele>
        <time>2022-08-14T05:20:44Z</time>
      </trkpt>
      <trkpt lat="43.18698" lon="5.70692">
        <ele>40.967594</ele>
        <time>2022-08-14T05:20:46Z</time>
      </trkpt>
      <trkpt lat="43.18682" lon="5.70681">
        <ele>40.4095</ele>
        <time>2022-08-14T05:20:48Z</time>
      </trkpt>
      <trkpt lat="43.18667" lon="5.70667">
        <ele>39.84005</ele>
        <time>2022-08-14T05:20:50Z</time>
      </trkpt>
      <trkpt lat="43.18651" lon="5.70654">
        <ele>39.550186</ele>
        <time>2022-08-14T05:20:52Z</time>
      </trkpt>
      <trkpt lat="43.18635" lon="5.70643">
        <ele>39.258289</ele>
        <time>2022-08-14T05:20:54Z</time>
      </trkpt>
      <trkpt lat="43.18619" lon="5.70631">
        <ele>38.672321</ele>
        <time>2022-08-14T05:20:56Z</time>
      </trkpt>
      <trkpt lat="43.18604" lon="5.70618">
        <ele>38.384056</ele>
        <time>2022-08-14T05:20:58Z</time>
      </trkpt>
      <trkpt lat="43.1859" lon="5.70603">
        <ele>37.818886</ele>
        <time>2022-08-14T05:21:00Z</time>
      </trkpt>
      <trkpt lat="43.18578" lon="5.70586">
        <ele>37.536915</ele>
        <time>2022-08-14T05:21:02Z</time>
      </trkpt>
      <trkpt lat="43.18567" lon="5.70566">
        <ele>36.969582</ele>
        <time>2022-08-14T05:21:04Z</time>
      </trkpt>
      <trkpt lat="43.18557" lon="5.70545">
        <ele>36.685955</ele>
        <time>2022-08-14T05:21:06Z</time>
      </trkpt>
      <trkpt lat="43.18549" lon="5.70521">
        <ele>36.400131</ele>
        <time>2022-08-14T05:21:08Z</time>
      </trkpt>
      <trkpt lat="43.18545" lon="5.70498">
        <ele>35.827904</ele>
        <time>2022-08-14T05:21:10Z</time>
      </trkpt>
      <trkpt lat="43.18535" lon="5.70479">
        <ele>35.539959</ele>
        <time>2022-08-14T05:21:12Z</time>
      </trkpt>
      <trkpt lat="43.18524" lon="5.70463">
        <ele>34.964832</ele>
        <time>2022-08-14T05:21:14Z</time>
      </trkpt>
      <trkpt lat="43.18519" lon="5.70444">
        <ele>34.394569</ele>
        <time>2022-08-14T05:21:16Z</time>
      </trkpt>
      <trkpt lat="43.18522" lon="5.70425">
        <ele>33.838024</ele>
        <time>2022-08-14T05:21:18Z</time>
      </trkpt>
      <trkpt lat="43.18526" lon="5.70408">
        <ele>33.291187</ele>
        <time>2022-08-14T05:21:20Z</time>
      </trkpt>
      <trkpt lat="43.18532" lon="5.70393">
        <ele>32.758453</ele>
        <time>2022-08-14T05:21:22Z</time>
      </trkpt>
      <trkpt lat="43.18535" lon="5.70377">
        <ele>32.247211</ele>
        <time>2022-08-14T05:21:24Z</time>
      </trkpt>
      <trkpt lat="43.18533" lon="5.70363">
        <ele>32.002193</ele>
        <time>2022-08-14T05:21:26Z</time>
      </trkpt>
      <trkpt lat="43.18525" lon="5.70348">
        <ele>31.765137</ele>
        <time>2022-08-14T05:21:28Z</time>
      </trkpt>
      <trkpt lat="43.18515" lon="5.70331">
        <ele>31.314825</ele>
        <time>2022-08-14T05:21:30Z</time>
      </trkpt>
      <trkpt lat="43.18505" lon="5.70314">
        <ele>30.899317</ele>
        <time>2022-08-14T05:21:32Z</time>
      </trkpt>
      <trkpt lat="43.18494" lon="5.70296">
        <ele>30.703838</ele>
        <time>2022-08-14T05:21:34Z</time>
      </trkpt>
      <trkpt lat="43.18483" lon="5.70281">
        <ele>30.339193</ele>
        <time>2022-08-14T05:21:36Z</time>
      </trkpt>
      <trkpt lat="43.18473" lon="5.70265">
        <ele>30.166107</ele>
        <time>2022-08-14T05:21:38Z</time>
      </trkpt>
      <trkpt lat="43.18464" lon="5.70248">
        <ele>29.828161</ele>
        <time>2022-08-14T05:21:40Z</time>
      </trkpt>
      <trkpt lat="43.18454" lon="5.7023">
        <ele>29.657858</ele>
        <time>2022-08-14T05:21:42Z</time>
      </trkpt>
      <trkpt lat="43.18444" lon="5.70213">
        <ele>29.315832</ele>
        <time>2022-08-14T05:21:44Z</time>
      </trkpt>
      <trkpt lat="43.18436" lon="5.70193">
        <ele>29.143307</ele>
        <time>2022-08-14T05:21:46Z</time>
      </trkpt>
      <trkpt lat="43.18429" lon="5.70173">
        <ele>28.793316</ele>
        <time>2022-08-14T05:21:48Z</time>
      </trkpt>
      <trkpt lat="43.18422" lon="5.70152">
        <ele>28.437305</ele>
        <time>2022-08-14T05:21:50Z</time>
      </trkpt>
      <trkpt lat="43.18414" lon="5.70131">
        <ele>28.262506</ele>
        <time>2022-08-14T05:21:52Z</time>
      </trkpt>
      <trkpt lat="43.18399" lon="5.70101">
        <ele>27.918509</ele>
        <time>2022-08-14T05:21:55Z</time>
      </trkpt>
      <trkpt lat="43.18388" lon="5.70082">
        <ele>27.749838</ele>
        <time>2022-08-14T05:21:57Z</time>
      </trkpt>
      <trkpt lat="43.18375" lon="5.70065">
        <ele>27.58194</ele>
        <time>2022-08-14T05:21:59Z</time>
      </trkpt>
      <trkpt lat="43.18363" lon="5.70049">
        <ele>27.410763</ele>
        <time>2022-08-14T05:22:01Z</time>
      </trkpt>
      <trkpt lat="43.1835" lon="5.70033">
        <ele>27.238827</ele>
        <time>2022-08-14T05:22:03Z</time>
      </trkpt>
      <trkpt lat="43.18339" lon="5.70017">
        <ele>26.888763</ele>
        <time>2022-08-14T05:22:05Z</time>
      </trkpt>
      <trkpt lat="43.1833" lon="5.69998">
        <ele>26.711575</ele>
        <time>2022-08-14T05:22:07Z</time>
      </trkpt>
      <trkpt lat="43.18321" lon="5.69979">
        <ele>26.530563</ele>
        <time>2022-08-14T05:22:09Z</time>
      </trkpt>
      <trkpt lat="43.18311" lon="5.6996">
        <ele>26.344238</ele>
        <time>2022-08-14T05:22:11Z</time>
      </trkpt>
      <trkpt lat="43.18293" lon="5.69936">
        <ele>25.956692</ele>
        <time>2022-08-14T05:22:14Z</time>
      </trkpt>
      <trkpt lat="43.1828" lon="5.69921">
        <ele>25.756281</ele>
        <time>2022-08-14T05:22:16Z</time>
      </trkpt>
      <trkpt lat="43.18266" lon="5.69907">
        <ele>25.551888</ele>
        <time>2022-08-14T05:22:18Z</time>
      </trkpt>
      <trkpt lat="43.18253" lon="5.69889">
        <ele>25.131615</ele>
        <time>2022-08-14T05:22:20Z</time>
      </trkpt>
      <trkpt lat="43.18239" lon="5.69872">
        <ele>24.917797</ele>
        <time>2022-08-14T05:22:22Z</time>
      </trkpt>
      <trkpt lat="43.18224" lon="5.69857">
        <ele>24.477797</ele>
        <time>2022-08-14T05:22:24Z</time>
      </trkpt>
      <trkpt lat="43.18203" lon="5.69835">
        <ele>24.250679</ele>
        <time>2022-08-14T05:22:27Z</time>
      </trkpt>
      <trkpt lat="43.1819" lon="5.69816">
        <ele>23.781412</ele>
        <time>2022-08-14T05:22:29Z</time>
      </trkpt>
      <trkpt lat="43.18177" lon="5.69797">
        <ele>23.536938</ele>
        <time>2022-08-14T05:22:31Z</time>
      </trkpt>
      <trkpt lat="43.18164" lon="5.69779">
        <ele>23.287746</ele>
        <time>2022-08-14T05:22:33Z</time>
      </trkpt>
      <trkpt lat="43.18154" lon="5.6976">
        <ele>23.035025</ele>
        <time>2022-08-14T05:22:35Z</time>
      </trkpt>
      <trkpt lat="43.18145" lon="5.6974">
        <ele>22.782263</ele>
        <time>2022-08-14T05:22:37Z</time>
      </trkpt>
      <trkpt lat="43.18135" lon="5.69721">
        <ele>22.277754</ele>
        <time>2022-08-14T05:22:39Z</time>
      </trkpt>
      <trkpt lat="43.18131" lon="5.69699">
        <ele>22.029634</ele>
        <time>2022-08-14T05:22:41Z</time>
      </trkpt>
      <trkpt lat="43.18132" lon="5.69677">
        <ele>21.786386</ele>
        <time>2022-08-14T05:22:43Z</time>
      </trkpt>
      <trkpt lat="43.18135" lon="5.69663">
        <ele>21.549429</ele>
        <time>2022-08-14T05:22:45Z</time>
      </trkpt>
      <trkpt lat="43.1814" lon="5.69642">
        <ele>21.099142</ele>
        <time>2022-08-14T05:22:47Z</time>
      </trkpt>
      <trkpt lat="43.18146" lon="5.69625">
        <ele>20.887768</ele>
        <time>2022-08-14T05:22:49Z</time>
      </trkpt>
      <trkpt lat="43.18153" lon="5.69611">
        <ele>20.497032</ele>
        <time>2022-08-14T05:22:51Z</time>
      </trkpt>
      <trkpt lat="43.18161" lon="5.69597">
        <ele>20.318373</ele>
        <time>2022-08-14T05:22:53Z</time>
      </trkpt>
      <trkpt lat="43.18172" lon="5.69586">
        <ele>20.1506</ele>
        <time>2022-08-14T05:22:55Z</time>
      </trkpt>
      <trkpt lat="43.18188" lon="5.69577">
        <ele>19.838642</ele>
        <time>2022-08-14T05:22:57Z</time>
      </trkpt>
      <trkpt lat="43.182" lon="5.69567">
        <ele>19.559143</ele>
        <time>2022-08-14T05:22:59Z</time>
      </trkpt>
      <trkpt lat="43.1821" lon="5.69557">
        <ele>19.433811</ele>
        <time>2022-08-14T05:23:01Z</time>
      </trkpt>
      <trkpt lat="43.18219" lon="5.69546">
        <ele>19.219486</ele>
        <time>2022-08-14T05:23:03Z</time>
      </trkpt>
      <trkpt lat="43.18228" lon="5.69534">
        <ele>19.127438</ele>
        <time>2022-08-14T05:23:05Z</time>
      </trkpt>
      <trkpt lat="43.18235" lon="5.69522">
        <ele>19.045717</ele>
        <time>2022-08-14T05:23:07Z</time>
      </trkpt>
      <trkpt lat="43.18245" lon="5.69508">
        <ele>18.906343</ele>
        <time>2022-08-14T05:23:09Z</time>
      </trkpt>
      <trkpt lat="43.18253" lon="5.69497">
        <ele>18.852924</ele>
        <time>2022-08-14T05:23:11Z</time>
      </trkpt>
      <trkpt lat="43.18263" lon="5.69487">
        <ele>18.809797</ele>
        <time>2022-08-14T05:23:13Z</time>
      </trkpt>
      <trkpt lat="43.18273" lon="5.69477">
        <ele>18.753487</ele>
        <time>2022-08-14T05:23:15Z</time>
      </trkpt>
      <trkpt lat="43.18279" lon="5.69463">
        <ele>18.739513</ele>
        <time>2022-08-14T05:23:17Z</time>
      </trkpt>
      <trkpt lat="43.18282" lon="5.69448">
        <ele>18.732145</ele>
        <time>2022-08-14T05:23:19Z</time>
      </trkpt>
      <trkpt lat="43.18285" lon="5.69432">
        <ele>18.742397</ele>
        <time>2022-08-14T05:23:21Z</time>
      </trkpt>
      <trkpt lat="43.18291" lon="5.69417">
        <ele>18.752337</ele>
        <time>2022-08-14T05:23:23Z</time>
      </trkpt>
      <trkpt lat="43.18296" lon="5.69402">
        <ele>18.766994</ele>
        <time>2022-08-14T05:23:25Z</time>
      </trkpt>
      <trkpt lat="43.18301" lon="5.69388">
        <ele>18.786354</ele>
        <time>2022-08-14T05:23:27Z</time>
      </trkpt>
      <trkpt lat="43.18306" lon="5.69373">
        <ele>18.807812</ele>
        <time>2022-08-14T05:23:29Z</time>
      </trkpt>
      <trkpt lat="43.1831" lon="5.69357">
        <ele>18.869978</ele>
        <time>2022-08-14T05:23:31Z</time>
      </trkpt>
      <trkpt lat="43.18314" lon="5.69341">
        <ele>18.94743</ele>
        <time>2022-08-14T05:23:33Z</time>
      </trkpt>
      <trkpt lat="43.18317" lon="5.69324">
        <ele>19.03828</ele>
        <time>2022-08-14T05:23:35Z</time>
      </trkpt>
      <trkpt lat="43.1832" lon="5.69307">
        <ele>19.14094</ele>
        <time>2022-08-14T05:23:37Z</time>
      </trkpt>
      <trkpt lat="43.18322" lon="5.69289">
        <ele>19.250652</ele>
        <time>2022-08-14T05:23:39Z</time>
      </trkpt>
      <trkpt lat="43.18325" lon="5.69271">
        <ele>19.362188</ele>
        <time>2022-08-14T05:23:41Z</time>
      </trkpt>
      <trkpt lat="43.18326" lon="5.69253">
        <ele>19.469036</ele>
        <time>2022-08-14T05:23:43Z</time>
      </trkpt>
      <trkpt lat="43.18327" lon="5.69234">
        <ele>19.567589</ele>
        <time>2022-08-14T05:23:45Z</time>
      </trkpt>
      <trkpt lat="43.18329" lon="5.69215">
        <ele>19.657093</ele>
        <time>2022-08-14T05:23:47Z</time>
      </trkpt>
      <trkpt lat="43.1833" lon="5.69196">
        <ele>19.698399</ele>
        <time>2022-08-14T05:23:49Z</time>
      </trkpt>
      <trkpt lat="43.18332" lon="5.69177">
        <ele>19.773575</ele>
        <time>2022-08-14T05:23:51Z</time>
      </trkpt>
      <trkpt lat="43.18336" lon="5.69159">
        <ele>19.837492</ele>
        <time>2022-08-14T05:23:53Z</time>
      </trkpt>
      <trkpt lat="43.18346" lon="5.69147">
        <ele>19.865227</ele>
        <time>2022-08-14T05:23:55Z</time>
      </trkpt>
      <trkpt lat="43.1836" lon="5.69143">
        <ele>19.889904</ele>
        <time>2022-08-14T05:23:57Z</time>
      </trkpt>
      <trkpt lat="43.18372" lon="5.69136">
        <ele>19.912319</ele>
        <time>2022-08-14T05:23:59Z</time>
      </trkpt>
      <trkpt lat="43.18381" lon="5.69121">
        <ele>19.952997</ele>
        <time>2022-08-14T05:24:01Z</time>
      </trkpt>
      <trkpt lat="43.18384" lon="5.69103">
        <ele>19.973577</ele>
        <time>2022-08-14T05:24:03Z</time>
      </trkpt>
      <trkpt lat="43.18381" lon="5.69084">
        <ele>19.993191</ele>
        <time>2022-08-14T05:24:05Z</time>
      </trkpt>
      <trkpt lat="43.18372" lon="5.69069">
        <ele>20.012165</ele>
        <time>2022-08-14T05:24:07Z</time>
      </trkpt>
      <trkpt lat="43.18362" lon="5.69055">
        <ele>20.052952</ele>
        <time>2022-08-14T05:24:09Z</time>
      </trkpt>
      <trkpt lat="43.18354" lon="5.69037">
        <ele>20.074474</ele>
        <time>2022-08-14T05:24:11Z</time>
      </trkpt>
      <trkpt lat="43.18348" lon="5.69019">
        <ele>20.115725</ele>
        <time>2022-08-14T05:24:13Z</time>
      </trkpt>
      <trkpt lat="43.18341" lon="5.6899">
        <ele>20.134722</ele>
        <time>2022-08-14T05:24:16Z</time>
      </trkpt>
      <trkpt lat="43.18338" lon="5.6897">
        <ele>20.165005</ele>
        <time>2022-08-14T05:24:18Z</time>
      </trkpt>
      <trkpt lat="43.18337" lon="5.6895">
        <ele>20.175823</ele>
        <time>2022-08-14T05:24:20Z</time>
      </trkpt>
      <trkpt lat="43.18337" lon="5.68928">
        <ele>20.18885</ele>
        <time>2022-08-14T05:24:22Z</time>
      </trkpt>
      <trkpt lat="43.18337" lon="5.68907">
        <ele>20.191746</ele>
        <time>2022-08-14T05:24:24Z</time>
      </trkpt>
      <trkpt lat="43.18338" lon="5.68886">
        <ele>20.193447</ele>
        <time>2022-08-14T05:24:26Z</time>
      </trkpt>
      <trkpt lat="43.18339" lon="5.68865">
        <ele>20.193703</ele>
        <time>2022-08-14T05:24:28Z</time>
      </trkpt>
      <trkpt lat="43.1834" lon="5.68845">
        <ele>20.196571</ele>
        <time>2022-08-14T05:24:30Z</time>
      </trkpt>
      <trkpt lat="43.18341" lon="5.68824">
        <ele>20.199558</ele>
        <time>2022-08-14T05:24:32Z</time>
      </trkpt>
      <trkpt lat="43.18342" lon="5.68804">
        <ele>20.209255</ele>
        <time>2022-08-14T05:24:34Z</time>
      </trkpt>
      <trkpt lat="43.18343" lon="5.68783">
        <ele>20.224932</ele>
        <time>2022-08-14T05:24:36Z</time>
      </trkpt>
      <trkpt lat="43.18344" lon="5.68762">
        <ele>20.246571</ele>
        <time>2022-08-14T05:24:38Z</time>
      </trkpt>
      <trkpt lat="43.18345" lon="5.68741">
        <ele>20.273052</ele>
        <time>2022-08-14T05:24:40Z</time>
      </trkpt>
      <trkpt lat="43.18345" lon="5.68721">
        <ele>20.303135</ele>
        <time>2022-08-14T05:24:42Z</time>
      </trkpt>
      <trkpt lat="43.18344" lon="5.687">
        <ele>20.319523</ele>
        <time>2022-08-14T05:24:44Z</time>
      </trkpt>
      <trkpt lat="43.18343" lon="5.68681">
        <ele>20.355961</ele>
        <time>2022-08-14T05:24:46Z</time>
      </trkpt>
      <trkpt lat="43.1834" lon="5.68661">
        <ele>20.399035</ele>
        <time>2022-08-14T05:24:48Z</time>
      </trkpt>
      <trkpt lat="43.18337" lon="5.68642">
        <ele>20.449862</ele>
        <time>2022-08-14T05:24:50Z</time>
      </trkpt>
      <trkpt lat="43.18333" lon="5.68624">
        <ele>20.502178</ele>
        <time>2022-08-14T05:24:52Z</time>
      </trkpt>
      <trkpt lat="43.18327" lon="5.68606">
        <ele>20.526943</ele>
        <time>2022-08-14T05:24:54Z</time>
      </trkpt>
      <trkpt lat="43.18321" lon="5.68589">
        <ele>20.575788</ele>
        <time>2022-08-14T05:24:56Z</time>
      </trkpt>
      <trkpt lat="43.18314" lon="5.68572">
        <ele>20.617695</ele>
        <time>2022-08-14T05:24:58Z</time>
      </trkpt>
      <trkpt lat="43.18308" lon="5.68556">
        <ele>20.657209</ele>
        <time>2022-08-14T05:25:00Z</time>
      </trkpt>
      <trkpt lat="43.18303" lon="5.68539">
        <ele>20.701111</ele>
        <time>2022-08-14T05:25:02Z</time>
      </trkpt>
      <trkpt lat="43.18296" lon="5.68524">
        <ele>20.726477</ele>
        <time>2022-08-14T05:25:04Z</time>
      </trkpt>
      <trkpt lat="43.18287" lon="5.68511">
        <ele>20.787106</ele>
        <time>2022-08-14T05:25:06Z</time>
      </trkpt>
      <trkpt lat="43.18277" lon="5.68496">
        <ele>20.822266</ele>
        <time>2022-08-14T05:25:08Z</time>
      </trkpt>
      <trkpt lat="43.18269" lon="5.6848">
        <ele>20.899755</ele>
        <time>2022-08-14T05:25:10Z</time>
      </trkpt>
      <trkpt lat="43.18262" lon="5.68463">
        <ele>20.940426</ele>
        <time>2022-08-14T05:25:12Z</time>
      </trkpt>
      <trkpt lat="43.18255" lon="5.68447">
        <ele>21.01918</ele>
        <time>2022-08-14T05:25:14Z</time>
      </trkpt>
      <trkpt lat="43.18247" lon="5.68431">
        <ele>21.05541</ele>
        <time>2022-08-14T05:25:16Z</time>
      </trkpt>
      <trkpt lat="43.1824" lon="5.68416">
        <ele>21.119919</ele>
        <time>2022-08-14T05:25:18Z</time>
      </trkpt>
      <trkpt lat="43.18232" lon="5.68401">
        <ele>21.175877</ele>
        <time>2022-08-14T05:25:20Z</time>
      </trkpt>
      <trkpt lat="43.18224" lon="5.68386">
        <ele>21.200861</ele>
        <time>2022-08-14T05:25:22Z</time>
      </trkpt>
      <trkpt lat="43.18214" lon="5.68364">
        <ele>21.245438</ele>
        <time>2022-08-14T05:25:25Z</time>
      </trkpt>
      <trkpt lat="43.18207" lon="5.68348">
        <ele>21.283716</ele>
        <time>2022-08-14T05:25:27Z</time>
      </trkpt>
      <trkpt lat="43.182" lon="5.68333">
        <ele>21.300999</ele>
        <time>2022-08-14T05:25:29Z</time>
      </trkpt>
      <trkpt lat="43.18192" lon="5.68317">
        <ele>21.332661</ele>
        <time>2022-08-14T05:25:31Z</time>
      </trkpt>
      <trkpt lat="43.18185" lon="5.68302">
        <ele>21.360561</ele>
        <time>2022-08-14T05:25:33Z</time>
      </trkpt>
      <trkpt lat="43.18174" lon="5.68282">
        <ele>21.383961</ele>
        <time>2022-08-14T05:25:36Z</time>
      </trkpt>
      <trkpt lat="43.18166" lon="5.68267">
        <ele>21.400671</ele>
        <time>2022-08-14T05:25:38Z</time>
      </trkpt>
      <trkpt lat="43.18158" lon="5.68251">
        <ele>21.406559</ele>
        <time>2022-08-14T05:25:40Z</time>
      </trkpt>
      <trkpt lat="43.18151" lon="5.68235">
        <ele>21.404465</ele>
        <time>2022-08-14T05:25:42Z</time>
      </trkpt>
      <trkpt lat="43.18144" lon="5.68218">
        <ele>21.398849</ele>
        <time>2022-08-14T05:25:44Z</time>
      </trkpt>
      <trkpt lat="43.18136" lon="5.68201">
        <ele>21.38975</ele>
        <time>2022-08-14T05:25:46Z</time>
      </trkpt>
      <trkpt lat="43.18127" lon="5.68183">
        <ele>21.377445</ele>
        <time>2022-08-14T05:25:48Z</time>
      </trkpt>
      <trkpt lat="43.18118" lon="5.68164">
        <ele>21.362423</ele>
        <time>2022-08-14T05:25:50Z</time>
      </trkpt>
      <trkpt lat="43.18108" lon="5.68144">
        <ele>21.326275</ele>
        <time>2022-08-14T05:25:52Z</time>
      </trkpt>
      <trkpt lat="43.18099" lon="5.68123">
        <ele>21.306044</ele>
        <time>2022-08-14T05:25:54Z</time>
      </trkpt>
      <trkpt lat="43.1809" lon="5.68103">
        <ele>21.2847</ele>
        <time>2022-08-14T05:25:56Z</time>
      </trkpt>
      <trkpt lat="43.1808" lon="5.68083">
        <ele>21.262394</ele>
        <time>2022-08-14T05:25:58Z</time>
      </trkpt>
      <trkpt lat="43.1807" lon="5.68062">
        <ele>21.239363</ele>
        <time>2022-08-14T05:26:00Z</time>
      </trkpt>
      <trkpt lat="43.18061" lon="5.68039">
        <ele>21.215532</ele>
        <time>2022-08-14T05:26:02Z</time>
      </trkpt>
      <trkpt lat="43.1805" lon="5.68018">
        <ele>21.189919</ele>
        <time>2022-08-14T05:26:04Z</time>
      </trkpt>
      <trkpt lat="43.18041" lon="5.67996">
        <ele>21.134829</ele>
        <time>2022-08-14T05:26:06Z</time>
      </trkpt>
      <trkpt lat="43.1803" lon="5.67974">
        <ele>21.104761</ele>
        <time>2022-08-14T05:26:08Z</time>
      </trkpt>
      <trkpt lat="43.18021" lon="5.67951">
        <ele>21.035826</ele>
        <time>2022-08-14T05:26:10Z</time>
      </trkpt>
      <trkpt lat="43.18016" lon="5.67927">
        <ele>20.955368</ele>
        <time>2022-08-14T05:26:12Z</time>
      </trkpt>
      <trkpt lat="43.18015" lon="5.67901">
        <ele>20.863884</ele>
        <time>2022-08-14T05:26:14Z</time>
      </trkpt>
      <trkpt lat="43.18014" lon="5.67876">
        <ele>20.814701</ele>
        <time>2022-08-14T05:26:16Z</time>
      </trkpt>
      <trkpt lat="43.18012" lon="5.67855">
        <ele>20.713066</ele>
        <time>2022-08-14T05:26:18Z</time>
      </trkpt>
      <trkpt lat="43.18002" lon="5.6784">
        <ele>20.612331</ele>
        <time>2022-08-14T05:26:20Z</time>
      </trkpt>
      <trkpt lat="43.17991" lon="5.67827">
        <ele>20.515621</ele>
        <time>2022-08-14T05:26:22Z</time>
      </trkpt>
      <trkpt lat="43.17984" lon="5.67812">
        <ele>20.468678</ele>
        <time>2022-08-14T05:26:24Z</time>
      </trkpt>
      <trkpt lat="43.17981" lon="5.67796">
        <ele>20.421604</ele>
        <time>2022-08-14T05:26:26Z</time>
      </trkpt>
      <trkpt lat="43.17979" lon="5.6778">
        <ele>20.325665</ele>
        <time>2022-08-14T05:26:28Z</time>
      </trkpt>
      <trkpt lat="43.1798" lon="5.67765">
        <ele>20.222557</ele>
        <time>2022-08-14T05:26:30Z</time>
      </trkpt>
      <trkpt lat="43.1798" lon="5.67748">
        <ele>20.167654</ele>
        <time>2022-08-14T05:26:32Z</time>
      </trkpt>
      <trkpt lat="43.17982" lon="5.67732">
        <ele>20.054174</ele>
        <time>2022-08-14T05:26:34Z</time>
      </trkpt>
      <trkpt lat="43.17982" lon="5.67716">
        <ele>19.943897</ele>
        <time>2022-08-14T05:26:36Z</time>
      </trkpt>
      <trkpt lat="43.17984" lon="5.67699">
        <ele>19.845806</ele>
        <time>2022-08-14T05:26:38Z</time>
      </trkpt>
      <trkpt lat="43.17986" lon="5.67683">
        <ele>19.764408</ele>
        <time>2022-08-14T05:26:40Z</time>
      </trkpt>
      <trkpt lat="43.17989" lon="5.67667">
        <ele>19.700512</ele>
        <time>2022-08-14T05:26:42Z</time>
      </trkpt>
      <trkpt lat="43.17992" lon="5.67651">
        <ele>19.653303</ele>
        <time>2022-08-14T05:26:44Z</time>
      </trkpt>
      <trkpt lat="43.17995" lon="5.67634">
        <ele>19.622747</ele>
        <time>2022-08-14T05:26:46Z</time>
      </trkpt>
      <trkpt lat="43.17998" lon="5.67617">
        <ele>19.61421</ele>
        <time>2022-08-14T05:26:48Z</time>
      </trkpt>
      <trkpt lat="43.18001" lon="5.676">
        <ele>19.612804</ele>
        <time>2022-08-14T05:26:50Z</time>
      </trkpt>
      <trkpt lat="43.18005" lon="5.67583">
        <ele>19.635384</ele>
        <time>2022-08-14T05:26:52Z</time>
      </trkpt>
      <trkpt lat="43.18007" lon="5.67567">
        <ele>19.686323</ele>
        <time>2022-08-14T05:26:54Z</time>
      </trkpt>
      <trkpt lat="43.1801" lon="5.67551">
        <ele>19.770672</ele>
        <time>2022-08-14T05:26:56Z</time>
      </trkpt>
      <trkpt lat="43.18013" lon="5.67536">
        <ele>19.887806</ele>
        <time>2022-08-14T05:26:58Z</time>
      </trkpt>
      <trkpt lat="43.18017" lon="5.6752">
        <ele>20.032202</ele>
        <time>2022-08-14T05:27:00Z</time>
      </trkpt>
      <trkpt lat="43.1802" lon="5.67505">
        <ele>20.194012</ele>
        <time>2022-08-14T05:27:02Z</time>
      </trkpt>
      <trkpt lat="43.18022" lon="5.67489">
        <ele>20.363651</ele>
        <time>2022-08-14T05:27:04Z</time>
      </trkpt>
      <trkpt lat="43.18024" lon="5.67474">
        <ele>20.536383</ele>
        <time>2022-08-14T05:27:06Z</time>
      </trkpt>
      <trkpt lat="43.18026" lon="5.67459">
        <ele>20.712631</ele>
        <time>2022-08-14T05:27:08Z</time>
      </trkpt>
      <trkpt lat="43.18029" lon="5.67445">
        <ele>20.896715</ele>
        <time>2022-08-14T05:27:10Z</time>
      </trkpt>
      <trkpt lat="43.1803" lon="5.6743">
        <ele>21.093559</ele>
        <time>2022-08-14T05:27:12Z</time>
      </trkpt>
      <trkpt lat="43.18033" lon="5.67417">
        <ele>21.30447</ele>
        <time>2022-08-14T05:27:14Z</time>
      </trkpt>
      <trkpt lat="43.18034" lon="5.67402">
        <ele>21.414507</ele>
        <time>2022-08-14T05:27:16Z</time>
      </trkpt>
      <trkpt lat="43.18035" lon="5.67388">
        <ele>21.5261</ele>
        <time>2022-08-14T05:27:18Z</time>
      </trkpt>
      <trkpt lat="43.18037" lon="5.67374">
        <ele>21.638783</ele>
        <time>2022-08-14T05:27:20Z</time>
      </trkpt>
      <trkpt lat="43.1804" lon="5.67359">
        <ele>21.864431</ele>
        <time>2022-08-14T05:27:22Z</time>
      </trkpt>
      <trkpt lat="43.18043" lon="5.67345">
        <ele>21.976078</ele>
        <time>2022-08-14T05:27:24Z</time>
      </trkpt>
      <trkpt lat="43.18046" lon="5.6733">
        <ele>22.086012</ele>
        <time>2022-08-14T05:27:26Z</time>
      </trkpt>
      <trkpt lat="43.18049" lon="5.67314">
        <ele>22.298437</ele>
        <time>2022-08-14T05:27:28Z</time>
      </trkpt>
      <trkpt lat="43.18052" lon="5.67298">
        <ele>22.399899</ele>
        <time>2022-08-14T05:27:30Z</time>
      </trkpt>
      <trkpt lat="43.18056" lon="5.67282">
        <ele>22.591473</ele>
        <time>2022-08-14T05:27:32Z</time>
      </trkpt>
      <trkpt lat="43.1806" lon="5.67263">
        <ele>22.681217</ele>
        <time>2022-08-14T05:27:34Z</time>
      </trkpt>
      <trkpt lat="43.18065" lon="5.67245">
        <ele>22.766911</ele>
        <time>2022-08-14T05:27:36Z</time>
      </trkpt>
      <trkpt lat="43.1807" lon="5.67227">
        <ele>22.927076</ele>
        <time>2022-08-14T05:27:38Z</time>
      </trkpt>
      <trkpt lat="43.18076" lon="5.67209">
        <ele>23.002169</ele>
        <time>2022-08-14T05:27:40Z</time>
      </trkpt>
      <trkpt lat="43.18082" lon="5.67191">
        <ele>23.074003</ele>
        <time>2022-08-14T05:27:42Z</time>
      </trkpt>
      <trkpt lat="43.18089" lon="5.67172">
        <ele>23.207237</ele>
        <time>2022-08-14T05:27:44Z</time>
      </trkpt>
      <trkpt lat="43.18098" lon="5.67154">
        <ele>23.268064</ele>
        <time>2022-08-14T05:27:46Z</time>
      </trkpt>
      <trkpt lat="43.18106" lon="5.67136">
        <ele>23.32494</ele>
        <time>2022-08-14T05:27:48Z</time>
      </trkpt>
      <trkpt lat="43.18115" lon="5.67118">
        <ele>23.428993</ele>
        <time>2022-08-14T05:27:50Z</time>
      </trkpt>
      <trkpt lat="43.18124" lon="5.67101">
        <ele>23.477907</ele>
        <time>2022-08-14T05:27:52Z</time>
      </trkpt>
      <trkpt lat="43.18136" lon="5.67085">
        <ele>23.5739</ele>
        <time>2022-08-14T05:27:54Z</time>
      </trkpt>
      <trkpt lat="43.18147" lon="5.67069">
        <ele>23.620857</ele>
        <time>2022-08-14T05:27:56Z</time>
      </trkpt>
      <trkpt lat="43.18158" lon="5.67052">
        <ele>23.71413</ele>
        <time>2022-08-14T05:27:58Z</time>
      </trkpt>
      <trkpt lat="43.18168" lon="5.67038">
        <ele>23.759968</ele>
        <time>2022-08-14T05:28:00Z</time>
      </trkpt>
      <trkpt lat="43.18178" lon="5.67023">
        <ele>23.804964</ele>
        <time>2022-08-14T05:28:02Z</time>
      </trkpt>
      <trkpt lat="43.18191" lon="5.67011">
        <ele>23.891762</ele>
        <time>2022-08-14T05:28:04Z</time>
      </trkpt>
      <trkpt lat="43.18203" lon="5.67">
        <ele>23.933439</ele>
        <time>2022-08-14T05:28:06Z</time>
      </trkpt>
      <trkpt lat="43.18213" lon="5.66988">
        <ele>23.97393</ele>
        <time>2022-08-14T05:28:08Z</time>
      </trkpt>
      <trkpt lat="43.18222" lon="5.66978">
        <ele>24.05114</ele>
        <time>2022-08-14T05:28:10Z</time>
      </trkpt>
      <trkpt lat="43.18232" lon="5.66967">
        <ele>24.087856</ele>
        <time>2022-08-14T05:28:12Z</time>
      </trkpt>
      <trkpt lat="43.18241" lon="5.66956">
        <ele>24.156734</ele>
        <time>2022-08-14T05:28:14Z</time>
      </trkpt>
      <trkpt lat="43.1825" lon="5.66946">
        <ele>24.188889</ele>
        <time>2022-08-14T05:28:16Z</time>
      </trkpt>
      <trkpt lat="43.18259" lon="5.66935">
        <ele>24.248728</ele>
        <time>2022-08-14T05:28:18Z</time>
      </trkpt>
      <trkpt lat="43.18267" lon="5.66925">
        <ele>24.277006</ele>
        <time>2022-08-14T05:28:20Z</time>
      </trkpt>
      <trkpt lat="43.18276" lon="5.66914">
        <ele>24.331415</ele>
        <time>2022-08-14T05:28:22Z</time>
      </trkpt>
      <trkpt lat="43.18284" lon="5.66904">
        <ele>24.384808</ele>
        <time>2022-08-14T05:28:24Z</time>
      </trkpt>
      <trkpt lat="43.18292" lon="5.66893">
        <ele>24.439116</ele>
        <time>2022-08-14T05:28:26Z</time>
      </trkpt>
      <trkpt lat="43.18299" lon="5.66883">
        <ele>24.466785</ele>
        <time>2022-08-14T05:28:28Z</time>
      </trkpt>
      <trkpt lat="43.18306" lon="5.66872">
        <ele>24.522108</ele>
        <time>2022-08-14T05:28:30Z</time>
      </trkpt>
      <trkpt lat="43.18313" lon="5.66861">
        <ele>24.574999</ele>
        <time>2022-08-14T05:28:32Z</time>
      </trkpt>
      <trkpt lat="43.1832" lon="5.66851">
        <ele>24.623173</ele>
        <time>2022-08-14T05:28:34Z</time>
      </trkpt>
      <trkpt lat="43.18327" lon="5.6684">
        <ele>24.668705</ele>
        <time>2022-08-14T05:28:36Z</time>
      </trkpt>
      <trkpt lat="43.18333" lon="5.66829">
        <ele>24.692112</ele>
        <time>2022-08-14T05:28:38Z</time>
      </trkpt>
      <trkpt lat="43.1834" lon="5.66817">
        <ele>24.742382</ele>
        <time>2022-08-14T05:28:40Z</time>
      </trkpt>
      <trkpt lat="43.18346" lon="5.66806">
        <ele>24.797935</ele>
        <time>2022-08-14T05:28:42Z</time>
      </trkpt>
      <trkpt lat="43.18352" lon="5.66794">
        <ele>24.826851</ele>
        <time>2022-08-14T05:28:44Z</time>
      </trkpt>
      <trkpt lat="43.18358" lon="5.66781">
        <ele>24.885906</ele>
        <time>2022-08-14T05:28:46Z</time>
      </trkpt>
      <trkpt lat="43.18363" lon="5.66769">
        <ele>24.916847</ele>
        <time>2022-08-14T05:28:48Z</time>
      </trkpt>
      <trkpt lat="43.18368" lon="5.66755">
        <ele>24.985586</ele>
        <time>2022-08-14T05:28:50Z</time>
      </trkpt>
      <trkpt lat="43.18373" lon="5.66741">
        <ele>25.063873</ele>
        <time>2022-08-14T05:28:52Z</time>
      </trkpt>
      <trkpt lat="43.18377" lon="5.66726">
        <ele>25.155235</ele>
        <time>2022-08-14T05:28:54Z</time>
      </trkpt>
      <trkpt lat="43.18381" lon="5.66712">
        <ele>25.262165</ele>
        <time>2022-08-14T05:28:56Z</time>
      </trkpt>
      <trkpt lat="43.18385" lon="5.66697">
        <ele>25.322445</ele>
        <time>2022-08-14T05:28:58Z</time>
      </trkpt>
      <trkpt lat="43.1839" lon="5.66683">
        <ele>25.387838</ele>
        <time>2022-08-14T05:29:00Z</time>
      </trkpt>
      <trkpt lat="43.18394" lon="5.66668">
        <ele>25.544876</ele>
        <time>2022-08-14T05:29:02Z</time>
      </trkpt>
      <trkpt lat="43.18398" lon="5.66653">
        <ele>25.636881</ele>
        <time>2022-08-14T05:29:04Z</time>
      </trkpt>
      <trkpt lat="43.18403" lon="5.66637">
        <ele>25.84371</ele>
        <time>2022-08-14T05:29:06Z</time>
      </trkpt>
      <trkpt lat="43.18407" lon="5.6662">
        <ele>25.956127</ele>
        <time>2022-08-14T05:29:08Z</time>
      </trkpt>
      <trkpt lat="43.18412" lon="5.66603">
        <ele>26.073822</ele>
        <time>2022-08-14T05:29:10Z</time>
      </trkpt>
      <trkpt lat="43.18417" lon="5.66585">
        <ele>26.321512</ele>
        <time>2022-08-14T05:29:12Z</time>
      </trkpt>
      <trkpt lat="43.18422" lon="5.66566">
        <ele>26.449045</ele>
        <time>2022-08-14T05:29:14Z</time>
      </trkpt>
      <trkpt lat="43.18427" lon="5.66547">
        <ele>26.703817</ele>
        <time>2022-08-14T05:29:16Z</time>
      </trkpt>
      <trkpt lat="43.18433" lon="5.66527">
        <ele>26.826885</ele>
        <time>2022-08-14T05:29:18Z</time>
      </trkpt>
      <trkpt lat="43.18438" lon="5.66507">
        <ele>27.056147</ele>
        <time>2022-08-14T05:29:20Z</time>
      </trkpt>
      <trkpt lat="43.18444" lon="5.66485">
        <ele>27.15971</ele>
        <time>2022-08-14T05:29:22Z</time>
      </trkpt>
      <trkpt lat="43.18451" lon="5.66464">
        <ele>27.338892</ele>
        <time>2022-08-14T05:29:24Z</time>
      </trkpt>
      <trkpt lat="43.18457" lon="5.66442">
        <ele>27.415583</ele>
        <time>2022-08-14T05:29:26Z</time>
      </trkpt>
      <trkpt lat="43.18464" lon="5.66419">
        <ele>27.528021</ele>
        <time>2022-08-14T05:29:28Z</time>
      </trkpt>
      <trkpt lat="43.1847" lon="5.66396">
        <ele>27.559937</ele>
        <time>2022-08-14T05:29:30Z</time>
      </trkpt>
      <trkpt lat="43.18477" lon="5.66373">
        <ele>27.565985</ele>
        <time>2022-08-14T05:29:32Z</time>
      </trkpt>
      <trkpt lat="43.18483" lon="5.66349">
        <ele>27.537769</ele>
        <time>2022-08-14T05:29:34Z</time>
      </trkpt>
      <trkpt lat="43.1849" lon="5.66324">
        <ele>27.489819</ele>
        <time>2022-08-14T05:29:36Z</time>
      </trkpt>
      <trkpt lat="43.18497" lon="5.66299">
        <ele>27.340382</ele>
        <time>2022-08-14T05:29:38Z</time>
      </trkpt>
      <trkpt lat="43.18504" lon="5.66274">
        <ele>27.152149</ele>
        <time>2022-08-14T05:29:40Z</time>
      </trkpt>
      <trkpt lat="43.18511" lon="5.66248">
        <ele>27.054768</ele>
        <time>2022-08-14T05:29:42Z</time>
      </trkpt>
      <trkpt lat="43.18518" lon="5.66223">
        <ele>26.888824</ele>
        <time>2022-08-14T05:29:44Z</time>
      </trkpt>
      <trkpt lat="43.18525" lon="5.66198">
        <ele>26.829479</ele>
        <time>2022-08-14T05:29:46Z</time>
      </trkpt>
      <trkpt lat="43.18532" lon="5.66175">
        <ele>26.77129</ele>
        <time>2022-08-14T05:29:48Z</time>
      </trkpt>
      <trkpt lat="43.18539" lon="5.66153">
        <ele>26.795471</ele>
        <time>2022-08-14T05:29:50Z</time>
      </trkpt>
      <trkpt lat="43.18546" lon="5.66132">
        <ele>26.827606</ele>
        <time>2022-08-14T05:29:52Z</time>
      </trkpt>
      <trkpt lat="43.18552" lon="5.66113">
        <ele>26.928524</ele>
        <time>2022-08-14T05:29:54Z</time>
      </trkpt>
      <trkpt lat="43.18559" lon="5.66094">
        <ele>26.984064</ele>
        <time>2022-08-14T05:29:56Z</time>
      </trkpt>
      <trkpt lat="43.18564" lon="5.66076">
        <ele>27.046686</ele>
        <time>2022-08-14T05:29:58Z</time>
      </trkpt>
      <trkpt lat="43.1857" lon="5.66059">
        <ele>27.185101</ele>
        <time>2022-08-14T05:30:00Z</time>
      </trkpt>
      <trkpt lat="43.18576" lon="5.66043">
        <ele>27.322315</ele>
        <time>2022-08-14T05:30:02Z</time>
      </trkpt>
      <trkpt lat="43.18581" lon="5.66027">
        <ele>27.387609</ele>
        <time>2022-08-14T05:30:04Z</time>
      </trkpt>
      <trkpt lat="43.18587" lon="5.66011">
        <ele>27.511036</ele>
        <time>2022-08-14T05:30:06Z</time>
      </trkpt>
      <trkpt lat="43.18592" lon="5.65995">
        <ele>27.622889</ele>
        <time>2022-08-14T05:30:08Z</time>
      </trkpt>
      <trkpt lat="43.18597" lon="5.65979">
        <ele>27.677053</ele>
        <time>2022-08-14T05:30:10Z</time>
      </trkpt>
      <trkpt lat="43.18602" lon="5.65963">
        <ele>27.786633</ele>
        <time>2022-08-14T05:30:12Z</time>
      </trkpt>
      <trkpt lat="43.18607" lon="5.65947">
        <ele>27.846827</ele>
        <time>2022-08-14T05:30:14Z</time>
      </trkpt>
      <trkpt lat="43.18612" lon="5.65932">
        <ele>27.980387</ele>
        <time>2022-08-14T05:30:16Z</time>
      </trkpt>
      <trkpt lat="43.18618" lon="5.65916">
        <ele>28.138866</ele>
        <time>2022-08-14T05:30:18Z</time>
      </trkpt>
      <trkpt lat="43.18623" lon="5.65901">
        <ele>28.343786</ele>
        <time>2022-08-14T05:30:20Z</time>
      </trkpt>
      <trkpt lat="43.18628" lon="5.65885">
        <ele>28.469135</ele>
        <time>2022-08-14T05:30:22Z</time>
      </trkpt>
      <trkpt lat="43.18633" lon="5.6587">
        <ele>28.773605</ele>
        <time>2022-08-14T05:30:24Z</time>
      </trkpt>
      <trkpt lat="43.18638" lon="5.65853">
        <ele>28.954168</ele>
        <time>2022-08-14T05:30:26Z</time>
      </trkpt>
      <trkpt lat="43.18643" lon="5.65837">
        <ele>29.370972</ele>
        <time>2022-08-14T05:30:28Z</time>
      </trkpt>
      <trkpt lat="43.18648" lon="5.65821">
        <ele>29.599041</ele>
        <time>2022-08-14T05:30:30Z</time>
      </trkpt>
      <trkpt lat="43.18653" lon="5.65803">
        <ele>30.078323</ele>
        <time>2022-08-14T05:30:32Z</time>
      </trkpt>
      <trkpt lat="43.18658" lon="5.65787">
        <ele>30.316898</ele>
        <time>2022-08-14T05:30:34Z</time>
      </trkpt>
      <trkpt lat="43.18662" lon="5.6577">
        <ele>30.757776</ele>
        <time>2022-08-14T05:30:36Z</time>
      </trkpt>
      <trkpt lat="43.18667" lon="5.65752">
        <ele>30.952087</ele>
        <time>2022-08-14T05:30:38Z</time>
      </trkpt>
      <trkpt lat="43.18671" lon="5.65734">
        <ele>31.281498</ele>
        <time>2022-08-14T05:30:40Z</time>
      </trkpt>
      <trkpt lat="43.18675" lon="5.65717">
        <ele>31.532541</ele>
        <time>2022-08-14T05:30:42Z</time>
      </trkpt>
      <trkpt lat="43.18678" lon="5.65698">
        <ele>31.71224</ele>
        <time>2022-08-14T05:30:44Z</time>
      </trkpt>
      <trkpt lat="43.18681" lon="5.6568">
        <ele>31.781321</ele>
        <time>2022-08-14T05:30:46Z</time>
      </trkpt>
      <trkpt lat="43.18683" lon="5.65662">
        <ele>31.868372</ele>
        <time>2022-08-14T05:30:48Z</time>
      </trkpt>
      <trkpt lat="43.18684" lon="5.65644">
        <ele>31.887081</ele>
        <time>2022-08-14T05:30:50Z</time>
      </trkpt>
      <trkpt lat="43.18686" lon="5.65626">
        <ele>31.886448</ele>
        <time>2022-08-14T05:30:52Z</time>
      </trkpt>
      <trkpt lat="43.18687" lon="5.65608">
        <ele>31.866272</ele>
        <time>2022-08-14T05:30:54Z</time>
      </trkpt>
      <trkpt lat="43.18688" lon="5.6559">
        <ele>31.786327</ele>
        <time>2022-08-14T05:30:56Z</time>
      </trkpt>
      <trkpt lat="43.18689" lon="5.65573">
        <ele>31.727512</ele>
        <time>2022-08-14T05:30:58Z</time>
      </trkpt>
      <trkpt lat="43.1869" lon="5.65555">
        <ele>31.57608</ele>
        <time>2022-08-14T05:31:00Z</time>
      </trkpt>
      <trkpt lat="43.18691" lon="5.65538">
        <ele>31.483936</ele>
        <time>2022-08-14T05:31:02Z</time>
      </trkpt>
      <trkpt lat="43.18692" lon="5.6552">
        <ele>31.262506</ele>
        <time>2022-08-14T05:31:04Z</time>
      </trkpt>
      <trkpt lat="43.18694" lon="5.65503">
        <ele>31.134832</ele>
        <time>2022-08-14T05:31:06Z</time>
      </trkpt>
      <trkpt lat="43.18696" lon="5.65485">
        <ele>30.84024</ele>
        <time>2022-08-14T05:31:08Z</time>
      </trkpt>
      <trkpt lat="43.18699" lon="5.65468">
        <ele>30.672476</ele>
        <time>2022-08-14T05:31:10Z</time>
      </trkpt>
      <trkpt lat="43.18703" lon="5.65451">
        <ele>30.296106</ele>
        <time>2022-08-14T05:31:12Z</time>
      </trkpt>
      <trkpt lat="43.18708" lon="5.65434">
        <ele>30.087856</ele>
        <time>2022-08-14T05:31:14Z</time>
      </trkpt>
      <trkpt lat="43.18715" lon="5.65418">
        <ele>29.632666</ele>
        <time>2022-08-14T05:31:16Z</time>
      </trkpt>
      <trkpt lat="43.18722" lon="5.65402">
        <ele>29.125401</ele>
        <time>2022-08-14T05:31:18Z</time>
      </trkpt>
      <trkpt lat="43.1873" lon="5.65385">
        <ele>28.851282</ele>
        <time>2022-08-14T05:31:20Z</time>
      </trkpt>
      <trkpt lat="43.18739" lon="5.6537">
        <ele>28.26178</ele>
        <time>2022-08-14T05:31:22Z</time>
      </trkpt>
      <trkpt lat="43.1875" lon="5.65356">
        <ele>27.946732</ele>
        <time>2022-08-14T05:31:24Z</time>
      </trkpt>
      <trkpt lat="43.18762" lon="5.65341">
        <ele>27.282818</ele>
        <time>2022-08-14T05:31:26Z</time>
      </trkpt>
      <trkpt lat="43.18775" lon="5.65327">
        <ele>26.940273</ele>
        <time>2022-08-14T05:31:28Z</time>
      </trkpt>
      <trkpt lat="43.18788" lon="5.65312">
        <ele>26.241749</ele>
        <time>2022-08-14T05:31:30Z</time>
      </trkpt>
      <trkpt lat="43.18802" lon="5.65296">
        <ele>25.889532</ele>
        <time>2022-08-14T05:31:32Z</time>
      </trkpt>
      <trkpt lat="43.18816" lon="5.65281">
        <ele>25.187437</ele>
        <time>2022-08-14T05:31:34Z</time>
      </trkpt>
      <trkpt lat="43.18831" lon="5.65264">
        <ele>24.841801</ele>
        <time>2022-08-14T05:31:36Z</time>
      </trkpt>
      <trkpt lat="43.18845" lon="5.65248">
        <ele>24.16762</ele>
        <time>2022-08-14T05:31:38Z</time>
      </trkpt>
      <trkpt lat="43.1886" lon="5.65228">
        <ele>23.83659</ele>
        <time>2022-08-14T05:31:40Z</time>
      </trkpt>
      <trkpt lat="43.18875" lon="5.6521">
        <ele>23.194645</ele>
        <time>2022-08-14T05:31:42Z</time>
      </trkpt>
      <trkpt lat="43.1889" lon="5.6519">
        <ele>22.590904</ele>
        <time>2022-08-14T05:31:44Z</time>
      </trkpt>
      <trkpt lat="43.18903" lon="5.65169">
        <ele>22.039513</ele>
        <time>2022-08-14T05:31:46Z</time>
      </trkpt>
      <trkpt lat="43.18915" lon="5.65146">
        <ele>21.788418</ele>
        <time>2022-08-14T05:31:48Z</time>
      </trkpt>
      <trkpt lat="43.18927" lon="5.65122">
        <ele>21.339962</ele>
        <time>2022-08-14T05:31:50Z</time>
      </trkpt>
      <trkpt lat="43.18937" lon="5.65097">
        <ele>21.141731</ele>
        <time>2022-08-14T05:31:52Z</time>
      </trkpt>
      <trkpt lat="43.18945" lon="5.65073">
        <ele>20.791838</ele>
        <time>2022-08-14T05:31:54Z</time>
      </trkpt>
      <trkpt lat="43.18951" lon="5.65048">
        <ele>20.637693</ele>
        <time>2022-08-14T05:31:56Z</time>
      </trkpt>
      <trkpt lat="43.18956" lon="5.65023">
        <ele>20.368095</ele>
        <time>2022-08-14T05:31:58Z</time>
      </trkpt>
      <trkpt lat="43.18959" lon="5.64998">
        <ele>20.251865</ele>
        <time>2022-08-14T05:32:00Z</time>
      </trkpt>
      <trkpt lat="43.18962" lon="5.64975">
        <ele>20.05209</ele>
        <time>2022-08-14T05:32:02Z</time>
      </trkpt>
      <trkpt lat="43.18963" lon="5.64942">
        <ele>19.895443</ele>
        <time>2022-08-14T05:32:05Z</time>
      </trkpt>
      <trkpt lat="43.18963" lon="5.64921">
        <ele>19.828102</ele>
        <time>2022-08-14T05:32:07Z</time>
      </trkpt>
      <trkpt lat="43.18962" lon="5.64901">
        <ele>19.702791</ele>
        <time>2022-08-14T05:32:09Z</time>
      </trkpt>
      <trkpt lat="43.18961" lon="5.64882">
        <ele>19.585758</ele>
        <time>2022-08-14T05:32:11Z</time>
      </trkpt>
      <trkpt lat="43.1896" lon="5.64864">
        <ele>19.530519</ele>
        <time>2022-08-14T05:32:13Z</time>
      </trkpt>
      <trkpt lat="43.18956" lon="5.64846">
        <ele>19.477684</ele>
        <time>2022-08-14T05:32:15Z</time>
      </trkpt>
      <trkpt lat="43.18954" lon="5.64827">
        <ele>19.377424</ele>
        <time>2022-08-14T05:32:17Z</time>
      </trkpt>
      <trkpt lat="43.18952" lon="5.6481">
        <ele>19.327648</ele>
        <time>2022-08-14T05:32:19Z</time>
      </trkpt>
      <trkpt lat="43.18951" lon="5.64795">
        <ele>19.222374</ele>
        <time>2022-08-14T05:32:21Z</time>
      </trkpt>
      <trkpt lat="43.18941" lon="5.64652">
        <ele>19.165678</ele>
        <time>2022-08-14T05:32:35Z</time>
      </trkpt>
      <trkpt lat="43.18942" lon="5.64636">
        <ele>19.043962</ele>
        <time>2022-08-14T05:32:37Z</time>
      </trkpt>
      <trkpt lat="43.18943" lon="5.64621">
        <ele>18.9053</ele>
        <time>2022-08-14T05:32:39Z</time>
      </trkpt>
      <trkpt lat="43.19049" lon="5.64197">
        <ele>18.827217</ele>
        <time>2022-08-14T05:33:21Z</time>
      </trkpt>
      <trkpt lat="43.19055" lon="5.64183">
        <ele>18.749346</ele>
        <time>2022-08-14T05:33:23Z</time>
      </trkpt>
      <trkpt lat="43.19061" lon="5.64166">
        <ele>18.621227</ele>
        <time>2022-08-14T05:33:25Z</time>
      </trkpt>
      <trkpt lat="43.19066" lon="5.64144">
        <ele>18.574083</ele>
        <time>2022-08-14T05:33:27Z</time>
      </trkpt>
      <trkpt lat="43.1907" lon="5.64122">
        <ele>18.505272</ele>
        <time>2022-08-14T05:33:29Z</time>
      </trkpt>
      <trkpt lat="43.19074" lon="5.641">
        <ele>18.473351</ele>
        <time>2022-08-14T05:33:31Z</time>
      </trkpt>
      <trkpt lat="43.19076" lon="5.64077">
        <ele>18.467543</ele>
        <time>2022-08-14T05:33:33Z</time>
      </trkpt>
      <trkpt lat="43.19077" lon="5.64055">
        <ele>18.466389</ele>
        <time>2022-08-14T05:33:35Z</time>
      </trkpt>
      <trkpt lat="43.19078" lon="5.64033">
        <ele>18.476912</ele>
        <time>2022-08-14T05:33:37Z</time>
      </trkpt>
      <trkpt lat="43.19077" lon="5.64011">
        <ele>18.488985</ele>
        <time>2022-08-14T05:33:39Z</time>
      </trkpt>
      <trkpt lat="43.19075" lon="5.63977">
        <ele>18.5282</ele>
        <time>2022-08-14T05:33:42Z</time>
      </trkpt>
      <trkpt lat="43.19075" lon="5.63954">
        <ele>18.555218</ele>
        <time>2022-08-14T05:33:44Z</time>
      </trkpt>
      <trkpt lat="43.19073" lon="5.63931">
        <ele>18.62822</ele>
        <time>2022-08-14T05:33:46Z</time>
      </trkpt>
      <trkpt lat="43.19072" lon="5.63908">
        <ele>18.673918</ele>
        <time>2022-08-14T05:33:48Z</time>
      </trkpt>
      <trkpt lat="43.1907" lon="5.63886">
        <ele>18.790215</ele>
        <time>2022-08-14T05:33:50Z</time>
      </trkpt>
      <trkpt lat="43.19066" lon="5.63864">
        <ele>18.930363</ele>
        <time>2022-08-14T05:33:52Z</time>
      </trkpt>
      <trkpt lat="43.19061" lon="5.63842">
        <ele>19.015638</ele>
        <time>2022-08-14T05:33:54Z</time>
      </trkpt>
      <trkpt lat="43.19055" lon="5.63821">
        <ele>19.213049</ele>
        <time>2022-08-14T05:33:56Z</time>
      </trkpt>
      <trkpt lat="43.1905" lon="5.63799">
        <ele>19.322697</ele>
        <time>2022-08-14T05:33:58Z</time>
      </trkpt>
      <trkpt lat="43.19045" lon="5.63776">
        <ele>19.555891</ele>
        <time>2022-08-14T05:34:00Z</time>
      </trkpt>
      <trkpt lat="43.19039" lon="5.63754">
        <ele>19.676046</ele>
        <time>2022-08-14T05:34:02Z</time>
      </trkpt>
      <trkpt lat="43.19032" lon="5.63732">
        <ele>19.797203</ele>
        <time>2022-08-14T05:34:04Z</time>
      </trkpt>
      <trkpt lat="43.19026" lon="5.6371">
        <ele>20.041492</ele>
        <time>2022-08-14T05:34:06Z</time>
      </trkpt>
      <trkpt lat="43.1902" lon="5.63688">
        <ele>20.162203</ele>
        <time>2022-08-14T05:34:08Z</time>
      </trkpt>
      <trkpt lat="43.19013" lon="5.63667">
        <ele>20.279963</ele>
        <time>2022-08-14T05:34:10Z</time>
      </trkpt>
      <trkpt lat="43.19006" lon="5.63646">
        <ele>20.503439</ele>
        <time>2022-08-14T05:34:12Z</time>
      </trkpt>
      <trkpt lat="43.18998" lon="5.63625">
        <ele>20.609945</ele>
        <time>2022-08-14T05:34:14Z</time>
      </trkpt>
      <trkpt lat="43.1899" lon="5.63605">
        <ele>20.711552</ele>
        <time>2022-08-14T05:34:16Z</time>
      </trkpt>
      <trkpt lat="43.18982" lon="5.63585">
        <ele>20.808416</ele>
        <time>2022-08-14T05:34:18Z</time>
      </trkpt>
      <trkpt lat="43.18973" lon="5.63565">
        <ele>20.89514</ele>
        <time>2022-08-14T05:34:20Z</time>
      </trkpt>
      <trkpt lat="43.18965" lon="5.63545">
        <ele>21.021595</ele>
        <time>2022-08-14T05:34:22Z</time>
      </trkpt>
      <trkpt lat="43.18956" lon="5.63525">
        <ele>21.05801</ele>
        <time>2022-08-14T05:34:24Z</time>
      </trkpt>
      <trkpt lat="43.18947" lon="5.63505">
        <ele>21.086727</ele>
        <time>2022-08-14T05:34:26Z</time>
      </trkpt>
      <trkpt lat="43.18939" lon="5.63485">
        <ele>21.073172</ele>
        <time>2022-08-14T05:34:28Z</time>
      </trkpt>
      <trkpt lat="43.18931" lon="5.63466">
        <ele>20.988577</ele>
        <time>2022-08-14T05:34:30Z</time>
      </trkpt>
      <trkpt lat="43.18924" lon="5.63446">
        <ele>20.836344</ele>
        <time>2022-08-14T05:34:32Z</time>
      </trkpt>
      <trkpt lat="43.18919" lon="5.63425">
        <ele>20.743204</ele>
        <time>2022-08-14T05:34:34Z</time>
      </trkpt>
      <trkpt lat="43.18913" lon="5.63405">
        <ele>20.524197</ele>
        <time>2022-08-14T05:34:36Z</time>
      </trkpt>
      <trkpt lat="43.18908" lon="5.63385">
        <ele>20.40173</ele>
        <time>2022-08-14T05:34:38Z</time>
      </trkpt>
      <trkpt lat="43.18906" lon="5.63364">
        <ele>20.133667</ele>
        <time>2022-08-14T05:34:40Z</time>
      </trkpt>
      <trkpt lat="43.18903" lon="5.63344">
        <ele>19.988588</ele>
        <time>2022-08-14T05:34:42Z</time>
      </trkpt>
      <trkpt lat="43.18901" lon="5.63322">
        <ele>19.835842</ele>
        <time>2022-08-14T05:34:44Z</time>
      </trkpt>
      <trkpt lat="43.189" lon="5.633">
        <ele>19.512024</ele>
        <time>2022-08-14T05:34:46Z</time>
      </trkpt>
      <trkpt lat="43.189" lon="5.63278">
        <ele>19.341021</ele>
        <time>2022-08-14T05:34:48Z</time>
      </trkpt>
      <trkpt lat="43.18901" lon="5.63256">
        <ele>18.980644</ele>
        <time>2022-08-14T05:34:50Z</time>
      </trkpt>
      <trkpt lat="43.18904" lon="5.63235">
        <ele>18.792606</ele>
        <time>2022-08-14T05:34:52Z</time>
      </trkpt>
      <trkpt lat="43.18907" lon="5.63214">
        <ele>18.411488</ele>
        <time>2022-08-14T05:34:54Z</time>
      </trkpt>
      <trkpt lat="43.1891" lon="5.63193">
        <ele>18.218868</ele>
        <time>2022-08-14T05:34:56Z</time>
      </trkpt>
      <trkpt lat="43.18913" lon="5.63172">
        <ele>18.027201</ele>
        <time>2022-08-14T05:34:58Z</time>
      </trkpt>
      <trkpt lat="43.18916" lon="5.63151">
        <ele>17.837397</ele>
        <time>2022-08-14T05:35:00Z</time>
      </trkpt>
      <trkpt lat="43.18919" lon="5.6313">
        <ele>17.464397</ele>
        <time>2022-08-14T05:35:02Z</time>
      </trkpt>
      <trkpt lat="43.18923" lon="5.6311">
        <ele>17.099253</ele>
        <time>2022-08-14T05:35:04Z</time>
      </trkpt>
      <trkpt lat="43.18928" lon="5.63089">
        <ele>16.748169</ele>
        <time>2022-08-14T05:35:06Z</time>
      </trkpt>
      <trkpt lat="43.18931" lon="5.63068">
        <ele>16.577204</ele>
        <time>2022-08-14T05:35:08Z</time>
      </trkpt>
      <trkpt lat="43.18934" lon="5.63047">
        <ele>16.246555</ele>
        <time>2022-08-14T05:35:10Z</time>
      </trkpt>
      <trkpt lat="43.18938" lon="5.63026">
        <ele>15.937752</ele>
        <time>2022-08-14T05:35:12Z</time>
      </trkpt>
      <trkpt lat="43.18941" lon="5.63005">
        <ele>15.792299</ele>
        <time>2022-08-14T05:35:14Z</time>
      </trkpt>
      <trkpt lat="43.18944" lon="5.62984">
        <ele>15.649635</ele>
        <time>2022-08-14T05:35:16Z</time>
      </trkpt>
      <trkpt lat="43.18947" lon="5.62963">
        <ele>15.385445</ele>
        <time>2022-08-14T05:35:18Z</time>
      </trkpt>
      <trkpt lat="43.1895" lon="5.62943">
        <ele>15.260602</ele>
        <time>2022-08-14T05:35:20Z</time>
      </trkpt>
      <trkpt lat="43.18953" lon="5.62922">
        <ele>15.043924</ele>
        <time>2022-08-14T05:35:22Z</time>
      </trkpt>
      <trkpt lat="43.18957" lon="5.62903">
        <ele>14.946451</ele>
        <time>2022-08-14T05:35:24Z</time>
      </trkpt>
      <trkpt lat="43.18964" lon="5.62885">
        <ele>14.787615</ele>
        <time>2022-08-14T05:35:26Z</time>
      </trkpt>
      <trkpt lat="43.18975" lon="5.62871">
        <ele>14.719315</ele>
        <time>2022-08-14T05:35:28Z</time>
      </trkpt>
      <trkpt lat="43.18987" lon="5.62863">
        <ele>14.6108</ele>
        <time>2022-08-14T05:35:30Z</time>
      </trkpt>
      <trkpt lat="43.19005" lon="5.62852">
        <ele>14.569737</ele>
        <time>2022-08-14T05:35:33Z</time>
      </trkpt>
      <trkpt lat="43.19016" lon="5.62845">
        <ele>14.541117</ele>
        <time>2022-08-14T05:35:35Z</time>
      </trkpt>
      <trkpt lat="43.19028" lon="5.62839">
        <ele>14.513235</ele>
        <time>2022-08-14T05:35:37Z</time>
      </trkpt>
      <trkpt lat="43.1904" lon="5.62833">
        <ele>14.519316</ele>
        <time>2022-08-14T05:35:39Z</time>
      </trkpt>
      <trkpt lat="43.19052" lon="5.62826">
        <ele>14.560736</ele>
        <time>2022-08-14T05:35:41Z</time>
      </trkpt>
      <trkpt lat="43.19064" lon="5.62821">
        <ele>14.597168</ele>
        <time>2022-08-14T05:35:43Z</time>
      </trkpt>
      <trkpt lat="43.19076" lon="5.62815">
        <ele>14.698583</ele>
        <time>2022-08-14T05:35:45Z</time>
      </trkpt>
      <trkpt lat="43.19087" lon="5.62809">
        <ele>14.763361</ele>
        <time>2022-08-14T05:35:47Z</time>
      </trkpt>
      <trkpt lat="43.19098" lon="5.62802">
        <ele>14.910329</ele>
        <time>2022-08-14T05:35:49Z</time>
      </trkpt>
      <trkpt lat="43.19107" lon="5.62795">
        <ele>14.992055</ele>
        <time>2022-08-14T05:35:51Z</time>
      </trkpt>
      <trkpt lat="43.19117" lon="5.62789">
        <ele>15.165985</ele>
        <time>2022-08-14T05:35:53Z</time>
      </trkpt>
      <trkpt lat="43.19127" lon="5.62783">
        <ele>15.257521</ele>
        <time>2022-08-14T05:35:55Z</time>
      </trkpt>
      <trkpt lat="43.19136" lon="5.6278">
        <ele>15.450264</ele>
        <time>2022-08-14T05:35:57Z</time>
      </trkpt>
      <trkpt lat="43.19147" lon="5.62781">
        <ele>15.552149</ele>
        <time>2022-08-14T05:35:59Z</time>
      </trkpt>
      <trkpt lat="43.19158" lon="5.62782">
        <ele>15.768751</ele>
        <time>2022-08-14T05:36:01Z</time>
      </trkpt>
      <trkpt lat="43.19169" lon="5.62784">
        <ele>15.883825</ele>
        <time>2022-08-14T05:36:03Z</time>
      </trkpt>
      <trkpt lat="43.1918" lon="5.62786">
        <ele>16.127766</ele>
        <time>2022-08-14T05:36:05Z</time>
      </trkpt>
      <trkpt lat="43.19191" lon="5.62788">
        <ele>16.256458</ele>
        <time>2022-08-14T05:36:07Z</time>
      </trkpt>
      <trkpt lat="43.19202" lon="5.62789">
        <ele>16.523981</ele>
        <time>2022-08-14T05:36:09Z</time>
      </trkpt>
      <trkpt lat="43.19213" lon="5.62788">
        <ele>16.801317</ele>
        <time>2022-08-14T05:36:11Z</time>
      </trkpt>
      <trkpt lat="43.19224" lon="5.62786">
        <ele>16.943031</ele>
        <time>2022-08-14T05:36:13Z</time>
      </trkpt>
      <trkpt lat="43.19235" lon="5.62785">
        <ele>17.086895</ele>
        <time>2022-08-14T05:36:15Z</time>
      </trkpt>
      <trkpt lat="43.19246" lon="5.62784">
        <ele>17.382069</ele>
        <time>2022-08-14T05:36:17Z</time>
      </trkpt>
      <trkpt lat="43.19257" lon="5.62784">
        <ele>17.688679</ele>
        <time>2022-08-14T05:36:19Z</time>
      </trkpt>
      <trkpt lat="43.19267" lon="5.62784">
        <ele>17.84626</ele>
        <time>2022-08-14T05:36:21Z</time>
      </trkpt>
      <trkpt lat="43.19278" lon="5.62784">
        <ele>18.168467</ele>
        <time>2022-08-14T05:36:23Z</time>
      </trkpt>
      <trkpt lat="43.19289" lon="5.62787">
        <ele>18.333185</ele>
        <time>2022-08-14T05:36:25Z</time>
      </trkpt>
      <trkpt lat="43.193" lon="5.6279">
        <ele>18.668713</ele>
        <time>2022-08-14T05:36:27Z</time>
      </trkpt>
      <trkpt lat="43.19312" lon="5.62793">
        <ele>18.83741</ele>
        <time>2022-08-14T05:36:29Z</time>
      </trkpt>
      <trkpt lat="43.19323" lon="5.62797">
        <ele>19.176527</ele>
        <time>2022-08-14T05:36:31Z</time>
      </trkpt>
      <trkpt lat="43.19335" lon="5.62801">
        <ele>19.347738</ele>
        <time>2022-08-14T05:36:33Z</time>
      </trkpt>
      <trkpt lat="43.19347" lon="5.62805">
        <ele>19.697172</ele>
        <time>2022-08-14T05:36:35Z</time>
      </trkpt>
      <trkpt lat="43.19358" lon="5.6281">
        <ele>19.876556</ele>
        <time>2022-08-14T05:36:37Z</time>
      </trkpt>
      <trkpt lat="43.1937" lon="5.62814">
        <ele>20.246571</ele>
        <time>2022-08-14T05:36:39Z</time>
      </trkpt>
      <trkpt lat="43.19381" lon="5.6282">
        <ele>20.437733</ele>
        <time>2022-08-14T05:36:41Z</time>
      </trkpt>
      <trkpt lat="43.19392" lon="5.62825">
        <ele>20.633276</ele>
        <time>2022-08-14T05:36:43Z</time>
      </trkpt>
      <trkpt lat="43.19402" lon="5.6283">
        <ele>21.039261</ele>
        <time>2022-08-14T05:36:45Z</time>
      </trkpt>
      <trkpt lat="43.19413" lon="5.62833">
        <ele>21.466227</ele>
        <time>2022-08-14T05:36:47Z</time>
      </trkpt>
      <trkpt lat="43.19424" lon="5.62837">
        <ele>21.687099</ele>
        <time>2022-08-14T05:36:49Z</time>
      </trkpt>
      <trkpt lat="43.19434" lon="5.62841">
        <ele>22.140903</ele>
        <time>2022-08-14T05:36:51Z</time>
      </trkpt>
      <trkpt lat="43.19445" lon="5.62844">
        <ele>22.372717</ele>
        <time>2022-08-14T05:36:53Z</time>
      </trkpt>
      <trkpt lat="43.19455" lon="5.62847">
        <ele>22.607092</ele>
        <time>2022-08-14T05:36:55Z</time>
      </trkpt>
      <trkpt lat="43.19466" lon="5.6285">
        <ele>23.082579</ele>
        <time>2022-08-14T05:36:57Z</time>
      </trkpt>
      <trkpt lat="43.19476" lon="5.62854">
        <ele>23.566172</ele>
        <time>2022-08-14T05:36:59Z</time>
      </trkpt>
      <trkpt lat="43.19486" lon="5.62859">
        <ele>23.810837</ele>
        <time>2022-08-14T05:37:01Z</time>
      </trkpt>
      <trkpt lat="43.19497" lon="5.62863">
        <ele>24.057257</ele>
        <time>2022-08-14T05:37:03Z</time>
      </trkpt>
      <trkpt lat="43.19509" lon="5.62864">
        <ele>24.555504</ele>
        <time>2022-08-14T05:37:05Z</time>
      </trkpt>
      <trkpt lat="43.1952" lon="5.62861">
        <ele>25.060925</ele>
        <time>2022-08-14T05:37:07Z</time>
      </trkpt>
      <trkpt lat="43.19532" lon="5.62856">
        <ele>25.315943</ele>
        <time>2022-08-14T05:37:09Z</time>
      </trkpt>
      <trkpt lat="43.19544" lon="5.62851">
        <ele>25.829554</ele>
        <time>2022-08-14T05:37:11Z</time>
      </trkpt>
      <trkpt lat="43.19555" lon="5.62846">
        <ele>26.087955</ele>
        <time>2022-08-14T05:37:13Z</time>
      </trkpt>
      <trkpt lat="43.19565" lon="5.62841">
        <ele>26.606894</ele>
        <time>2022-08-14T05:37:15Z</time>
      </trkpt>
      <trkpt lat="43.19575" lon="5.62834">
        <ele>26.865738</ele>
        <time>2022-08-14T05:37:17Z</time>
      </trkpt>
      <trkpt lat="43.19584" lon="5.62824">
        <ele>27.376205</ele>
        <time>2022-08-14T05:37:19Z</time>
      </trkpt>
      <trkpt lat="43.19592" lon="5.62811">
        <ele>27.625126</ele>
        <time>2022-08-14T05:37:21Z</time>
      </trkpt>
      <trkpt lat="43.19599" lon="5.62797">
        <ele>27.868387</ele>
        <time>2022-08-14T05:37:23Z</time>
      </trkpt>
      <trkpt lat="43.19606" lon="5.62783">
        <ele>28.335367</ele>
        <time>2022-08-14T05:37:25Z</time>
      </trkpt>
      <trkpt lat="43.19613" lon="5.6277">
        <ele>28.775234</ele>
        <time>2022-08-14T05:37:27Z</time>
      </trkpt>
      <trkpt lat="43.19622" lon="5.62758">
        <ele>28.98527</ele>
        <time>2022-08-14T05:37:29Z</time>
      </trkpt>
      <trkpt lat="43.19631" lon="5.62749">
        <ele>29.391678</ele>
        <time>2022-08-14T05:37:31Z</time>
      </trkpt>
      <trkpt lat="43.19641" lon="5.62744">
        <ele>29.591232</ele>
        <time>2022-08-14T05:37:33Z</time>
      </trkpt>
      <trkpt lat="43.19655" lon="5.62743">
        <ele>29.988255</ele>
        <time>2022-08-14T05:37:35Z</time>
      </trkpt>
      <trkpt lat="43.19666" lon="5.62745">
        <ele>30.183731</ele>
        <time>2022-08-14T05:37:37Z</time>
      </trkpt>
      <trkpt lat="43.19676" lon="5.62749">
        <ele>30.559408</ele>
        <time>2022-08-14T05:37:39Z</time>
      </trkpt>
      <trkpt lat="43.19685" lon="5.62756">
        <ele>30.735641</ele>
        <time>2022-08-14T05:37:41Z</time>
      </trkpt>
      <trkpt lat="43.19695" lon="5.62758">
        <ele>31.057016</ele>
        <time>2022-08-14T05:37:43Z</time>
      </trkpt>
      <trkpt lat="43.19706" lon="5.62755">
        <ele>31.200094</ele>
        <time>2022-08-14T05:37:45Z</time>
      </trkpt>
      <trkpt lat="43.19716" lon="5.62747">
        <ele>31.440792</ele>
        <time>2022-08-14T05:37:47Z</time>
      </trkpt>
      <trkpt lat="43.19724" lon="5.62738">
        <ele>31.632511</ele>
        <time>2022-08-14T05:37:49Z</time>
      </trkpt>
      <trkpt lat="43.19733" lon="5.6273">
        <ele>31.713406</ele>
        <time>2022-08-14T05:37:51Z</time>
      </trkpt>
      <trkpt lat="43.19741" lon="5.62721">
        <ele>31.860287</ele>
        <time>2022-08-14T05:37:53Z</time>
      </trkpt>
      <trkpt lat="43.19749" lon="5.62711">
        <ele>31.931717</ele>
        <time>2022-08-14T05:37:55Z</time>
      </trkpt>
      <trkpt lat="43.19756" lon="5.62703">
        <ele>32.073685</ele>
        <time>2022-08-14T05:37:57Z</time>
      </trkpt>
      <trkpt lat="43.19764" lon="5.62694">
        <ele>32.220665</ele>
        <time>2022-08-14T05:37:59Z</time>
      </trkpt>
      <trkpt lat="43.1977" lon="5.62685">
        <ele>32.297428</ele>
        <time>2022-08-14T05:38:01Z</time>
      </trkpt>
      <trkpt lat="43.19777" lon="5.62678">
        <ele>32.457924</ele>
        <time>2022-08-14T05:38:03Z</time>
      </trkpt>
      <trkpt lat="43.19787" lon="5.62673">
        <ele>32.547417</ele>
        <time>2022-08-14T05:38:05Z</time>
      </trkpt>
      <trkpt lat="43.19796" lon="5.62668">
        <ele>32.74794</ele>
        <time>2022-08-14T05:38:07Z</time>
      </trkpt>
      <trkpt lat="43.19806" lon="5.62665">
        <ele>32.969006</ele>
        <time>2022-08-14T05:38:09Z</time>
      </trkpt>
      <trkpt lat="43.19816" lon="5.62662">
        <ele>33.213829</ele>
        <time>2022-08-14T05:38:11Z</time>
      </trkpt>
      <trkpt lat="43.19828" lon="5.6266">
        <ele>33.481998</ele>
        <time>2022-08-14T05:38:13Z</time>
      </trkpt>
      <trkpt lat="43.19837" lon="5.62657">
        <ele>33.625439</ele>
        <time>2022-08-14T05:38:15Z</time>
      </trkpt>
      <trkpt lat="43.19844" lon="5.62655">
        <ele>33.926903</ele>
        <time>2022-08-14T05:38:17Z</time>
      </trkpt>
      <trkpt lat="43.19854" lon="5.62651">
        <ele>34.082645</ele>
        <time>2022-08-14T05:38:19Z</time>
      </trkpt>
      <trkpt lat="43.19864" lon="5.62649">
        <ele>34.239765</ele>
        <time>2022-08-14T05:38:21Z</time>
      </trkpt>
      <trkpt lat="43.19874" lon="5.62649">
        <ele>34.550522</ele>
        <time>2022-08-14T05:38:23Z</time>
      </trkpt>
      <trkpt lat="43.19883" lon="5.6265">
        <ele>34.699211</ele>
        <time>2022-08-14T05:38:25Z</time>
      </trkpt>
      <trkpt lat="43.19893" lon="5.6265">
        <ele>34.981895</ele>
        <time>2022-08-14T05:38:27Z</time>
      </trkpt>
      <trkpt lat="43.19903" lon="5.62651">
        <ele>35.253258</ele>
        <time>2022-08-14T05:38:29Z</time>
      </trkpt>
      <trkpt lat="43.19914" lon="5.62651">
        <ele>35.524517</ele>
        <time>2022-08-14T05:38:31Z</time>
      </trkpt>
      <trkpt lat="43.19924" lon="5.62652">
        <ele>35.66407</ele>
        <time>2022-08-14T05:38:33Z</time>
      </trkpt>
      <trkpt lat="43.19933" lon="5.62653">
        <ele>35.807022</ele>
        <time>2022-08-14T05:38:35Z</time>
      </trkpt>
      <trkpt lat="43.19943" lon="5.62654">
        <ele>35.95713</ele>
        <time>2022-08-14T05:38:37Z</time>
      </trkpt>
      <trkpt lat="43.19953" lon="5.62656">
        <ele>36.115143</ele>
        <time>2022-08-14T05:38:39Z</time>
      </trkpt>
      <trkpt lat="43.19962" lon="5.62658">
        <ele>36.277424</ele>
        <time>2022-08-14T05:38:41Z</time>
      </trkpt>
      <trkpt lat="43.19972" lon="5.62659">
        <ele>36.610405</ele>
        <time>2022-08-14T05:38:43Z</time>
      </trkpt>
      <trkpt lat="43.19981" lon="5.6266">
        <ele>36.776871</ele>
        <time>2022-08-14T05:38:45Z</time>
      </trkpt>
      <trkpt lat="43.19991" lon="5.62661">
        <ele>36.940166</ele>
        <time>2022-08-14T05:38:47Z</time>
      </trkpt>
      <trkpt lat="43.2" lon="5.62659">
        <ele>37.248299</ele>
        <time>2022-08-14T05:38:49Z</time>
      </trkpt>
      <trkpt lat="43.2001" lon="5.62655">
        <ele>37.392467</ele>
        <time>2022-08-14T05:38:51Z</time>
      </trkpt>
      <trkpt lat="43.20021" lon="5.62652">
        <ele>37.5313</ele>
        <time>2022-08-14T05:38:53Z</time>
      </trkpt>
      <trkpt lat="43.20032" lon="5.6265">
        <ele>37.785912</ele>
        <time>2022-08-14T05:38:55Z</time>
      </trkpt>
      <trkpt lat="43.20042" lon="5.62649">
        <ele>37.903938</ele>
        <time>2022-08-14T05:38:57Z</time>
      </trkpt>
      <trkpt lat="43.20052" lon="5.6265">
        <ele>38.015926</ele>
        <time>2022-08-14T05:38:59Z</time>
      </trkpt>
      <trkpt lat="43.20063" lon="5.6265">
        <ele>38.204193</ele>
        <time>2022-08-14T05:39:01Z</time>
      </trkpt>
      <trkpt lat="43.20073" lon="5.62649">
        <ele>38.284451</ele>
        <time>2022-08-14T05:39:03Z</time>
      </trkpt>
      <trkpt lat="43.20084" lon="5.62648">
        <ele>38.357182</ele>
        <time>2022-08-14T05:39:05Z</time>
      </trkpt>
      <trkpt lat="43.20095" lon="5.62647">
        <ele>38.4832</ele>
        <time>2022-08-14T05:39:07Z</time>
      </trkpt>
      <trkpt lat="43.20105" lon="5.62647">
        <ele>38.536892</ele>
        <time>2022-08-14T05:39:09Z</time>
      </trkpt>
      <trkpt lat="43.20116" lon="5.62646">
        <ele>38.62949</ele>
        <time>2022-08-14T05:39:11Z</time>
      </trkpt>
      <trkpt lat="43.20126" lon="5.62645">
        <ele>38.667946</ele>
        <time>2022-08-14T05:39:13Z</time>
      </trkpt>
      <trkpt lat="43.20137" lon="5.62645">
        <ele>38.702396</ele>
        <time>2022-08-14T05:39:15Z</time>
      </trkpt>
      <trkpt lat="43.20147" lon="5.62643">
        <ele>38.734409</ele>
        <time>2022-08-14T05:39:17Z</time>
      </trkpt>
      <trkpt lat="43.20157" lon="5.62641">
        <ele>38.76503</ele>
        <time>2022-08-14T05:39:19Z</time>
      </trkpt>
      <trkpt lat="43.20168" lon="5.62638">
        <ele>38.796909</ele>
        <time>2022-08-14T05:39:21Z</time>
      </trkpt>
      <trkpt lat="43.20178" lon="5.62635">
        <ele>38.831047</ele>
        <time>2022-08-14T05:39:23Z</time>
      </trkpt>
      <trkpt lat="43.20193" lon="5.62632">
        <ele>38.868279</ele>
        <time>2022-08-14T05:39:26Z</time>
      </trkpt>
      <trkpt lat="43.20204" lon="5.6263">
        <ele>38.910416</ele>
        <time>2022-08-14T05:39:28Z</time>
      </trkpt>
      <trkpt lat="43.20214" lon="5.62628">
        <ele>39.013443</ele>
        <time>2022-08-14T05:39:30Z</time>
      </trkpt>
      <trkpt lat="43.20224" lon="5.62625">
        <ele>39.076363</ele>
        <time>2022-08-14T05:39:32Z</time>
      </trkpt>
      <trkpt lat="43.20234" lon="5.62622">
        <ele>39.14843</ele>
        <time>2022-08-14T05:39:34Z</time>
      </trkpt>
      <trkpt lat="43.20245" lon="5.62619">
        <ele>39.230289</ele>
        <time>2022-08-14T05:39:36Z</time>
      </trkpt>
      <trkpt lat="43.20255" lon="5.62616">
        <ele>39.321877</ele>
        <time>2022-08-14T05:39:38Z</time>
      </trkpt>
      <trkpt lat="43.20265" lon="5.62613">
        <ele>39.423729</ele>
        <time>2022-08-14T05:39:40Z</time>
      </trkpt>
      <trkpt lat="43.20276" lon="5.62611">
        <ele>39.644588</ele>
        <time>2022-08-14T05:39:42Z</time>
      </trkpt>
      <trkpt lat="43.20291" lon="5.62605">
        <ele>39.763424</ele>
        <time>2022-08-14T05:39:45Z</time>
      </trkpt>
      <trkpt lat="43.20302" lon="5.62602">
        <ele>40.020901</ele>
        <time>2022-08-14T05:39:47Z</time>
      </trkpt>
      <trkpt lat="43.20312" lon="5.62597">
        <ele>40.020901</ele>
        <time>2022-08-14T05:39:49Z</time>
      </trkpt>
      <trkpt lat="43.20322" lon="5.62591">
        <ele>40.163185</ele>
        <time>2022-08-14T05:39:51Z</time>
      </trkpt>
      <trkpt lat="43.20332" lon="5.6259">
        <ele>40.312485</ele>
        <time>2022-08-14T05:39:53Z</time>
      </trkpt>
      <trkpt lat="43.20341" lon="5.62597">
        <ele>40.470615</ele>
        <time>2022-08-14T05:39:55Z</time>
      </trkpt>
      <trkpt lat="43.2035" lon="5.62605">
        <ele>40.812344</ele>
        <time>2022-08-14T05:39:57Z</time>
      </trkpt>
      <trkpt lat="43.20358" lon="5.62613">
        <ele>40.99511</ele>
        <time>2022-08-14T05:39:59Z</time>
      </trkpt>
      <trkpt lat="43.20366" lon="5.6262">
        <ele>41.184654</ele>
        <time>2022-08-14T05:40:01Z</time>
      </trkpt>
      <trkpt lat="43.20375" lon="5.62626">
        <ele>41.380817</ele>
        <time>2022-08-14T05:40:03Z</time>
      </trkpt>
      <trkpt lat="43.20385" lon="5.62633">
        <ele>41.793587</ele>
        <time>2022-08-14T05:40:05Z</time>
      </trkpt>
      <trkpt lat="43.20401" lon="5.62643">
        <ele>42.009239</ele>
        <time>2022-08-14T05:40:08Z</time>
      </trkpt>
      <trkpt lat="43.20412" lon="5.62648">
        <ele>42.459888</ele>
        <time>2022-08-14T05:40:10Z</time>
      </trkpt>
      <trkpt lat="43.20423" lon="5.62652">
        <ele>42.694813</ele>
        <time>2022-08-14T05:40:12Z</time>
      </trkpt>
      <trkpt lat="43.2044" lon="5.62657">
        <ele>43.17812</ele>
        <time>2022-08-14T05:40:15Z</time>
      </trkpt>
      <trkpt lat="43.20453" lon="5.62661">
        <ele>43.426125</ele>
        <time>2022-08-14T05:40:17Z</time>
      </trkpt>
      <trkpt lat="43.20467" lon="5.62663">
        <ele>43.934502</ele>
        <time>2022-08-14T05:40:19Z</time>
      </trkpt>
      <trkpt lat="43.20481" lon="5.62666">
        <ele>44.19405</ele>
        <time>2022-08-14T05:40:21Z</time>
      </trkpt>
      <trkpt lat="43.20496" lon="5.62669">
        <ele>44.457344</ele>
        <time>2022-08-14T05:40:23Z</time>
      </trkpt>
      <trkpt lat="43.20509" lon="5.62673">
        <ele>44.721123</ele>
        <time>2022-08-14T05:40:25Z</time>
      </trkpt>
      <trkpt lat="43.20522" lon="5.62676">
        <ele>44.987175</ele>
        <time>2022-08-14T05:40:27Z</time>
      </trkpt>
      <trkpt lat="43.20533" lon="5.6268">
        <ele>45.51828</ele>
        <time>2022-08-14T05:40:29Z</time>
      </trkpt>
      <trkpt lat="43.20543" lon="5.62685">
        <ele>45.777485</ele>
        <time>2022-08-14T05:40:31Z</time>
      </trkpt>
      <trkpt lat="43.20553" lon="5.6269">
        <ele>46.033836</ele>
        <time>2022-08-14T05:40:33Z</time>
      </trkpt>
      <trkpt lat="43.20562" lon="5.62695">
        <ele>46.534344</ele>
        <time>2022-08-14T05:40:35Z</time>
      </trkpt>
      <trkpt lat="43.20571" lon="5.627">
        <ele>46.775066</ele>
        <time>2022-08-14T05:40:37Z</time>
      </trkpt>
      <trkpt lat="43.2058" lon="5.62704">
        <ele>47.010761</ele>
        <time>2022-08-14T05:40:39Z</time>
      </trkpt>
      <trkpt lat="43.2059" lon="5.62709">
        <ele>47.240623</ele>
        <time>2022-08-14T05:40:41Z</time>
      </trkpt>
      <trkpt lat="43.20599" lon="5.62714">
        <ele>47.464581</ele>
        <time>2022-08-14T05:40:43Z</time>
      </trkpt>
      <trkpt lat="43.20607" lon="5.62719">
        <ele>47.895454</ele>
        <time>2022-08-14T05:40:45Z</time>
      </trkpt>
      <trkpt lat="43.20617" lon="5.62723">
        <ele>48.315327</ele>
        <time>2022-08-14T05:40:47Z</time>
      </trkpt>
      <trkpt lat="43.20626" lon="5.62728">
        <ele>48.522381</ele>
        <time>2022-08-14T05:40:49Z</time>
      </trkpt>
      <trkpt lat="43.20635" lon="5.62732">
        <ele>48.726341</ele>
        <time>2022-08-14T05:40:51Z</time>
      </trkpt>
      <trkpt lat="43.20644" lon="5.62737">
        <ele>49.121433</ele>
        <time>2022-08-14T05:40:53Z</time>
      </trkpt>
      <trkpt lat="43.20652" lon="5.6274">
        <ele>49.312218</ele>
        <time>2022-08-14T05:40:55Z</time>
      </trkpt>
      <trkpt lat="43.20661" lon="5.62743">
        <ele>49.677567</ele>
        <time>2022-08-14T05:40:57Z</time>
      </trkpt>
      <trkpt lat="43.20669" lon="5.62747">
        <ele>50.021797</ele>
        <time>2022-08-14T05:40:59Z</time>
      </trkpt>
      <trkpt lat="43.20678" lon="5.6275">
        <ele>50.187401</ele>
        <time>2022-08-14T05:41:01Z</time>
      </trkpt>
      <trkpt lat="43.20687" lon="5.62753">
        <ele>50.505268</ele>
        <time>2022-08-14T05:41:03Z</time>
      </trkpt>
      <trkpt lat="43.20696" lon="5.62755">
        <ele>50.6558</ele>
        <time>2022-08-14T05:41:05Z</time>
      </trkpt>
      <trkpt lat="43.20706" lon="5.62758">
        <ele>50.943535</ele>
        <time>2022-08-14T05:41:07Z</time>
      </trkpt>
      <trkpt lat="43.20716" lon="5.6276">
        <ele>51.212219</ele>
        <time>2022-08-14T05:41:09Z</time>
      </trkpt>
      <trkpt lat="43.20726" lon="5.62762">
        <ele>51.340191</ele>
        <time>2022-08-14T05:41:11Z</time>
      </trkpt>
      <trkpt lat="43.20736" lon="5.62764">
        <ele>51.591972</ele>
        <time>2022-08-14T05:41:13Z</time>
      </trkpt>
      <trkpt lat="43.20746" lon="5.62766">
        <ele>51.836597</ele>
        <time>2022-08-14T05:41:15Z</time>
      </trkpt>
      <trkpt lat="43.20756" lon="5.62767">
        <ele>52.080761</ele>
        <time>2022-08-14T05:41:17Z</time>
      </trkpt>
      <trkpt lat="43.20766" lon="5.62768">
        <ele>52.33242</ele>
        <time>2022-08-14T05:41:19Z</time>
      </trkpt>
      <trkpt lat="43.20776" lon="5.62769">
        <ele>52.59243</ele>
        <time>2022-08-14T05:41:21Z</time>
      </trkpt>
      <trkpt lat="43.20786" lon="5.6277">
        <ele>52.867157</ele>
        <time>2022-08-14T05:41:23Z</time>
      </trkpt>
      <trkpt lat="43.20795" lon="5.6277">
        <ele>53.154175</ele>
        <time>2022-08-14T05:41:25Z</time>
      </trkpt>
      <trkpt lat="43.20805" lon="5.62771">
        <ele>53.459278</ele>
        <time>2022-08-14T05:41:27Z</time>
      </trkpt>
      <trkpt lat="43.20814" lon="5.62772">
        <ele>53.61673</ele>
        <time>2022-08-14T05:41:29Z</time>
      </trkpt>
      <trkpt lat="43.20824" lon="5.62774">
        <ele>53.938866</ele>
        <time>2022-08-14T05:41:31Z</time>
      </trkpt>
      <trkpt lat="43.20834" lon="5.62776">
        <ele>54.104595</ele>
        <time>2022-08-14T05:41:33Z</time>
      </trkpt>
      <trkpt lat="43.20843" lon="5.62779">
        <ele>54.452503</ele>
        <time>2022-08-14T05:41:35Z</time>
      </trkpt>
      <trkpt lat="43.20852" lon="5.62783">
        <ele>54.452503</ele>
        <time>2022-08-14T05:41:37Z</time>
      </trkpt>
      <trkpt lat="43.20861" lon="5.62787">
        <ele>54.826752</ele>
        <time>2022-08-14T05:41:39Z</time>
      </trkpt>
      <trkpt lat="43.20869" lon="5.62793">
        <ele>55.025227</ele>
        <time>2022-08-14T05:41:41Z</time>
      </trkpt>
      <trkpt lat="43.20878" lon="5.62798">
        <ele>55.440472</ele>
        <time>2022-08-14T05:41:43Z</time>
      </trkpt>
      <trkpt lat="43.20886" lon="5.62805">
        <ele>55.661327</ele>
        <time>2022-08-14T05:41:45Z</time>
      </trkpt>
      <trkpt lat="43.20894" lon="5.62809">
        <ele>55.888348</ele>
        <time>2022-08-14T05:41:47Z</time>
      </trkpt>
      <trkpt lat="43.20901" lon="5.62814">
        <ele>56.121796</ele>
        <time>2022-08-14T05:41:49Z</time>
      </trkpt>
      <trkpt lat="43.20912" lon="5.62819">
        <ele>56.604328</ele>
        <time>2022-08-14T05:41:51Z</time>
      </trkpt>
      <trkpt lat="43.20923" lon="5.62822">
        <ele>57.105217</ele>
        <time>2022-08-14T05:41:53Z</time>
      </trkpt>
      <trkpt lat="43.20935" lon="5.62823">
        <ele>57.362995</ele>
        <time>2022-08-14T05:41:55Z</time>
      </trkpt>
      <trkpt lat="43.20936" lon="5.62842">
        <ele>57.620934</ele>
        <time>2022-08-14T05:41:57Z</time>
      </trkpt>
      <trkpt lat="43.20942" lon="5.62854">
        <ele>58.15321</ele>
        <time>2022-08-14T05:41:59Z</time>
      </trkpt>
      <trkpt lat="43.2095" lon="5.62862">
        <ele>58.427258</ele>
        <time>2022-08-14T05:42:01Z</time>
      </trkpt>
      <trkpt lat="43.2096" lon="5.62865">
        <ele>58.706188</ele>
        <time>2022-08-14T05:42:03Z</time>
      </trkpt>
      <trkpt lat="43.20968" lon="5.62867">
        <ele>59.2771</ele>
        <time>2022-08-14T05:42:05Z</time>
      </trkpt>
      <trkpt lat="43.20977" lon="5.62872">
        <ele>59.860699</ele>
        <time>2022-08-14T05:42:07Z</time>
      </trkpt>
      <trkpt lat="43.20986" lon="5.62876">
        <ele>60.155571</ele>
        <time>2022-08-14T05:42:09Z</time>
      </trkpt>
      <trkpt lat="43.20995" lon="5.62878">
        <ele>60.451561</ele>
        <time>2022-08-14T05:42:11Z</time>
      </trkpt>
      <trkpt lat="43.21004" lon="5.62881">
        <ele>61.044655</ele>
        <time>2022-08-14T05:42:13Z</time>
      </trkpt>
      <trkpt lat="43.21013" lon="5.62882">
        <ele>61.636169</ele>
        <time>2022-08-14T05:42:15Z</time>
      </trkpt>
      <trkpt lat="43.21022" lon="5.62883">
        <ele>61.930511</ele>
        <time>2022-08-14T05:42:17Z</time>
      </trkpt>
      <trkpt lat="43.21031" lon="5.62884">
        <ele>62.223396</ele>
        <time>2022-08-14T05:42:19Z</time>
      </trkpt>
      <trkpt lat="43.2104" lon="5.62885">
        <ele>62.803333</ele>
        <time>2022-08-14T05:42:21Z</time>
      </trkpt>
      <trkpt lat="43.21049" lon="5.62886">
        <ele>63.373749</ele>
        <time>2022-08-14T05:42:23Z</time>
      </trkpt>
      <trkpt lat="43.21059" lon="5.62885">
        <ele>63.655037</ele>
        <time>2022-08-14T05:42:25Z</time>
      </trkpt>
      <trkpt lat="43.21068" lon="5.62885">
        <ele>63.933754</ele>
        <time>2022-08-14T05:42:27Z</time>
      </trkpt>
      <trkpt lat="43.21077" lon="5.62885">
        <ele>64.489929</ele>
        <time>2022-08-14T05:42:29Z</time>
      </trkpt>
      <trkpt lat="43.21086" lon="5.62885">
        <ele>64.763168</ele>
        <time>2022-08-14T05:42:31Z</time>
      </trkpt>
      <trkpt lat="43.21095" lon="5.62885">
        <ele>65.033249</ele>
        <time>2022-08-14T05:42:33Z</time>
      </trkpt>
      <trkpt lat="43.21104" lon="5.62886">
        <ele>65.563927</ele>
        <time>2022-08-14T05:42:35Z</time>
      </trkpt>
      <trkpt lat="43.21113" lon="5.62887">
        <ele>65.824379</ele>
        <time>2022-08-14T05:42:37Z</time>
      </trkpt>
      <trkpt lat="43.21123" lon="5.62889">
        <ele>66.335571</ele>
        <time>2022-08-14T05:42:39Z</time>
      </trkpt>
      <trkpt lat="43.21131" lon="5.62891">
        <ele>66.586151</ele>
        <time>2022-08-14T05:42:41Z</time>
      </trkpt>
      <trkpt lat="43.21139" lon="5.62894">
        <ele>67.083115</ele>
        <time>2022-08-14T05:42:43Z</time>
      </trkpt>
      <trkpt lat="43.21148" lon="5.62897">
        <ele>67.326797</ele>
        <time>2022-08-14T05:42:45Z</time>
      </trkpt>
      <trkpt lat="43.21157" lon="5.62902">
        <ele>67.81221</ele>
        <time>2022-08-14T05:42:47Z</time>
      </trkpt>
      <trkpt lat="43.21167" lon="5.62906">
        <ele>68.293106</ele>
        <time>2022-08-14T05:42:49Z</time>
      </trkpt>
      <trkpt lat="43.21178" lon="5.6291">
        <ele>68.534332</ele>
        <time>2022-08-14T05:42:51Z</time>
      </trkpt>
      <trkpt lat="43.21188" lon="5.62915">
        <ele>68.773239</ele>
        <time>2022-08-14T05:42:53Z</time>
      </trkpt>
      <trkpt lat="43.21199" lon="5.6292">
        <ele>69.236427</ele>
        <time>2022-08-14T05:42:55Z</time>
      </trkpt>
      <trkpt lat="43.21209" lon="5.62925">
        <ele>69.46434</ele>
        <time>2022-08-14T05:42:57Z</time>
      </trkpt>
      <trkpt lat="43.21218" lon="5.6293">
        <ele>69.689987</ele>
        <time>2022-08-14T05:42:59Z</time>
      </trkpt>
      <trkpt lat="43.21227" lon="5.62935">
        <ele>70.136391</ele>
        <time>2022-08-14T05:43:01Z</time>
      </trkpt>
      <trkpt lat="43.21242" lon="5.62942">
        <ele>70.357346</ele>
        <time>2022-08-14T05:43:04Z</time>
      </trkpt>
      <trkpt lat="43.21251" lon="5.62947">
        <ele>70.795364</ele>
        <time>2022-08-14T05:43:06Z</time>
      </trkpt>
      <trkpt lat="43.21261" lon="5.62952">
        <ele>71.012901</ele>
        <time>2022-08-14T05:43:08Z</time>
      </trkpt>
      <trkpt lat="43.2127" lon="5.62957">
        <ele>71.229813</ele>
        <time>2022-08-14T05:43:10Z</time>
      </trkpt>
      <trkpt lat="43.2128" lon="5.62962">
        <ele>71.446533</ele>
        <time>2022-08-14T05:43:12Z</time>
      </trkpt>
      <trkpt lat="43.2129" lon="5.62968">
        <ele>71.663666</ele>
        <time>2022-08-14T05:43:14Z</time>
      </trkpt>
      <trkpt lat="43.21301" lon="5.62974">
        <ele>71.88166</ele>
        <time>2022-08-14T05:43:16Z</time>
      </trkpt>
      <trkpt lat="43.2131" lon="5.62982">
        <ele>72.101021</ele>
        <time>2022-08-14T05:43:18Z</time>
      </trkpt>
      <trkpt lat="43.21317" lon="5.62992">
        <ele>72.32193</ele>
        <time>2022-08-14T05:43:20Z</time>
      </trkpt>
      <trkpt lat="43.21323" lon="5.63003">
        <ele>72.76564</ele>
        <time>2022-08-14T05:43:22Z</time>
      </trkpt>
      <trkpt lat="43.21332" lon="5.63014">
        <ele>72.988419</ele>
        <time>2022-08-14T05:43:24Z</time>
      </trkpt>
      <trkpt lat="43.21339" lon="5.63025">
        <ele>73.212616</ele>
        <time>2022-08-14T05:43:26Z</time>
      </trkpt>
      <trkpt lat="43.21345" lon="5.63036">
        <ele>73.437912</ele>
        <time>2022-08-14T05:43:28Z</time>
      </trkpt>
      <trkpt lat="43.21351" lon="5.63046">
        <ele>73.664276</ele>
        <time>2022-08-14T05:43:30Z</time>
      </trkpt>
      <trkpt lat="43.21355" lon="5.63055">
        <ele>73.891678</ele>
        <time>2022-08-14T05:43:32Z</time>
      </trkpt>
      <trkpt lat="43.21359" lon="5.63064">
        <ele>74.119949</ele>
        <time>2022-08-14T05:43:34Z</time>
      </trkpt>
      <trkpt lat="43.21365" lon="5.63072">
        <ele>74.574287</ele>
        <time>2022-08-14T05:43:36Z</time>
      </trkpt>
      <trkpt lat="43.21373" lon="5.63083">
        <ele>75.021988</ele>
        <time>2022-08-14T05:43:39Z</time>
      </trkpt>
      <trkpt lat="43.21379" lon="5.63091">
        <ele>75.464722</ele>
        <time>2022-08-14T05:43:41Z</time>
      </trkpt>
      <trkpt lat="43.21392" lon="5.63106">
        <ele>75.68145</ele>
        <time>2022-08-14T05:43:44Z</time>
      </trkpt>
      <trkpt lat="43.214" lon="5.63115">
        <ele>75.897232</ele>
        <time>2022-08-14T05:43:46Z</time>
      </trkpt>
      <trkpt lat="43.21407" lon="5.63122">
        <ele>76.112404</ele>
        <time>2022-08-14T05:43:48Z</time>
      </trkpt>
      <trkpt lat="43.21414" lon="5.63132">
        <ele>76.330574</ele>
        <time>2022-08-14T05:43:50Z</time>
      </trkpt>
      <trkpt lat="43.2142" lon="5.6314">
        <ele>76.767548</ele>
        <time>2022-08-14T05:43:52Z</time>
      </trkpt>
      <trkpt lat="43.21427" lon="5.63149">
        <ele>76.987518</ele>
        <time>2022-08-14T05:43:54Z</time>
      </trkpt>
      <trkpt lat="43.21434" lon="5.63158">
        <ele>77.209198</ele>
        <time>2022-08-14T05:43:56Z</time>
      </trkpt>
      <trkpt lat="43.21441" lon="5.63168">
        <ele>77.651382</ele>
        <time>2022-08-14T05:43:58Z</time>
      </trkpt>
      <trkpt lat="43.21448" lon="5.63178">
        <ele>77.872093</ele>
        <time>2022-08-14T05:44:00Z</time>
      </trkpt>
      <trkpt lat="43.21455" lon="5.63186">
        <ele>78.095016</ele>
        <time>2022-08-14T05:44:02Z</time>
      </trkpt>
      <trkpt lat="43.21461" lon="5.63195">
        <ele>78.319916</ele>
        <time>2022-08-14T05:44:04Z</time>
      </trkpt>
      <trkpt lat="43.21467" lon="5.63204">
        <ele>78.546593</ele>
        <time>2022-08-14T05:44:06Z</time>
      </trkpt>
      <trkpt lat="43.21476" lon="5.63217">
        <ele>79.005135</ele>
        <time>2022-08-14T05:44:09Z</time>
      </trkpt>
      <trkpt lat="43.21482" lon="5.63225">
        <ele>79.467331</ele>
        <time>2022-08-14T05:44:11Z</time>
      </trkpt>
      <trkpt lat="43.21489" lon="5.63232">
        <ele>79.703201</ele>
        <time>2022-08-14T05:44:13Z</time>
      </trkpt>
      <trkpt lat="43.21498" lon="5.6324">
        <ele>79.941261</ele>
        <time>2022-08-14T05:44:16Z</time>
      </trkpt>
      <trkpt lat="43.21505" lon="5.63245">
        <ele>80.181778</ele>
        <time>2022-08-14T05:44:18Z</time>
      </trkpt>
      <trkpt lat="43.21517" lon="5.63252">
        <ele>80.425056</ele>
        <time>2022-08-14T05:44:21Z</time>
      </trkpt>
      <trkpt lat="43.21525" lon="5.63257">
        <ele>80.920433</ele>
        <time>2022-08-14T05:44:23Z</time>
      </trkpt>
      <trkpt lat="43.21532" lon="5.63262">
        <ele>81.173325</ele>
        <time>2022-08-14T05:44:25Z</time>
      </trkpt>
      <trkpt lat="43.2154" lon="5.63266">
        <ele>81.430336</ele>
        <time>2022-08-14T05:44:27Z</time>
      </trkpt>
      <trkpt lat="43.21547" lon="5.63271">
        <ele>81.961731</ele>
        <time>2022-08-14T05:44:29Z</time>
      </trkpt>
      <trkpt lat="43.21554" lon="5.63276">
        <ele>82.23642</ele>
        <time>2022-08-14T05:44:31Z</time>
      </trkpt>
      <trkpt lat="43.21566" lon="5.63285">
        <ele>82.795418</ele>
        <time>2022-08-14T05:44:34Z</time>
      </trkpt>
      <trkpt lat="43.21573" lon="5.63291">
        <ele>83.369476</ele>
        <time>2022-08-14T05:44:36Z</time>
      </trkpt>
      <trkpt lat="43.21579" lon="5.63299">
        <ele>83.663635</ele>
        <time>2022-08-14T05:44:38Z</time>
      </trkpt>
      <trkpt lat="43.21585" lon="5.63307">
        <ele>84.262703</ele>
        <time>2022-08-14T05:44:40Z</time>
      </trkpt>
      <trkpt lat="43.2159" lon="5.63316">
        <ele>84.567581</ele>
        <time>2022-08-14T05:44:42Z</time>
      </trkpt>
      <trkpt lat="43.21595" lon="5.63325">
        <ele>85.197685</ele>
        <time>2022-08-14T05:44:44Z</time>
      </trkpt>
      <trkpt lat="43.216" lon="5.63336">
        <ele>85.519066</ele>
        <time>2022-08-14T05:44:46Z</time>
      </trkpt>
      <trkpt lat="43.21606" lon="5.63343">
        <ele>86.171799</ele>
        <time>2022-08-14T05:44:48Z</time>
      </trkpt>
      <trkpt lat="43.21613" lon="5.6335">
        <ele>86.500099</ele>
        <time>2022-08-14T05:44:50Z</time>
      </trkpt>
      <trkpt lat="43.21619" lon="5.63359">
        <ele>86.8311</ele>
        <time>2022-08-14T05:44:52Z</time>
      </trkpt>
      <trkpt lat="43.21627" lon="5.63373">
        <ele>87.496605</ele>
        <time>2022-08-14T05:44:55Z</time>
      </trkpt>
      <trkpt lat="43.21632" lon="5.63382">
        <ele>87.831665</ele>
        <time>2022-08-14T05:44:57Z</time>
      </trkpt>
      <trkpt lat="43.21638" lon="5.6339">
        <ele>88.511368</ele>
        <time>2022-08-14T05:44:59Z</time>
      </trkpt>
      <trkpt lat="43.21644" lon="5.63399">
        <ele>88.856659</ele>
        <time>2022-08-14T05:45:01Z</time>
      </trkpt>
      <trkpt lat="43.21649" lon="5.63408">
        <ele>89.210129</ele>
        <time>2022-08-14T05:45:03Z</time>
      </trkpt>
      <trkpt lat="43.21655" lon="5.63418">
        <ele>89.562378</ele>
        <time>2022-08-14T05:45:05Z</time>
      </trkpt>
      <trkpt lat="43.21661" lon="5.63428">
        <ele>90.283409</ele>
        <time>2022-08-14T05:45:07Z</time>
      </trkpt>
      <trkpt lat="43.21668" lon="5.63442">
        <ele>90.652504</ele>
        <time>2022-08-14T05:45:10Z</time>
      </trkpt>
      <trkpt lat="43.21673" lon="5.63452">
        <ele>91.408859</ele>
        <time>2022-08-14T05:45:12Z</time>
      </trkpt>
      <trkpt lat="43.21677" lon="5.63462">
        <ele>91.799362</ele>
        <time>2022-08-14T05:45:14Z</time>
      </trkpt>
      <trkpt lat="43.21681" lon="5.63472">
        <ele>92.581627</ele>
        <time>2022-08-14T05:45:16Z</time>
      </trkpt>
      <trkpt lat="43.21686" lon="5.63481">
        <ele>92.976097</ele>
        <time>2022-08-14T05:45:18Z</time>
      </trkpt>
      <trkpt lat="43.21691" lon="5.6349">
        <ele>93.774071</ele>
        <time>2022-08-14T05:45:20Z</time>
      </trkpt>
      <trkpt lat="43.21698" lon="5.63496">
        <ele>94.17601</ele>
        <time>2022-08-14T05:45:22Z</time>
      </trkpt>
      <trkpt lat="43.21707" lon="5.635">
        <ele>94.573547</ele>
        <time>2022-08-14T05:45:24Z</time>
      </trkpt>
      <trkpt lat="43.21715" lon="5.63501">
        <ele>95.370621</ele>
        <time>2022-08-14T05:45:26Z</time>
      </trkpt>
      <trkpt lat="43.21724" lon="5.635">
        <ele>96.166771</ele>
        <time>2022-08-14T05:45:28Z</time>
      </trkpt>
      <trkpt lat="43.21733" lon="5.63499">
        <ele>96.563637</ele>
        <time>2022-08-14T05:45:30Z</time>
      </trkpt>
      <trkpt lat="43.2174" lon="5.63499">
        <ele>96.964737</ele>
        <time>2022-08-14T05:45:32Z</time>
      </trkpt>
      <trkpt lat="43.21749" lon="5.63499">
        <ele>97.760132</ele>
        <time>2022-08-14T05:45:34Z</time>
      </trkpt>
      <trkpt lat="43.21758" lon="5.63499">
        <ele>98.153648</ele>
        <time>2022-08-14T05:45:36Z</time>
      </trkpt>
      <trkpt lat="43.21764" lon="5.635">
        <ele>98.933762</ele>
        <time>2022-08-14T05:45:38Z</time>
      </trkpt>
      <trkpt lat="43.21772" lon="5.63503">
        <ele>99.316689</ele>
        <time>2022-08-14T05:45:40Z</time>
      </trkpt>
      <trkpt lat="43.2178" lon="5.63508">
        <ele>99.697311</ele>
        <time>2022-08-14T05:45:42Z</time>
      </trkpt>
      <trkpt lat="43.21785" lon="5.63514">
        <ele>100.07653</ele>
        <time>2022-08-14T05:45:44Z</time>
      </trkpt>
      <trkpt lat="43.21791" lon="5.63521">
        <ele>100.455345</ele>
        <time>2022-08-14T05:45:46Z</time>
      </trkpt>
      <trkpt lat="43.21797" lon="5.63528">
        <ele>101.219337</ele>
        <time>2022-08-14T05:45:48Z</time>
      </trkpt>
      <trkpt lat="43.21803" lon="5.63534">
        <ele>101.605003</ele>
        <time>2022-08-14T05:45:50Z</time>
      </trkpt>
      <trkpt lat="43.21811" lon="5.63544">
        <ele>102.378899</ele>
        <time>2022-08-14T05:45:53Z</time>
      </trkpt>
      <trkpt lat="43.21815" lon="5.63553">
        <ele>102.771461</ele>
        <time>2022-08-14T05:45:55Z</time>
      </trkpt>
      <trkpt lat="43.21819" lon="5.63564">
        <ele>103.555458</ele>
        <time>2022-08-14T05:45:57Z</time>
      </trkpt>
      <trkpt lat="43.21822" lon="5.63574">
        <ele>103.951744</ele>
        <time>2022-08-14T05:45:59Z</time>
      </trkpt>
      <trkpt lat="43.21823" lon="5.63586">
        <ele>104.346962</ele>
        <time>2022-08-14T05:46:01Z</time>
      </trkpt>
      <trkpt lat="43.21825" lon="5.63596">
        <ele>104.741333</ele>
        <time>2022-08-14T05:46:03Z</time>
      </trkpt>
      <trkpt lat="43.21825" lon="5.63607">
        <ele>105.538773</ele>
        <time>2022-08-14T05:46:05Z</time>
      </trkpt>
      <trkpt lat="43.21823" lon="5.63623">
        <ele>106.325157</ele>
        <time>2022-08-14T05:46:08Z</time>
      </trkpt>
      <trkpt lat="43.21824" lon="5.63635">
        <ele>106.713852</ele>
        <time>2022-08-14T05:46:10Z</time>
      </trkpt>
      <trkpt lat="43.21825" lon="5.63647">
        <ele>107.496414</ele>
        <time>2022-08-14T05:46:12Z</time>
      </trkpt>
      <trkpt lat="43.21827" lon="5.63658">
        <ele>107.89122</ele>
        <time>2022-08-14T05:46:14Z</time>
      </trkpt>
      <trkpt lat="43.21828" lon="5.6367">
        <ele>108.286598</ele>
        <time>2022-08-14T05:46:16Z</time>
      </trkpt>
      <trkpt lat="43.21829" lon="5.63682">
        <ele>109.083755</ele>
        <time>2022-08-14T05:46:18Z</time>
      </trkpt>
      <trkpt lat="43.21828" lon="5.63693">
        <ele>109.486855</ele>
        <time>2022-08-14T05:46:20Z</time>
      </trkpt>
      <trkpt lat="43.21827" lon="5.63704">
        <ele>110.302017</ele>
        <time>2022-08-14T05:46:22Z</time>
      </trkpt>
      <trkpt lat="43.21827" lon="5.63714">
        <ele>110.714684</ele>
        <time>2022-08-14T05:46:24Z</time>
      </trkpt>
      <trkpt lat="43.21826" lon="5.63724">
        <ele>111.553162</ele>
        <time>2022-08-14T05:46:26Z</time>
      </trkpt>
      <trkpt lat="43.21822" lon="5.6374">
        <ele>111.978966</ele>
        <time>2022-08-14T05:46:29Z</time>
      </trkpt>
      <trkpt lat="43.21819" lon="5.6375">
        <ele>112.844688</ele>
        <time>2022-08-14T05:46:31Z</time>
      </trkpt>
      <trkpt lat="43.21816" lon="5.63761">
        <ele>113.286049</ele>
        <time>2022-08-14T05:46:33Z</time>
      </trkpt>
      <trkpt lat="43.21812" lon="5.63776">
        <ele>113.734375</ele>
        <time>2022-08-14T05:46:36Z</time>
      </trkpt>
      <trkpt lat="43.21809" lon="5.63786">
        <ele>114.191177</ele>
        <time>2022-08-14T05:46:38Z</time>
      </trkpt>
      <trkpt lat="43.21808" lon="5.63795">
        <ele>114.657753</ele>
        <time>2022-08-14T05:46:40Z</time>
      </trkpt>
      <trkpt lat="43.21806" lon="5.63806">
        <ele>115.138954</ele>
        <time>2022-08-14T05:46:42Z</time>
      </trkpt>
      <trkpt lat="43.21804" lon="5.63817">
        <ele>116.145706</ele>
        <time>2022-08-14T05:46:44Z</time>
      </trkpt>
      <trkpt lat="43.21805" lon="5.63828">
        <ele>116.668716</ele>
        <time>2022-08-14T05:46:46Z</time>
      </trkpt>
      <trkpt lat="43.21807" lon="5.63837">
        <ele>117.204727</ele>
        <time>2022-08-14T05:46:48Z</time>
      </trkpt>
      <trkpt lat="43.21811" lon="5.63846">
        <ele>118.315163</ele>
        <time>2022-08-14T05:46:50Z</time>
      </trkpt>
      <trkpt lat="43.21815" lon="5.63855">
        <ele>118.889099</ele>
        <time>2022-08-14T05:46:52Z</time>
      </trkpt>
      <trkpt lat="43.2182" lon="5.63863">
        <ele>120.072739</ele>
        <time>2022-08-14T05:46:54Z</time>
      </trkpt>
      <trkpt lat="43.21825" lon="5.63871">
        <ele>120.670982</ele>
        <time>2022-08-14T05:46:56Z</time>
      </trkpt>
      <trkpt lat="43.21832" lon="5.63879">
        <ele>121.280655</ele>
        <time>2022-08-14T05:46:58Z</time>
      </trkpt>
      <trkpt lat="43.21837" lon="5.63886">
        <ele>121.901016</ele>
        <time>2022-08-14T05:47:00Z</time>
      </trkpt>
      <trkpt lat="43.21841" lon="5.63896">
        <ele>122.540894</ele>
        <time>2022-08-14T05:47:02Z</time>
      </trkpt>
      <trkpt lat="43.21845" lon="5.63905">
        <ele>123.18943</ele>
        <time>2022-08-14T05:47:04Z</time>
      </trkpt>
      <trkpt lat="43.21848" lon="5.63915">
        <ele>123.846558</ele>
        <time>2022-08-14T05:47:06Z</time>
      </trkpt>
      <trkpt lat="43.2185" lon="5.63924">
        <ele>125.18618</ele>
        <time>2022-08-14T05:47:08Z</time>
      </trkpt>
      <trkpt lat="43.21855" lon="5.63939">
        <ele>126.554466</ele>
        <time>2022-08-14T05:47:11Z</time>
      </trkpt>
      <trkpt lat="43.21859" lon="5.63948">
        <ele>127.248962</ele>
        <time>2022-08-14T05:47:13Z</time>
      </trkpt>
      <trkpt lat="43.21863" lon="5.63957">
        <ele>128.655823</ele>
        <time>2022-08-14T05:47:15Z</time>
      </trkpt>
      <trkpt lat="43.21867" lon="5.63966">
        <ele>129.367371</ele>
        <time>2022-08-14T05:47:17Z</time>
      </trkpt>
      <trkpt lat="43.21872" lon="5.63974">
        <ele>130.092102</ele>
        <time>2022-08-14T05:47:19Z</time>
      </trkpt>
      <trkpt lat="43.21879" lon="5.63981">
        <ele>131.558731</ele>
        <time>2022-08-14T05:47:21Z</time>
      </trkpt>
      <trkpt lat="43.21885" lon="5.63988">
        <ele>132.298798</ele>
        <time>2022-08-14T05:47:23Z</time>
      </trkpt>
      <trkpt lat="43.21895" lon="5.63996">
        <ele>133.794769</ele>
        <time>2022-08-14T05:47:26Z</time>
      </trkpt>
      <trkpt lat="43.21902" lon="5.64">
        <ele>135.285095</ele>
        <time>2022-08-14T05:47:28Z</time>
      </trkpt>
      <trkpt lat="43.21908" lon="5.64004">
        <ele>136.021866</ele>
        <time>2022-08-14T05:47:30Z</time>
      </trkpt>
      <trkpt lat="43.21914" lon="5.64007">
        <ele>137.494415</ele>
        <time>2022-08-14T05:47:32Z</time>
      </trkpt>
      <trkpt lat="43.21921" lon="5.6401">
        <ele>138.226654</ele>
        <time>2022-08-14T05:47:34Z</time>
      </trkpt>
      <trkpt lat="43.21929" lon="5.64017">
        <ele>138.95224</ele>
        <time>2022-08-14T05:47:37Z</time>
      </trkpt>
      <trkpt lat="43.21935" lon="5.64023">
        <ele>139.669952</ele>
        <time>2022-08-14T05:47:39Z</time>
      </trkpt>
      <trkpt lat="43.21939" lon="5.64033">
        <ele>140.378204</ele>
        <time>2022-08-14T05:47:41Z</time>
      </trkpt>
      <trkpt lat="43.21944" lon="5.64048">
        <ele>141.075684</ele>
        <time>2022-08-14T05:47:44Z</time>
      </trkpt>
      <trkpt lat="43.21948" lon="5.64058">
        <ele>142.435883</ele>
        <time>2022-08-14T05:47:46Z</time>
      </trkpt>
      <trkpt lat="43.21951" lon="5.64068">
        <ele>143.098602</ele>
        <time>2022-08-14T05:47:48Z</time>
      </trkpt>
      <trkpt lat="43.21955" lon="5.64078">
        <ele>144.389832</ele>
        <time>2022-08-14T05:47:50Z</time>
      </trkpt>
      <trkpt lat="43.21959" lon="5.64088">
        <ele>145.013443</ele>
        <time>2022-08-14T05:47:52Z</time>
      </trkpt>
      <trkpt lat="43.21963" lon="5.64097">
        <ele>146.229874</ele>
        <time>2022-08-14T05:47:54Z</time>
      </trkpt>
      <trkpt lat="43.21967" lon="5.64106">
        <ele>146.823959</ele>
        <time>2022-08-14T05:47:56Z</time>
      </trkpt>
      <trkpt lat="43.21972" lon="5.64116">
        <ele>147.997528</ele>
        <time>2022-08-14T05:47:58Z</time>
      </trkpt>
      <trkpt lat="43.21976" lon="5.64125">
        <ele>148.570923</ele>
        <time>2022-08-14T05:48:00Z</time>
      </trkpt>
      <trkpt lat="43.2198" lon="5.64134">
        <ele>149.688461</ele>
        <time>2022-08-14T05:48:02Z</time>
      </trkpt>
      <trkpt lat="43.21983" lon="5.64143">
        <ele>150.23381</ele>
        <time>2022-08-14T05:48:04Z</time>
      </trkpt>
      <trkpt lat="43.21991" lon="5.64156">
        <ele>151.305939</ele>
        <time>2022-08-14T05:48:07Z</time>
      </trkpt>
      <trkpt lat="43.21996" lon="5.64165">
        <ele>152.351257</ele>
        <time>2022-08-14T05:48:09Z</time>
      </trkpt>
      <trkpt lat="43.22002" lon="5.64172">
        <ele>152.872543</ele>
        <time>2022-08-14T05:48:11Z</time>
      </trkpt>
      <trkpt lat="43.22009" lon="5.64181">
        <ele>153.892487</ele>
        <time>2022-08-14T05:48:13Z</time>
      </trkpt>
      <trkpt lat="43.22014" lon="5.64188">
        <ele>154.38974</ele>
        <time>2022-08-14T05:48:15Z</time>
      </trkpt>
      <trkpt lat="43.2202" lon="5.64196">
        <ele>155.347092</ele>
        <time>2022-08-14T05:48:17Z</time>
      </trkpt>
      <trkpt lat="43.22026" lon="5.64204">
        <ele>155.806305</ele>
        <time>2022-08-14T05:48:19Z</time>
      </trkpt>
      <trkpt lat="43.22031" lon="5.64212">
        <ele>156.693192</ele>
        <time>2022-08-14T05:48:21Z</time>
      </trkpt>
      <trkpt lat="43.22037" lon="5.6422">
        <ele>156.693192</ele>
        <time>2022-08-14T05:48:23Z</time>
      </trkpt>
      <trkpt lat="43.22043" lon="5.64227">
        <ele>157.125656</ele>
        <time>2022-08-14T05:48:25Z</time>
      </trkpt>
      <trkpt lat="43.22047" lon="5.64236">
        <ele>157.972061</ele>
        <time>2022-08-14T05:48:27Z</time>
      </trkpt>
      <trkpt lat="43.22052" lon="5.64245">
        <ele>158.806427</ele>
        <time>2022-08-14T05:48:29Z</time>
      </trkpt>
      <trkpt lat="43.22056" lon="5.6426">
        <ele>159.220901</ele>
        <time>2022-08-14T05:48:32Z</time>
      </trkpt>
      <trkpt lat="43.22059" lon="5.64271">
        <ele>160.038574</ele>
        <time>2022-08-14T05:48:34Z</time>
      </trkpt>
      <trkpt lat="43.2206" lon="5.64281">
        <ele>160.451996</ele>
        <time>2022-08-14T05:48:36Z</time>
      </trkpt>
      <trkpt lat="43.22061" lon="5.64291">
        <ele>161.289505</ele>
        <time>2022-08-14T05:48:38Z</time>
      </trkpt>
      <trkpt lat="43.22063" lon="5.64302">
        <ele>161.716278</ele>
        <time>2022-08-14T05:48:40Z</time>
      </trkpt>
      <trkpt lat="43.22064" lon="5.64313">
        <ele>162.151672</ele>
        <time>2022-08-14T05:48:42Z</time>
      </trkpt>
      <trkpt lat="43.22065" lon="5.64324">
        <ele>163.046082</ele>
        <time>2022-08-14T05:48:44Z</time>
      </trkpt>
      <trkpt lat="43.22067" lon="5.64335">
        <ele>163.495865</ele>
        <time>2022-08-14T05:48:46Z</time>
      </trkpt>
      <trkpt lat="43.22068" lon="5.64346">
        <ele>163.961838</ele>
        <time>2022-08-14T05:48:48Z</time>
      </trkpt>
      <trkpt lat="43.2207" lon="5.64357">
        <ele>164.924515</ele>
        <time>2022-08-14T05:48:50Z</time>
      </trkpt>
      <trkpt lat="43.22072" lon="5.64374">
        <ele>165.414078</ele>
        <time>2022-08-14T05:48:53Z</time>
      </trkpt>
      <trkpt lat="43.22074" lon="5.64386">
        <ele>165.909302</ele>
        <time>2022-08-14T05:48:55Z</time>
      </trkpt>
      <trkpt lat="43.22077" lon="5.64397">
        <ele>166.916107</ele>
        <time>2022-08-14T05:48:57Z</time>
      </trkpt>
      <trkpt lat="43.22083" lon="5.64413">
        <ele>167.947296</ele>
        <time>2022-08-14T05:49:00Z</time>
      </trkpt>
      <trkpt lat="43.22088" lon="5.64422">
        <ele>168.47467</ele>
        <time>2022-08-14T05:49:02Z</time>
      </trkpt>
      <trkpt lat="43.22092" lon="5.64432">
        <ele>169.539886</ele>
        <time>2022-08-14T05:49:04Z</time>
      </trkpt>
      <trkpt lat="43.22098" lon="5.6444">
        <ele>170.59108</ele>
        <time>2022-08-14T05:49:06Z</time>
      </trkpt>
      <trkpt lat="43.22104" lon="5.64448">
        <ele>171.115204</ele>
        <time>2022-08-14T05:49:08Z</time>
      </trkpt>
      <trkpt lat="43.22109" lon="5.64457">
        <ele>172.164932</ele>
        <time>2022-08-14T05:49:10Z</time>
      </trkpt>
      <trkpt lat="43.22115" lon="5.64467">
        <ele>172.164932</ele>
        <time>2022-08-14T05:49:12Z</time>
      </trkpt>
      <trkpt lat="43.2212" lon="5.64476">
        <ele>172.68988</ele>
        <time>2022-08-14T05:49:14Z</time>
      </trkpt>
      <trkpt lat="43.22125" lon="5.64485">
        <ele>173.215469</ele>
        <time>2022-08-14T05:49:16Z</time>
      </trkpt>
      <trkpt lat="43.2213" lon="5.64494">
        <ele>174.275528</ele>
        <time>2022-08-14T05:49:18Z</time>
      </trkpt>
      <trkpt lat="43.22136" lon="5.64503">
        <ele>174.805847</ele>
        <time>2022-08-14T05:49:20Z</time>
      </trkpt>
      <trkpt lat="43.22141" lon="5.64512">
        <ele>175.339737</ele>
        <time>2022-08-14T05:49:22Z</time>
      </trkpt>
      <trkpt lat="43.22145" lon="5.64521">
        <ele>176.410416</ele>
        <time>2022-08-14T05:49:24Z</time>
      </trkpt>
      <trkpt lat="43.22149" lon="5.64531">
        <ele>176.951324</ele>
        <time>2022-08-14T05:49:26Z</time>
      </trkpt>
      <trkpt lat="43.22154" lon="5.64541">
        <ele>177.497864</ele>
        <time>2022-08-14T05:49:28Z</time>
      </trkpt>
      <trkpt lat="43.22158" lon="5.64551">
        <ele>178.050644</ele>
        <time>2022-08-14T05:49:30Z</time>
      </trkpt>
      <trkpt lat="43.22164" lon="5.64566">
        <ele>179.175964</ele>
        <time>2022-08-14T05:49:33Z</time>
      </trkpt>
      <trkpt lat="43.22168" lon="5.64576">
        <ele>179.739883</ele>
        <time>2022-08-14T05:49:35Z</time>
      </trkpt>
      <trkpt lat="43.22171" lon="5.64586">
        <ele>180.888214</ele>
        <time>2022-08-14T05:49:37Z</time>
      </trkpt>
      <trkpt lat="43.22175" lon="5.64596">
        <ele>181.472153</ele>
        <time>2022-08-14T05:49:39Z</time>
      </trkpt>
      <trkpt lat="43.22179" lon="5.64606">
        <ele>182.068451</ele>
        <time>2022-08-14T05:49:41Z</time>
      </trkpt>
      <trkpt lat="43.22183" lon="5.64617">
        <ele>183.276642</ele>
        <time>2022-08-14T05:49:43Z</time>
      </trkpt>
      <trkpt lat="43.22186" lon="5.64627">
        <ele>183.887222</ele>
        <time>2022-08-14T05:49:45Z</time>
      </trkpt>
      <trkpt lat="43.2219" lon="5.64644">
        <ele>185.116272</ele>
        <time>2022-08-14T05:49:48Z</time>
      </trkpt>
      <trkpt lat="43.22192" lon="5.64655">
        <ele>185.725449</ele>
        <time>2022-08-14T05:49:50Z</time>
      </trkpt>
      <trkpt lat="43.22193" lon="5.64666">
        <ele>186.953186</ele>
        <time>2022-08-14T05:49:52Z</time>
      </trkpt>
      <trkpt lat="43.22197" lon="5.64682">
        <ele>187.572601</ele>
        <time>2022-08-14T05:49:55Z</time>
      </trkpt>
      <trkpt lat="43.22198" lon="5.64693">
        <ele>188.825745</ele>
        <time>2022-08-14T05:49:57Z</time>
      </trkpt>
      <trkpt lat="43.222" lon="5.64705">
        <ele>189.460556</ele>
        <time>2022-08-14T05:49:59Z</time>
      </trkpt>
      <trkpt lat="43.22203" lon="5.64721">
        <ele>190.790833</ele>
        <time>2022-08-14T05:50:02Z</time>
      </trkpt>
      <trkpt lat="43.22206" lon="5.64732">
        <ele>191.463043</ele>
        <time>2022-08-14T05:50:04Z</time>
      </trkpt>
      <trkpt lat="43.22209" lon="5.64742">
        <ele>192.819214</ele>
        <time>2022-08-14T05:50:06Z</time>
      </trkpt>
      <trkpt lat="43.22212" lon="5.64752">
        <ele>193.520721</ele>
        <time>2022-08-14T05:50:08Z</time>
      </trkpt>
      <trkpt lat="43.22215" lon="5.64762">
        <ele>194.241791</ele>
        <time>2022-08-14T05:50:10Z</time>
      </trkpt>
      <trkpt lat="43.2222" lon="5.64772">
        <ele>194.965576</ele>
        <time>2022-08-14T05:50:12Z</time>
      </trkpt>
      <trkpt lat="43.22224" lon="5.64782">
        <ele>196.421661</ele>
        <time>2022-08-14T05:50:14Z</time>
      </trkpt>
      <trkpt lat="43.22228" lon="5.64791">
        <ele>197.147659</ele>
        <time>2022-08-14T05:50:16Z</time>
      </trkpt>
      <trkpt lat="43.22231" lon="5.64801">
        <ele>198.590958</ele>
        <time>2022-08-14T05:50:18Z</time>
      </trkpt>
      <trkpt lat="43.22235" lon="5.6481">
        <ele>199.313019</ele>
        <time>2022-08-14T05:50:20Z</time>
      </trkpt>
      <trkpt lat="43.22238" lon="5.6482">
        <ele>200.763672</ele>
        <time>2022-08-14T05:50:22Z</time>
      </trkpt>
      <trkpt lat="43.22245" lon="5.64833">
        <ele>201.484436</ele>
        <time>2022-08-14T05:50:25Z</time>
      </trkpt>
      <trkpt lat="43.22249" lon="5.64841">
        <ele>202.910995</ele>
        <time>2022-08-14T05:50:27Z</time>
      </trkpt>
      <trkpt lat="43.22254" lon="5.6485">
        <ele>203.613373</ele>
        <time>2022-08-14T05:50:29Z</time>
      </trkpt>
      <trkpt lat="43.22262" lon="5.64863">
        <ele>204.985687</ele>
        <time>2022-08-14T05:50:32Z</time>
      </trkpt>
      <trkpt lat="43.22268" lon="5.64871">
        <ele>206.31015</ele>
        <time>2022-08-14T05:50:34Z</time>
      </trkpt>
      <trkpt lat="43.22274" lon="5.6488">
        <ele>206.951859</ele>
        <time>2022-08-14T05:50:36Z</time>
      </trkpt>
      <trkpt lat="43.22286" lon="5.6489">
        <ele>208.174881</ele>
        <time>2022-08-14T05:50:39Z</time>
      </trkpt>
      <trkpt lat="43.22294" lon="5.64896">
        <ele>209.310303</ele>
        <time>2022-08-14T05:50:41Z</time>
      </trkpt>
      <trkpt lat="43.22303" lon="5.64902">
        <ele>210.33606</ele>
        <time>2022-08-14T05:50:43Z</time>
      </trkpt>
      <trkpt lat="43.22312" lon="5.64907">
        <ele>210.801926</ele>
        <time>2022-08-14T05:50:45Z</time>
      </trkpt>
      <trkpt lat="43.22326" lon="5.64913">
        <ele>211.658127</ele>
        <time>2022-08-14T05:50:48Z</time>
      </trkpt>
      <trkpt lat="43.22335" lon="5.64917">
        <ele>212.036652</ele>
        <time>2022-08-14T05:50:50Z</time>
      </trkpt>
      <trkpt lat="43.22344" lon="5.64921">
        <ele>212.379684</ele>
        <time>2022-08-14T05:50:52Z</time>
      </trkpt>
      <trkpt lat="43.22353" lon="5.64925">
        <ele>212.968109</ele>
        <time>2022-08-14T05:50:54Z</time>
      </trkpt>
      <trkpt lat="43.22363" lon="5.64929">
        <ele>213.214645</ele>
        <time>2022-08-14T05:50:56Z</time>
      </trkpt>
      <trkpt lat="43.22372" lon="5.64933">
        <ele>213.42981</ele>
        <time>2022-08-14T05:50:58Z</time>
      </trkpt>
      <trkpt lat="43.22387" lon="5.6494">
        <ele>213.738846</ele>
        <time>2022-08-14T05:51:01Z</time>
      </trkpt>
      <trkpt lat="43.22401" lon="5.64947">
        <ele>213.941803</ele>
        <time>2022-08-14T05:51:04Z</time>
      </trkpt>
      <trkpt lat="43.22411" lon="5.64952">
        <ele>214.015182</ele>
        <time>2022-08-14T05:51:06Z</time>
      </trkpt>
      <trkpt lat="43.22421" lon="5.64957">
        <ele>214.091553</ele>
        <time>2022-08-14T05:51:08Z</time>
      </trkpt>
      <trkpt lat="43.22431" lon="5.64962">
        <ele>214.105865</ele>
        <time>2022-08-14T05:51:10Z</time>
      </trkpt>
      <trkpt lat="43.2244" lon="5.64966">
        <ele>214.122849</ele>
        <time>2022-08-14T05:51:12Z</time>
      </trkpt>
      <trkpt lat="43.2245" lon="5.64971">
        <ele>214.12468</ele>
        <time>2022-08-14T05:51:14Z</time>
      </trkpt>
      <trkpt lat="43.22461" lon="5.64976">
        <ele>214.135422</ele>
        <time>2022-08-14T05:51:16Z</time>
      </trkpt>
      <trkpt lat="43.22471" lon="5.64981">
        <ele>214.171265</ele>
        <time>2022-08-14T05:51:18Z</time>
      </trkpt>
      <trkpt lat="43.22487" lon="5.64986">
        <ele>214.234177</ele>
        <time>2022-08-14T05:51:21Z</time>
      </trkpt>
      <trkpt lat="43.22497" lon="5.64984">
        <ele>214.345825</ele>
        <time>2022-08-14T05:51:23Z</time>
      </trkpt>
      <trkpt lat="43.22505" lon="5.64976">
        <ele>214.413544</ele>
        <time>2022-08-14T05:51:25Z</time>
      </trkpt>
      <trkpt lat="43.22511" lon="5.64963">
        <ele>214.482269</ele>
        <time>2022-08-14T05:51:27Z</time>
      </trkpt>
      <trkpt lat="43.22514" lon="5.64948">
        <ele>214.558304</ele>
        <time>2022-08-14T05:51:29Z</time>
      </trkpt>
      <trkpt lat="43.22517" lon="5.64935">
        <ele>214.737213</ele>
        <time>2022-08-14T05:51:31Z</time>
      </trkpt>
      <trkpt lat="43.2252" lon="5.64911">
        <ele>214.923538</ele>
        <time>2022-08-14T05:51:34Z</time>
      </trkpt>
      <trkpt lat="43.22521" lon="5.64895">
        <ele>215.01445</ele>
        <time>2022-08-14T05:51:36Z</time>
      </trkpt>
      <trkpt lat="43.22521" lon="5.64878">
        <ele>215.102325</ele>
        <time>2022-08-14T05:51:38Z</time>
      </trkpt>
      <trkpt lat="43.22523" lon="5.64865">
        <ele>215.184082</ele>
        <time>2022-08-14T05:51:40Z</time>
      </trkpt>
      <trkpt lat="43.22525" lon="5.64848">
        <ele>215.332962</ele>
        <time>2022-08-14T05:51:42Z</time>
      </trkpt>
      <trkpt lat="43.22529" lon="5.64831">
        <ele>215.400635</ele>
        <time>2022-08-14T05:51:44Z</time>
      </trkpt>
      <trkpt lat="43.22538" lon="5.64819">
        <ele>215.455032</ele>
        <time>2022-08-14T05:51:46Z</time>
      </trkpt>
      <trkpt lat="43.22549" lon="5.64821">
        <ele>215.50444</ele>
        <time>2022-08-14T05:51:48Z</time>
      </trkpt>
      <trkpt lat="43.22562" lon="5.64834">
        <ele>215.57901</ele>
        <time>2022-08-14T05:51:51Z</time>
      </trkpt>
      <trkpt lat="43.22571" lon="5.64844">
        <ele>215.616989</ele>
        <time>2022-08-14T05:51:53Z</time>
      </trkpt>
      <trkpt lat="43.22586" lon="5.64856">
        <ele>215.703857</ele>
        <time>2022-08-14T05:51:56Z</time>
      </trkpt>
      <trkpt lat="43.22599" lon="5.64858">
        <ele>215.758545</ele>
        <time>2022-08-14T05:51:58Z</time>
      </trkpt>
      <trkpt lat="43.22611" lon="5.64854">
        <ele>215.921112</ele>
        <time>2022-08-14T05:52:00Z</time>
      </trkpt>
      <trkpt lat="43.22618" lon="5.64846">
        <ele>216.028442</ele>
        <time>2022-08-14T05:52:02Z</time>
      </trkpt>
      <trkpt lat="43.22621" lon="5.64835">
        <ele>216.151489</ele>
        <time>2022-08-14T05:52:04Z</time>
      </trkpt>
      <trkpt lat="43.22627" lon="5.64818">
        <ele>216.288116</ele>
        <time>2022-08-14T05:52:07Z</time>
      </trkpt>
      <trkpt lat="43.22631" lon="5.64808">
        <ele>216.582062</ele>
        <time>2022-08-14T05:52:09Z</time>
      </trkpt>
      <trkpt lat="43.22634" lon="5.64798">
        <ele>216.733673</ele>
        <time>2022-08-14T05:52:11Z</time>
      </trkpt>
      <trkpt lat="43.22636" lon="5.64789">
        <ele>216.884796</ele>
        <time>2022-08-14T05:52:13Z</time>
      </trkpt>
      <trkpt lat="43.2264" lon="5.64783">
        <ele>217.026123</ele>
        <time>2022-08-14T05:52:15Z</time>
      </trkpt>
      <trkpt lat="43.22648" lon="5.64779">
        <ele>217.154587</ele>
        <time>2022-08-14T05:52:17Z</time>
      </trkpt>
      <trkpt lat="43.22657" lon="5.64781">
        <ele>217.37471</ele>
        <time>2022-08-14T05:52:19Z</time>
      </trkpt>
      <trkpt lat="43.22666" lon="5.64785">
        <ele>217.457321</ele>
        <time>2022-08-14T05:52:21Z</time>
      </trkpt>
      <trkpt lat="43.22675" lon="5.64791">
        <ele>217.52298</ele>
        <time>2022-08-14T05:52:23Z</time>
      </trkpt>
      <trkpt lat="43.22681" lon="5.64795">
        <ele>217.573029</ele>
        <time>2022-08-14T05:52:25Z</time>
      </trkpt>
      <trkpt lat="43.22689" lon="5.64801">
        <ele>217.61113</ele>
        <time>2022-08-14T05:52:27Z</time>
      </trkpt>
      <trkpt lat="43.22696" lon="5.64807">
        <ele>217.643677</ele>
        <time>2022-08-14T05:52:29Z</time>
      </trkpt>
      <trkpt lat="43.22705" lon="5.64816">
        <ele>217.650238</ele>
        <time>2022-08-14T05:52:32Z</time>
      </trkpt>
      <trkpt lat="43.22712" lon="5.64822">
        <ele>217.6586</ele>
        <time>2022-08-14T05:52:34Z</time>
      </trkpt>
      <trkpt lat="43.22719" lon="5.64829">
        <ele>217.687408</ele>
        <time>2022-08-14T05:52:36Z</time>
      </trkpt>
      <trkpt lat="43.22725" lon="5.64837">
        <ele>217.720245</ele>
        <time>2022-08-14T05:52:38Z</time>
      </trkpt>
      <trkpt lat="43.22731" lon="5.64845">
        <ele>217.775116</ele>
        <time>2022-08-14T05:52:40Z</time>
      </trkpt>
      <trkpt lat="43.22736" lon="5.64853">
        <ele>217.854858</ele>
        <time>2022-08-14T05:52:42Z</time>
      </trkpt>
      <trkpt lat="43.22739" lon="5.64862">
        <ele>218.067413</ele>
        <time>2022-08-14T05:52:44Z</time>
      </trkpt>
      <trkpt lat="43.22744" lon="5.6487">
        <ele>218.366486</ele>
        <time>2022-08-14T05:52:46Z</time>
      </trkpt>
      <trkpt lat="43.22748" lon="5.64879">
        <ele>218.566376</ele>
        <time>2022-08-14T05:52:48Z</time>
      </trkpt>
      <trkpt lat="43.22756" lon="5.6489">
        <ele>218.815826</ele>
        <time>2022-08-14T05:52:51Z</time>
      </trkpt>
      <trkpt lat="43.22763" lon="5.64896">
        <ele>219.441162</ele>
        <time>2022-08-14T05:52:53Z</time>
      </trkpt>
      <trkpt lat="43.2277" lon="5.64899">
        <ele>219.814606</ele>
        <time>2022-08-14T05:52:55Z</time>
      </trkpt>
      <trkpt lat="43.22778" lon="5.64897">
        <ele>220.223663</ele>
        <time>2022-08-14T05:52:57Z</time>
      </trkpt>
      <trkpt lat="43.22783" lon="5.6489">
        <ele>220.65242</ele>
        <time>2022-08-14T05:52:59Z</time>
      </trkpt>
      <trkpt lat="43.22785" lon="5.64879">
        <ele>221.579025</ele>
        <time>2022-08-14T05:53:01Z</time>
      </trkpt>
      <trkpt lat="43.22785" lon="5.64868">
        <ele>222.059494</ele>
        <time>2022-08-14T05:53:03Z</time>
      </trkpt>
      <trkpt lat="43.22785" lon="5.64856">
        <ele>223.019165</ele>
        <time>2022-08-14T05:53:05Z</time>
      </trkpt>
      <trkpt lat="43.22784" lon="5.64846">
        <ele>223.490631</ele>
        <time>2022-08-14T05:53:07Z</time>
      </trkpt>
      <trkpt lat="43.22783" lon="5.64837">
        <ele>223.955719</ele>
        <time>2022-08-14T05:53:09Z</time>
      </trkpt>
      <trkpt lat="43.2278" lon="5.64827">
        <ele>224.413498</ele>
        <time>2022-08-14T05:53:11Z</time>
      </trkpt>
      <trkpt lat="43.22777" lon="5.64816">
        <ele>224.863083</ele>
        <time>2022-08-14T05:53:13Z</time>
      </trkpt>
      <trkpt lat="43.22774" lon="5.64807">
        <ele>225.305176</ele>
        <time>2022-08-14T05:53:15Z</time>
      </trkpt>
      <trkpt lat="43.22771" lon="5.64797">
        <ele>226.164719</ele>
        <time>2022-08-14T05:53:17Z</time>
      </trkpt>
      <trkpt lat="43.22768" lon="5.64787">
        <ele>226.580399</ele>
        <time>2022-08-14T05:53:19Z</time>
      </trkpt>
      <trkpt lat="43.22764" lon="5.64776">
        <ele>226.986694</ele>
        <time>2022-08-14T05:53:21Z</time>
      </trkpt>
      <trkpt lat="43.2276" lon="5.64767">
        <ele>227.769211</ele>
        <time>2022-08-14T05:53:23Z</time>
      </trkpt>
      <trkpt lat="43.22757" lon="5.64756">
        <ele>228.140793</ele>
        <time>2022-08-14T05:53:25Z</time>
      </trkpt>
      <trkpt lat="43.22756" lon="5.64735">
        <ele>228.839386</ele>
        <time>2022-08-14T05:53:28Z</time>
      </trkpt>
      <trkpt lat="43.22761" lon="5.64726">
        <ele>229.159134</ele>
        <time>2022-08-14T05:53:30Z</time>
      </trkpt>
      <trkpt lat="43.22767" lon="5.64725">
        <ele>229.457794</ele>
        <time>2022-08-14T05:53:32Z</time>
      </trkpt>
      <trkpt lat="43.22773" lon="5.64728">
        <ele>229.734863</ele>
        <time>2022-08-14T05:53:34Z</time>
      </trkpt>
      <trkpt lat="43.22778" lon="5.64736">
        <ele>230.226105</ele>
        <time>2022-08-14T05:53:36Z</time>
      </trkpt>
      <trkpt lat="43.22783" lon="5.64746">
        <ele>230.433273</ele>
        <time>2022-08-14T05:53:38Z</time>
      </trkpt>
      <trkpt lat="43.22787" lon="5.64756">
        <ele>230.797333</ele>
        <time>2022-08-14T05:53:40Z</time>
      </trkpt>
      <trkpt lat="43.22791" lon="5.64767">
        <ele>230.950516</ele>
        <time>2022-08-14T05:53:42Z</time>
      </trkpt>
      <trkpt lat="43.22794" lon="5.64777">
        <ele>231.088501</ele>
        <time>2022-08-14T05:53:44Z</time>
      </trkpt>
      <trkpt lat="43.22797" lon="5.64789">
        <ele>231.225372</ele>
        <time>2022-08-14T05:53:46Z</time>
      </trkpt>
      <trkpt lat="43.228" lon="5.648">
        <ele>231.495972</ele>
        <time>2022-08-14T05:53:48Z</time>
      </trkpt>
      <trkpt lat="43.22803" lon="5.6481">
        <ele>231.631592</ele>
        <time>2022-08-14T05:53:50Z</time>
      </trkpt>
      <trkpt lat="43.22807" lon="5.64819">
        <ele>231.758591</ele>
        <time>2022-08-14T05:53:52Z</time>
      </trkpt>
      <trkpt lat="43.22811" lon="5.6483">
        <ele>231.982452</ele>
        <time>2022-08-14T05:53:54Z</time>
      </trkpt>
      <trkpt lat="43.22813" lon="5.6484">
        <ele>231.982452</ele>
        <time>2022-08-14T05:53:56Z</time>
      </trkpt>
      <trkpt lat="43.22817" lon="5.64851">
        <ele>232.173187</ele>
        <time>2022-08-14T05:53:58Z</time>
      </trkpt>
      <trkpt lat="43.2282" lon="5.64861">
        <ele>232.260773</ele>
        <time>2022-08-14T05:54:00Z</time>
      </trkpt>
      <trkpt lat="43.22822" lon="5.64871">
        <ele>232.346512</ele>
        <time>2022-08-14T05:54:02Z</time>
      </trkpt>
      <trkpt lat="43.22825" lon="5.64881">
        <ele>232.430008</ele>
        <time>2022-08-14T05:54:04Z</time>
      </trkpt>
      <trkpt lat="43.22828" lon="5.6489">
        <ele>232.51326</ele>
        <time>2022-08-14T05:54:06Z</time>
      </trkpt>
      <trkpt lat="43.22831" lon="5.649">
        <ele>232.598465</ele>
        <time>2022-08-14T05:54:08Z</time>
      </trkpt>
      <trkpt lat="43.22834" lon="5.64909">
        <ele>232.791962</ele>
        <time>2022-08-14T05:54:10Z</time>
      </trkpt>
      <trkpt lat="43.22838" lon="5.6492">
        <ele>232.904785</ele>
        <time>2022-08-14T05:54:12Z</time>
      </trkpt>
      <trkpt lat="43.22842" lon="5.64935">
        <ele>233.176422</ele>
        <time>2022-08-14T05:54:15Z</time>
      </trkpt>
      <trkpt lat="43.22845" lon="5.64945">
        <ele>233.341309</ele>
        <time>2022-08-14T05:54:17Z</time>
      </trkpt>
      <trkpt lat="43.22849" lon="5.64956">
        <ele>233.746002</ele>
        <time>2022-08-14T05:54:19Z</time>
      </trkpt>
      <trkpt lat="43.22854" lon="5.64965">
        <ele>234.245605</ele>
        <time>2022-08-14T05:54:21Z</time>
      </trkpt>
      <trkpt lat="43.22858" lon="5.64976">
        <ele>234.536621</ele>
        <time>2022-08-14T05:54:23Z</time>
      </trkpt>
      <trkpt lat="43.22862" lon="5.64986">
        <ele>234.857132</ele>
        <time>2022-08-14T05:54:25Z</time>
      </trkpt>
      <trkpt lat="43.22866" lon="5.64995">
        <ele>235.610519</ele>
        <time>2022-08-14T05:54:27Z</time>
      </trkpt>
      <trkpt lat="43.2287" lon="5.65004">
        <ele>236.505859</ele>
        <time>2022-08-14T05:54:29Z</time>
      </trkpt>
      <trkpt lat="43.22874" lon="5.65014">
        <ele>237.005981</ele>
        <time>2022-08-14T05:54:31Z</time>
      </trkpt>
      <trkpt lat="43.22878" lon="5.65022">
        <ele>237.537766</ele>
        <time>2022-08-14T05:54:33Z</time>
      </trkpt>
      <trkpt lat="43.22883" lon="5.65031">
        <ele>238.100983</ele>
        <time>2022-08-14T05:54:35Z</time>
      </trkpt>
      <trkpt lat="43.22887" lon="5.6504">
        <ele>238.694046</ele>
        <time>2022-08-14T05:54:37Z</time>
      </trkpt>
      <trkpt lat="43.22892" lon="5.65048">
        <ele>239.301468</ele>
        <time>2022-08-14T05:54:39Z</time>
      </trkpt>
      <trkpt lat="43.22897" lon="5.65056">
        <ele>240.595612</ele>
        <time>2022-08-14T05:54:41Z</time>
      </trkpt>
      <trkpt lat="43.22903" lon="5.65063">
        <ele>241.276367</ele>
        <time>2022-08-14T05:54:43Z</time>
      </trkpt>
      <trkpt lat="43.22908" lon="5.6507">
        <ele>241.964569</ele>
        <time>2022-08-14T05:54:45Z</time>
      </trkpt>
      <trkpt lat="43.22913" lon="5.65078">
        <ele>243.384567</ele>
        <time>2022-08-14T05:54:47Z</time>
      </trkpt>
      <trkpt lat="43.22918" lon="5.65085">
        <ele>244.112137</ele>
        <time>2022-08-14T05:54:49Z</time>
      </trkpt>
      <trkpt lat="43.22924" lon="5.65093">
        <ele>245.608719</ele>
        <time>2022-08-14T05:54:51Z</time>
      </trkpt>
      <trkpt lat="43.22928" lon="5.65102">
        <ele>246.369171</ele>
        <time>2022-08-14T05:54:53Z</time>
      </trkpt>
      <trkpt lat="43.22932" lon="5.65111">
        <ele>247.124954</ele>
        <time>2022-08-14T05:54:55Z</time>
      </trkpt>
      <trkpt lat="43.22936" lon="5.65121">
        <ele>247.895416</ele>
        <time>2022-08-14T05:54:57Z</time>
      </trkpt>
      <trkpt lat="43.2294" lon="5.65131">
        <ele>249.455353</ele>
        <time>2022-08-14T05:54:59Z</time>
      </trkpt>
      <trkpt lat="43.22942" lon="5.65141">
        <ele>250.244354</ele>
        <time>2022-08-14T05:55:01Z</time>
      </trkpt>
      <trkpt lat="43.22946" lon="5.65152">
        <ele>251.048676</ele>
        <time>2022-08-14T05:55:03Z</time>
      </trkpt>
      <trkpt lat="43.22948" lon="5.65162">
        <ele>251.858841</ele>
        <time>2022-08-14T05:55:05Z</time>
      </trkpt>
      <trkpt lat="43.22952" lon="5.65172">
        <ele>252.673752</ele>
        <time>2022-08-14T05:55:07Z</time>
      </trkpt>
      <trkpt lat="43.22955" lon="5.65181">
        <ele>253.492401</ele>
        <time>2022-08-14T05:55:09Z</time>
      </trkpt>
      <trkpt lat="43.22958" lon="5.65191">
        <ele>254.314667</ele>
        <time>2022-08-14T05:55:11Z</time>
      </trkpt>
      <trkpt lat="43.22961" lon="5.65201">
        <ele>255.970047</ele>
        <time>2022-08-14T05:55:13Z</time>
      </trkpt>
      <trkpt lat="43.22964" lon="5.65211">
        <ele>256.782593</ele>
        <time>2022-08-14T05:55:15Z</time>
      </trkpt>
      <trkpt lat="43.22966" lon="5.65221">
        <ele>257.608337</ele>
        <time>2022-08-14T05:55:17Z</time>
      </trkpt>
      <trkpt lat="43.22969" lon="5.65231">
        <ele>258.42868</ele>
        <time>2022-08-14T05:55:19Z</time>
      </trkpt>
      <trkpt lat="43.22971" lon="5.65241">
        <ele>259.244385</ele>
        <time>2022-08-14T05:55:21Z</time>
      </trkpt>
      <trkpt lat="43.22973" lon="5.65251">
        <ele>260.063782</ele>
        <time>2022-08-14T05:55:23Z</time>
      </trkpt>
      <trkpt lat="43.22976" lon="5.65261">
        <ele>261.711609</ele>
        <time>2022-08-14T05:55:25Z</time>
      </trkpt>
      <trkpt lat="43.22979" lon="5.65272">
        <ele>262.538544</ele>
        <time>2022-08-14T05:55:27Z</time>
      </trkpt>
      <trkpt lat="43.22983" lon="5.65287">
        <ele>264.183289</ele>
        <time>2022-08-14T05:55:30Z</time>
      </trkpt>
      <trkpt lat="43.22984" lon="5.65298">
        <ele>264.990906</ele>
        <time>2022-08-14T05:55:32Z</time>
      </trkpt>
      <trkpt lat="43.22985" lon="5.65309">
        <ele>266.605865</ele>
        <time>2022-08-14T05:55:34Z</time>
      </trkpt>
      <trkpt lat="43.22984" lon="5.6532">
        <ele>267.412384</ele>
        <time>2022-08-14T05:55:36Z</time>
      </trkpt>
      <trkpt lat="43.22985" lon="5.6533">
        <ele>268.209503</ele>
        <time>2022-08-14T05:55:38Z</time>
      </trkpt>
      <trkpt lat="43.22987" lon="5.65341">
        <ele>269.008881</ele>
        <time>2022-08-14T05:55:40Z</time>
      </trkpt>
      <trkpt lat="43.2299" lon="5.65352">
        <ele>270.603821</ele>
        <time>2022-08-14T05:55:42Z</time>
      </trkpt>
      <trkpt lat="43.22999" lon="5.6536">
        <ele>272.175018</ele>
        <time>2022-08-14T05:55:45Z</time>
      </trkpt>
      <trkpt lat="43.23006" lon="5.65359">
        <ele>272.944672</ele>
        <time>2022-08-14T05:55:47Z</time>
      </trkpt>
      <trkpt lat="43.23011" lon="5.65352">
        <ele>274.479797</ele>
        <time>2022-08-14T05:55:49Z</time>
      </trkpt>
      <trkpt lat="43.23013" lon="5.65343">
        <ele>275.978333</ele>
        <time>2022-08-14T05:55:51Z</time>
      </trkpt>
      <trkpt lat="43.23013" lon="5.65336">
        <ele>276.706299</ele>
        <time>2022-08-14T05:55:53Z</time>
      </trkpt>
      <trkpt lat="43.23012" lon="5.65326">
        <ele>278.12735</ele>
        <time>2022-08-14T05:55:55Z</time>
      </trkpt>
      <trkpt lat="43.23013" lon="5.65315">
        <ele>278.827271</ele>
        <time>2022-08-14T05:55:57Z</time>
      </trkpt>
      <trkpt lat="43.23014" lon="5.65307">
        <ele>279.509674</ele>
        <time>2022-08-14T05:55:59Z</time>
      </trkpt>
      <trkpt lat="43.23022" lon="5.65293">
        <ele>280.172363</ele>
        <time>2022-08-14T05:56:02Z</time>
      </trkpt>
      <trkpt lat="43.23028" lon="5.65288">
        <ele>281.432068</ele>
        <time>2022-08-14T05:56:04Z</time>
      </trkpt>
      <trkpt lat="43.23037" lon="5.65289">
        <ele>282.026886</ele>
        <time>2022-08-14T05:56:06Z</time>
      </trkpt>
      <trkpt lat="43.23045" lon="5.65292">
        <ele>283.147858</ele>
        <time>2022-08-14T05:56:08Z</time>
      </trkpt>
      <trkpt lat="43.23053" lon="5.65297">
        <ele>283.679993</ele>
        <time>2022-08-14T05:56:10Z</time>
      </trkpt>
      <trkpt lat="43.23057" lon="5.65307">
        <ele>284.197601</ele>
        <time>2022-08-14T05:56:12Z</time>
      </trkpt>
      <trkpt lat="43.2306" lon="5.65317">
        <ele>284.703766</ele>
        <time>2022-08-14T05:56:14Z</time>
      </trkpt>
      <trkpt lat="43.2306" lon="5.65328">
        <ele>285.201813</ele>
        <time>2022-08-14T05:56:16Z</time>
      </trkpt>
      <trkpt lat="43.23057" lon="5.65336">
        <ele>286.203094</ele>
        <time>2022-08-14T05:56:18Z</time>
      </trkpt>
      <trkpt lat="43.23055" lon="5.65346">
        <ele>286.695129</ele>
        <time>2022-08-14T05:56:20Z</time>
      </trkpt>
      <trkpt lat="43.23051" lon="5.65362">
        <ele>287.656189</ele>
        <time>2022-08-14T05:56:23Z</time>
      </trkpt>
      <trkpt lat="43.23048" lon="5.65374">
        <ele>288.569672</ele>
        <time>2022-08-14T05:56:25Z</time>
      </trkpt>
      <trkpt lat="43.23046" lon="5.65386">
        <ele>289.009827</ele>
        <time>2022-08-14T05:56:27Z</time>
      </trkpt>
      <trkpt lat="43.23044" lon="5.65403">
        <ele>289.852844</ele>
        <time>2022-08-14T05:56:30Z</time>
      </trkpt>
      <trkpt lat="43.23042" lon="5.65414">
        <ele>290.648346</ele>
        <time>2022-08-14T05:56:32Z</time>
      </trkpt>
      <trkpt lat="43.23042" lon="5.65425">
        <ele>291.014954</ele>
        <time>2022-08-14T05:56:34Z</time>
      </trkpt>
      <trkpt lat="43.2304" lon="5.65438">
        <ele>291.363342</ele>
        <time>2022-08-14T05:56:36Z</time>
      </trkpt>
      <trkpt lat="43.23038" lon="5.6545">
        <ele>291.708008</ele>
        <time>2022-08-14T05:56:38Z</time>
      </trkpt>
      <trkpt lat="43.23037" lon="5.65462">
        <ele>292.037659</ele>
        <time>2022-08-14T05:56:40Z</time>
      </trkpt>
      <trkpt lat="43.23038" lon="5.65473">
        <ele>292.360168</ele>
        <time>2022-08-14T05:56:42Z</time>
      </trkpt>
      <trkpt lat="43.23039" lon="5.65485">
        <ele>292.671539</ele>
        <time>2022-08-14T05:56:44Z</time>
      </trkpt>
      <trkpt lat="43.2304" lon="5.65497">
        <ele>292.978424</ele>
        <time>2022-08-14T05:56:46Z</time>
      </trkpt>
      <trkpt lat="43.23042" lon="5.65509">
        <ele>293.591553</ele>
        <time>2022-08-14T05:56:48Z</time>
      </trkpt>
      <trkpt lat="43.23045" lon="5.65525">
        <ele>293.892334</ele>
        <time>2022-08-14T05:56:51Z</time>
      </trkpt>
      <trkpt lat="43.23046" lon="5.65536">
        <ele>294.489838</ele>
        <time>2022-08-14T05:56:53Z</time>
      </trkpt>
      <trkpt lat="43.23047" lon="5.65546">
        <ele>294.792877</ele>
        <time>2022-08-14T05:56:55Z</time>
      </trkpt>
      <trkpt lat="43.23048" lon="5.65557">
        <ele>295.410706</ele>
        <time>2022-08-14T05:56:57Z</time>
      </trkpt>
      <trkpt lat="43.2305" lon="5.65567">
        <ele>295.716309</ele>
        <time>2022-08-14T05:56:59Z</time>
      </trkpt>
      <trkpt lat="43.23052" lon="5.65579">
        <ele>296.335541</ele>
        <time>2022-08-14T05:57:01Z</time>
      </trkpt>
      <trkpt lat="43.23053" lon="5.6559">
        <ele>296.652588</ele>
        <time>2022-08-14T05:57:03Z</time>
      </trkpt>
      <trkpt lat="43.23054" lon="5.656">
        <ele>296.971985</ele>
        <time>2022-08-14T05:57:05Z</time>
      </trkpt>
      <trkpt lat="43.23055" lon="5.65611">
        <ele>297.300385</ele>
        <time>2022-08-14T05:57:07Z</time>
      </trkpt>
      <trkpt lat="43.23056" lon="5.65624">
        <ele>297.638489</ele>
        <time>2022-08-14T05:57:09Z</time>
      </trkpt>
      <trkpt lat="43.23057" lon="5.65639">
        <ele>298.341461</ele>
        <time>2022-08-14T05:57:12Z</time>
      </trkpt>
      <trkpt lat="43.23055" lon="5.65651">
        <ele>298.702576</ele>
        <time>2022-08-14T05:57:14Z</time>
      </trkpt>
      <trkpt lat="43.23054" lon="5.65662">
        <ele>299.066559</ele>
        <time>2022-08-14T05:57:16Z</time>
      </trkpt>
      <trkpt lat="43.23051" lon="5.65674">
        <ele>299.430176</ele>
        <time>2022-08-14T05:57:18Z</time>
      </trkpt>
      <trkpt lat="43.23049" lon="5.65686">
        <ele>299.78476</ele>
        <time>2022-08-14T05:57:20Z</time>
      </trkpt>
      <trkpt lat="43.23047" lon="5.65694">
        <ele>300.479675</ele>
        <time>2022-08-14T05:57:22Z</time>
      </trkpt>
      <trkpt lat="43.23042" lon="5.65713">
        <ele>300.826294</ele>
        <time>2022-08-14T05:57:25Z</time>
      </trkpt>
      <trkpt lat="43.23039" lon="5.65725">
        <ele>301.164734</ele>
        <time>2022-08-14T05:57:27Z</time>
      </trkpt>
      <trkpt lat="43.23035" lon="5.65738">
        <ele>301.503723</ele>
        <time>2022-08-14T05:57:29Z</time>
      </trkpt>
      <trkpt lat="43.23031" lon="5.65749">
        <ele>302.196869</ele>
        <time>2022-08-14T05:57:31Z</time>
      </trkpt>
      <trkpt lat="43.23025" lon="5.65769">
        <ele>302.551208</ele>
        <time>2022-08-14T05:57:34Z</time>
      </trkpt>
      <trkpt lat="43.23019" lon="5.65782">
        <ele>302.926086</ele>
        <time>2022-08-14T05:57:36Z</time>
      </trkpt>
      <trkpt lat="43.23014" lon="5.65792">
        <ele>303.316345</ele>
        <time>2022-08-14T05:57:38Z</time>
      </trkpt>
      <trkpt lat="43.2301" lon="5.65802">
        <ele>303.735352</ele>
        <time>2022-08-14T05:57:40Z</time>
      </trkpt>
      <trkpt lat="43.23006" lon="5.65815">
        <ele>304.172516</ele>
        <time>2022-08-14T05:57:42Z</time>
      </trkpt>
      <trkpt lat="43.23004" lon="5.65827">
        <ele>305.12558</ele>
        <time>2022-08-14T05:57:44Z</time>
      </trkpt>
      <trkpt lat="43.23007" lon="5.65837">
        <ele>305.6297</ele>
        <time>2022-08-14T05:57:46Z</time>
      </trkpt>
      <trkpt lat="43.23013" lon="5.65843">
        <ele>306.677582</ele>
        <time>2022-08-14T05:57:48Z</time>
      </trkpt>
      <trkpt lat="43.23021" lon="5.65843">
        <ele>307.20929</ele>
        <time>2022-08-14T05:57:50Z</time>
      </trkpt>
      <trkpt lat="43.23027" lon="5.65838">
        <ele>308.326965</ele>
        <time>2022-08-14T05:57:52Z</time>
      </trkpt>
      <trkpt lat="43.23032" lon="5.6583">
        <ele>308.898804</ele>
        <time>2022-08-14T05:57:54Z</time>
      </trkpt>
      <trkpt lat="43.2304" lon="5.65825">
        <ele>309.46814</ele>
        <time>2022-08-14T05:57:56Z</time>
      </trkpt>
      <trkpt lat="43.23048" lon="5.65823">
        <ele>310.031158</ele>
        <time>2022-08-14T05:57:58Z</time>
      </trkpt>
      <trkpt lat="43.23057" lon="5.65825">
        <ele>310.578583</ele>
        <time>2022-08-14T05:58:00Z</time>
      </trkpt>
      <trkpt lat="43.23064" lon="5.65832">
        <ele>311.617554</ele>
        <time>2022-08-14T05:58:02Z</time>
      </trkpt>
      <trkpt lat="43.2307" lon="5.65841">
        <ele>312.117706</ele>
        <time>2022-08-14T05:58:04Z</time>
      </trkpt>
      <trkpt lat="43.23076" lon="5.65849">
        <ele>312.60556</ele>
        <time>2022-08-14T05:58:06Z</time>
      </trkpt>
      <trkpt lat="43.23082" lon="5.65853">
        <ele>313.080261</ele>
        <time>2022-08-14T05:58:08Z</time>
      </trkpt>
      <trkpt lat="43.2309" lon="5.65852">
        <ele>313.543549</ele>
        <time>2022-08-14T05:58:10Z</time>
      </trkpt>
      <trkpt lat="43.23096" lon="5.65848">
        <ele>314.447113</ele>
        <time>2022-08-14T05:58:12Z</time>
      </trkpt>
      <trkpt lat="43.231" lon="5.65834">
        <ele>315.319641</ele>
        <time>2022-08-14T05:58:15Z</time>
      </trkpt>
      <trkpt lat="43.23102" lon="5.65822">
        <ele>315.74234</ele>
        <time>2022-08-14T05:58:17Z</time>
      </trkpt>
      <trkpt lat="43.23103" lon="5.65811">
        <ele>316.557434</ele>
        <time>2022-08-14T05:58:19Z</time>
      </trkpt>
      <trkpt lat="43.23103" lon="5.658">
        <ele>316.947632</ele>
        <time>2022-08-14T05:58:21Z</time>
      </trkpt>
      <trkpt lat="43.23103" lon="5.65788">
        <ele>317.695251</ele>
        <time>2022-08-14T05:58:23Z</time>
      </trkpt>
      <trkpt lat="43.23103" lon="5.65777">
        <ele>318.046051</ele>
        <time>2022-08-14T05:58:25Z</time>
      </trkpt>
      <trkpt lat="43.23102" lon="5.65761">
        <ele>318.672974</ele>
        <time>2022-08-14T05:58:28Z</time>
      </trkpt>
      <trkpt lat="43.23102" lon="5.6575">
        <ele>318.961212</ele>
        <time>2022-08-14T05:58:30Z</time>
      </trkpt>
      <trkpt lat="43.23104" lon="5.65737">
        <ele>319.473206</ele>
        <time>2022-08-14T05:58:32Z</time>
      </trkpt>
      <trkpt lat="43.23109" lon="5.65726">
        <ele>319.702423</ele>
        <time>2022-08-14T05:58:34Z</time>
      </trkpt>
      <trkpt lat="43.23113" lon="5.65714">
        <ele>319.912048</ele>
        <time>2022-08-14T05:58:36Z</time>
      </trkpt>
      <trkpt lat="43.23116" lon="5.65708">
        <ele>320.234589</ele>
        <time>2022-08-14T05:58:38Z</time>
      </trkpt>
      <trkpt lat="43.23119" lon="5.65703">
        <ele>320.347137</ele>
        <time>2022-08-14T05:58:40Z</time>
      </trkpt>
      <trkpt lat="43.23128" lon="5.65702">
        <ele>320.429962</ele>
        <time>2022-08-14T05:58:42Z</time>
      </trkpt>
      <trkpt lat="43.23137" lon="5.657">
        <ele>320.472229</ele>
        <time>2022-08-14T05:58:44Z</time>
      </trkpt>
      <trkpt lat="43.2315" lon="5.65702">
        <ele>320.478821</ele>
        <time>2022-08-14T05:58:46Z</time>
      </trkpt>
      <trkpt lat="43.23159" lon="5.65705">
        <ele>320.450562</ele>
        <time>2022-08-14T05:58:48Z</time>
      </trkpt>
      <trkpt lat="43.23167" lon="5.65711">
        <ele>320.381805</ele>
        <time>2022-08-14T05:58:50Z</time>
      </trkpt>
      <trkpt lat="43.23171" lon="5.65717">
        <ele>320.33197</ele>
        <time>2022-08-14T05:58:52Z</time>
      </trkpt>
      <trkpt lat="43.23175" lon="5.65728">
        <ele>320.33197</ele>
        <time>2022-08-14T05:58:54Z</time>
      </trkpt>
      <trkpt lat="43.23182" lon="5.65739">
        <ele>320.228485</ele>
        <time>2022-08-14T05:58:56Z</time>
      </trkpt>
      <trkpt lat="43.23187" lon="5.65749">
        <ele>320.167786</ele>
        <time>2022-08-14T05:58:58Z</time>
      </trkpt>
      <trkpt lat="43.23192" lon="5.65768">
        <ele>320.159973</ele>
        <time>2022-08-14T05:59:01Z</time>
      </trkpt>
      <trkpt lat="43.23195" lon="5.65782">
        <ele>320.171753</ele>
        <time>2022-08-14T05:59:03Z</time>
      </trkpt>
      <trkpt lat="43.23202" lon="5.65798">
        <ele>320.205627</ele>
        <time>2022-08-14T05:59:06Z</time>
      </trkpt>
      <trkpt lat="43.23205" lon="5.6581">
        <ele>320.343323</ele>
        <time>2022-08-14T05:59:08Z</time>
      </trkpt>
      <trkpt lat="43.23206" lon="5.65822">
        <ele>320.457825</ele>
        <time>2022-08-14T05:59:10Z</time>
      </trkpt>
      <trkpt lat="43.23209" lon="5.65834">
        <ele>320.603882</ele>
        <time>2022-08-14T05:59:12Z</time>
      </trkpt>
      <trkpt lat="43.23212" lon="5.6585">
        <ele>320.96283</ele>
        <time>2022-08-14T05:59:15Z</time>
      </trkpt>
      <trkpt lat="43.23214" lon="5.65861">
        <ele>321.161804</ele>
        <time>2022-08-14T05:59:17Z</time>
      </trkpt>
      <trkpt lat="43.23213" lon="5.65873">
        <ele>321.590271</ele>
        <time>2022-08-14T05:59:19Z</time>
      </trkpt>
      <trkpt lat="43.23211" lon="5.65884">
        <ele>321.812347</ele>
        <time>2022-08-14T05:59:21Z</time>
      </trkpt>
      <trkpt lat="43.23207" lon="5.65894">
        <ele>322.042908</ele>
        <time>2022-08-14T05:59:23Z</time>
      </trkpt>
      <trkpt lat="43.23203" lon="5.65903">
        <ele>322.281891</ele>
        <time>2022-08-14T05:59:25Z</time>
      </trkpt>
      <trkpt lat="43.23198" lon="5.65912">
        <ele>322.782654</ele>
        <time>2022-08-14T05:59:27Z</time>
      </trkpt>
      <trkpt lat="43.23194" lon="5.65921">
        <ele>323.046204</ele>
        <time>2022-08-14T05:59:29Z</time>
      </trkpt>
      <trkpt lat="43.23189" lon="5.6593">
        <ele>323.323914</ele>
        <time>2022-08-14T05:59:31Z</time>
      </trkpt>
      <trkpt lat="43.23185" lon="5.65939">
        <ele>323.914642</ele>
        <time>2022-08-14T05:59:33Z</time>
      </trkpt>
      <trkpt lat="43.23181" lon="5.65949">
        <ele>323.914642</ele>
        <time>2022-08-14T05:59:35Z</time>
      </trkpt>
      <trkpt lat="43.23177" lon="5.6596">
        <ele>324.222076</ele>
        <time>2022-08-14T05:59:37Z</time>
      </trkpt>
      <trkpt lat="43.23174" lon="5.65971">
        <ele>324.86261</ele>
        <time>2022-08-14T05:59:39Z</time>
      </trkpt>
      <trkpt lat="43.23177" lon="5.65987">
        <ele>325.191742</ele>
        <time>2022-08-14T05:59:42Z</time>
      </trkpt>
      <trkpt lat="43.2318" lon="5.66">
        <ele>325.882172</ele>
        <time>2022-08-14T05:59:44Z</time>
      </trkpt>
      <trkpt lat="43.23183" lon="5.66013">
        <ele>326.242096</ele>
        <time>2022-08-14T05:59:46Z</time>
      </trkpt>
      <trkpt lat="43.23187" lon="5.66023">
        <ele>327.006744</ele>
        <time>2022-08-14T05:59:48Z</time>
      </trkpt>
      <trkpt lat="43.23188" lon="5.66032">
        <ele>327.411469</ele>
        <time>2022-08-14T05:59:50Z</time>
      </trkpt>
      <trkpt lat="43.23219" lon="5.66064">
        <ele>327.824402</ele>
        <time>2022-08-14T05:59:59Z</time>
      </trkpt>
      <trkpt lat="43.23225" lon="5.66075">
        <ele>328.243469</ele>
        <time>2022-08-14T06:00:01Z</time>
      </trkpt>
      <trkpt lat="43.23232" lon="5.66085">
        <ele>329.117493</ele>
        <time>2022-08-14T06:00:03Z</time>
      </trkpt>
      <trkpt lat="43.2324" lon="5.66101">
        <ele>329.585449</ele>
        <time>2022-08-14T06:00:06Z</time>
      </trkpt>
      <trkpt lat="43.23245" lon="5.66112">
        <ele>330.081055</ele>
        <time>2022-08-14T06:00:08Z</time>
      </trkpt>
      <trkpt lat="43.23251" lon="5.66123">
        <ele>330.583435</ele>
        <time>2022-08-14T06:00:10Z</time>
      </trkpt>
      <trkpt lat="43.23254" lon="5.66136">
        <ele>331.667419</ele>
        <time>2022-08-14T06:00:12Z</time>
      </trkpt>
      <trkpt lat="43.23258" lon="5.66146">
        <ele>332.242767</ele>
        <time>2022-08-14T06:00:14Z</time>
      </trkpt>
      <trkpt lat="43.23263" lon="5.66156">
        <ele>332.835846</ele>
        <time>2022-08-14T06:00:16Z</time>
      </trkpt>
      <trkpt lat="43.23266" lon="5.66167">
        <ele>333.432373</ele>
        <time>2022-08-14T06:00:18Z</time>
      </trkpt>
      <trkpt lat="43.23269" lon="5.66178">
        <ele>334.030609</ele>
        <time>2022-08-14T06:00:20Z</time>
      </trkpt>
      <trkpt lat="43.2327" lon="5.6619">
        <ele>334.629333</ele>
        <time>2022-08-14T06:00:22Z</time>
      </trkpt>
      <trkpt lat="43.23272" lon="5.66201">
        <ele>335.797852</ele>
        <time>2022-08-14T06:00:24Z</time>
      </trkpt>
      <trkpt lat="43.23274" lon="5.66212">
        <ele>336.362213</ele>
        <time>2022-08-14T06:00:26Z</time>
      </trkpt>
      <trkpt lat="43.23277" lon="5.66222">
        <ele>337.532074</ele>
        <time>2022-08-14T06:00:28Z</time>
      </trkpt>
      <trkpt lat="43.2328" lon="5.66233">
        <ele>338.129242</ele>
        <time>2022-08-14T06:00:30Z</time>
      </trkpt>
      <trkpt lat="43.23291" lon="5.66244">
        <ele>339.346619</ele>
        <time>2022-08-14T06:00:33Z</time>
      </trkpt>
      <trkpt lat="43.23297" lon="5.66247">
        <ele>339.967529</ele>
        <time>2022-08-14T06:00:35Z</time>
      </trkpt>
      <trkpt lat="43.23304" lon="5.6625">
        <ele>340.589264</ele>
        <time>2022-08-14T06:00:37Z</time>
      </trkpt>
      <trkpt lat="43.2331" lon="5.66252">
        <ele>341.863129</ele>
        <time>2022-08-14T06:00:39Z</time>
      </trkpt>
      <trkpt lat="43.23318" lon="5.66254">
        <ele>342.516602</ele>
        <time>2022-08-14T06:00:41Z</time>
      </trkpt>
      <trkpt lat="43.23325" lon="5.6626">
        <ele>343.177887</ele>
        <time>2022-08-14T06:00:43Z</time>
      </trkpt>
      <trkpt lat="43.23331" lon="5.66267">
        <ele>343.846069</ele>
        <time>2022-08-14T06:00:45Z</time>
      </trkpt>
      <trkpt lat="43.23339" lon="5.66283">
        <ele>344.520477</ele>
        <time>2022-08-14T06:00:48Z</time>
      </trkpt>
      <trkpt lat="43.23343" lon="5.66293">
        <ele>345.88797</ele>
        <time>2022-08-14T06:00:50Z</time>
      </trkpt>
      <trkpt lat="43.23346" lon="5.66302">
        <ele>346.582092</ele>
        <time>2022-08-14T06:00:52Z</time>
      </trkpt>
      <trkpt lat="43.2335" lon="5.66314">
        <ele>347.283691</ele>
        <time>2022-08-14T06:00:54Z</time>
      </trkpt>
      <trkpt lat="43.23356" lon="5.66325">
        <ele>348.704132</ele>
        <time>2022-08-14T06:00:56Z</time>
      </trkpt>
      <trkpt lat="43.23359" lon="5.66337">
        <ele>349.422119</ele>
        <time>2022-08-14T06:00:58Z</time>
      </trkpt>
      <trkpt lat="43.23362" lon="5.6635">
        <ele>350.146423</ele>
        <time>2022-08-14T06:01:00Z</time>
      </trkpt>
      <trkpt lat="43.23366" lon="5.66369">
        <ele>351.610535</ele>
        <time>2022-08-14T06:01:03Z</time>
      </trkpt>
      <trkpt lat="43.23367" lon="5.66382">
        <ele>352.361328</ele>
        <time>2022-08-14T06:01:05Z</time>
      </trkpt>
      <trkpt lat="43.23367" lon="5.66393">
        <ele>353.880371</ele>
        <time>2022-08-14T06:01:07Z</time>
      </trkpt>
      <trkpt lat="43.23365" lon="5.66406">
        <ele>354.635925</ele>
        <time>2022-08-14T06:01:09Z</time>
      </trkpt>
      <trkpt lat="43.23363" lon="5.66418">
        <ele>356.058594</ele>
        <time>2022-08-14T06:01:11Z</time>
      </trkpt>
      <trkpt lat="43.23361" lon="5.66431">
        <ele>356.742249</ele>
        <time>2022-08-14T06:01:13Z</time>
      </trkpt>
      <trkpt lat="43.23359" lon="5.66443">
        <ele>357.401794</ele>
        <time>2022-08-14T06:01:15Z</time>
      </trkpt>
      <trkpt lat="43.23356" lon="5.66455">
        <ele>358.654114</ele>
        <time>2022-08-14T06:01:17Z</time>
      </trkpt>
      <trkpt lat="43.23356" lon="5.66466">
        <ele>359.255554</ele>
        <time>2022-08-14T06:01:19Z</time>
      </trkpt>
      <trkpt lat="43.23355" lon="5.6648">
        <ele>359.861603</ele>
        <time>2022-08-14T06:01:21Z</time>
      </trkpt>
      <trkpt lat="43.23355" lon="5.66498">
        <ele>361.08017</ele>
        <time>2022-08-14T06:01:24Z</time>
      </trkpt>
      <trkpt lat="43.23355" lon="5.66512">
        <ele>361.710266</ele>
        <time>2022-08-14T06:01:26Z</time>
      </trkpt>
      <trkpt lat="43.23356" lon="5.66525">
        <ele>362.350281</ele>
        <time>2022-08-14T06:01:28Z</time>
      </trkpt>
      <trkpt lat="43.23357" lon="5.66537">
        <ele>363.652679</ele>
        <time>2022-08-14T06:01:30Z</time>
      </trkpt>
      <trkpt lat="43.23359" lon="5.66552">
        <ele>364.319061</ele>
        <time>2022-08-14T06:01:32Z</time>
      </trkpt>
      <trkpt lat="43.23362" lon="5.66567">
        <ele>364.993958</ele>
        <time>2022-08-14T06:01:34Z</time>
      </trkpt>
      <trkpt lat="43.23367" lon="5.6659">
        <ele>366.362701</ele>
        <time>2022-08-14T06:01:37Z</time>
      </trkpt>
      <trkpt lat="43.23373" lon="5.666">
        <ele>367.055603</ele>
        <time>2022-08-14T06:01:39Z</time>
      </trkpt>
      <trkpt lat="43.23378" lon="5.66609">
        <ele>368.478333</ele>
        <time>2022-08-14T06:01:41Z</time>
      </trkpt>
      <trkpt lat="43.23383" lon="5.66619">
        <ele>368.478333</ele>
        <time>2022-08-14T06:01:43Z</time>
      </trkpt>
      <trkpt lat="43.23387" lon="5.66629">
        <ele>369.197144</ele>
        <time>2022-08-14T06:01:45Z</time>
      </trkpt>
      <trkpt lat="43.23391" lon="5.66641">
        <ele>370.652527</ele>
        <time>2022-08-14T06:01:47Z</time>
      </trkpt>
      <trkpt lat="43.23395" lon="5.66653">
        <ele>372.129181</ele>
        <time>2022-08-14T06:01:49Z</time>
      </trkpt>
      <trkpt lat="43.23399" lon="5.66677">
        <ele>372.865417</ele>
        <time>2022-08-14T06:01:53Z</time>
      </trkpt>
      <trkpt lat="43.23399" lon="5.66688">
        <ele>374.325073</ele>
        <time>2022-08-14T06:01:55Z</time>
      </trkpt>
      <trkpt lat="43.23397" lon="5.66701">
        <ele>375.762146</ele>
        <time>2022-08-14T06:01:57Z</time>
      </trkpt>
      <trkpt lat="43.23397" lon="5.66714">
        <ele>376.47464</ele>
        <time>2022-08-14T06:01:59Z</time>
      </trkpt>
      <trkpt lat="43.23399" lon="5.66726">
        <ele>377.17865</ele>
        <time>2022-08-14T06:02:01Z</time>
      </trkpt>
      <trkpt lat="43.23402" lon="5.66736">
        <ele>377.873138</ele>
        <time>2022-08-14T06:02:03Z</time>
      </trkpt>
      <trkpt lat="43.23406" lon="5.66747">
        <ele>378.557465</ele>
        <time>2022-08-14T06:02:05Z</time>
      </trkpt>
      <trkpt lat="43.2341" lon="5.66759">
        <ele>379.229492</ele>
        <time>2022-08-14T06:02:07Z</time>
      </trkpt>
      <trkpt lat="43.23413" lon="5.66772">
        <ele>380.519897</ele>
        <time>2022-08-14T06:02:09Z</time>
      </trkpt>
      <trkpt lat="43.23416" lon="5.66785">
        <ele>381.143677</ele>
        <time>2022-08-14T06:02:11Z</time>
      </trkpt>
      <trkpt lat="43.23418" lon="5.66798">
        <ele>381.751526</ele>
        <time>2022-08-14T06:02:13Z</time>
      </trkpt>
      <trkpt lat="43.23419" lon="5.66811">
        <ele>382.352234</ele>
        <time>2022-08-14T06:02:15Z</time>
      </trkpt>
      <trkpt lat="43.23421" lon="5.66824">
        <ele>383.518646</ele>
        <time>2022-08-14T06:02:17Z</time>
      </trkpt>
      <trkpt lat="43.23422" lon="5.66843">
        <ele>384.073242</ele>
        <time>2022-08-14T06:02:20Z</time>
      </trkpt>
      <trkpt lat="43.23421" lon="5.66857">
        <ele>385.131104</ele>
        <time>2022-08-14T06:02:22Z</time>
      </trkpt>
      <trkpt lat="43.23421" lon="5.66871">
        <ele>385.631805</ele>
        <time>2022-08-14T06:02:24Z</time>
      </trkpt>
      <trkpt lat="43.23419" lon="5.66884">
        <ele>386.107758</ele>
        <time>2022-08-14T06:02:26Z</time>
      </trkpt>
      <trkpt lat="43.23418" lon="5.66896">
        <ele>386.557281</ele>
        <time>2022-08-14T06:02:28Z</time>
      </trkpt>
      <trkpt lat="43.23416" lon="5.66909">
        <ele>387.391418</ele>
        <time>2022-08-14T06:02:30Z</time>
      </trkpt>
      <trkpt lat="43.23414" lon="5.66928">
        <ele>388.10199</ele>
        <time>2022-08-14T06:02:33Z</time>
      </trkpt>
      <trkpt lat="43.23412" lon="5.66941">
        <ele>388.725037</ele>
        <time>2022-08-14T06:02:35Z</time>
      </trkpt>
      <trkpt lat="43.2341" lon="5.66954">
        <ele>388.997772</ele>
        <time>2022-08-14T06:02:37Z</time>
      </trkpt>
      <trkpt lat="43.2341" lon="5.66968">
        <ele>389.253448</ele>
        <time>2022-08-14T06:02:39Z</time>
      </trkpt>
      <trkpt lat="43.23412" lon="5.66987">
        <ele>389.740417</ele>
        <time>2022-08-14T06:02:42Z</time>
      </trkpt>
      <trkpt lat="43.23414" lon="5.67001">
        <ele>389.955872</ele>
        <time>2022-08-14T06:02:44Z</time>
      </trkpt>
      <trkpt lat="43.23416" lon="5.67014">
        <ele>390.339264</ele>
        <time>2022-08-14T06:02:46Z</time>
      </trkpt>
      <trkpt lat="43.23418" lon="5.67027">
        <ele>390.514709</ele>
        <time>2022-08-14T06:02:48Z</time>
      </trkpt>
      <trkpt lat="43.2342" lon="5.6704">
        <ele>390.671783</ele>
        <time>2022-08-14T06:02:50Z</time>
      </trkpt>
      <trkpt lat="43.23423" lon="5.67053">
        <ele>390.822632</ele>
        <time>2022-08-14T06:02:52Z</time>
      </trkpt>
      <trkpt lat="43.23425" lon="5.67066">
        <ele>391.122284</ele>
        <time>2022-08-14T06:02:54Z</time>
      </trkpt>
      <trkpt lat="43.23427" lon="5.67079">
        <ele>391.272278</ele>
        <time>2022-08-14T06:02:56Z</time>
      </trkpt>
      <trkpt lat="43.2343" lon="5.67092">
        <ele>391.426239</ele>
        <time>2022-08-14T06:02:58Z</time>
      </trkpt>
      <trkpt lat="43.23432" lon="5.67105">
        <ele>391.742004</ele>
        <time>2022-08-14T06:03:00Z</time>
      </trkpt>
      <trkpt lat="43.23434" lon="5.67118">
        <ele>391.899719</ele>
        <time>2022-08-14T06:03:02Z</time>
      </trkpt>
      <trkpt lat="43.23437" lon="5.67131">
        <ele>392.220825</ele>
        <time>2022-08-14T06:03:04Z</time>
      </trkpt>
      <trkpt lat="43.23441" lon="5.67151">
        <ele>392.383606</ele>
        <time>2022-08-14T06:03:07Z</time>
      </trkpt>
      <trkpt lat="43.23444" lon="5.67164">
        <ele>392.711609</ele>
        <time>2022-08-14T06:03:09Z</time>
      </trkpt>
      <trkpt lat="43.23448" lon="5.67177">
        <ele>393.044861</ele>
        <time>2022-08-14T06:03:11Z</time>
      </trkpt>
      <trkpt lat="43.23457" lon="5.67193">
        <ele>393.21405</ele>
        <time>2022-08-14T06:03:14Z</time>
      </trkpt>
      <trkpt lat="43.23463" lon="5.67204">
        <ele>393.383728</ele>
        <time>2022-08-14T06:03:16Z</time>
      </trkpt>
      <trkpt lat="43.2347" lon="5.67215">
        <ele>393.724884</ele>
        <time>2022-08-14T06:03:18Z</time>
      </trkpt>
      <trkpt lat="43.23478" lon="5.67233">
        <ele>394.064178</ele>
        <time>2022-08-14T06:03:21Z</time>
      </trkpt>
      <trkpt lat="43.23484" lon="5.67245">
        <ele>394.230438</ele>
        <time>2022-08-14T06:03:23Z</time>
      </trkpt>
      <trkpt lat="43.23489" lon="5.67257">
        <ele>394.392273</ele>
        <time>2022-08-14T06:03:25Z</time>
      </trkpt>
      <trkpt lat="43.23494" lon="5.67269">
        <ele>394.700714</ele>
        <time>2022-08-14T06:03:27Z</time>
      </trkpt>
      <trkpt lat="43.23499" lon="5.67281">
        <ele>394.847382</ele>
        <time>2022-08-14T06:03:29Z</time>
      </trkpt>
      <trkpt lat="43.23503" lon="5.67294">
        <ele>395.124207</ele>
        <time>2022-08-14T06:03:31Z</time>
      </trkpt>
      <trkpt lat="43.23505" lon="5.67309">
        <ele>395.382355</ele>
        <time>2022-08-14T06:03:33Z</time>
      </trkpt>
      <trkpt lat="43.23509" lon="5.67323">
        <ele>395.502075</ele>
        <time>2022-08-14T06:03:35Z</time>
      </trkpt>
      <trkpt lat="43.23512" lon="5.67338">
        <ele>395.611694</ele>
        <time>2022-08-14T06:03:37Z</time>
      </trkpt>
      <trkpt lat="43.23514" lon="5.67353">
        <ele>395.800018</ele>
        <time>2022-08-14T06:03:39Z</time>
      </trkpt>
      <trkpt lat="43.23517" lon="5.67368">
        <ele>395.883331</ele>
        <time>2022-08-14T06:03:41Z</time>
      </trkpt>
      <trkpt lat="43.2352" lon="5.67381">
        <ele>396.034363</ele>
        <time>2022-08-14T06:03:43Z</time>
      </trkpt>
      <trkpt lat="43.23524" lon="5.67393">
        <ele>396.102264</ele>
        <time>2022-08-14T06:03:45Z</time>
      </trkpt>
      <trkpt lat="43.23526" lon="5.67406">
        <ele>396.22171</ele>
        <time>2022-08-14T06:03:47Z</time>
      </trkpt>
      <trkpt lat="43.23529" lon="5.67421">
        <ele>396.273315</ele>
        <time>2022-08-14T06:03:49Z</time>
      </trkpt>
      <trkpt lat="43.23533" lon="5.67434">
        <ele>396.318298</ele>
        <time>2022-08-14T06:03:51Z</time>
      </trkpt>
      <trkpt lat="43.23535" lon="5.67449">
        <ele>396.399628</ele>
        <time>2022-08-14T06:03:53Z</time>
      </trkpt>
      <trkpt lat="43.23538" lon="5.67464">
        <ele>396.434784</ele>
        <time>2022-08-14T06:03:55Z</time>
      </trkpt>
      <trkpt lat="43.23541" lon="5.67478">
        <ele>396.498413</ele>
        <time>2022-08-14T06:03:57Z</time>
      </trkpt>
      <trkpt lat="43.23543" lon="5.67492">
        <ele>396.568878</ele>
        <time>2022-08-14T06:03:59Z</time>
      </trkpt>
      <trkpt lat="43.23546" lon="5.67507">
        <ele>396.606873</ele>
        <time>2022-08-14T06:04:01Z</time>
      </trkpt>
      <trkpt lat="43.23548" lon="5.67522">
        <ele>396.693176</ele>
        <time>2022-08-14T06:04:03Z</time>
      </trkpt>
      <trkpt lat="43.2355" lon="5.67537">
        <ele>396.741425</ele>
        <time>2022-08-14T06:04:05Z</time>
      </trkpt>
      <trkpt lat="43.23553" lon="5.67553">
        <ele>396.793335</ele>
        <time>2022-08-14T06:04:07Z</time>
      </trkpt>
      <trkpt lat="43.23556" lon="5.67568">
        <ele>396.907776</ele>
        <time>2022-08-14T06:04:09Z</time>
      </trkpt>
      <trkpt lat="43.23559" lon="5.67583">
        <ele>396.970276</ele>
        <time>2022-08-14T06:04:11Z</time>
      </trkpt>
      <trkpt lat="43.23562" lon="5.67599">
        <ele>397.106659</ele>
        <time>2022-08-14T06:04:13Z</time>
      </trkpt>
      <trkpt lat="43.23564" lon="5.67615">
        <ele>397.181458</ele>
        <time>2022-08-14T06:04:15Z</time>
      </trkpt>
      <trkpt lat="43.23566" lon="5.67632">
        <ele>397.348022</ele>
        <time>2022-08-14T06:04:17Z</time>
      </trkpt>
      <trkpt lat="43.23567" lon="5.67648">
        <ele>397.442902</ele>
        <time>2022-08-14T06:04:19Z</time>
      </trkpt>
      <trkpt lat="43.23567" lon="5.67665">
        <ele>397.659698</ele>
        <time>2022-08-14T06:04:21Z</time>
      </trkpt>
      <trkpt lat="43.23569" lon="5.6768">
        <ele>397.781311</ele>
        <time>2022-08-14T06:04:23Z</time>
      </trkpt>
      <trkpt lat="43.2357" lon="5.67697">
        <ele>398.049347</ele>
        <time>2022-08-14T06:04:25Z</time>
      </trkpt>
      <trkpt lat="43.2357" lon="5.67714">
        <ele>398.19519</ele>
        <time>2022-08-14T06:04:27Z</time>
      </trkpt>
      <trkpt lat="43.23571" lon="5.6773">
        <ele>398.508484</ele>
        <time>2022-08-14T06:04:29Z</time>
      </trkpt>
      <trkpt lat="43.23571" lon="5.67747">
        <ele>398.675598</ele>
        <time>2022-08-14T06:04:31Z</time>
      </trkpt>
      <trkpt lat="43.23572" lon="5.67763">
        <ele>399.02829</ele>
        <time>2022-08-14T06:04:33Z</time>
      </trkpt>
      <trkpt lat="43.23573" lon="5.67779">
        <ele>399.213196</ele>
        <time>2022-08-14T06:04:35Z</time>
      </trkpt>
      <trkpt lat="43.23576" lon="5.67796">
        <ele>399.598999</ele>
        <time>2022-08-14T06:04:37Z</time>
      </trkpt>
      <trkpt lat="43.23579" lon="5.67814">
        <ele>399.799377</ele>
        <time>2022-08-14T06:04:39Z</time>
      </trkpt>
      <trkpt lat="43.23583" lon="5.67831">
        <ele>400.209534</ele>
        <time>2022-08-14T06:04:41Z</time>
      </trkpt>
      <trkpt lat="43.23587" lon="5.67848">
        <ele>400.417053</ele>
        <time>2022-08-14T06:04:43Z</time>
      </trkpt>
      <trkpt lat="43.23591" lon="5.67866">
        <ele>400.83194</ele>
        <time>2022-08-14T06:04:45Z</time>
      </trkpt>
      <trkpt lat="43.23595" lon="5.67884">
        <ele>401.037659</ele>
        <time>2022-08-14T06:04:47Z</time>
      </trkpt>
      <trkpt lat="43.236" lon="5.67901">
        <ele>401.438934</ele>
        <time>2022-08-14T06:04:49Z</time>
      </trkpt>
      <trkpt lat="43.23605" lon="5.67917">
        <ele>401.631256</ele>
        <time>2022-08-14T06:04:51Z</time>
      </trkpt>
      <trkpt lat="43.23611" lon="5.67932">
        <ele>401.989807</ele>
        <time>2022-08-14T06:04:53Z</time>
      </trkpt>
      <trkpt lat="43.23617" lon="5.67948">
        <ele>402.15332</ele>
        <time>2022-08-14T06:04:55Z</time>
      </trkpt>
      <trkpt lat="43.23623" lon="5.67964">
        <ele>402.444153</ele>
        <time>2022-08-14T06:04:57Z</time>
      </trkpt>
      <trkpt lat="43.23629" lon="5.67981">
        <ele>402.680664</ele>
        <time>2022-08-14T06:04:59Z</time>
      </trkpt>
      <trkpt lat="43.23636" lon="5.67996">
        <ele>402.776703</ele>
        <time>2022-08-14T06:05:01Z</time>
      </trkpt>
      <trkpt lat="43.23642" lon="5.68012">
        <ele>402.857666</ele>
        <time>2022-08-14T06:05:03Z</time>
      </trkpt>
      <trkpt lat="43.23649" lon="5.68027">
        <ele>402.923584</ele>
        <time>2022-08-14T06:05:05Z</time>
      </trkpt>
      <trkpt lat="43.23655" lon="5.68041">
        <ele>403.008942</ele>
        <time>2022-08-14T06:05:07Z</time>
      </trkpt>
      <trkpt lat="43.23661" lon="5.68056">
        <ele>403.027222</ele>
        <time>2022-08-14T06:05:09Z</time>
      </trkpt>
      <trkpt lat="43.23668" lon="5.6807">
        <ele>403.011932</ele>
        <time>2022-08-14T06:05:11Z</time>
      </trkpt>
      <trkpt lat="43.23674" lon="5.68084">
        <ele>402.978088</ele>
        <time>2022-08-14T06:05:13Z</time>
      </trkpt>
      <trkpt lat="43.2368" lon="5.68098">
        <ele>402.858765</ele>
        <time>2022-08-14T06:05:15Z</time>
      </trkpt>
      <trkpt lat="43.23686" lon="5.68112">
        <ele>402.774384</ele>
        <time>2022-08-14T06:05:17Z</time>
      </trkpt>
      <trkpt lat="43.23692" lon="5.68125">
        <ele>402.562683</ele>
        <time>2022-08-14T06:05:19Z</time>
      </trkpt>
      <trkpt lat="43.23697" lon="5.68138">
        <ele>402.438782</ele>
        <time>2022-08-14T06:05:21Z</time>
      </trkpt>
      <trkpt lat="43.23703" lon="5.68151">
        <ele>402.162598</ele>
        <time>2022-08-14T06:05:23Z</time>
      </trkpt>
      <trkpt lat="43.23709" lon="5.68163">
        <ele>402.01236</ele>
        <time>2022-08-14T06:05:25Z</time>
      </trkpt>
      <trkpt lat="43.23715" lon="5.68175">
        <ele>401.691742</ele>
        <time>2022-08-14T06:05:27Z</time>
      </trkpt>
      <trkpt lat="43.23721" lon="5.68187">
        <ele>401.522522</ele>
        <time>2022-08-14T06:05:29Z</time>
      </trkpt>
      <trkpt lat="43.23726" lon="5.68199">
        <ele>401.168579</ele>
        <time>2022-08-14T06:05:31Z</time>
      </trkpt>
      <trkpt lat="43.23731" lon="5.6821">
        <ele>400.985352</ele>
        <time>2022-08-14T06:05:33Z</time>
      </trkpt>
      <trkpt lat="43.23736" lon="5.68222">
        <ele>400.612274</ele>
        <time>2022-08-14T06:05:35Z</time>
      </trkpt>
      <trkpt lat="43.2374" lon="5.68234">
        <ele>400.424683</ele>
        <time>2022-08-14T06:05:37Z</time>
      </trkpt>
      <trkpt lat="43.23744" lon="5.68246">
        <ele>400.051636</ele>
        <time>2022-08-14T06:05:39Z</time>
      </trkpt>
      <trkpt lat="43.23748" lon="5.68259">
        <ele>399.86795</ele>
        <time>2022-08-14T06:05:41Z</time>
      </trkpt>
      <trkpt lat="43.23752" lon="5.68271">
        <ele>399.687317</ele>
        <time>2022-08-14T06:05:43Z</time>
      </trkpt>
      <trkpt lat="43.23755" lon="5.68284">
        <ele>399.338745</ele>
        <time>2022-08-14T06:05:45Z</time>
      </trkpt>
      <trkpt lat="43.23758" lon="5.68296">
        <ele>399.172638</ele>
        <time>2022-08-14T06:05:47Z</time>
      </trkpt>
      <trkpt lat="43.23761" lon="5.68308">
        <ele>399.013153</ele>
        <time>2022-08-14T06:05:49Z</time>
      </trkpt>
      <trkpt lat="43.23765" lon="5.6832">
        <ele>398.71756</ele>
        <time>2022-08-14T06:05:51Z</time>
      </trkpt>
      <trkpt lat="43.23769" lon="5.68333">
        <ele>398.583557</ele>
        <time>2022-08-14T06:05:53Z</time>
      </trkpt>
      <trkpt lat="43.23772" lon="5.68346">
        <ele>398.46051</ele>
        <time>2022-08-14T06:05:55Z</time>
      </trkpt>
      <trkpt lat="43.23776" lon="5.68359">
        <ele>398.25119</ele>
        <time>2022-08-14T06:05:57Z</time>
      </trkpt>
      <trkpt lat="43.23779" lon="5.68373">
        <ele>398.165558</ele>
        <time>2022-08-14T06:05:59Z</time>
      </trkpt>
      <trkpt lat="43.23782" lon="5.68386">
        <ele>398.031525</ele>
        <time>2022-08-14T06:06:01Z</time>
      </trkpt>
      <trkpt lat="43.23785" lon="5.68399">
        <ele>397.983429</ele>
        <time>2022-08-14T06:06:03Z</time>
      </trkpt>
      <trkpt lat="43.23789" lon="5.68411">
        <ele>397.948547</ele>
        <time>2022-08-14T06:06:05Z</time>
      </trkpt>
      <trkpt lat="43.23792" lon="5.68425">
        <ele>397.919891</ele>
        <time>2022-08-14T06:06:07Z</time>
      </trkpt>
      <trkpt lat="43.23795" lon="5.68438">
        <ele>397.926239</ele>
        <time>2022-08-14T06:06:09Z</time>
      </trkpt>
      <trkpt lat="43.23799" lon="5.68451">
        <ele>397.980682</ele>
        <time>2022-08-14T06:06:11Z</time>
      </trkpt>
      <trkpt lat="43.23803" lon="5.68463">
        <ele>398.028351</ele>
        <time>2022-08-14T06:06:13Z</time>
      </trkpt>
      <trkpt lat="43.23807" lon="5.68475">
        <ele>398.088501</ele>
        <time>2022-08-14T06:06:15Z</time>
      </trkpt>
      <trkpt lat="43.23811" lon="5.68489">
        <ele>398.240784</ele>
        <time>2022-08-14T06:06:17Z</time>
      </trkpt>
      <trkpt lat="43.23814" lon="5.68502">
        <ele>398.329895</ele>
        <time>2022-08-14T06:06:19Z</time>
      </trkpt>
      <trkpt lat="43.23818" lon="5.68514">
        <ele>398.529236</ele>
        <time>2022-08-14T06:06:21Z</time>
      </trkpt>
      <trkpt lat="43.23822" lon="5.68527">
        <ele>398.63797</ele>
        <time>2022-08-14T06:06:23Z</time>
      </trkpt>
      <trkpt lat="43.23826" lon="5.6854">
        <ele>398.752136</ele>
        <time>2022-08-14T06:06:25Z</time>
      </trkpt>
      <trkpt lat="43.23829" lon="5.68553">
        <ele>398.995178</ele>
        <time>2022-08-14T06:06:27Z</time>
      </trkpt>
      <trkpt lat="43.23832" lon="5.68567">
        <ele>399.123596</ele>
        <time>2022-08-14T06:06:29Z</time>
      </trkpt>
      <trkpt lat="43.23836" lon="5.6858">
        <ele>399.392883</ele>
        <time>2022-08-14T06:06:31Z</time>
      </trkpt>
      <trkpt lat="43.23838" lon="5.68595">
        <ele>399.533844</ele>
        <time>2022-08-14T06:06:33Z</time>
      </trkpt>
      <trkpt lat="43.23842" lon="5.68608">
        <ele>399.679016</ele>
        <time>2022-08-14T06:06:35Z</time>
      </trkpt>
      <trkpt lat="43.23845" lon="5.6862">
        <ele>399.982849</ele>
        <time>2022-08-14T06:06:37Z</time>
      </trkpt>
      <trkpt lat="43.23848" lon="5.68633">
        <ele>400.304932</ele>
        <time>2022-08-14T06:06:39Z</time>
      </trkpt>
      <trkpt lat="43.23852" lon="5.68646">
        <ele>400.473083</ele>
        <time>2022-08-14T06:06:41Z</time>
      </trkpt>
      <trkpt lat="43.23856" lon="5.68658">
        <ele>400.823639</ele>
        <time>2022-08-14T06:06:43Z</time>
      </trkpt>
      <trkpt lat="43.2386" lon="5.6867">
        <ele>401.005859</ele>
        <time>2022-08-14T06:06:45Z</time>
      </trkpt>
      <trkpt lat="43.23866" lon="5.68681">
        <ele>401.192535</ele>
        <time>2022-08-14T06:06:47Z</time>
      </trkpt>
      <trkpt lat="43.23872" lon="5.6869">
        <ele>401.578857</ele>
        <time>2022-08-14T06:06:49Z</time>
      </trkpt>
      <trkpt lat="43.23878" lon="5.68699">
        <ele>401.982178</ele>
        <time>2022-08-14T06:06:51Z</time>
      </trkpt>
      <trkpt lat="43.23885" lon="5.68708">
        <ele>402.190765</ele>
        <time>2022-08-14T06:06:53Z</time>
      </trkpt>
      <trkpt lat="43.23892" lon="5.68716">
        <ele>402.40448</ele>
        <time>2022-08-14T06:06:55Z</time>
      </trkpt>
      <trkpt lat="43.239" lon="5.68725">
        <ele>402.850342</ele>
        <time>2022-08-14T06:06:57Z</time>
      </trkpt>
      <trkpt lat="43.23906" lon="5.68734">
        <ele>403.083649</ele>
        <time>2022-08-14T06:06:59Z</time>
      </trkpt>
      <trkpt lat="43.23913" lon="5.68742">
        <ele>403.572571</ele>
        <time>2022-08-14T06:07:01Z</time>
      </trkpt>
      <trkpt lat="43.2392" lon="5.68751">
        <ele>403.828522</ele>
        <time>2022-08-14T06:07:03Z</time>
      </trkpt>
      <trkpt lat="43.23927" lon="5.6876">
        <ele>404.361328</ele>
        <time>2022-08-14T06:07:05Z</time>
      </trkpt>
      <trkpt lat="43.23934" lon="5.68769">
        <ele>404.637024</ele>
        <time>2022-08-14T06:07:07Z</time>
      </trkpt>
      <trkpt lat="43.23941" lon="5.68777">
        <ele>405.202637</ele>
        <time>2022-08-14T06:07:09Z</time>
      </trkpt>
      <trkpt lat="43.23948" lon="5.68786">
        <ele>405.491058</ele>
        <time>2022-08-14T06:07:11Z</time>
      </trkpt>
      <trkpt lat="43.23954" lon="5.68796">
        <ele>406.075134</ele>
        <time>2022-08-14T06:07:13Z</time>
      </trkpt>
      <trkpt lat="43.23961" lon="5.68806">
        <ele>406.36908</ele>
        <time>2022-08-14T06:07:15Z</time>
      </trkpt>
      <trkpt lat="43.23967" lon="5.68818">
        <ele>406.956604</ele>
        <time>2022-08-14T06:07:17Z</time>
      </trkpt>
      <trkpt lat="43.23973" lon="5.68831">
        <ele>407.248596</ele>
        <time>2022-08-14T06:07:19Z</time>
      </trkpt>
      <trkpt lat="43.23978" lon="5.68844">
        <ele>407.82608</ele>
        <time>2022-08-14T06:07:21Z</time>
      </trkpt>
      <trkpt lat="43.23983" lon="5.68858">
        <ele>408.110626</ele>
        <time>2022-08-14T06:07:23Z</time>
      </trkpt>
      <trkpt lat="43.23986" lon="5.68872">
        <ele>408.670105</ele>
        <time>2022-08-14T06:07:25Z</time>
      </trkpt>
      <trkpt lat="43.2399" lon="5.68886">
        <ele>408.944397</ele>
        <time>2022-08-14T06:07:27Z</time>
      </trkpt>
      <trkpt lat="43.23992" lon="5.689">
        <ele>409.481415</ele>
        <time>2022-08-14T06:07:29Z</time>
      </trkpt>
      <trkpt lat="43.23995" lon="5.68913">
        <ele>409.743805</ele>
        <time>2022-08-14T06:07:31Z</time>
      </trkpt>
      <trkpt lat="43.23997" lon="5.68927">
        <ele>410.256439</ele>
        <time>2022-08-14T06:07:33Z</time>
      </trkpt>
      <trkpt lat="43.24" lon="5.6894">
        <ele>410.506287</ele>
        <time>2022-08-14T06:07:35Z</time>
      </trkpt>
      <trkpt lat="43.24003" lon="5.68953">
        <ele>410.751648</ele>
        <time>2022-08-14T06:07:37Z</time>
      </trkpt>
      <trkpt lat="43.24005" lon="5.68966">
        <ele>411.227539</ele>
        <time>2022-08-14T06:07:39Z</time>
      </trkpt>
      <trkpt lat="43.24007" lon="5.68979">
        <ele>411.457458</ele>
        <time>2022-08-14T06:07:41Z</time>
      </trkpt>
      <trkpt lat="43.24009" lon="5.68991">
        <ele>411.681946</ele>
        <time>2022-08-14T06:07:43Z</time>
      </trkpt>
      <trkpt lat="43.24012" lon="5.69004">
        <ele>412.114319</ele>
        <time>2022-08-14T06:07:45Z</time>
      </trkpt>
      <trkpt lat="43.24014" lon="5.69016">
        <ele>412.322571</ele>
        <time>2022-08-14T06:07:47Z</time>
      </trkpt>
      <trkpt lat="43.24017" lon="5.69029">
        <ele>412.723083</ele>
        <time>2022-08-14T06:07:49Z</time>
      </trkpt>
      <trkpt lat="43.24019" lon="5.69042">
        <ele>412.915344</ele>
        <time>2022-08-14T06:07:51Z</time>
      </trkpt>
      <trkpt lat="43.24021" lon="5.69053">
        <ele>413.101624</ele>
        <time>2022-08-14T06:07:53Z</time>
      </trkpt>
      <trkpt lat="43.24024" lon="5.69065">
        <ele>413.453766</ele>
        <time>2022-08-14T06:07:55Z</time>
      </trkpt>
      <trkpt lat="43.24026" lon="5.69078">
        <ele>413.618317</ele>
        <time>2022-08-14T06:07:57Z</time>
      </trkpt>
      <trkpt lat="43.24028" lon="5.6909">
        <ele>413.922302</ele>
        <time>2022-08-14T06:07:59Z</time>
      </trkpt>
      <trkpt lat="43.24031" lon="5.69102">
        <ele>414.061523</ele>
        <time>2022-08-14T06:08:01Z</time>
      </trkpt>
      <trkpt lat="43.24034" lon="5.69115">
        <ele>414.314758</ele>
        <time>2022-08-14T06:08:03Z</time>
      </trkpt>
      <trkpt lat="43.24036" lon="5.69129">
        <ele>414.429047</ele>
        <time>2022-08-14T06:08:05Z</time>
      </trkpt>
      <trkpt lat="43.24038" lon="5.69142">
        <ele>414.634033</ele>
        <time>2022-08-14T06:08:07Z</time>
      </trkpt>
      <trkpt lat="43.24041" lon="5.69155">
        <ele>414.725433</ele>
        <time>2022-08-14T06:08:09Z</time>
      </trkpt>
      <trkpt lat="43.24044" lon="5.69168">
        <ele>414.888977</ele>
        <time>2022-08-14T06:08:11Z</time>
      </trkpt>
      <trkpt lat="43.24046" lon="5.69182">
        <ele>414.962738</ele>
        <time>2022-08-14T06:08:13Z</time>
      </trkpt>
      <trkpt lat="43.24049" lon="5.69196">
        <ele>415.09848</ele>
        <time>2022-08-14T06:08:15Z</time>
      </trkpt>
      <trkpt lat="43.24052" lon="5.69209">
        <ele>415.161682</ele>
        <time>2022-08-14T06:08:17Z</time>
      </trkpt>
      <trkpt lat="43.24055" lon="5.69222">
        <ele>415.281067</ele>
        <time>2022-08-14T06:08:19Z</time>
      </trkpt>
      <trkpt lat="43.24057" lon="5.69235">
        <ele>415.33783</ele>
        <time>2022-08-14T06:08:21Z</time>
      </trkpt>
      <trkpt lat="43.2406" lon="5.69249">
        <ele>415.447174</ele>
        <time>2022-08-14T06:08:23Z</time>
      </trkpt>
      <trkpt lat="43.24064" lon="5.69263">
        <ele>415.499817</ele>
        <time>2022-08-14T06:08:25Z</time>
      </trkpt>
      <trkpt lat="43.24067" lon="5.69276">
        <ele>415.602722</ele>
        <time>2022-08-14T06:08:27Z</time>
      </trkpt>
      <trkpt lat="43.24071" lon="5.69289">
        <ele>415.653259</ele>
        <time>2022-08-14T06:08:29Z</time>
      </trkpt>
      <trkpt lat="43.24075" lon="5.69303">
        <ele>415.752869</ele>
        <time>2022-08-14T06:08:31Z</time>
      </trkpt>
      <trkpt lat="43.2408" lon="5.69315">
        <ele>415.851746</ele>
        <time>2022-08-14T06:08:33Z</time>
      </trkpt>
      <trkpt lat="43.24085" lon="5.69328">
        <ele>415.901794</ele>
        <time>2022-08-14T06:08:35Z</time>
      </trkpt>
      <trkpt lat="43.24089" lon="5.6934">
        <ele>415.952942</ele>
        <time>2022-08-14T06:08:37Z</time>
      </trkpt>
      <trkpt lat="43.24094" lon="5.69354">
        <ele>416.059418</ele>
        <time>2022-08-14T06:08:39Z</time>
      </trkpt>
      <trkpt lat="43.24099" lon="5.69367">
        <ele>416.171875</ele>
        <time>2022-08-14T06:08:41Z</time>
      </trkpt>
      <trkpt lat="43.24104" lon="5.6938">
        <ele>416.230286</ele>
        <time>2022-08-14T06:08:43Z</time>
      </trkpt>
      <trkpt lat="43.24109" lon="5.69393">
        <ele>416.351563</ele>
        <time>2022-08-14T06:08:45Z</time>
      </trkpt>
      <trkpt lat="43.24114" lon="5.69408">
        <ele>416.415283</ele>
        <time>2022-08-14T06:08:47Z</time>
      </trkpt>
      <trkpt lat="43.24118" lon="5.69423">
        <ele>416.55127</ele>
        <time>2022-08-14T06:08:49Z</time>
      </trkpt>
      <trkpt lat="43.24119" lon="5.69439">
        <ele>416.62442</ele>
        <time>2022-08-14T06:08:51Z</time>
      </trkpt>
      <trkpt lat="43.24119" lon="5.69456">
        <ele>416.781799</ele>
        <time>2022-08-14T06:08:53Z</time>
      </trkpt>
      <trkpt lat="43.24119" lon="5.69471">
        <ele>416.865784</ele>
        <time>2022-08-14T06:08:55Z</time>
      </trkpt>
      <trkpt lat="43.24119" lon="5.69488">
        <ele>416.952942</ele>
        <time>2022-08-14T06:08:57Z</time>
      </trkpt>
      <trkpt lat="43.24119" lon="5.69505">
        <ele>417.136536</ele>
        <time>2022-08-14T06:08:59Z</time>
      </trkpt>
      <trkpt lat="43.24119" lon="5.69523">
        <ele>417.233002</ele>
        <time>2022-08-14T06:09:01Z</time>
      </trkpt>
      <trkpt lat="43.24118" lon="5.69541">
        <ele>417.435211</ele>
        <time>2022-08-14T06:09:03Z</time>
      </trkpt>
      <trkpt lat="43.24118" lon="5.6956">
        <ele>417.540436</ele>
        <time>2022-08-14T06:09:05Z</time>
      </trkpt>
      <trkpt lat="43.24118" lon="5.69581">
        <ele>417.757507</ele>
        <time>2022-08-14T06:09:07Z</time>
      </trkpt>
      <trkpt lat="43.24117" lon="5.69603">
        <ele>417.868591</ele>
        <time>2022-08-14T06:09:09Z</time>
      </trkpt>
      <trkpt lat="43.24115" lon="5.69626">
        <ele>417.980713</ele>
        <time>2022-08-14T06:09:11Z</time>
      </trkpt>
      <trkpt lat="43.24114" lon="5.6965">
        <ele>418.205658</ele>
        <time>2022-08-14T06:09:13Z</time>
      </trkpt>
      <trkpt lat="43.24113" lon="5.69673">
        <ele>418.317444</ele>
        <time>2022-08-14T06:09:15Z</time>
      </trkpt>
      <trkpt lat="43.24112" lon="5.69696">
        <ele>418.535889</ele>
        <time>2022-08-14T06:09:17Z</time>
      </trkpt>
      <trkpt lat="43.24111" lon="5.69719">
        <ele>418.640961</ele>
        <time>2022-08-14T06:09:19Z</time>
      </trkpt>
      <trkpt lat="43.2411" lon="5.69741">
        <ele>418.836578</ele>
        <time>2022-08-14T06:09:21Z</time>
      </trkpt>
      <trkpt lat="43.24109" lon="5.69763">
        <ele>418.925385</ele>
        <time>2022-08-14T06:09:23Z</time>
      </trkpt>
      <trkpt lat="43.24108" lon="5.69784">
        <ele>419.082855</ele>
        <time>2022-08-14T06:09:25Z</time>
      </trkpt>
      <trkpt lat="43.24108" lon="5.69804">
        <ele>419.151367</ele>
        <time>2022-08-14T06:09:27Z</time>
      </trkpt>
      <trkpt lat="43.24109" lon="5.69825">
        <ele>419.266357</ele>
        <time>2022-08-14T06:09:29Z</time>
      </trkpt>
      <trkpt lat="43.24111" lon="5.69846">
        <ele>419.311432</ele>
        <time>2022-08-14T06:09:31Z</time>
      </trkpt>
      <trkpt lat="43.24115" lon="5.69866">
        <ele>419.371918</ele>
        <time>2022-08-14T06:09:33Z</time>
      </trkpt>
      <trkpt lat="43.24119" lon="5.69887">
        <ele>419.385986</ele>
        <time>2022-08-14T06:09:35Z</time>
      </trkpt>
      <trkpt lat="43.24123" lon="5.69908">
        <ele>419.379242</ele>
        <time>2022-08-14T06:09:37Z</time>
      </trkpt>
      <trkpt lat="43.24127" lon="5.69929">
        <ele>419.357971</ele>
        <time>2022-08-14T06:09:39Z</time>
      </trkpt>
      <trkpt lat="43.24131" lon="5.69951">
        <ele>419.278412</ele>
        <time>2022-08-14T06:09:41Z</time>
      </trkpt>
      <trkpt lat="43.24134" lon="5.69972">
        <ele>419.21991</ele>
        <time>2022-08-14T06:09:43Z</time>
      </trkpt>
      <trkpt lat="43.24139" lon="5.69993">
        <ele>419.064148</ele>
        <time>2022-08-14T06:09:45Z</time>
      </trkpt>
      <trkpt lat="43.24143" lon="5.70013">
        <ele>418.966461</ele>
        <time>2022-08-14T06:09:47Z</time>
      </trkpt>
      <trkpt lat="43.24147" lon="5.70033">
        <ele>418.729889</ele>
        <time>2022-08-14T06:09:49Z</time>
      </trkpt>
      <trkpt lat="43.2415" lon="5.70054">
        <ele>418.438049</ele>
        <time>2022-08-14T06:09:51Z</time>
      </trkpt>
      <trkpt lat="43.24154" lon="5.70073">
        <ele>418.271576</ele>
        <time>2022-08-14T06:09:53Z</time>
      </trkpt>
      <trkpt lat="43.24156" lon="5.70093">
        <ele>417.898254</ele>
        <time>2022-08-14T06:09:55Z</time>
      </trkpt>
      <trkpt lat="43.24157" lon="5.70113">
        <ele>417.691254</ele>
        <time>2022-08-14T06:09:57Z</time>
      </trkpt>
      <trkpt lat="43.24159" lon="5.70133">
        <ele>417.470612</ele>
        <time>2022-08-14T06:09:59Z</time>
      </trkpt>
      <trkpt lat="43.24159" lon="5.70153">
        <ele>416.98761</ele>
        <time>2022-08-14T06:10:01Z</time>
      </trkpt>
      <trkpt lat="43.2416" lon="5.70175">
        <ele>416.725494</ele>
        <time>2022-08-14T06:10:03Z</time>
      </trkpt>
      <trkpt lat="43.2416" lon="5.70197">
        <ele>416.166565</ele>
        <time>2022-08-14T06:10:05Z</time>
      </trkpt>
      <trkpt lat="43.2416" lon="5.70218">
        <ele>415.870941</ele>
        <time>2022-08-14T06:10:07Z</time>
      </trkpt>
      <trkpt lat="43.24161" lon="5.70242">
        <ele>415.24707</ele>
        <time>2022-08-14T06:10:09Z</time>
      </trkpt>
      <trkpt lat="43.24162" lon="5.70265">
        <ele>414.921234</ele>
        <time>2022-08-14T06:10:11Z</time>
      </trkpt>
      <trkpt lat="43.24162" lon="5.70288">
        <ele>414.251312</ele>
        <time>2022-08-14T06:10:13Z</time>
      </trkpt>
      <trkpt lat="43.24162" lon="5.70311">
        <ele>413.911621</ele>
        <time>2022-08-14T06:10:15Z</time>
      </trkpt>
      <trkpt lat="43.24163" lon="5.70333">
        <ele>413.571289</ele>
        <time>2022-08-14T06:10:17Z</time>
      </trkpt>
      <trkpt lat="43.24163" lon="5.70356">
        <ele>412.895325</ele>
        <time>2022-08-14T06:10:19Z</time>
      </trkpt>
      <trkpt lat="43.24164" lon="5.70376">
        <ele>412.236084</ele>
        <time>2022-08-14T06:10:21Z</time>
      </trkpt>
      <trkpt lat="43.24165" lon="5.70395">
        <ele>411.916168</ele>
        <time>2022-08-14T06:10:23Z</time>
      </trkpt>
      <trkpt lat="43.24167" lon="5.70414">
        <ele>411.604156</ele>
        <time>2022-08-14T06:10:25Z</time>
      </trkpt>
      <trkpt lat="43.24167" lon="5.70433">
        <ele>411.007141</ele>
        <time>2022-08-14T06:10:27Z</time>
      </trkpt>
      <trkpt lat="43.24167" lon="5.70452">
        <ele>410.446838</ele>
        <time>2022-08-14T06:10:29Z</time>
      </trkpt>
      <trkpt lat="43.24165" lon="5.70477">
        <ele>409.922455</ele>
        <time>2022-08-14T06:10:32Z</time>
      </trkpt>
      <trkpt lat="43.24163" lon="5.70492">
        <ele>409.673645</ele>
        <time>2022-08-14T06:10:34Z</time>
      </trkpt>
      <trkpt lat="43.24162" lon="5.70507">
        <ele>409.203308</ele>
        <time>2022-08-14T06:10:36Z</time>
      </trkpt>
      <trkpt lat="43.2416" lon="5.70522">
        <ele>408.982117</ele>
        <time>2022-08-14T06:10:38Z</time>
      </trkpt>
      <trkpt lat="43.24159" lon="5.70536">
        <ele>408.568665</ele>
        <time>2022-08-14T06:10:40Z</time>
      </trkpt>
      <trkpt lat="43.24159" lon="5.7055">
        <ele>408.377228</ele>
        <time>2022-08-14T06:10:42Z</time>
      </trkpt>
      <trkpt lat="43.24159" lon="5.70563">
        <ele>408.027649</ele>
        <time>2022-08-14T06:10:44Z</time>
      </trkpt>
      <trkpt lat="43.24159" lon="5.70577">
        <ele>407.871033</ele>
        <time>2022-08-14T06:10:46Z</time>
      </trkpt>
      <trkpt lat="43.24159" lon="5.7059">
        <ele>407.596893</ele>
        <time>2022-08-14T06:10:48Z</time>
      </trkpt>
      <trkpt lat="43.24161" lon="5.70602">
        <ele>407.480286</ele>
        <time>2022-08-14T06:10:50Z</time>
      </trkpt>
      <trkpt lat="43.24163" lon="5.70614">
        <ele>407.290009</ele>
        <time>2022-08-14T06:10:52Z</time>
      </trkpt>
      <trkpt lat="43.24165" lon="5.70627">
        <ele>407.21698</ele>
        <time>2022-08-14T06:10:54Z</time>
      </trkpt>
      <trkpt lat="43.24169" lon="5.70639">
        <ele>407.11618</ele>
        <time>2022-08-14T06:10:56Z</time>
      </trkpt>
      <trkpt lat="43.24172" lon="5.70651">
        <ele>407.088165</ele>
        <time>2022-08-14T06:10:58Z</time>
      </trkpt>
      <trkpt lat="43.24176" lon="5.70664">
        <ele>407.068787</ele>
        <time>2022-08-14T06:11:00Z</time>
      </trkpt>
      <trkpt lat="43.2418" lon="5.70675">
        <ele>407.080933</ele>
        <time>2022-08-14T06:11:02Z</time>
      </trkpt>
      <trkpt lat="43.24183" lon="5.70689">
        <ele>407.147308</ele>
        <time>2022-08-14T06:11:04Z</time>
      </trkpt>
      <trkpt lat="43.24186" lon="5.70701">
        <ele>407.200378</ele>
        <time>2022-08-14T06:11:06Z</time>
      </trkpt>
      <trkpt lat="43.24189" lon="5.70714">
        <ele>407.265869</ele>
        <time>2022-08-14T06:11:08Z</time>
      </trkpt>
      <trkpt lat="43.24192" lon="5.70726">
        <ele>407.430817</ele>
        <time>2022-08-14T06:11:10Z</time>
      </trkpt>
      <trkpt lat="43.24194" lon="5.70739">
        <ele>407.528259</ele>
        <time>2022-08-14T06:11:12Z</time>
      </trkpt>
      <trkpt lat="43.24197" lon="5.70753">
        <ele>407.746826</ele>
        <time>2022-08-14T06:11:14Z</time>
      </trkpt>
      <trkpt lat="43.242" lon="5.70767">
        <ele>407.865967</ele>
        <time>2022-08-14T06:11:16Z</time>
      </trkpt>
      <trkpt lat="43.24202" lon="5.70781">
        <ele>407.991119</ele>
        <time>2022-08-14T06:11:18Z</time>
      </trkpt>
      <trkpt lat="43.24205" lon="5.70795">
        <ele>408.259583</ele>
        <time>2022-08-14T06:11:20Z</time>
      </trkpt>
      <trkpt lat="43.24208" lon="5.70809">
        <ele>408.554352</ele>
        <time>2022-08-14T06:11:22Z</time>
      </trkpt>
      <trkpt lat="43.2421" lon="5.70823">
        <ele>408.713135</ele>
        <time>2022-08-14T06:11:24Z</time>
      </trkpt>
      <trkpt lat="43.24211" lon="5.70838">
        <ele>409.056152</ele>
        <time>2022-08-14T06:11:26Z</time>
      </trkpt>
      <trkpt lat="43.24212" lon="5.70854">
        <ele>409.241699</ele>
        <time>2022-08-14T06:11:28Z</time>
      </trkpt>
      <trkpt lat="43.24212" lon="5.70868">
        <ele>409.643066</ele>
        <time>2022-08-14T06:11:30Z</time>
      </trkpt>
      <trkpt lat="43.24212" lon="5.70883">
        <ele>409.859619</ele>
        <time>2022-08-14T06:11:32Z</time>
      </trkpt>
      <trkpt lat="43.24213" lon="5.70896">
        <ele>410.323975</ele>
        <time>2022-08-14T06:11:34Z</time>
      </trkpt>
      <trkpt lat="43.24215" lon="5.70909">
        <ele>410.56778</ele>
        <time>2022-08-14T06:11:36Z</time>
      </trkpt>
      <trkpt lat="43.24218" lon="5.70922">
        <ele>411.07428</ele>
        <time>2022-08-14T06:11:38Z</time>
      </trkpt>
      <trkpt lat="43.24222" lon="5.70933">
        <ele>411.604889</ele>
        <time>2022-08-14T06:11:40Z</time>
      </trkpt>
      <trkpt lat="43.24226" lon="5.70945">
        <ele>412.160736</ele>
        <time>2022-08-14T06:11:42Z</time>
      </trkpt>
      <trkpt lat="43.24231" lon="5.70957">
        <ele>412.756165</ele>
        <time>2022-08-14T06:11:44Z</time>
      </trkpt>
      <trkpt lat="43.24236" lon="5.70968">
        <ele>413.073639</ele>
        <time>2022-08-14T06:11:46Z</time>
      </trkpt>
      <trkpt lat="43.24241" lon="5.70979">
        <ele>413.766113</ele>
        <time>2022-08-14T06:11:48Z</time>
      </trkpt>
      <trkpt lat="43.24246" lon="5.7099">
        <ele>414.144714</ele>
        <time>2022-08-14T06:11:50Z</time>
      </trkpt>
      <trkpt lat="43.2425" lon="5.71001">
        <ele>414.968262</ele>
        <time>2022-08-14T06:11:52Z</time>
      </trkpt>
      <trkpt lat="43.24254" lon="5.71013">
        <ele>415.413147</ele>
        <time>2022-08-14T06:11:54Z</time>
      </trkpt>
      <trkpt lat="43.24258" lon="5.71025">
        <ele>415.882172</ele>
        <time>2022-08-14T06:11:56Z</time>
      </trkpt>
      <trkpt lat="43.24262" lon="5.71038">
        <ele>416.864258</ele>
        <time>2022-08-14T06:11:58Z</time>
      </trkpt>
      <trkpt lat="43.24265" lon="5.7105">
        <ele>417.921387</ele>
        <time>2022-08-14T06:12:00Z</time>
      </trkpt>
      <trkpt lat="43.24268" lon="5.71064">
        <ele>419.030945</ele>
        <time>2022-08-14T06:12:02Z</time>
      </trkpt>
      <trkpt lat="43.2427" lon="5.71077">
        <ele>419.612976</ele>
        <time>2022-08-14T06:12:04Z</time>
      </trkpt>
      <trkpt lat="43.24271" lon="5.71093">
        <ele>420.808533</ele>
        <time>2022-08-14T06:12:06Z</time>
      </trkpt>
      <trkpt lat="43.24272" lon="5.71109">
        <ele>421.427673</ele>
        <time>2022-08-14T06:12:08Z</time>
      </trkpt>
      <trkpt lat="43.24273" lon="5.71126">
        <ele>422.685455</ele>
        <time>2022-08-14T06:12:10Z</time>
      </trkpt>
      <trkpt lat="43.24273" lon="5.71143">
        <ele>423.976013</ele>
        <time>2022-08-14T06:12:12Z</time>
      </trkpt>
      <trkpt lat="43.24274" lon="5.7116">
        <ele>424.632019</ele>
        <time>2022-08-14T06:12:14Z</time>
      </trkpt>
      <trkpt lat="43.24273" lon="5.71178">
        <ele>425.948425</ele>
        <time>2022-08-14T06:12:16Z</time>
      </trkpt>
      <trkpt lat="43.24272" lon="5.71195">
        <ele>427.264496</ele>
        <time>2022-08-14T06:12:18Z</time>
      </trkpt>
      <trkpt lat="43.24272" lon="5.71211">
        <ele>428.57196</ele>
        <time>2022-08-14T06:12:20Z</time>
      </trkpt>
      <trkpt lat="43.24271" lon="5.71227">
        <ele>429.864563</ele>
        <time>2022-08-14T06:12:22Z</time>
      </trkpt>
      <trkpt lat="43.2427" lon="5.71242">
        <ele>430.507385</ele>
        <time>2022-08-14T06:12:24Z</time>
      </trkpt>
      <trkpt lat="43.2427" lon="5.71255">
        <ele>431.786316</ele>
        <time>2022-08-14T06:12:26Z</time>
      </trkpt>
      <trkpt lat="43.2427" lon="5.71271">
        <ele>433.051666</ele>
        <time>2022-08-14T06:12:28Z</time>
      </trkpt>
      <trkpt lat="43.24269" lon="5.71286">
        <ele>434.295654</ele>
        <time>2022-08-14T06:12:30Z</time>
      </trkpt>
      <trkpt lat="43.2427" lon="5.713">
        <ele>434.906189</ele>
        <time>2022-08-14T06:12:32Z</time>
      </trkpt>
      <trkpt lat="43.24271" lon="5.71315">
        <ele>436.087219</ele>
        <time>2022-08-14T06:12:34Z</time>
      </trkpt>
      <trkpt lat="43.24273" lon="5.71331">
        <ele>436.651855</ele>
        <time>2022-08-14T06:12:36Z</time>
      </trkpt>
      <trkpt lat="43.24274" lon="5.71347">
        <ele>437.728333</ele>
        <time>2022-08-14T06:12:38Z</time>
      </trkpt>
      <trkpt lat="43.24278" lon="5.71361">
        <ele>438.229401</ele>
        <time>2022-08-14T06:12:40Z</time>
      </trkpt>
      <trkpt lat="43.2428" lon="5.71377">
        <ele>439.178406</ele>
        <time>2022-08-14T06:12:42Z</time>
      </trkpt>
      <trkpt lat="43.24283" lon="5.71391">
        <ele>439.619232</ele>
        <time>2022-08-14T06:12:44Z</time>
      </trkpt>
      <trkpt lat="43.24286" lon="5.71404">
        <ele>440.465485</ele>
        <time>2022-08-14T06:12:46Z</time>
      </trkpt>
      <trkpt lat="43.2429" lon="5.71417">
        <ele>440.862457</ele>
        <time>2022-08-14T06:12:48Z</time>
      </trkpt>
      <trkpt lat="43.24294" lon="5.71431">
        <ele>441.622009</ele>
        <time>2022-08-14T06:12:50Z</time>
      </trkpt>
      <trkpt lat="43.24297" lon="5.71444">
        <ele>441.982178</ele>
        <time>2022-08-14T06:12:52Z</time>
      </trkpt>
      <trkpt lat="43.24302" lon="5.71457">
        <ele>442.639008</ele>
        <time>2022-08-14T06:12:54Z</time>
      </trkpt>
      <trkpt lat="43.24306" lon="5.7147">
        <ele>442.941833</ele>
        <time>2022-08-14T06:12:56Z</time>
      </trkpt>
      <trkpt lat="43.2431" lon="5.71483">
        <ele>443.218262</ele>
        <time>2022-08-14T06:12:58Z</time>
      </trkpt>
      <trkpt lat="43.24316" lon="5.71496">
        <ele>443.713806</ele>
        <time>2022-08-14T06:13:00Z</time>
      </trkpt>
      <trkpt lat="43.2432" lon="5.71509">
        <ele>443.925842</ele>
        <time>2022-08-14T06:13:02Z</time>
      </trkpt>
      <trkpt lat="43.24325" lon="5.71522">
        <ele>444.288147</ele>
        <time>2022-08-14T06:13:04Z</time>
      </trkpt>
      <trkpt lat="43.2433" lon="5.71534">
        <ele>444.440186</ele>
        <time>2022-08-14T06:13:06Z</time>
      </trkpt>
      <trkpt lat="43.24335" lon="5.71546">
        <ele>444.696869</ele>
        <time>2022-08-14T06:13:08Z</time>
      </trkpt>
      <trkpt lat="43.2434" lon="5.71558">
        <ele>444.803772</ele>
        <time>2022-08-14T06:13:10Z</time>
      </trkpt>
      <trkpt lat="43.24344" lon="5.7157">
        <ele>444.98053</ele>
        <time>2022-08-14T06:13:12Z</time>
      </trkpt>
      <trkpt lat="43.24348" lon="5.71582">
        <ele>445.052917</ele>
        <time>2022-08-14T06:13:14Z</time>
      </trkpt>
      <trkpt lat="43.24353" lon="5.71593">
        <ele>445.172028</ele>
        <time>2022-08-14T06:13:16Z</time>
      </trkpt>
      <trkpt lat="43.24358" lon="5.71604">
        <ele>445.221039</ele>
        <time>2022-08-14T06:13:18Z</time>
      </trkpt>
      <trkpt lat="43.24363" lon="5.71615">
        <ele>445.302551</ele>
        <time>2022-08-14T06:13:20Z</time>
      </trkpt>
      <trkpt lat="43.24368" lon="5.71627">
        <ele>445.337555</ele>
        <time>2022-08-14T06:13:22Z</time>
      </trkpt>
      <trkpt lat="43.24373" lon="5.71639">
        <ele>445.402924</ele>
        <time>2022-08-14T06:13:24Z</time>
      </trkpt>
      <trkpt lat="43.24377" lon="5.71652">
        <ele>445.435699</ele>
        <time>2022-08-14T06:13:26Z</time>
      </trkpt>
      <trkpt lat="43.24381" lon="5.71665">
        <ele>445.499512</ele>
        <time>2022-08-14T06:13:28Z</time>
      </trkpt>
      <trkpt lat="43.24384" lon="5.7168">
        <ele>445.530609</ele>
        <time>2022-08-14T06:13:30Z</time>
      </trkpt>
      <trkpt lat="43.24386" lon="5.71696">
        <ele>445.587708</ele>
        <time>2022-08-14T06:13:32Z</time>
      </trkpt>
      <trkpt lat="43.24388" lon="5.71713">
        <ele>445.611816</ele>
        <time>2022-08-14T06:13:34Z</time>
      </trkpt>
      <trkpt lat="43.2439" lon="5.7173">
        <ele>445.64447</ele>
        <time>2022-08-14T06:13:36Z</time>
      </trkpt>
      <trkpt lat="43.24394" lon="5.71748">
        <ele>445.649506</ele>
        <time>2022-08-14T06:13:38Z</time>
      </trkpt>
      <trkpt lat="43.24397" lon="5.71766">
        <ele>445.645081</ele>
        <time>2022-08-14T06:13:40Z</time>
      </trkpt>
      <trkpt lat="43.244" lon="5.71785">
        <ele>445.603607</ele>
        <time>2022-08-14T06:13:42Z</time>
      </trkpt>
      <trkpt lat="43.24402" lon="5.71804">
        <ele>445.565735</ele>
        <time>2022-08-14T06:13:44Z</time>
      </trkpt>
      <trkpt lat="43.24405" lon="5.71823">
        <ele>445.516693</ele>
        <time>2022-08-14T06:13:46Z</time>
      </trkpt>
      <trkpt lat="43.24407" lon="5.71842">
        <ele>445.390472</ele>
        <time>2022-08-14T06:13:48Z</time>
      </trkpt>
      <trkpt lat="43.24409" lon="5.7186">
        <ele>445.314697</ele>
        <time>2022-08-14T06:13:50Z</time>
      </trkpt>
      <trkpt lat="43.24411" lon="5.71876">
        <ele>445.139648</ele>
        <time>2022-08-14T06:13:52Z</time>
      </trkpt>
      <trkpt lat="43.24415" lon="5.71894">
        <ele>445.042969</ele>
        <time>2022-08-14T06:13:54Z</time>
      </trkpt>
      <trkpt lat="43.24421" lon="5.71911">
        <ele>444.839264</ele>
        <time>2022-08-14T06:13:56Z</time>
      </trkpt>
      <trkpt lat="43.24431" lon="5.71928">
        <ele>444.735352</ele>
        <time>2022-08-14T06:13:58Z</time>
      </trkpt>
      <trkpt lat="43.24441" lon="5.71943">
        <ele>444.527161</ele>
        <time>2022-08-14T06:14:00Z</time>
      </trkpt>
      <trkpt lat="43.24453" lon="5.71957">
        <ele>444.322449</ele>
        <time>2022-08-14T06:14:02Z</time>
      </trkpt>
      <trkpt lat="43.24466" lon="5.71971">
        <ele>444.223572</ele>
        <time>2022-08-14T06:14:04Z</time>
      </trkpt>
      <trkpt lat="43.24479" lon="5.71986">
        <ele>444.128326</ele>
        <time>2022-08-14T06:14:06Z</time>
      </trkpt>
      <trkpt lat="43.24492" lon="5.72001">
        <ele>443.949951</ele>
        <time>2022-08-14T06:14:08Z</time>
      </trkpt>
      <trkpt lat="43.24505" lon="5.72016">
        <ele>443.866516</ele>
        <time>2022-08-14T06:14:10Z</time>
      </trkpt>
      <trkpt lat="43.24518" lon="5.72031">
        <ele>443.709869</ele>
        <time>2022-08-14T06:14:12Z</time>
      </trkpt>
      <trkpt lat="43.24531" lon="5.72046">
        <ele>443.637115</ele>
        <time>2022-08-14T06:14:14Z</time>
      </trkpt>
      <trkpt lat="43.24544" lon="5.72063">
        <ele>443.505859</ele>
        <time>2022-08-14T06:14:16Z</time>
      </trkpt>
      <trkpt lat="43.24554" lon="5.72084">
        <ele>443.448334</ele>
        <time>2022-08-14T06:14:18Z</time>
      </trkpt>
      <trkpt lat="43.24561" lon="5.72105">
        <ele>443.347839</ele>
        <time>2022-08-14T06:14:20Z</time>
      </trkpt>
      <trkpt lat="43.24567" lon="5.72124">
        <ele>443.302917</ele>
        <time>2022-08-14T06:14:22Z</time>
      </trkpt>
      <trkpt lat="43.24574" lon="5.7214">
        <ele>443.21817</ele>
        <time>2022-08-14T06:14:24Z</time>
      </trkpt>
      <trkpt lat="43.24581" lon="5.72155">
        <ele>443.177246</ele>
        <time>2022-08-14T06:14:26Z</time>
      </trkpt>
      <trkpt lat="43.2459" lon="5.72168">
        <ele>443.098816</ele>
        <time>2022-08-14T06:14:28Z</time>
      </trkpt>
      <trkpt lat="43.24601" lon="5.72179">
        <ele>443.029144</ele>
        <time>2022-08-14T06:14:30Z</time>
      </trkpt>
      <trkpt lat="43.24613" lon="5.72189">
        <ele>443.000488</ele>
        <time>2022-08-14T06:14:32Z</time>
      </trkpt>
      <trkpt lat="43.24627" lon="5.72196">
        <ele>442.961182</ele>
        <time>2022-08-14T06:14:34Z</time>
      </trkpt>
      <trkpt lat="43.24642" lon="5.72203">
        <ele>442.952637</ele>
        <time>2022-08-14T06:14:36Z</time>
      </trkpt>
      <trkpt lat="43.24657" lon="5.72212">
        <ele>442.952942</ele>
        <time>2022-08-14T06:14:38Z</time>
      </trkpt>
      <trkpt lat="43.24669" lon="5.72226">
        <ele>442.986816</ele>
        <time>2022-08-14T06:14:40Z</time>
      </trkpt>
      <trkpt lat="43.24675" lon="5.72244">
        <ele>443.069427</ele>
        <time>2022-08-14T06:14:42Z</time>
      </trkpt>
      <trkpt lat="43.24679" lon="5.72263">
        <ele>443.131104</ele>
        <time>2022-08-14T06:14:44Z</time>
      </trkpt>
      <trkpt lat="43.24682" lon="5.72282">
        <ele>443.289215</ele>
        <time>2022-08-14T06:14:46Z</time>
      </trkpt>
      <trkpt lat="43.24685" lon="5.72303">
        <ele>443.380188</ele>
        <time>2022-08-14T06:14:48Z</time>
      </trkpt>
      <trkpt lat="43.24687" lon="5.72324">
        <ele>443.474854</ele>
        <time>2022-08-14T06:14:50Z</time>
      </trkpt>
      <trkpt lat="43.2469" lon="5.72344">
        <ele>443.665863</ele>
        <time>2022-08-14T06:14:52Z</time>
      </trkpt>
      <trkpt lat="43.24693" lon="5.72366">
        <ele>443.758972</ele>
        <time>2022-08-14T06:14:54Z</time>
      </trkpt>
      <trkpt lat="43.24696" lon="5.72387">
        <ele>443.84848</ele>
        <time>2022-08-14T06:14:56Z</time>
      </trkpt>
      <trkpt lat="43.24699" lon="5.72408">
        <ele>444.010101</ele>
        <time>2022-08-14T06:14:58Z</time>
      </trkpt>
      <trkpt lat="43.24703" lon="5.72428">
        <ele>444.078857</ele>
        <time>2022-08-14T06:15:00Z</time>
      </trkpt>
      <trkpt lat="43.24707" lon="5.72448">
        <ele>444.186768</ele>
        <time>2022-08-14T06:15:02Z</time>
      </trkpt>
      <trkpt lat="43.24711" lon="5.72468">
        <ele>444.255524</ele>
        <time>2022-08-14T06:15:04Z</time>
      </trkpt>
      <trkpt lat="43.24717" lon="5.72487">
        <ele>444.275787</ele>
        <time>2022-08-14T06:15:06Z</time>
      </trkpt>
      <trkpt lat="43.24723" lon="5.72506">
        <ele>444.286621</ele>
        <time>2022-08-14T06:15:08Z</time>
      </trkpt>
      <trkpt lat="43.2473" lon="5.72526">
        <ele>444.27832</ele>
        <time>2022-08-14T06:15:10Z</time>
      </trkpt>
      <trkpt lat="43.24739" lon="5.72545">
        <ele>444.258484</ele>
        <time>2022-08-14T06:15:12Z</time>
      </trkpt>
      <trkpt lat="43.24748" lon="5.72564">
        <ele>444.188965</ele>
        <time>2022-08-14T06:15:14Z</time>
      </trkpt>
      <trkpt lat="43.24758" lon="5.72584">
        <ele>444.14093</ele>
        <time>2022-08-14T06:15:16Z</time>
      </trkpt>
      <trkpt lat="43.24768" lon="5.72603">
        <ele>444.08551</ele>
        <time>2022-08-14T06:15:18Z</time>
      </trkpt>
      <trkpt lat="43.24777" lon="5.72623">
        <ele>443.95639</ele>
        <time>2022-08-14T06:15:20Z</time>
      </trkpt>
      <trkpt lat="43.24786" lon="5.72642">
        <ele>443.809509</ele>
        <time>2022-08-14T06:15:22Z</time>
      </trkpt>
      <trkpt lat="43.24796" lon="5.7266">
        <ele>443.731689</ele>
        <time>2022-08-14T06:15:24Z</time>
      </trkpt>
      <trkpt lat="43.24805" lon="5.72679">
        <ele>443.570648</ele>
        <time>2022-08-14T06:15:26Z</time>
      </trkpt>
      <trkpt lat="43.24814" lon="5.72697">
        <ele>443.487946</ele>
        <time>2022-08-14T06:15:28Z</time>
      </trkpt>
      <trkpt lat="43.24824" lon="5.72715">
        <ele>443.31723</ele>
        <time>2022-08-14T06:15:30Z</time>
      </trkpt>
      <trkpt lat="43.24833" lon="5.72733">
        <ele>443.228088</ele>
        <time>2022-08-14T06:15:32Z</time>
      </trkpt>
      <trkpt lat="43.24843" lon="5.7275">
        <ele>443.03833</ele>
        <time>2022-08-14T06:15:34Z</time>
      </trkpt>
      <trkpt lat="43.24853" lon="5.72768">
        <ele>442.936676</ele>
        <time>2022-08-14T06:15:36Z</time>
      </trkpt>
      <trkpt lat="43.24863" lon="5.72786">
        <ele>442.831116</ele>
        <time>2022-08-14T06:15:38Z</time>
      </trkpt>
      <trkpt lat="43.24873" lon="5.72804">
        <ele>442.613281</ele>
        <time>2022-08-14T06:15:40Z</time>
      </trkpt>
      <trkpt lat="43.24884" lon="5.72821">
        <ele>442.396484</ele>
        <time>2022-08-14T06:15:42Z</time>
      </trkpt>
      <trkpt lat="43.24896" lon="5.72838">
        <ele>442.292786</ele>
        <time>2022-08-14T06:15:44Z</time>
      </trkpt>
      <trkpt lat="43.2491" lon="5.72851">
        <ele>442.193787</ele>
        <time>2022-08-14T06:15:46Z</time>
      </trkpt>
      <trkpt lat="43.24925" lon="5.72863">
        <ele>442.011902</ele>
        <time>2022-08-14T06:15:48Z</time>
      </trkpt>
      <trkpt lat="43.24942" lon="5.72872">
        <ele>441.854919</ele>
        <time>2022-08-14T06:15:50Z</time>
      </trkpt>
      <trkpt lat="43.2496" lon="5.72876">
        <ele>441.788086</ele>
        <time>2022-08-14T06:15:52Z</time>
      </trkpt>
      <trkpt lat="43.24978" lon="5.72877">
        <ele>441.684631</ele>
        <time>2022-08-14T06:15:54Z</time>
      </trkpt>
      <trkpt lat="43.24995" lon="5.72884">
        <ele>441.650879</ele>
        <time>2022-08-14T06:15:56Z</time>
      </trkpt>
      <trkpt lat="43.25007" lon="5.72901">
        <ele>441.618103</ele>
        <time>2022-08-14T06:15:58Z</time>
      </trkpt>
      <trkpt lat="43.25012" lon="5.72921">
        <ele>441.620056</ele>
        <time>2022-08-14T06:16:00Z</time>
      </trkpt>
      <trkpt lat="43.25015" lon="5.72942">
        <ele>441.654205</ele>
        <time>2022-08-14T06:16:02Z</time>
      </trkpt>
      <trkpt lat="43.25018" lon="5.72962">
        <ele>441.681152</ele>
        <time>2022-08-14T06:16:04Z</time>
      </trkpt>
      <trkpt lat="43.25024" lon="5.72981">
        <ele>441.738129</ele>
        <time>2022-08-14T06:16:06Z</time>
      </trkpt>
      <trkpt lat="43.25031" lon="5.72999">
        <ele>441.764069</ele>
        <time>2022-08-14T06:16:08Z</time>
      </trkpt>
      <trkpt lat="43.25037" lon="5.7302">
        <ele>441.796539</ele>
        <time>2022-08-14T06:16:10Z</time>
      </trkpt>
      <trkpt lat="43.25042" lon="5.73042">
        <ele>441.800873</ele>
        <time>2022-08-14T06:16:12Z</time>
      </trkpt>
      <trkpt lat="43.25048" lon="5.73066">
        <ele>441.782227</ele>
        <time>2022-08-14T06:16:14Z</time>
      </trkpt>
      <trkpt lat="43.25053" lon="5.7309">
        <ele>441.757904</ele>
        <time>2022-08-14T06:16:16Z</time>
      </trkpt>
      <trkpt lat="43.25055" lon="5.73116">
        <ele>441.673737</ele>
        <time>2022-08-14T06:16:18Z</time>
      </trkpt>
      <trkpt lat="43.25053" lon="5.73143">
        <ele>441.545227</ele>
        <time>2022-08-14T06:16:20Z</time>
      </trkpt>
      <trkpt lat="43.2505" lon="5.73168">
        <ele>441.45874</ele>
        <time>2022-08-14T06:16:22Z</time>
      </trkpt>
      <trkpt lat="43.25047" lon="5.73193">
        <ele>441.355652</ele>
        <time>2022-08-14T06:16:24Z</time>
      </trkpt>
      <trkpt lat="43.25047" lon="5.73218">
        <ele>441.09317</ele>
        <time>2022-08-14T06:16:26Z</time>
      </trkpt>
      <trkpt lat="43.25048" lon="5.73243">
        <ele>440.930603</ele>
        <time>2022-08-14T06:16:28Z</time>
      </trkpt>
      <trkpt lat="43.25052" lon="5.73268">
        <ele>440.539459</ele>
        <time>2022-08-14T06:16:30Z</time>
      </trkpt>
      <trkpt lat="43.25057" lon="5.73291">
        <ele>440.311279</ele>
        <time>2022-08-14T06:16:32Z</time>
      </trkpt>
      <trkpt lat="43.25064" lon="5.73314">
        <ele>439.795227</ele>
        <time>2022-08-14T06:16:34Z</time>
      </trkpt>
      <trkpt lat="43.25074" lon="5.73335">
        <ele>439.510406</ele>
        <time>2022-08-14T06:16:36Z</time>
      </trkpt>
      <trkpt lat="43.25084" lon="5.73352">
        <ele>438.895599</ele>
        <time>2022-08-14T06:16:38Z</time>
      </trkpt>
      <trkpt lat="43.25095" lon="5.73371">
        <ele>438.573883</ele>
        <time>2022-08-14T06:16:40Z</time>
      </trkpt>
      <trkpt lat="43.25106" lon="5.73387">
        <ele>437.902527</ele>
        <time>2022-08-14T06:16:42Z</time>
      </trkpt>
      <trkpt lat="43.25119" lon="5.73404">
        <ele>437.556091</ele>
        <time>2022-08-14T06:16:44Z</time>
      </trkpt>
      <trkpt lat="43.25132" lon="5.73418">
        <ele>436.846039</ele>
        <time>2022-08-14T06:16:46Z</time>
      </trkpt>
      <trkpt lat="43.25145" lon="5.73429">
        <ele>436.483551</ele>
        <time>2022-08-14T06:16:48Z</time>
      </trkpt>
      <trkpt lat="43.25159" lon="5.73439">
        <ele>435.749084</ele>
        <time>2022-08-14T06:16:50Z</time>
      </trkpt>
      <trkpt lat="43.25172" lon="5.7345">
        <ele>435.381653</ele>
        <time>2022-08-14T06:16:52Z</time>
      </trkpt>
      <trkpt lat="43.25183" lon="5.73468">
        <ele>434.649597</ele>
        <time>2022-08-14T06:16:54Z</time>
      </trkpt>
      <trkpt lat="43.25189" lon="5.73489">
        <ele>434.288086</ele>
        <time>2022-08-14T06:16:56Z</time>
      </trkpt>
      <trkpt lat="43.25194" lon="5.73513">
        <ele>433.929993</ele>
        <time>2022-08-14T06:16:58Z</time>
      </trkpt>
      <trkpt lat="43.25199" lon="5.73537">
        <ele>433.227386</ele>
        <time>2022-08-14T06:17:00Z</time>
      </trkpt>
      <trkpt lat="43.25204" lon="5.7356">
        <ele>432.54303</ele>
        <time>2022-08-14T06:17:02Z</time>
      </trkpt>
      <trkpt lat="43.25209" lon="5.73583">
        <ele>432.211334</ele>
        <time>2022-08-14T06:17:04Z</time>
      </trkpt>
      <trkpt lat="43.25214" lon="5.73607">
        <ele>431.576508</ele>
        <time>2022-08-14T06:17:06Z</time>
      </trkpt>
      <trkpt lat="43.25219" lon="5.73631">
        <ele>431.275726</ele>
        <time>2022-08-14T06:17:08Z</time>
      </trkpt>
      <trkpt lat="43.25224" lon="5.73656">
        <ele>430.711334</ele>
        <time>2022-08-14T06:17:10Z</time>
      </trkpt>
      <trkpt lat="43.25228" lon="5.73681">
        <ele>430.448395</ele>
        <time>2022-08-14T06:17:12Z</time>
      </trkpt>
      <trkpt lat="43.25233" lon="5.73708">
        <ele>429.952332</ele>
        <time>2022-08-14T06:17:14Z</time>
      </trkpt>
      <trkpt lat="43.2524" lon="5.73735">
        <ele>429.72403</ele>
        <time>2022-08-14T06:17:16Z</time>
      </trkpt>
      <trkpt lat="43.25248" lon="5.7376">
        <ele>429.310364</ele>
        <time>2022-08-14T06:17:18Z</time>
      </trkpt>
      <trkpt lat="43.25255" lon="5.73783">
        <ele>429.127258</ele>
        <time>2022-08-14T06:17:20Z</time>
      </trkpt>
      <trkpt lat="43.25263" lon="5.73806">
        <ele>428.812683</ele>
        <time>2022-08-14T06:17:22Z</time>
      </trkpt>
      <trkpt lat="43.25269" lon="5.73829">
        <ele>428.568207</ele>
        <time>2022-08-14T06:17:24Z</time>
      </trkpt>
      <trkpt lat="43.25276" lon="5.73853">
        <ele>428.469299</ele>
        <time>2022-08-14T06:17:26Z</time>
      </trkpt>
      <trkpt lat="43.25284" lon="5.73877">
        <ele>428.309418</ele>
        <time>2022-08-14T06:17:28Z</time>
      </trkpt>
      <trkpt lat="43.25292" lon="5.739">
        <ele>428.2453</ele>
        <time>2022-08-14T06:17:30Z</time>
      </trkpt>
      <trkpt lat="43.253" lon="5.73923">
        <ele>428.135986</ele>
        <time>2022-08-14T06:17:32Z</time>
      </trkpt>
      <trkpt lat="43.25307" lon="5.73946">
        <ele>428.088043</ele>
        <time>2022-08-14T06:17:34Z</time>
      </trkpt>
      <trkpt lat="43.25314" lon="5.7397">
        <ele>428.000793</ele>
        <time>2022-08-14T06:17:36Z</time>
      </trkpt>
      <trkpt lat="43.25322" lon="5.73992">
        <ele>427.958069</ele>
        <time>2022-08-14T06:17:38Z</time>
      </trkpt>
      <trkpt lat="43.25329" lon="5.74015">
        <ele>427.864899</ele>
        <time>2022-08-14T06:17:40Z</time>
      </trkpt>
      <trkpt lat="43.25336" lon="5.74038">
        <ele>427.812195</ele>
        <time>2022-08-14T06:17:42Z</time>
      </trkpt>
      <trkpt lat="43.25343" lon="5.74061">
        <ele>427.677063</ele>
        <time>2022-08-14T06:17:44Z</time>
      </trkpt>
      <trkpt lat="43.25349" lon="5.74085">
        <ele>427.589996</ele>
        <time>2022-08-14T06:17:46Z</time>
      </trkpt>
      <trkpt lat="43.25356" lon="5.74108">
        <ele>427.373932</ele>
        <time>2022-08-14T06:17:48Z</time>
      </trkpt>
      <trkpt lat="43.25363" lon="5.7413">
        <ele>427.248291</ele>
        <time>2022-08-14T06:17:50Z</time>
      </trkpt>
      <trkpt lat="43.25369" lon="5.74153">
        <ele>426.972717</ele>
        <time>2022-08-14T06:17:52Z</time>
      </trkpt>
      <trkpt lat="43.25375" lon="5.74176">
        <ele>426.825745</ele>
        <time>2022-08-14T06:17:54Z</time>
      </trkpt>
      <trkpt lat="43.25381" lon="5.742">
        <ele>426.515869</ele>
        <time>2022-08-14T06:17:56Z</time>
      </trkpt>
      <trkpt lat="43.25385" lon="5.74224">
        <ele>426.351074</ele>
        <time>2022-08-14T06:17:58Z</time>
      </trkpt>
      <trkpt lat="43.25388" lon="5.7425">
        <ele>425.995911</ele>
        <time>2022-08-14T06:18:00Z</time>
      </trkpt>
      <trkpt lat="43.25392" lon="5.74276">
        <ele>425.80365</ele>
        <time>2022-08-14T06:18:02Z</time>
      </trkpt>
      <trkpt lat="43.25396" lon="5.74301">
        <ele>425.388275</ele>
        <time>2022-08-14T06:18:04Z</time>
      </trkpt>
      <trkpt lat="43.25402" lon="5.74328">
        <ele>425.166107</ele>
        <time>2022-08-14T06:18:06Z</time>
      </trkpt>
      <trkpt lat="43.25407" lon="5.74353">
        <ele>424.697662</ele>
        <time>2022-08-14T06:18:08Z</time>
      </trkpt>
      <trkpt lat="43.25412" lon="5.74379">
        <ele>424.45401</ele>
        <time>2022-08-14T06:18:10Z</time>
      </trkpt>
      <trkpt lat="43.25419" lon="5.74404">
        <ele>423.953918</ele>
        <time>2022-08-14T06:18:12Z</time>
      </trkpt>
      <trkpt lat="43.25425" lon="5.74428">
        <ele>423.699951</ele>
        <time>2022-08-14T06:18:14Z</time>
      </trkpt>
      <trkpt lat="43.25432" lon="5.74452">
        <ele>423.190521</ele>
        <time>2022-08-14T06:18:16Z</time>
      </trkpt>
      <trkpt lat="43.2544" lon="5.74476">
        <ele>422.686584</ele>
        <time>2022-08-14T06:18:18Z</time>
      </trkpt>
      <trkpt lat="43.25449" lon="5.74499">
        <ele>422.439453</ele>
        <time>2022-08-14T06:18:20Z</time>
      </trkpt>
      <trkpt lat="43.25459" lon="5.74522">
        <ele>421.959534</ele>
        <time>2022-08-14T06:18:22Z</time>
      </trkpt>
      <trkpt lat="43.25469" lon="5.74545">
        <ele>421.503265</ele>
        <time>2022-08-14T06:18:24Z</time>
      </trkpt>
      <trkpt lat="43.25478" lon="5.74568">
        <ele>421.285248</ele>
        <time>2022-08-14T06:18:26Z</time>
      </trkpt>
      <trkpt lat="43.25488" lon="5.74589">
        <ele>421.074036</ele>
        <time>2022-08-14T06:18:28Z</time>
      </trkpt>
      <trkpt lat="43.25497" lon="5.74611">
        <ele>420.671204</ele>
        <time>2022-08-14T06:18:30Z</time>
      </trkpt>
      <trkpt lat="43.25507" lon="5.74631">
        <ele>420.479095</ele>
        <time>2022-08-14T06:18:32Z</time>
      </trkpt>
      <trkpt lat="43.25516" lon="5.74652">
        <ele>420.110046</ele>
        <time>2022-08-14T06:18:34Z</time>
      </trkpt>
      <trkpt lat="43.25526" lon="5.74672">
        <ele>419.933746</ele>
        <time>2022-08-14T06:18:36Z</time>
      </trkpt>
      <trkpt lat="43.25534" lon="5.74693">
        <ele>419.764557</ele>
        <time>2022-08-14T06:18:38Z</time>
      </trkpt>
      <trkpt lat="43.25543" lon="5.74714">
        <ele>419.448669</ele>
        <time>2022-08-14T06:18:40Z</time>
      </trkpt>
      <trkpt lat="43.25551" lon="5.74735">
        <ele>419.301178</ele>
        <time>2022-08-14T06:18:42Z</time>
      </trkpt>
      <trkpt lat="43.25556" lon="5.74757">
        <ele>419.021088</ele>
        <time>2022-08-14T06:18:44Z</time>
      </trkpt>
      <trkpt lat="43.25562" lon="5.74778">
        <ele>418.886566</ele>
        <time>2022-08-14T06:18:46Z</time>
      </trkpt>
      <trkpt lat="43.25567" lon="5.74801">
        <ele>418.626801</ele>
        <time>2022-08-14T06:18:48Z</time>
      </trkpt>
      <trkpt lat="43.25573" lon="5.74823">
        <ele>418.501892</ele>
        <time>2022-08-14T06:18:50Z</time>
      </trkpt>
      <trkpt lat="43.25581" lon="5.74844">
        <ele>418.264252</ele>
        <time>2022-08-14T06:18:52Z</time>
      </trkpt>
      <trkpt lat="43.25591" lon="5.74864">
        <ele>418.048035</ele>
        <time>2022-08-14T06:18:54Z</time>
      </trkpt>
      <trkpt lat="43.25599" lon="5.74885">
        <ele>417.949615</ele>
        <time>2022-08-14T06:18:56Z</time>
      </trkpt>
      <trkpt lat="43.25607" lon="5.74905">
        <ele>417.85733</ele>
        <time>2022-08-14T06:18:58Z</time>
      </trkpt>
      <trkpt lat="43.25614" lon="5.74924">
        <ele>417.690277</ele>
        <time>2022-08-14T06:19:00Z</time>
      </trkpt>
      <trkpt lat="43.25622" lon="5.74942">
        <ele>417.613922</ele>
        <time>2022-08-14T06:19:02Z</time>
      </trkpt>
      <trkpt lat="43.2563" lon="5.74958">
        <ele>417.540955</ele>
        <time>2022-08-14T06:19:04Z</time>
      </trkpt>
      <trkpt lat="43.25636" lon="5.74971">
        <ele>417.400574</ele>
        <time>2022-08-14T06:19:06Z</time>
      </trkpt>
      <trkpt lat="43.25642" lon="5.74983">
        <ele>417.333008</ele>
        <time>2022-08-14T06:19:08Z</time>
      </trkpt>
      <trkpt lat="43.25649" lon="5.74996">
        <ele>417.193268</ele>
        <time>2022-08-14T06:19:10Z</time>
      </trkpt>
      <trkpt lat="43.25657" lon="5.7501">
        <ele>417.1203</ele>
        <time>2022-08-14T06:19:12Z</time>
      </trkpt>
      <trkpt lat="43.25665" lon="5.75024">
        <ele>416.967377</ele>
        <time>2022-08-14T06:19:14Z</time>
      </trkpt>
      <trkpt lat="43.25673" lon="5.75039">
        <ele>416.887512</ele>
        <time>2022-08-14T06:19:16Z</time>
      </trkpt>
      <trkpt lat="43.25679" lon="5.75054">
        <ele>416.80484</ele>
        <time>2022-08-14T06:19:18Z</time>
      </trkpt>
      <trkpt lat="43.25685" lon="5.75078">
        <ele>416.719086</ele>
        <time>2022-08-14T06:19:21Z</time>
      </trkpt>
      <trkpt lat="43.25681" lon="5.75093">
        <ele>416.53595</ele>
        <time>2022-08-14T06:19:23Z</time>
      </trkpt>
      <trkpt lat="43.25673" lon="5.75105">
        <ele>416.43634</ele>
        <time>2022-08-14T06:19:25Z</time>
      </trkpt>
      <trkpt lat="43.25663" lon="5.75113">
        <ele>416.331207</ele>
        <time>2022-08-14T06:19:27Z</time>
      </trkpt>
      <trkpt lat="43.25652" lon="5.75121">
        <ele>416.222717</ele>
        <time>2022-08-14T06:19:29Z</time>
      </trkpt>
      <trkpt lat="43.25643" lon="5.7513">
        <ele>416.000305</ele>
        <time>2022-08-14T06:19:31Z</time>
      </trkpt>
      <trkpt lat="43.25634" lon="5.75141">
        <ele>415.888245</ele>
        <time>2022-08-14T06:19:33Z</time>
      </trkpt>
      <trkpt lat="43.25628" lon="5.75153">
        <ele>415.665283</ele>
        <time>2022-08-14T06:19:35Z</time>
      </trkpt>
      <trkpt lat="43.25622" lon="5.75167">
        <ele>415.555267</ele>
        <time>2022-08-14T06:19:37Z</time>
      </trkpt>
      <trkpt lat="43.25617" lon="5.75189">
        <ele>415.341644</ele>
        <time>2022-08-14T06:19:40Z</time>
      </trkpt>
      <trkpt lat="43.25615" lon="5.75204">
        <ele>415.137146</ele>
        <time>2022-08-14T06:19:42Z</time>
      </trkpt>
      <trkpt lat="43.25612" lon="5.75228">
        <ele>415.039551</ele>
        <time>2022-08-14T06:19:45Z</time>
      </trkpt>
      <trkpt lat="43.2561" lon="5.75243">
        <ele>414.945129</ele>
        <time>2022-08-14T06:19:47Z</time>
      </trkpt>
      <trkpt lat="43.25608" lon="5.75259">
        <ele>414.767029</ele>
        <time>2022-08-14T06:19:49Z</time>
      </trkpt>
      <trkpt lat="43.25606" lon="5.75276">
        <ele>414.683899</ele>
        <time>2022-08-14T06:19:51Z</time>
      </trkpt>
      <trkpt lat="43.25604" lon="5.75291">
        <ele>414.604919</ele>
        <time>2022-08-14T06:19:53Z</time>
      </trkpt>
      <trkpt lat="43.25601" lon="5.75306">
        <ele>414.53009</ele>
        <time>2022-08-14T06:19:55Z</time>
      </trkpt>
      <trkpt lat="43.25599" lon="5.75322">
        <ele>414.457184</ele>
        <time>2022-08-14T06:19:57Z</time>
      </trkpt>
      <trkpt lat="43.25596" lon="5.75337">
        <ele>414.32074</ele>
        <time>2022-08-14T06:19:59Z</time>
      </trkpt>
      <trkpt lat="43.25594" lon="5.75352">
        <ele>414.255951</ele>
        <time>2022-08-14T06:20:01Z</time>
      </trkpt>
      <trkpt lat="43.25592" lon="5.75368">
        <ele>414.193359</ele>
        <time>2022-08-14T06:20:03Z</time>
      </trkpt>
      <trkpt lat="43.2559" lon="5.75383">
        <ele>414.132172</ele>
        <time>2022-08-14T06:20:05Z</time>
      </trkpt>
      <trkpt lat="43.25587" lon="5.75406">
        <ele>414.012207</ele>
        <time>2022-08-14T06:20:08Z</time>
      </trkpt>
      <trkpt lat="43.25584" lon="5.75422">
        <ele>413.898193</ele>
        <time>2022-08-14T06:20:10Z</time>
      </trkpt>
      <trkpt lat="43.25583" lon="5.75437">
        <ele>413.844147</ele>
        <time>2022-08-14T06:20:12Z</time>
      </trkpt>
      <trkpt lat="43.2558" lon="5.75452">
        <ele>413.792053</ele>
        <time>2022-08-14T06:20:14Z</time>
      </trkpt>
      <trkpt lat="43.25578" lon="5.75468">
        <ele>413.741455</ele>
        <time>2022-08-14T06:20:16Z</time>
      </trkpt>
      <trkpt lat="43.25575" lon="5.75483">
        <ele>413.692688</ele>
        <time>2022-08-14T06:20:18Z</time>
      </trkpt>
      <trkpt lat="43.25573" lon="5.75499">
        <ele>413.594971</ele>
        <time>2022-08-14T06:20:20Z</time>
      </trkpt>
      <trkpt lat="43.25571" lon="5.75514">
        <ele>413.545898</ele>
        <time>2022-08-14T06:20:22Z</time>
      </trkpt>
      <trkpt lat="43.25569" lon="5.7553">
        <ele>413.496338</ele>
        <time>2022-08-14T06:20:24Z</time>
      </trkpt>
      <trkpt lat="43.25567" lon="5.75545">
        <ele>413.444092</ele>
        <time>2022-08-14T06:20:26Z</time>
      </trkpt>
      <trkpt lat="43.25565" lon="5.75561">
        <ele>413.389252</ele>
        <time>2022-08-14T06:20:28Z</time>
      </trkpt>
      <trkpt lat="43.25562" lon="5.75576">
        <ele>413.33374</ele>
        <time>2022-08-14T06:20:30Z</time>
      </trkpt>
      <trkpt lat="43.2556" lon="5.75591">
        <ele>413.226563</ele>
        <time>2022-08-14T06:20:32Z</time>
      </trkpt>
      <trkpt lat="43.25557" lon="5.75606">
        <ele>413.169861</ele>
        <time>2022-08-14T06:20:34Z</time>
      </trkpt>
      <trkpt lat="43.25554" lon="5.75621">
        <ele>413.111481</ele>
        <time>2022-08-14T06:20:36Z</time>
      </trkpt>
      <trkpt lat="43.25552" lon="5.75636">
        <ele>413.050842</ele>
        <time>2022-08-14T06:20:38Z</time>
      </trkpt>
      <trkpt lat="43.25549" lon="5.75652">
        <ele>412.987366</ele>
        <time>2022-08-14T06:20:40Z</time>
      </trkpt>
      <trkpt lat="43.25547" lon="5.75666">
        <ele>412.852936</ele>
        <time>2022-08-14T06:20:42Z</time>
      </trkpt>
      <trkpt lat="43.25546" lon="5.75682">
        <ele>412.780182</ele>
        <time>2022-08-14T06:20:44Z</time>
      </trkpt>
      <trkpt lat="43.25543" lon="5.75698">
        <ele>412.703613</ele>
        <time>2022-08-14T06:20:46Z</time>
      </trkpt>
      <trkpt lat="43.25541" lon="5.75714">
        <ele>412.62558</ele>
        <time>2022-08-14T06:20:48Z</time>
      </trkpt>
      <trkpt lat="43.25539" lon="5.75729">
        <ele>412.465179</ele>
        <time>2022-08-14T06:20:50Z</time>
      </trkpt>
      <trkpt lat="43.25536" lon="5.75745">
        <ele>412.38443</ele>
        <time>2022-08-14T06:20:52Z</time>
      </trkpt>
      <trkpt lat="43.25534" lon="5.75761">
        <ele>412.304443</ele>
        <time>2022-08-14T06:20:54Z</time>
      </trkpt>
      <trkpt lat="43.25531" lon="5.75776">
        <ele>412.226868</ele>
        <time>2022-08-14T06:20:56Z</time>
      </trkpt>
      <trkpt lat="43.25529" lon="5.75792">
        <ele>412.079346</ele>
        <time>2022-08-14T06:20:58Z</time>
      </trkpt>
      <trkpt lat="43.25527" lon="5.75807">
        <ele>412.012604</ele>
        <time>2022-08-14T06:21:00Z</time>
      </trkpt>
      <trkpt lat="43.25525" lon="5.75823">
        <ele>411.952454</ele>
        <time>2022-08-14T06:21:02Z</time>
      </trkpt>
      <trkpt lat="43.25522" lon="5.75838">
        <ele>411.900299</ele>
        <time>2022-08-14T06:21:04Z</time>
      </trkpt>
      <trkpt lat="43.25519" lon="5.75853">
        <ele>411.856995</ele>
        <time>2022-08-14T06:21:06Z</time>
      </trkpt>
      <trkpt lat="43.25517" lon="5.75868">
        <ele>411.788513</ele>
        <time>2022-08-14T06:21:08Z</time>
      </trkpt>
      <trkpt lat="43.25515" lon="5.75883">
        <ele>411.763672</ele>
        <time>2022-08-14T06:21:10Z</time>
      </trkpt>
      <trkpt lat="43.25513" lon="5.75898">
        <ele>411.733063</ele>
        <time>2022-08-14T06:21:12Z</time>
      </trkpt>
      <trkpt lat="43.25511" lon="5.75914">
        <ele>411.728088</ele>
        <time>2022-08-14T06:21:14Z</time>
      </trkpt>
      <trkpt lat="43.25509" lon="5.75929">
        <ele>411.733551</ele>
        <time>2022-08-14T06:21:16Z</time>
      </trkpt>
      <trkpt lat="43.25507" lon="5.75945">
        <ele>411.757751</ele>
        <time>2022-08-14T06:21:18Z</time>
      </trkpt>
      <trkpt lat="43.25504" lon="5.7596">
        <ele>411.777588</ele>
        <time>2022-08-14T06:21:20Z</time>
      </trkpt>
      <trkpt lat="43.25499" lon="5.75972">
        <ele>411.803711</ele>
        <time>2022-08-14T06:21:22Z</time>
      </trkpt>
      <trkpt lat="43.25491" lon="5.75988">
        <ele>411.874329</ele>
        <time>2022-08-14T06:21:25Z</time>
      </trkpt>
      <trkpt lat="43.25488" lon="5.76002">
        <ele>411.917816</ele>
        <time>2022-08-14T06:21:27Z</time>
      </trkpt>
      <trkpt lat="43.25487" lon="5.76019">
        <ele>412.024963</ele>
        <time>2022-08-14T06:21:29Z</time>
      </trkpt>
      <trkpt lat="43.25484" lon="5.76035">
        <ele>412.087555</ele>
        <time>2022-08-14T06:21:31Z</time>
      </trkpt>
      <trkpt lat="43.25482" lon="5.76053">
        <ele>412.152283</ele>
        <time>2022-08-14T06:21:33Z</time>
      </trkpt>
      <trkpt lat="43.2548" lon="5.7608">
        <ele>412.222107</ele>
        <time>2022-08-14T06:21:36Z</time>
      </trkpt>
      <trkpt lat="43.25477" lon="5.76098">
        <ele>412.373962</ele>
        <time>2022-08-14T06:21:38Z</time>
      </trkpt>
      <trkpt lat="43.25475" lon="5.76115">
        <ele>412.455139</ele>
        <time>2022-08-14T06:21:40Z</time>
      </trkpt>
      <trkpt lat="43.25472" lon="5.7613">
        <ele>412.539734</ele>
        <time>2022-08-14T06:21:42Z</time>
      </trkpt>
      <trkpt lat="43.25469" lon="5.76146">
        <ele>412.626129</ele>
        <time>2022-08-14T06:21:44Z</time>
      </trkpt>
      <trkpt lat="43.25469" lon="5.76164">
        <ele>412.714935</ele>
        <time>2022-08-14T06:21:46Z</time>
      </trkpt>
      <trkpt lat="43.25467" lon="5.76179">
        <ele>412.804291</ele>
        <time>2022-08-14T06:21:48Z</time>
      </trkpt>
      <trkpt lat="43.25464" lon="5.76195">
        <ele>412.981842</ele>
        <time>2022-08-14T06:21:50Z</time>
      </trkpt>
      <trkpt lat="43.25461" lon="5.7621">
        <ele>413.065521</ele>
        <time>2022-08-14T06:21:52Z</time>
      </trkpt>
      <trkpt lat="43.25458" lon="5.76226">
        <ele>413.218658</ele>
        <time>2022-08-14T06:21:54Z</time>
      </trkpt>
      <trkpt lat="43.25456" lon="5.76241">
        <ele>413.285339</ele>
        <time>2022-08-14T06:21:56Z</time>
      </trkpt>
      <trkpt lat="43.25454" lon="5.76256">
        <ele>413.398346</ele>
        <time>2022-08-14T06:21:58Z</time>
      </trkpt>
      <trkpt lat="43.25452" lon="5.76273">
        <ele>413.44516</ele>
        <time>2022-08-14T06:22:00Z</time>
      </trkpt>
      <trkpt lat="43.2545" lon="5.7629">
        <ele>413.513092</ele>
        <time>2022-08-14T06:22:02Z</time>
      </trkpt>
      <trkpt lat="43.25449" lon="5.76304">
        <ele>413.546051</ele>
        <time>2022-08-14T06:22:04Z</time>
      </trkpt>
      <trkpt lat="43.25446" lon="5.76321">
        <ele>413.552399</ele>
        <time>2022-08-14T06:22:06Z</time>
      </trkpt>
      <trkpt lat="43.25444" lon="5.76338">
        <ele>413.550598</ele>
        <time>2022-08-14T06:22:08Z</time>
      </trkpt>
      <trkpt lat="43.25443" lon="5.76355">
        <ele>413.543762</ele>
        <time>2022-08-14T06:22:10Z</time>
      </trkpt>
      <trkpt lat="43.2544" lon="5.76372">
        <ele>413.523438</ele>
        <time>2022-08-14T06:22:12Z</time>
      </trkpt>
      <trkpt lat="43.25438" lon="5.7639">
        <ele>413.508881</ele>
        <time>2022-08-14T06:22:14Z</time>
      </trkpt>
      <trkpt lat="43.25436" lon="5.76408">
        <ele>413.476807</ele>
        <time>2022-08-14T06:22:16Z</time>
      </trkpt>
      <trkpt lat="43.25434" lon="5.76425">
        <ele>413.460144</ele>
        <time>2022-08-14T06:22:18Z</time>
      </trkpt>
      <trkpt lat="43.25432" lon="5.76444">
        <ele>413.425873</ele>
        <time>2022-08-14T06:22:20Z</time>
      </trkpt>
      <trkpt lat="43.25429" lon="5.76461">
        <ele>413.407867</ele>
        <time>2022-08-14T06:22:22Z</time>
      </trkpt>
      <trkpt lat="43.25427" lon="5.76478">
        <ele>413.374664</ele>
        <time>2022-08-14T06:22:24Z</time>
      </trkpt>
      <trkpt lat="43.25424" lon="5.76495">
        <ele>413.360046</ele>
        <time>2022-08-14T06:22:26Z</time>
      </trkpt>
      <trkpt lat="43.25422" lon="5.76513">
        <ele>413.339844</ele>
        <time>2022-08-14T06:22:28Z</time>
      </trkpt>
      <trkpt lat="43.25419" lon="5.76529">
        <ele>413.334534</ele>
        <time>2022-08-14T06:22:30Z</time>
      </trkpt>
      <trkpt lat="43.25417" lon="5.76544">
        <ele>413.33551</ele>
        <time>2022-08-14T06:22:32Z</time>
      </trkpt>
      <trkpt lat="43.25414" lon="5.76561">
        <ele>413.342468</ele>
        <time>2022-08-14T06:22:34Z</time>
      </trkpt>
      <trkpt lat="43.25411" lon="5.7658">
        <ele>413.371185</ele>
        <time>2022-08-14T06:22:36Z</time>
      </trkpt>
      <trkpt lat="43.25408" lon="5.76598">
        <ele>413.394104</ele>
        <time>2022-08-14T06:22:38Z</time>
      </trkpt>
      <trkpt lat="43.25406" lon="5.76616">
        <ele>413.460114</ele>
        <time>2022-08-14T06:22:40Z</time>
      </trkpt>
      <trkpt lat="43.25403" lon="5.76632">
        <ele>413.505219</ele>
        <time>2022-08-14T06:22:42Z</time>
      </trkpt>
      <trkpt lat="43.254" lon="5.76649">
        <ele>413.620514</ele>
        <time>2022-08-14T06:22:44Z</time>
      </trkpt>
      <trkpt lat="43.25397" lon="5.76667">
        <ele>413.692932</ele>
        <time>2022-08-14T06:22:46Z</time>
      </trkpt>
      <trkpt lat="43.25394" lon="5.76685">
        <ele>413.872742</ele>
        <time>2022-08-14T06:22:48Z</time>
      </trkpt>
      <trkpt lat="43.25392" lon="5.76702">
        <ele>414.096436</ele>
        <time>2022-08-14T06:22:50Z</time>
      </trkpt>
      <trkpt lat="43.25389" lon="5.76718">
        <ele>414.22403</ele>
        <time>2022-08-14T06:22:52Z</time>
      </trkpt>
      <trkpt lat="43.25386" lon="5.76734">
        <ele>414.507629</ele>
        <time>2022-08-14T06:22:54Z</time>
      </trkpt>
      <trkpt lat="43.25385" lon="5.76749">
        <ele>414.660645</ele>
        <time>2022-08-14T06:22:56Z</time>
      </trkpt>
      <trkpt lat="43.25382" lon="5.76764">
        <ele>414.983154</ele>
        <time>2022-08-14T06:22:58Z</time>
      </trkpt>
      <trkpt lat="43.2538" lon="5.76776">
        <ele>415.149994</ele>
        <time>2022-08-14T06:23:00Z</time>
      </trkpt>
      <trkpt lat="43.25378" lon="5.76791">
        <ele>415.489563</ele>
        <time>2022-08-14T06:23:02Z</time>
      </trkpt>
      <trkpt lat="43.25377" lon="5.76806">
        <ele>415.660553</ele>
        <time>2022-08-14T06:23:04Z</time>
      </trkpt>
      <trkpt lat="43.25375" lon="5.76825">
        <ele>416.001068</ele>
        <time>2022-08-14T06:23:06Z</time>
      </trkpt>
      <trkpt lat="43.25372" lon="5.76842">
        <ele>416.169525</ele>
        <time>2022-08-14T06:23:08Z</time>
      </trkpt>
      <trkpt lat="43.25369" lon="5.76859">
        <ele>416.335938</ele>
        <time>2022-08-14T06:23:10Z</time>
      </trkpt>
      <trkpt lat="43.25366" lon="5.76875">
        <ele>416.660461</ele>
        <time>2022-08-14T06:23:12Z</time>
      </trkpt>
      <trkpt lat="43.25364" lon="5.76892">
        <ele>416.970795</ele>
        <time>2022-08-14T06:23:14Z</time>
      </trkpt>
      <trkpt lat="43.25361" lon="5.76909">
        <ele>417.119781</ele>
        <time>2022-08-14T06:23:16Z</time>
      </trkpt>
      <trkpt lat="43.2536" lon="5.76924">
        <ele>417.404602</ele>
        <time>2022-08-14T06:23:18Z</time>
      </trkpt>
      <trkpt lat="43.25356" lon="5.7694">
        <ele>417.539459</ele>
        <time>2022-08-14T06:23:20Z</time>
      </trkpt>
      <trkpt lat="43.25353" lon="5.76956">
        <ele>417.793854</ele>
        <time>2022-08-14T06:23:22Z</time>
      </trkpt>
      <trkpt lat="43.25351" lon="5.76972">
        <ele>418.027191</ele>
        <time>2022-08-14T06:23:24Z</time>
      </trkpt>
      <trkpt lat="43.25348" lon="5.76987">
        <ele>418.135986</ele>
        <time>2022-08-14T06:23:26Z</time>
      </trkpt>
      <trkpt lat="43.25347" lon="5.77001">
        <ele>418.336853</ele>
        <time>2022-08-14T06:23:28Z</time>
      </trkpt>
      <trkpt lat="43.25344" lon="5.77017">
        <ele>418.513977</ele>
        <time>2022-08-14T06:23:30Z</time>
      </trkpt>
      <trkpt lat="43.2534" lon="5.77036">
        <ele>418.593262</ele>
        <time>2022-08-14T06:23:32Z</time>
      </trkpt>
      <trkpt lat="43.25335" lon="5.77056">
        <ele>418.732727</ele>
        <time>2022-08-14T06:23:34Z</time>
      </trkpt>
      <trkpt lat="43.25332" lon="5.77072">
        <ele>418.792786</ele>
        <time>2022-08-14T06:23:36Z</time>
      </trkpt>
      <trkpt lat="43.25329" lon="5.77089">
        <ele>418.893066</ele>
        <time>2022-08-14T06:23:38Z</time>
      </trkpt>
      <trkpt lat="43.25326" lon="5.77106">
        <ele>418.933105</ele>
        <time>2022-08-14T06:23:40Z</time>
      </trkpt>
      <trkpt lat="43.25323" lon="5.77124">
        <ele>418.993225</ele>
        <time>2022-08-14T06:23:42Z</time>
      </trkpt>
      <trkpt lat="43.2532" lon="5.77141">
        <ele>419.01416</ele>
        <time>2022-08-14T06:23:44Z</time>
      </trkpt>
      <trkpt lat="43.25317" lon="5.77156">
        <ele>419.04248</ele>
        <time>2022-08-14T06:23:46Z</time>
      </trkpt>
      <trkpt lat="43.25314" lon="5.77173">
        <ele>419.053619</ele>
        <time>2022-08-14T06:23:48Z</time>
      </trkpt>
      <trkpt lat="43.25311" lon="5.77188">
        <ele>419.078705</ele>
        <time>2022-08-14T06:23:50Z</time>
      </trkpt>
      <trkpt lat="43.25308" lon="5.77203">
        <ele>419.095123</ele>
        <time>2022-08-14T06:23:52Z</time>
      </trkpt>
      <trkpt lat="43.25305" lon="5.77219">
        <ele>419.138</ele>
        <time>2022-08-14T06:23:54Z</time>
      </trkpt>
      <trkpt lat="43.25303" lon="5.77235">
        <ele>419.16449</ele>
        <time>2022-08-14T06:23:56Z</time>
      </trkpt>
      <trkpt lat="43.253" lon="5.77252">
        <ele>419.226563</ele>
        <time>2022-08-14T06:23:58Z</time>
      </trkpt>
      <trkpt lat="43.25297" lon="5.77268">
        <ele>419.26239</ele>
        <time>2022-08-14T06:24:00Z</time>
      </trkpt>
      <trkpt lat="43.25295" lon="5.77286">
        <ele>419.346741</ele>
        <time>2022-08-14T06:24:02Z</time>
      </trkpt>
      <trkpt lat="43.25292" lon="5.773">
        <ele>419.395691</ele>
        <time>2022-08-14T06:24:04Z</time>
      </trkpt>
      <trkpt lat="43.25289" lon="5.77313">
        <ele>419.507813</ele>
        <time>2022-08-14T06:24:06Z</time>
      </trkpt>
      <trkpt lat="43.25286" lon="5.77329">
        <ele>419.570953</ele>
        <time>2022-08-14T06:24:08Z</time>
      </trkpt>
      <trkpt lat="43.25283" lon="5.77346">
        <ele>419.707428</ele>
        <time>2022-08-14T06:24:10Z</time>
      </trkpt>
      <trkpt lat="43.25281" lon="5.77363">
        <ele>419.781403</ele>
        <time>2022-08-14T06:24:12Z</time>
      </trkpt>
      <trkpt lat="43.25279" lon="5.77378">
        <ele>419.939941</ele>
        <time>2022-08-14T06:24:14Z</time>
      </trkpt>
      <trkpt lat="43.25276" lon="5.77395">
        <ele>420.024261</ele>
        <time>2022-08-14T06:24:16Z</time>
      </trkpt>
      <trkpt lat="43.25272" lon="5.77416">
        <ele>420.111481</ele>
        <time>2022-08-14T06:24:18Z</time>
      </trkpt>
      <trkpt lat="43.25269" lon="5.77434">
        <ele>420.29364</ele>
        <time>2022-08-14T06:24:20Z</time>
      </trkpt>
      <trkpt lat="43.25267" lon="5.77452">
        <ele>420.388123</ele>
        <time>2022-08-14T06:24:22Z</time>
      </trkpt>
      <trkpt lat="43.25264" lon="5.77469">
        <ele>420.582672</ele>
        <time>2022-08-14T06:24:24Z</time>
      </trkpt>
      <trkpt lat="43.25262" lon="5.77486">
        <ele>420.682281</ele>
        <time>2022-08-14T06:24:26Z</time>
      </trkpt>
      <trkpt lat="43.25254" lon="5.77502">
        <ele>420.783508</ele>
        <time>2022-08-14T06:24:28Z</time>
      </trkpt>
      <trkpt lat="43.25248" lon="5.77519">
        <ele>420.991852</ele>
        <time>2022-08-14T06:24:30Z</time>
      </trkpt>
      <trkpt lat="43.25247" lon="5.77538">
        <ele>421.100159</ele>
        <time>2022-08-14T06:24:32Z</time>
      </trkpt>
      <trkpt lat="43.25248" lon="5.77555">
        <ele>421.326965</ele>
        <time>2022-08-14T06:24:34Z</time>
      </trkpt>
      <trkpt lat="43.25246" lon="5.77572">
        <ele>421.445496</ele>
        <time>2022-08-14T06:24:36Z</time>
      </trkpt>
      <trkpt lat="43.25245" lon="5.77588">
        <ele>421.690094</ele>
        <time>2022-08-14T06:24:38Z</time>
      </trkpt>
      <trkpt lat="43.25242" lon="5.77606">
        <ele>421.814056</ele>
        <time>2022-08-14T06:24:40Z</time>
      </trkpt>
      <trkpt lat="43.2524" lon="5.77623">
        <ele>422.058289</ele>
        <time>2022-08-14T06:24:42Z</time>
      </trkpt>
      <trkpt lat="43.25237" lon="5.77642">
        <ele>422.175201</ele>
        <time>2022-08-14T06:24:44Z</time>
      </trkpt>
      <trkpt lat="43.25234" lon="5.7766">
        <ele>422.287048</ele>
        <time>2022-08-14T06:24:46Z</time>
      </trkpt>
      <trkpt lat="43.25231" lon="5.77679">
        <ele>422.494141</ele>
        <time>2022-08-14T06:24:48Z</time>
      </trkpt>
      <trkpt lat="43.25228" lon="5.77697">
        <ele>422.589417</ele>
        <time>2022-08-14T06:24:50Z</time>
      </trkpt>
      <trkpt lat="43.25225" lon="5.77715">
        <ele>422.764954</ele>
        <time>2022-08-14T06:24:52Z</time>
      </trkpt>
      <trkpt lat="43.25222" lon="5.77732">
        <ele>422.84726</ele>
        <time>2022-08-14T06:24:54Z</time>
      </trkpt>
      <trkpt lat="43.25219" lon="5.77749">
        <ele>422.925049</ele>
        <time>2022-08-14T06:24:56Z</time>
      </trkpt>
      <trkpt lat="43.25216" lon="5.77764">
        <ele>423.067383</ele>
        <time>2022-08-14T06:24:58Z</time>
      </trkpt>
      <trkpt lat="43.25214" lon="5.7778">
        <ele>423.132019</ele>
        <time>2022-08-14T06:25:00Z</time>
      </trkpt>
      <trkpt lat="43.25211" lon="5.77796">
        <ele>423.248444</ele>
        <time>2022-08-14T06:25:02Z</time>
      </trkpt>
      <trkpt lat="43.25209" lon="5.77812">
        <ele>423.348785</ele>
        <time>2022-08-14T06:25:04Z</time>
      </trkpt>
      <trkpt lat="43.25206" lon="5.77827">
        <ele>423.393982</ele>
        <time>2022-08-14T06:25:06Z</time>
      </trkpt>
      <trkpt lat="43.25204" lon="5.77843">
        <ele>423.473694</ele>
        <time>2022-08-14T06:25:08Z</time>
      </trkpt>
      <trkpt lat="43.25201" lon="5.77859">
        <ele>423.507751</ele>
        <time>2022-08-14T06:25:10Z</time>
      </trkpt>
      <trkpt lat="43.25198" lon="5.77876">
        <ele>423.562988</ele>
        <time>2022-08-14T06:25:12Z</time>
      </trkpt>
      <trkpt lat="43.25195" lon="5.77892">
        <ele>423.601257</ele>
        <time>2022-08-14T06:25:14Z</time>
      </trkpt>
      <trkpt lat="43.25193" lon="5.77909">
        <ele>423.612701</ele>
        <time>2022-08-14T06:25:16Z</time>
      </trkpt>
      <trkpt lat="43.2519" lon="5.77925">
        <ele>423.619385</ele>
        <time>2022-08-14T06:25:18Z</time>
      </trkpt>
      <trkpt lat="43.25188" lon="5.77941">
        <ele>423.622131</ele>
        <time>2022-08-14T06:25:20Z</time>
      </trkpt>
      <trkpt lat="43.25185" lon="5.77957">
        <ele>423.620667</ele>
        <time>2022-08-14T06:25:22Z</time>
      </trkpt>
      <trkpt lat="43.25183" lon="5.77973">
        <ele>423.616608</ele>
        <time>2022-08-14T06:25:24Z</time>
      </trkpt>
      <trkpt lat="43.25179" lon="5.77989">
        <ele>423.614594</ele>
        <time>2022-08-14T06:25:26Z</time>
      </trkpt>
      <trkpt lat="43.25177" lon="5.78006">
        <ele>423.612732</ele>
        <time>2022-08-14T06:25:28Z</time>
      </trkpt>
      <trkpt lat="43.25174" lon="5.78022">
        <ele>423.609192</ele>
        <time>2022-08-14T06:25:30Z</time>
      </trkpt>
      <trkpt lat="43.25172" lon="5.78039">
        <ele>423.607849</ele>
        <time>2022-08-14T06:25:32Z</time>
      </trkpt>
      <trkpt lat="43.25169" lon="5.78056">
        <ele>423.607727</ele>
        <time>2022-08-14T06:25:34Z</time>
      </trkpt>
      <trkpt lat="43.25166" lon="5.78073">
        <ele>423.608978</ele>
        <time>2022-08-14T06:25:36Z</time>
      </trkpt>
      <trkpt lat="43.25163" lon="5.7809">
        <ele>423.612122</ele>
        <time>2022-08-14T06:25:38Z</time>
      </trkpt>
      <trkpt lat="43.25159" lon="5.78106">
        <ele>423.625488</ele>
        <time>2022-08-14T06:25:40Z</time>
      </trkpt>
      <trkpt lat="43.25156" lon="5.78124">
        <ele>423.636627</ele>
        <time>2022-08-14T06:25:42Z</time>
      </trkpt>
      <trkpt lat="43.25153" lon="5.78141">
        <ele>423.669525</ele>
        <time>2022-08-14T06:25:44Z</time>
      </trkpt>
      <trkpt lat="43.25149" lon="5.78157">
        <ele>423.690826</ele>
        <time>2022-08-14T06:25:46Z</time>
      </trkpt>
      <trkpt lat="43.25145" lon="5.78174">
        <ele>423.742126</ele>
        <time>2022-08-14T06:25:48Z</time>
      </trkpt>
      <trkpt lat="43.2514" lon="5.78192">
        <ele>423.77182</ele>
        <time>2022-08-14T06:25:50Z</time>
      </trkpt>
      <trkpt lat="43.25134" lon="5.78209">
        <ele>423.803955</ele>
        <time>2022-08-14T06:25:52Z</time>
      </trkpt>
      <trkpt lat="43.2513" lon="5.78225">
        <ele>423.874176</ele>
        <time>2022-08-14T06:25:54Z</time>
      </trkpt>
      <trkpt lat="43.25124" lon="5.78243">
        <ele>423.912048</ele>
        <time>2022-08-14T06:25:56Z</time>
      </trkpt>
      <trkpt lat="43.25119" lon="5.78259">
        <ele>423.992737</ele>
        <time>2022-08-14T06:25:58Z</time>
      </trkpt>
      <trkpt lat="43.25113" lon="5.78275">
        <ele>424.0354</ele>
        <time>2022-08-14T06:26:00Z</time>
      </trkpt>
      <trkpt lat="43.25106" lon="5.78292">
        <ele>424.123138</ele>
        <time>2022-08-14T06:26:02Z</time>
      </trkpt>
      <trkpt lat="43.25101" lon="5.78309">
        <ele>424.168365</ele>
        <time>2022-08-14T06:26:04Z</time>
      </trkpt>
      <trkpt lat="43.25095" lon="5.78327">
        <ele>424.213135</ele>
        <time>2022-08-14T06:26:06Z</time>
      </trkpt>
      <trkpt lat="43.25089" lon="5.78344">
        <ele>424.301514</ele>
        <time>2022-08-14T06:26:08Z</time>
      </trkpt>
      <trkpt lat="43.25082" lon="5.78361">
        <ele>424.386292</ele>
        <time>2022-08-14T06:26:10Z</time>
      </trkpt>
      <trkpt lat="43.25076" lon="5.78377">
        <ele>424.468903</ele>
        <time>2022-08-14T06:26:12Z</time>
      </trkpt>
      <trkpt lat="43.2507" lon="5.78392">
        <ele>424.544281</ele>
        <time>2022-08-14T06:26:14Z</time>
      </trkpt>
      <trkpt lat="43.25064" lon="5.78408">
        <ele>424.576508</ele>
        <time>2022-08-14T06:26:16Z</time>
      </trkpt>
      <trkpt lat="43.25058" lon="5.78425">
        <ele>424.625641</ele>
        <time>2022-08-14T06:26:18Z</time>
      </trkpt>
      <trkpt lat="43.25052" lon="5.78442">
        <ele>424.64151</ele>
        <time>2022-08-14T06:26:20Z</time>
      </trkpt>
      <trkpt lat="43.25045" lon="5.78459">
        <ele>424.650482</ele>
        <time>2022-08-14T06:26:22Z</time>
      </trkpt>
      <trkpt lat="43.25039" lon="5.78475">
        <ele>424.643402</ele>
        <time>2022-08-14T06:26:24Z</time>
      </trkpt>
      <trkpt lat="43.25032" lon="5.78491">
        <ele>424.629059</ele>
        <time>2022-08-14T06:26:26Z</time>
      </trkpt>
      <trkpt lat="43.25024" lon="5.78507">
        <ele>424.581451</ele>
        <time>2022-08-14T06:26:28Z</time>
      </trkpt>
      <trkpt lat="43.25016" lon="5.78523">
        <ele>424.549713</ele>
        <time>2022-08-14T06:26:30Z</time>
      </trkpt>
      <trkpt lat="43.25008" lon="5.78539">
        <ele>424.473785</ele>
        <time>2022-08-14T06:26:32Z</time>
      </trkpt>
      <trkpt lat="43.25" lon="5.78554">
        <ele>424.433044</ele>
        <time>2022-08-14T06:26:34Z</time>
      </trkpt>
      <trkpt lat="43.24991" lon="5.78569">
        <ele>424.391418</ele>
        <time>2022-08-14T06:26:36Z</time>
      </trkpt>
      <trkpt lat="43.24983" lon="5.78583">
        <ele>424.312683</ele>
        <time>2022-08-14T06:26:38Z</time>
      </trkpt>
      <trkpt lat="43.24974" lon="5.78599">
        <ele>424.278381</ele>
        <time>2022-08-14T06:26:40Z</time>
      </trkpt>
      <trkpt lat="43.24965" lon="5.78613">
        <ele>424.222748</ele>
        <time>2022-08-14T06:26:42Z</time>
      </trkpt>
      <trkpt lat="43.24957" lon="5.78627">
        <ele>424.200836</ele>
        <time>2022-08-14T06:26:44Z</time>
      </trkpt>
      <trkpt lat="43.24947" lon="5.7864">
        <ele>424.182465</ele>
        <time>2022-08-14T06:26:46Z</time>
      </trkpt>
      <trkpt lat="43.24938" lon="5.78654">
        <ele>424.156555</ele>
        <time>2022-08-14T06:26:48Z</time>
      </trkpt>
      <trkpt lat="43.24929" lon="5.78668">
        <ele>424.145813</ele>
        <time>2022-08-14T06:26:50Z</time>
      </trkpt>
      <trkpt lat="43.2492" lon="5.78682">
        <ele>424.146545</ele>
        <time>2022-08-14T06:26:52Z</time>
      </trkpt>
      <trkpt lat="43.2491" lon="5.78695">
        <ele>424.161469</ele>
        <time>2022-08-14T06:26:54Z</time>
      </trkpt>
      <trkpt lat="43.24901" lon="5.78708">
        <ele>424.176605</ele>
        <time>2022-08-14T06:26:56Z</time>
      </trkpt>
      <trkpt lat="43.24893" lon="5.78723">
        <ele>424.19696</ele>
        <time>2022-08-14T06:26:58Z</time>
      </trkpt>
      <trkpt lat="43.24885" lon="5.78737">
        <ele>424.25473</ele>
        <time>2022-08-14T06:27:00Z</time>
      </trkpt>
      <trkpt lat="43.24876" lon="5.78752">
        <ele>424.290619</ele>
        <time>2022-08-14T06:27:02Z</time>
      </trkpt>
      <trkpt lat="43.24867" lon="5.78766">
        <ele>424.373962</ele>
        <time>2022-08-14T06:27:04Z</time>
      </trkpt>
      <trkpt lat="43.24859" lon="5.78779">
        <ele>424.419739</ele>
        <time>2022-08-14T06:27:06Z</time>
      </trkpt>
      <trkpt lat="43.24849" lon="5.78793">
        <ele>424.513733</ele>
        <time>2022-08-14T06:27:08Z</time>
      </trkpt>
      <trkpt lat="43.24841" lon="5.78807">
        <ele>424.562164</ele>
        <time>2022-08-14T06:27:10Z</time>
      </trkpt>
      <trkpt lat="43.24831" lon="5.7882">
        <ele>424.653625</ele>
        <time>2022-08-14T06:27:12Z</time>
      </trkpt>
      <trkpt lat="43.24823" lon="5.78834">
        <ele>424.697083</ele>
        <time>2022-08-14T06:27:14Z</time>
      </trkpt>
      <trkpt lat="43.24814" lon="5.78848">
        <ele>424.774506</ele>
        <time>2022-08-14T06:27:16Z</time>
      </trkpt>
      <trkpt lat="43.24805" lon="5.78863">
        <ele>424.808502</ele>
        <time>2022-08-14T06:27:18Z</time>
      </trkpt>
      <trkpt lat="43.24796" lon="5.78877">
        <ele>424.862122</ele>
        <time>2022-08-14T06:27:20Z</time>
      </trkpt>
      <trkpt lat="43.24787" lon="5.78891">
        <ele>424.880463</ele>
        <time>2022-08-14T06:27:22Z</time>
      </trkpt>
      <trkpt lat="43.24779" lon="5.78906">
        <ele>424.899811</ele>
        <time>2022-08-14T06:27:24Z</time>
      </trkpt>
      <trkpt lat="43.2477" lon="5.78917">
        <ele>424.900574</ele>
        <time>2022-08-14T06:27:26Z</time>
      </trkpt>
      <trkpt lat="43.24761" lon="5.78932">
        <ele>424.881439</ele>
        <time>2022-08-14T06:27:28Z</time>
      </trkpt>
      <trkpt lat="43.24752" lon="5.78947">
        <ele>424.860687</ele>
        <time>2022-08-14T06:27:30Z</time>
      </trkpt>
      <trkpt lat="43.24744" lon="5.78961">
        <ele>424.779388</ele>
        <time>2022-08-14T06:27:32Z</time>
      </trkpt>
      <trkpt lat="43.24735" lon="5.78974">
        <ele>424.715881</ele>
        <time>2022-08-14T06:27:34Z</time>
      </trkpt>
      <trkpt lat="43.24728" lon="5.78988">
        <ele>424.516754</ele>
        <time>2022-08-14T06:27:36Z</time>
      </trkpt>
      <trkpt lat="43.24719" lon="5.79001">
        <ele>424.374847</ele>
        <time>2022-08-14T06:27:38Z</time>
      </trkpt>
      <trkpt lat="43.24711" lon="5.79016">
        <ele>424.20224</ele>
        <time>2022-08-14T06:27:40Z</time>
      </trkpt>
      <trkpt lat="43.24701" lon="5.79031">
        <ele>423.761871</ele>
        <time>2022-08-14T06:27:42Z</time>
      </trkpt>
      <trkpt lat="43.24692" lon="5.79046">
        <ele>423.494232</ele>
        <time>2022-08-14T06:27:44Z</time>
      </trkpt>
      <trkpt lat="43.24683" lon="5.79062">
        <ele>422.862732</ele>
        <time>2022-08-14T06:27:46Z</time>
      </trkpt>
      <trkpt lat="43.24674" lon="5.79076">
        <ele>422.496826</ele>
        <time>2022-08-14T06:27:48Z</time>
      </trkpt>
      <trkpt lat="43.24664" lon="5.79092">
        <ele>422.0961</ele>
        <time>2022-08-14T06:27:50Z</time>
      </trkpt>
      <trkpt lat="43.24655" lon="5.79107">
        <ele>421.189301</ele>
        <time>2022-08-14T06:27:52Z</time>
      </trkpt>
      <trkpt lat="43.24646" lon="5.79123">
        <ele>420.68573</ele>
        <time>2022-08-14T06:27:54Z</time>
      </trkpt>
      <trkpt lat="43.24636" lon="5.79138">
        <ele>419.588959</ele>
        <time>2022-08-14T06:27:56Z</time>
      </trkpt>
      <trkpt lat="43.24626" lon="5.79153">
        <ele>419.000488</ele>
        <time>2022-08-14T06:27:58Z</time>
      </trkpt>
      <trkpt lat="43.24617" lon="5.79169">
        <ele>418.389954</ele>
        <time>2022-08-14T06:28:00Z</time>
      </trkpt>
      <trkpt lat="43.24607" lon="5.79184">
        <ele>417.124451</ele>
        <time>2022-08-14T06:28:02Z</time>
      </trkpt>
      <trkpt lat="43.24597" lon="5.79199">
        <ele>416.483826</ele>
        <time>2022-08-14T06:28:04Z</time>
      </trkpt>
      <trkpt lat="43.24588" lon="5.79214">
        <ele>415.22467</ele>
        <time>2022-08-14T06:28:06Z</time>
      </trkpt>
      <trkpt lat="43.24579" lon="5.7923">
        <ele>414.619476</ele>
        <time>2022-08-14T06:28:08Z</time>
      </trkpt>
      <trkpt lat="43.24568" lon="5.79245">
        <ele>414.037506</ele>
        <time>2022-08-14T06:28:10Z</time>
      </trkpt>
      <trkpt lat="43.24558" lon="5.79261">
        <ele>412.960052</ele>
        <time>2022-08-14T06:28:12Z</time>
      </trkpt>
      <trkpt lat="43.24548" lon="5.79277">
        <ele>412.471497</ele>
        <time>2022-08-14T06:28:14Z</time>
      </trkpt>
      <trkpt lat="43.24538" lon="5.79293">
        <ele>411.59491</ele>
        <time>2022-08-14T06:28:16Z</time>
      </trkpt>
      <trkpt lat="43.24527" lon="5.79311">
        <ele>411.200623</ele>
        <time>2022-08-14T06:28:18Z</time>
      </trkpt>
      <trkpt lat="43.24516" lon="5.79328">
        <ele>410.828613</ele>
        <time>2022-08-14T06:28:20Z</time>
      </trkpt>
      <trkpt lat="43.24506" lon="5.79346">
        <ele>410.134613</ele>
        <time>2022-08-14T06:28:22Z</time>
      </trkpt>
      <trkpt lat="43.24495" lon="5.79366">
        <ele>409.805756</ele>
        <time>2022-08-14T06:28:24Z</time>
      </trkpt>
      <trkpt lat="43.24486" lon="5.79386">
        <ele>409.167389</ele>
        <time>2022-08-14T06:28:26Z</time>
      </trkpt>
      <trkpt lat="43.24479" lon="5.79408">
        <ele>408.852661</ele>
        <time>2022-08-14T06:28:28Z</time>
      </trkpt>
      <trkpt lat="43.24479" lon="5.79433">
        <ele>408.53894</ele>
        <time>2022-08-14T06:28:30Z</time>
      </trkpt>
      <trkpt lat="43.2448" lon="5.79455">
        <ele>407.913635</ele>
        <time>2022-08-14T06:28:32Z</time>
      </trkpt>
      <trkpt lat="43.24481" lon="5.79477">
        <ele>407.618134</ele>
        <time>2022-08-14T06:28:34Z</time>
      </trkpt>
      <trkpt lat="43.2448" lon="5.79497">
        <ele>407.104584</ele>
        <time>2022-08-14T06:28:36Z</time>
      </trkpt>
      <trkpt lat="43.24473" lon="5.79517">
        <ele>406.900116</ele>
        <time>2022-08-14T06:28:38Z</time>
      </trkpt>
      <trkpt lat="43.24463" lon="5.79536">
        <ele>406.601318</ele>
        <time>2022-08-14T06:28:40Z</time>
      </trkpt>
      <trkpt lat="43.2445" lon="5.79552">
        <ele>406.502625</ele>
        <time>2022-08-14T06:28:42Z</time>
      </trkpt>
      <trkpt lat="43.24436" lon="5.79567">
        <ele>406.410339</ele>
        <time>2022-08-14T06:28:44Z</time>
      </trkpt>
      <trkpt lat="43.24425" lon="5.7958">
        <ele>406.413818</ele>
        <time>2022-08-14T06:28:46Z</time>
      </trkpt>
      <trkpt lat="43.24417" lon="5.79599">
        <ele>406.446381</ele>
        <time>2022-08-14T06:28:48Z</time>
      </trkpt>
      <trkpt lat="43.24414" lon="5.79624">
        <ele>406.578552</ele>
        <time>2022-08-14T06:28:50Z</time>
      </trkpt>
      <trkpt lat="43.24407" lon="5.79645">
        <ele>406.669281</ele>
        <time>2022-08-14T06:28:52Z</time>
      </trkpt>
      <trkpt lat="43.24401" lon="5.79664">
        <ele>406.880188</ele>
        <time>2022-08-14T06:28:54Z</time>
      </trkpt>
      <trkpt lat="43.24394" lon="5.79684">
        <ele>406.991333</ele>
        <time>2022-08-14T06:28:56Z</time>
      </trkpt>
      <trkpt lat="43.24386" lon="5.79708">
        <ele>407.096375</ele>
        <time>2022-08-14T06:28:58Z</time>
      </trkpt>
      <trkpt lat="43.24378" lon="5.79731">
        <ele>407.241028</ele>
        <time>2022-08-14T06:29:00Z</time>
      </trkpt>
      <trkpt lat="43.24369" lon="5.79752">
        <ele>407.252319</ele>
        <time>2022-08-14T06:29:02Z</time>
      </trkpt>
      <trkpt lat="43.24361" lon="5.79774">
        <ele>407.081787</ele>
        <time>2022-08-14T06:29:04Z</time>
      </trkpt>
      <trkpt lat="43.24352" lon="5.79795">
        <ele>406.878601</ele>
        <time>2022-08-14T06:29:06Z</time>
      </trkpt>
      <trkpt lat="43.24344" lon="5.79815">
        <ele>406.194916</ele>
        <time>2022-08-14T06:29:08Z</time>
      </trkpt>
      <trkpt lat="43.24334" lon="5.79837">
        <ele>405.704987</ele>
        <time>2022-08-14T06:29:10Z</time>
      </trkpt>
      <trkpt lat="43.24323" lon="5.7986">
        <ele>405.122192</ele>
        <time>2022-08-14T06:29:12Z</time>
      </trkpt>
      <trkpt lat="43.24313" lon="5.7988">
        <ele>403.739624</ele>
        <time>2022-08-14T06:29:14Z</time>
      </trkpt>
      <trkpt lat="43.24302" lon="5.799">
        <ele>402.980988</ele>
        <time>2022-08-14T06:29:16Z</time>
      </trkpt>
      <trkpt lat="43.24293" lon="5.7992">
        <ele>401.414185</ele>
        <time>2022-08-14T06:29:18Z</time>
      </trkpt>
      <trkpt lat="43.24285" lon="5.79941">
        <ele>400.629181</ele>
        <time>2022-08-14T06:29:20Z</time>
      </trkpt>
      <trkpt lat="43.24276" lon="5.79962">
        <ele>399.090088</ele>
        <time>2022-08-14T06:29:22Z</time>
      </trkpt>
      <trkpt lat="43.2427" lon="5.79985">
        <ele>398.33609</ele>
        <time>2022-08-14T06:29:24Z</time>
      </trkpt>
      <trkpt lat="43.24265" lon="5.8001">
        <ele>397.587189</ele>
        <time>2022-08-14T06:29:26Z</time>
      </trkpt>
      <trkpt lat="43.24261" lon="5.80035">
        <ele>396.059509</ele>
        <time>2022-08-14T06:29:28Z</time>
      </trkpt>
      <trkpt lat="43.24254" lon="5.80059">
        <ele>395.257751</ele>
        <time>2022-08-14T06:29:30Z</time>
      </trkpt>
      <trkpt lat="43.24244" lon="5.80081">
        <ele>393.577026</ele>
        <time>2022-08-14T06:29:32Z</time>
      </trkpt>
      <trkpt lat="43.24232" lon="5.80101">
        <ele>391.812683</ele>
        <time>2022-08-14T06:29:34Z</time>
      </trkpt>
      <trkpt lat="43.2422" lon="5.8012">
        <ele>390.906372</ele>
        <time>2022-08-14T06:29:36Z</time>
      </trkpt>
      <trkpt lat="43.24207" lon="5.8014">
        <ele>389.041534</ele>
        <time>2022-08-14T06:29:38Z</time>
      </trkpt>
      <trkpt lat="43.24194" lon="5.8016">
        <ele>388.081512</ele>
        <time>2022-08-14T06:29:40Z</time>
      </trkpt>
      <trkpt lat="43.24181" lon="5.80179">
        <ele>386.156189</ele>
        <time>2022-08-14T06:29:42Z</time>
      </trkpt>
      <trkpt lat="43.24166" lon="5.80191">
        <ele>385.232483</ele>
        <time>2022-08-14T06:29:44Z</time>
      </trkpt>
      <trkpt lat="43.24149" lon="5.80181">
        <ele>384.358429</ele>
        <time>2022-08-14T06:29:46Z</time>
      </trkpt>
      <trkpt lat="43.24136" lon="5.80167">
        <ele>382.763062</ele>
        <time>2022-08-14T06:29:48Z</time>
      </trkpt>
      <trkpt lat="43.2412" lon="5.80151">
        <ele>382.025452</ele>
        <time>2022-08-14T06:29:50Z</time>
      </trkpt>
      <trkpt lat="43.24103" lon="5.80141">
        <ele>380.606201</ele>
        <time>2022-08-14T06:29:52Z</time>
      </trkpt>
      <trkpt lat="43.24083" lon="5.80136">
        <ele>379.893005</ele>
        <time>2022-08-14T06:29:54Z</time>
      </trkpt>
      <trkpt lat="43.24062" lon="5.80135">
        <ele>379.167389</ele>
        <time>2022-08-14T06:29:56Z</time>
      </trkpt>
      <trkpt lat="43.24041" lon="5.80134">
        <ele>377.694916</ele>
        <time>2022-08-14T06:29:58Z</time>
      </trkpt>
      <trkpt lat="43.2402" lon="5.80136">
        <ele>376.96994</ele>
        <time>2022-08-14T06:30:00Z</time>
      </trkpt>
      <trkpt lat="43.24" lon="5.80141">
        <ele>375.606659</ele>
        <time>2022-08-14T06:30:02Z</time>
      </trkpt>
      <trkpt lat="43.23981" lon="5.80151">
        <ele>374.990662</ele>
        <time>2022-08-14T06:30:04Z</time>
      </trkpt>
      <trkpt lat="43.23962" lon="5.80164">
        <ele>373.91626</ele>
        <time>2022-08-14T06:30:06Z</time>
      </trkpt>
      <trkpt lat="43.23946" lon="5.80181">
        <ele>373.447449</ele>
        <time>2022-08-14T06:30:08Z</time>
      </trkpt>
      <trkpt lat="43.23932" lon="5.80202">
        <ele>372.586578</ele>
        <time>2022-08-14T06:30:10Z</time>
      </trkpt>
      <trkpt lat="43.23919" lon="5.80223">
        <ele>372.170349</ele>
        <time>2022-08-14T06:30:12Z</time>
      </trkpt>
      <trkpt lat="43.23905" lon="5.80244">
        <ele>371.327942</ele>
        <time>2022-08-14T06:30:14Z</time>
      </trkpt>
      <trkpt lat="43.2389" lon="5.80264">
        <ele>370.895813</ele>
        <time>2022-08-14T06:30:16Z</time>
      </trkpt>
      <trkpt lat="43.23872" lon="5.80279">
        <ele>370.463043</ele>
        <time>2022-08-14T06:30:18Z</time>
      </trkpt>
      <trkpt lat="43.23852" lon="5.8029">
        <ele>369.636475</ele>
        <time>2022-08-14T06:30:20Z</time>
      </trkpt>
      <trkpt lat="43.23832" lon="5.803">
        <ele>369.270203</ele>
        <time>2022-08-14T06:30:22Z</time>
      </trkpt>
      <trkpt lat="43.23812" lon="5.80308">
        <ele>368.691101</ele>
        <time>2022-08-14T06:30:24Z</time>
      </trkpt>
      <trkpt lat="43.2378" lon="5.80315">
        <ele>368.291412</ele>
        <time>2022-08-14T06:30:27Z</time>
      </trkpt>
      <trkpt lat="43.23762" lon="5.80306">
        <ele>368.134033</ele>
        <time>2022-08-14T06:30:29Z</time>
      </trkpt>
      <trkpt lat="43.23747" lon="5.80288">
        <ele>367.873352</ele>
        <time>2022-08-14T06:30:31Z</time>
      </trkpt>
      <trkpt lat="43.23731" lon="5.80269">
        <ele>367.761475</ele>
        <time>2022-08-14T06:30:33Z</time>
      </trkpt>
      <trkpt lat="43.23714" lon="5.80248">
        <ele>367.655609</ele>
        <time>2022-08-14T06:30:35Z</time>
      </trkpt>
      <trkpt lat="43.23697" lon="5.80226">
        <ele>367.411377</ele>
        <time>2022-08-14T06:30:37Z</time>
      </trkpt>
      <trkpt lat="43.2368" lon="5.80205">
        <ele>367.231293</ele>
        <time>2022-08-14T06:30:39Z</time>
      </trkpt>
      <trkpt lat="43.23661" lon="5.80184">
        <ele>366.659241</ele>
        <time>2022-08-14T06:30:41Z</time>
      </trkpt>
      <trkpt lat="43.23642" lon="5.8017">
        <ele>366.253082</ele>
        <time>2022-08-14T06:30:43Z</time>
      </trkpt>
      <trkpt lat="43.23623" lon="5.80177">
        <ele>365.238129</ele>
        <time>2022-08-14T06:30:45Z</time>
      </trkpt>
      <trkpt lat="43.23599" lon="5.80183">
        <ele>364.672119</ele>
        <time>2022-08-14T06:30:47Z</time>
      </trkpt>
      <trkpt lat="43.23578" lon="5.80196">
        <ele>363.499908</ele>
        <time>2022-08-14T06:30:49Z</time>
      </trkpt>
      <trkpt lat="43.2356" lon="5.80214">
        <ele>362.926331</ele>
        <time>2022-08-14T06:30:51Z</time>
      </trkpt>
      <trkpt lat="43.23542" lon="5.80232">
        <ele>361.836731</ele>
        <time>2022-08-14T06:30:53Z</time>
      </trkpt>
      <trkpt lat="43.23525" lon="5.80251">
        <ele>361.315521</ele>
        <time>2022-08-14T06:30:55Z</time>
      </trkpt>
      <trkpt lat="43.23509" lon="5.80272">
        <ele>360.285583</ele>
        <time>2022-08-14T06:30:57Z</time>
      </trkpt>
      <trkpt lat="43.23493" lon="5.80293">
        <ele>359.765625</ele>
        <time>2022-08-14T06:30:59Z</time>
      </trkpt>
      <trkpt lat="43.23478" lon="5.80316">
        <ele>358.700256</ele>
        <time>2022-08-14T06:31:01Z</time>
      </trkpt>
      <trkpt lat="43.23464" lon="5.80338">
        <ele>358.154114</ele>
        <time>2022-08-14T06:31:03Z</time>
      </trkpt>
      <trkpt lat="43.23449" lon="5.8036">
        <ele>357.59903</ele>
        <time>2022-08-14T06:31:05Z</time>
      </trkpt>
      <trkpt lat="43.23436" lon="5.80382">
        <ele>356.459564</ele>
        <time>2022-08-14T06:31:07Z</time>
      </trkpt>
      <trkpt lat="43.23423" lon="5.80405">
        <ele>355.872803</ele>
        <time>2022-08-14T06:31:09Z</time>
      </trkpt>
      <trkpt lat="43.23413" lon="5.80429">
        <ele>354.654846</ele>
        <time>2022-08-14T06:31:11Z</time>
      </trkpt>
      <trkpt lat="43.23403" lon="5.80455">
        <ele>354.016937</ele>
        <time>2022-08-14T06:31:13Z</time>
      </trkpt>
      <trkpt lat="43.23393" lon="5.80481">
        <ele>352.667023</ele>
        <time>2022-08-14T06:31:15Z</time>
      </trkpt>
      <trkpt lat="43.23383" lon="5.80507">
        <ele>351.951935</ele>
        <time>2022-08-14T06:31:17Z</time>
      </trkpt>
      <trkpt lat="43.23375" lon="5.80535">
        <ele>350.44519</ele>
        <time>2022-08-14T06:31:19Z</time>
      </trkpt>
      <trkpt lat="43.23367" lon="5.80565">
        <ele>349.656189</ele>
        <time>2022-08-14T06:31:21Z</time>
      </trkpt>
      <trkpt lat="43.23357" lon="5.80593">
        <ele>348.015289</ele>
        <time>2022-08-14T06:31:23Z</time>
      </trkpt>
      <trkpt lat="43.23344" lon="5.80618">
        <ele>347.16983</ele>
        <time>2022-08-14T06:31:25Z</time>
      </trkpt>
      <trkpt lat="43.23328" lon="5.8064">
        <ele>345.45282</ele>
        <time>2022-08-14T06:31:27Z</time>
      </trkpt>
      <trkpt lat="43.23313" lon="5.80663">
        <ele>344.590759</ele>
        <time>2022-08-14T06:31:29Z</time>
      </trkpt>
      <trkpt lat="43.23299" lon="5.80689">
        <ele>342.892883</ele>
        <time>2022-08-14T06:31:31Z</time>
      </trkpt>
      <trkpt lat="43.23287" lon="5.80714">
        <ele>342.071472</ele>
        <time>2022-08-14T06:31:33Z</time>
      </trkpt>
      <trkpt lat="43.23275" lon="5.8074">
        <ele>340.49823</ele>
        <time>2022-08-14T06:31:35Z</time>
      </trkpt>
      <trkpt lat="43.23261" lon="5.80763">
        <ele>339.752747</ele>
        <time>2022-08-14T06:31:37Z</time>
      </trkpt>
      <trkpt lat="43.23246" lon="5.80785">
        <ele>338.364258</ele>
        <time>2022-08-14T06:31:39Z</time>
      </trkpt>
      <trkpt lat="43.23229" lon="5.80805">
        <ele>337.710236</ele>
        <time>2022-08-14T06:31:41Z</time>
      </trkpt>
      <trkpt lat="43.23211" lon="5.80824">
        <ele>336.515198</ele>
        <time>2022-08-14T06:31:43Z</time>
      </trkpt>
      <trkpt lat="43.23194" lon="5.80843">
        <ele>335.97641</ele>
        <time>2022-08-14T06:31:45Z</time>
      </trkpt>
      <trkpt lat="43.23175" lon="5.8086">
        <ele>335.016144</ele>
        <time>2022-08-14T06:31:47Z</time>
      </trkpt>
      <trkpt lat="43.23154" lon="5.80867">
        <ele>334.591034</ele>
        <time>2022-08-14T06:31:49Z</time>
      </trkpt>
      <trkpt lat="43.23133" lon="5.80856">
        <ele>333.837097</ele>
        <time>2022-08-14T06:31:51Z</time>
      </trkpt>
      <trkpt lat="43.2312" lon="5.8083">
        <ele>333.500305</ele>
        <time>2022-08-14T06:31:53Z</time>
      </trkpt>
      <trkpt lat="43.2312" lon="5.80798">
        <ele>332.873352</ele>
        <time>2022-08-14T06:31:55Z</time>
      </trkpt>
      <trkpt lat="43.23129" lon="5.80769">
        <ele>332.577637</ele>
        <time>2022-08-14T06:31:57Z</time>
      </trkpt>
      <trkpt lat="43.2314" lon="5.80741">
        <ele>331.986633</ele>
        <time>2022-08-14T06:31:59Z</time>
      </trkpt>
      <trkpt lat="43.23151" lon="5.80712">
        <ele>331.684143</ele>
        <time>2022-08-14T06:32:01Z</time>
      </trkpt>
      <trkpt lat="43.23161" lon="5.80683">
        <ele>331.05426</ele>
        <time>2022-08-14T06:32:03Z</time>
      </trkpt>
      <trkpt lat="43.23172" lon="5.80655">
        <ele>330.724731</ele>
        <time>2022-08-14T06:32:05Z</time>
      </trkpt>
      <trkpt lat="43.23182" lon="5.80627">
        <ele>330.383972</ele>
        <time>2022-08-14T06:32:07Z</time>
      </trkpt>
      <trkpt lat="43.23189" lon="5.80598">
        <ele>329.656708</ele>
        <time>2022-08-14T06:32:09Z</time>
      </trkpt>
      <trkpt lat="43.23188" lon="5.80567">
        <ele>328.852753</ele>
        <time>2022-08-14T06:32:11Z</time>
      </trkpt>
      <trkpt lat="43.23178" lon="5.8054">
        <ele>328.41925</ele>
        <time>2022-08-14T06:32:13Z</time>
      </trkpt>
      <trkpt lat="43.23159" lon="5.80522">
        <ele>327.487396</ele>
        <time>2022-08-14T06:32:15Z</time>
      </trkpt>
      <trkpt lat="43.23136" lon="5.80513">
        <ele>326.986115</ele>
        <time>2022-08-14T06:32:17Z</time>
      </trkpt>
      <trkpt lat="43.23113" lon="5.80511">
        <ele>326.458069</ele>
        <time>2022-08-14T06:32:19Z</time>
      </trkpt>
      <trkpt lat="43.2309" lon="5.80518">
        <ele>325.318146</ele>
        <time>2022-08-14T06:32:21Z</time>
      </trkpt>
      <trkpt lat="43.23071" lon="5.80534">
        <ele>324.711121</ele>
        <time>2022-08-14T06:32:23Z</time>
      </trkpt>
      <trkpt lat="43.23055" lon="5.80557">
        <ele>323.446106</ele>
        <time>2022-08-14T06:32:25Z</time>
      </trkpt>
      <trkpt lat="43.23041" lon="5.80582">
        <ele>322.791168</ele>
        <time>2022-08-14T06:32:27Z</time>
      </trkpt>
      <trkpt lat="43.23027" lon="5.80607">
        <ele>321.419006</ele>
        <time>2022-08-14T06:32:29Z</time>
      </trkpt>
      <trkpt lat="43.23013" lon="5.80632">
        <ele>320.699951</ele>
        <time>2022-08-14T06:32:31Z</time>
      </trkpt>
      <trkpt lat="43.22999" lon="5.80656">
        <ele>319.188232</ele>
        <time>2022-08-14T06:32:33Z</time>
      </trkpt>
      <trkpt lat="43.22985" lon="5.80681">
        <ele>318.393921</ele>
        <time>2022-08-14T06:32:35Z</time>
      </trkpt>
      <trkpt lat="43.22971" lon="5.80706">
        <ele>316.731445</ele>
        <time>2022-08-14T06:32:37Z</time>
      </trkpt>
      <trkpt lat="43.22958" lon="5.8073">
        <ele>315.867889</ele>
        <time>2022-08-14T06:32:39Z</time>
      </trkpt>
      <trkpt lat="43.22944" lon="5.80754">
        <ele>314.090912</ele>
        <time>2022-08-14T06:32:41Z</time>
      </trkpt>
      <trkpt lat="43.2293" lon="5.80778">
        <ele>313.18454</ele>
        <time>2022-08-14T06:32:43Z</time>
      </trkpt>
      <trkpt lat="43.22914" lon="5.80801">
        <ele>311.357941</ele>
        <time>2022-08-14T06:32:45Z</time>
      </trkpt>
      <trkpt lat="43.22895" lon="5.80819">
        <ele>310.445068</ele>
        <time>2022-08-14T06:32:47Z</time>
      </trkpt>
      <trkpt lat="43.22876" lon="5.80834">
        <ele>308.640198</ele>
        <time>2022-08-14T06:32:49Z</time>
      </trkpt>
      <trkpt lat="43.22856" lon="5.8085">
        <ele>307.741516</ele>
        <time>2022-08-14T06:32:51Z</time>
      </trkpt>
      <trkpt lat="43.22837" lon="5.80866">
        <ele>305.948303</ele>
        <time>2022-08-14T06:32:53Z</time>
      </trkpt>
      <trkpt lat="43.22818" lon="5.80882">
        <ele>304.143433</ele>
        <time>2022-08-14T06:32:55Z</time>
      </trkpt>
      <trkpt lat="43.22798" lon="5.80897">
        <ele>303.233948</ele>
        <time>2022-08-14T06:32:57Z</time>
      </trkpt>
      <trkpt lat="43.22779" lon="5.80913">
        <ele>302.319122</ele>
        <time>2022-08-14T06:32:59Z</time>
      </trkpt>
      <trkpt lat="43.2276" lon="5.80928">
        <ele>300.479187</ele>
        <time>2022-08-14T06:33:01Z</time>
      </trkpt>
      <trkpt lat="43.22741" lon="5.80944">
        <ele>299.561035</ele>
        <time>2022-08-14T06:33:03Z</time>
      </trkpt>
      <trkpt lat="43.22722" lon="5.8096">
        <ele>297.751221</ele>
        <time>2022-08-14T06:33:05Z</time>
      </trkpt>
      <trkpt lat="43.22702" lon="5.80976">
        <ele>296.868713</ele>
        <time>2022-08-14T06:33:07Z</time>
      </trkpt>
      <trkpt lat="43.22683" lon="5.80991">
        <ele>295.165436</ele>
        <time>2022-08-14T06:33:09Z</time>
      </trkpt>
      <trkpt lat="43.22664" lon="5.81007">
        <ele>293.561127</ele>
        <time>2022-08-14T06:33:11Z</time>
      </trkpt>
      <trkpt lat="43.22645" lon="5.81022">
        <ele>292.799011</ele>
        <time>2022-08-14T06:33:13Z</time>
      </trkpt>
      <trkpt lat="43.22626" lon="5.81037">
        <ele>291.349548</ele>
        <time>2022-08-14T06:33:15Z</time>
      </trkpt>
      <trkpt lat="43.22606" lon="5.81048">
        <ele>290.662689</ele>
        <time>2022-08-14T06:33:17Z</time>
      </trkpt>
      <trkpt lat="43.22584" lon="5.81051">
        <ele>289.352112</ele>
        <time>2022-08-14T06:33:19Z</time>
      </trkpt>
      <trkpt lat="43.22563" lon="5.81047">
        <ele>288.737152</ele>
        <time>2022-08-14T06:33:21Z</time>
      </trkpt>
      <trkpt lat="43.22541" lon="5.81042">
        <ele>287.560852</ele>
        <time>2022-08-14T06:33:23Z</time>
      </trkpt>
      <trkpt lat="43.2252" lon="5.81043">
        <ele>286.982117</ele>
        <time>2022-08-14T06:33:25Z</time>
      </trkpt>
      <trkpt lat="43.22498" lon="5.81051">
        <ele>285.80719</ele>
        <time>2022-08-14T06:33:27Z</time>
      </trkpt>
      <trkpt lat="43.22479" lon="5.81065">
        <ele>285.201111</ele>
        <time>2022-08-14T06:33:29Z</time>
      </trkpt>
      <trkpt lat="43.22463" lon="5.81084">
        <ele>284.579285</ele>
        <time>2022-08-14T06:33:31Z</time>
      </trkpt>
      <trkpt lat="43.22451" lon="5.81109">
        <ele>283.28891</ele>
        <time>2022-08-14T06:33:33Z</time>
      </trkpt>
      <trkpt lat="43.22442" lon="5.81135">
        <ele>281.960205</ele>
        <time>2022-08-14T06:33:35Z</time>
      </trkpt>
      <trkpt lat="43.2243" lon="5.8116">
        <ele>281.294006</ele>
        <time>2022-08-14T06:33:37Z</time>
      </trkpt>
      <trkpt lat="43.22415" lon="5.81182">
        <ele>279.975647</ele>
        <time>2022-08-14T06:33:39Z</time>
      </trkpt>
      <trkpt lat="43.22397" lon="5.81199">
        <ele>279.327393</ele>
        <time>2022-08-14T06:33:41Z</time>
      </trkpt>
      <trkpt lat="43.22377" lon="5.81215">
        <ele>278.0625</ele>
        <time>2022-08-14T06:33:43Z</time>
      </trkpt>
      <trkpt lat="43.22356" lon="5.81229">
        <ele>277.454407</ele>
        <time>2022-08-14T06:33:45Z</time>
      </trkpt>
      <trkpt lat="43.22333" lon="5.81234">
        <ele>276.306763</ele>
        <time>2022-08-14T06:33:47Z</time>
      </trkpt>
      <trkpt lat="43.2231" lon="5.81231">
        <ele>275.772552</ele>
        <time>2022-08-14T06:33:49Z</time>
      </trkpt>
      <trkpt lat="43.22286" lon="5.81224">
        <ele>274.778717</ele>
        <time>2022-08-14T06:33:51Z</time>
      </trkpt>
      <trkpt lat="43.22262" lon="5.81217">
        <ele>274.307983</ele>
        <time>2022-08-14T06:33:53Z</time>
      </trkpt>
      <trkpt lat="43.22239" lon="5.81209">
        <ele>273.378143</ele>
        <time>2022-08-14T06:33:55Z</time>
      </trkpt>
      <trkpt lat="43.22217" lon="5.81203">
        <ele>272.387634</ele>
        <time>2022-08-14T06:33:57Z</time>
      </trkpt>
      <trkpt lat="43.22194" lon="5.81202">
        <ele>271.838623</ele>
        <time>2022-08-14T06:33:59Z</time>
      </trkpt>
      <trkpt lat="43.22172" lon="5.81209">
        <ele>270.639221</ele>
        <time>2022-08-14T06:34:01Z</time>
      </trkpt>
      <trkpt lat="43.2215" lon="5.81221">
        <ele>269.278259</ele>
        <time>2022-08-14T06:34:03Z</time>
      </trkpt>
      <trkpt lat="43.2213" lon="5.81235">
        <ele>268.55191</ele>
        <time>2022-08-14T06:34:05Z</time>
      </trkpt>
      <trkpt lat="43.2211" lon="5.8125">
        <ele>267.801208</ele>
        <time>2022-08-14T06:34:07Z</time>
      </trkpt>
      <trkpt lat="43.2209" lon="5.81265">
        <ele>266.257629</ele>
        <time>2022-08-14T06:34:09Z</time>
      </trkpt>
      <trkpt lat="43.2207" lon="5.81279">
        <ele>265.473114</ele>
        <time>2022-08-14T06:34:11Z</time>
      </trkpt>
      <trkpt lat="43.22051" lon="5.81294">
        <ele>263.897064</ele>
        <time>2022-08-14T06:34:13Z</time>
      </trkpt>
      <trkpt lat="43.22031" lon="5.81308">
        <ele>263.111664</ele>
        <time>2022-08-14T06:34:15Z</time>
      </trkpt>
      <trkpt lat="43.2201" lon="5.81322">
        <ele>261.568634</ele>
        <time>2022-08-14T06:34:17Z</time>
      </trkpt>
      <trkpt lat="43.21989" lon="5.81335">
        <ele>260.819031</ele>
        <time>2022-08-14T06:34:19Z</time>
      </trkpt>
      <trkpt lat="43.21967" lon="5.81345">
        <ele>259.379608</ele>
        <time>2022-08-14T06:34:21Z</time>
      </trkpt>
      <trkpt lat="43.21946" lon="5.81355">
        <ele>258.692932</ele>
        <time>2022-08-14T06:34:23Z</time>
      </trkpt>
      <trkpt lat="43.21923" lon="5.81362">
        <ele>257.382721</ele>
        <time>2022-08-14T06:34:25Z</time>
      </trkpt>
      <trkpt lat="43.21901" lon="5.81364">
        <ele>256.752716</ele>
        <time>2022-08-14T06:34:27Z</time>
      </trkpt>
      <trkpt lat="43.21879" lon="5.81358">
        <ele>255.506012</ele>
        <time>2022-08-14T06:34:29Z</time>
      </trkpt>
      <trkpt lat="43.2186" lon="5.81342">
        <ele>254.244415</ele>
        <time>2022-08-14T06:34:31Z</time>
      </trkpt>
      <trkpt lat="43.21846" lon="5.81318">
        <ele>253.597443</ele>
        <time>2022-08-14T06:34:33Z</time>
      </trkpt>
      <trkpt lat="43.2184" lon="5.81288">
        <ele>252.262405</ele>
        <time>2022-08-14T06:34:35Z</time>
      </trkpt>
      <trkpt lat="43.21837" lon="5.81256">
        <ele>251.570267</ele>
        <time>2022-08-14T06:34:37Z</time>
      </trkpt>
      <trkpt lat="43.21836" lon="5.81224">
        <ele>250.135223</ele>
        <time>2022-08-14T06:34:39Z</time>
      </trkpt>
      <trkpt lat="43.21833" lon="5.81191">
        <ele>249.394577</ele>
        <time>2022-08-14T06:34:41Z</time>
      </trkpt>
      <trkpt lat="43.21832" lon="5.81158">
        <ele>247.883148</ele>
        <time>2022-08-14T06:34:43Z</time>
      </trkpt>
      <trkpt lat="43.2183" lon="5.81125">
        <ele>247.125153</ele>
        <time>2022-08-14T06:34:45Z</time>
      </trkpt>
      <trkpt lat="43.21829" lon="5.81091">
        <ele>245.648239</ele>
        <time>2022-08-14T06:34:47Z</time>
      </trkpt>
      <trkpt lat="43.21828" lon="5.81058">
        <ele>244.943436</ele>
        <time>2022-08-14T06:34:49Z</time>
      </trkpt>
      <trkpt lat="43.21832" lon="5.81025">
        <ele>243.652924</ele>
        <time>2022-08-14T06:34:51Z</time>
      </trkpt>
      <trkpt lat="43.21839" lon="5.80994">
        <ele>243.060379</ele>
        <time>2022-08-14T06:34:53Z</time>
      </trkpt>
      <trkpt lat="43.21846" lon="5.80964">
        <ele>242.012573</ele>
        <time>2022-08-14T06:34:55Z</time>
      </trkpt>
      <trkpt lat="43.21854" lon="5.80934">
        <ele>241.537033</ele>
        <time>2022-08-14T06:34:57Z</time>
      </trkpt>
      <trkpt lat="43.21861" lon="5.80903">
        <ele>240.683807</ele>
        <time>2022-08-14T06:34:59Z</time>
      </trkpt>
      <trkpt lat="43.21861" lon="5.80872">
        <ele>240.292191</ele>
        <time>2022-08-14T06:35:01Z</time>
      </trkpt>
      <trkpt lat="43.21852" lon="5.80845">
        <ele>239.544556</ele>
        <time>2022-08-14T06:35:03Z</time>
      </trkpt>
      <trkpt lat="43.21835" lon="5.80826">
        <ele>239.177887</ele>
        <time>2022-08-14T06:35:05Z</time>
      </trkpt>
      <trkpt lat="43.21814" lon="5.80822">
        <ele>238.4384</ele>
        <time>2022-08-14T06:35:07Z</time>
      </trkpt>
      <trkpt lat="43.21793" lon="5.80828">
        <ele>238.067093</ele>
        <time>2022-08-14T06:35:09Z</time>
      </trkpt>
      <trkpt lat="43.21774" lon="5.80841">
        <ele>237.30484</ele>
        <time>2022-08-14T06:35:11Z</time>
      </trkpt>
      <trkpt lat="43.21754" lon="5.80855">
        <ele>236.914063</ele>
        <time>2022-08-14T06:35:13Z</time>
      </trkpt>
      <trkpt lat="43.21735" lon="5.80869">
        <ele>236.124146</ele>
        <time>2022-08-14T06:35:15Z</time>
      </trkpt>
      <trkpt lat="43.21715" lon="5.80884">
        <ele>235.712326</ele>
        <time>2022-08-14T06:35:17Z</time>
      </trkpt>
      <trkpt lat="43.21696" lon="5.80898">
        <ele>234.844818</ele>
        <time>2022-08-14T06:35:19Z</time>
      </trkpt>
      <trkpt lat="43.21677" lon="5.80912">
        <ele>234.389084</ele>
        <time>2022-08-14T06:35:21Z</time>
      </trkpt>
      <trkpt lat="43.21658" lon="5.80927">
        <ele>233.429153</ele>
        <time>2022-08-14T06:35:23Z</time>
      </trkpt>
      <trkpt lat="43.2164" lon="5.80945">
        <ele>232.927734</ele>
        <time>2022-08-14T06:35:25Z</time>
      </trkpt>
      <trkpt lat="43.21628" lon="5.80969">
        <ele>231.884064</ele>
        <time>2022-08-14T06:35:27Z</time>
      </trkpt>
      <trkpt lat="43.21621" lon="5.80994">
        <ele>231.343384</ele>
        <time>2022-08-14T06:35:29Z</time>
      </trkpt>
      <trkpt lat="43.21621" lon="5.81023">
        <ele>230.252075</ele>
        <time>2022-08-14T06:35:31Z</time>
      </trkpt>
      <trkpt lat="43.21621" lon="5.81052">
        <ele>229.702347</ele>
        <time>2022-08-14T06:35:33Z</time>
      </trkpt>
      <trkpt lat="43.21614" lon="5.81081">
        <ele>228.626556</ele>
        <time>2022-08-14T06:35:35Z</time>
      </trkpt>
      <trkpt lat="43.21597" lon="5.81099">
        <ele>228.108765</ele>
        <time>2022-08-14T06:35:37Z</time>
      </trkpt>
      <trkpt lat="43.21576" lon="5.81105">
        <ele>227.604935</ele>
        <time>2022-08-14T06:35:39Z</time>
      </trkpt>
      <trkpt lat="43.21554" lon="5.81098">
        <ele>226.620117</ele>
        <time>2022-08-14T06:35:41Z</time>
      </trkpt>
      <trkpt lat="43.21537" lon="5.81082">
        <ele>226.128082</ele>
        <time>2022-08-14T06:35:43Z</time>
      </trkpt>
      <trkpt lat="43.2152" lon="5.81062">
        <ele>225.092697</ele>
        <time>2022-08-14T06:35:45Z</time>
      </trkpt>
      <trkpt lat="43.21499" lon="5.8105">
        <ele>224.528351</ele>
        <time>2022-08-14T06:35:47Z</time>
      </trkpt>
      <trkpt lat="43.21478" lon="5.81053">
        <ele>223.923492</ele>
        <time>2022-08-14T06:35:49Z</time>
      </trkpt>
      <trkpt lat="43.21458" lon="5.81069">
        <ele>222.571045</ele>
        <time>2022-08-14T06:35:51Z</time>
      </trkpt>
      <trkpt lat="43.21444" lon="5.81092">
        <ele>221.81926</ele>
        <time>2022-08-14T06:35:53Z</time>
      </trkpt>
      <trkpt lat="43.2143" lon="5.81115">
        <ele>220.186005</ele>
        <time>2022-08-14T06:35:55Z</time>
      </trkpt>
      <trkpt lat="43.21417" lon="5.81139">
        <ele>219.324799</ele>
        <time>2022-08-14T06:35:57Z</time>
      </trkpt>
      <trkpt lat="43.21404" lon="5.81162">
        <ele>218.45015</ele>
        <time>2022-08-14T06:35:59Z</time>
      </trkpt>
      <trkpt lat="43.21395" lon="5.81189">
        <ele>216.704803</ele>
        <time>2022-08-14T06:36:01Z</time>
      </trkpt>
      <trkpt lat="43.21388" lon="5.81216">
        <ele>215.844818</ele>
        <time>2022-08-14T06:36:03Z</time>
      </trkpt>
      <trkpt lat="43.21384" lon="5.81245">
        <ele>214.165527</ele>
        <time>2022-08-14T06:36:05Z</time>
      </trkpt>
      <trkpt lat="43.21379" lon="5.81274">
        <ele>213.361237</ele>
        <time>2022-08-14T06:36:07Z</time>
      </trkpt>
      <trkpt lat="43.21375" lon="5.81303">
        <ele>212.585938</ele>
        <time>2022-08-14T06:36:09Z</time>
      </trkpt>
      <trkpt lat="43.21371" lon="5.81333">
        <ele>211.118561</ele>
        <time>2022-08-14T06:36:11Z</time>
      </trkpt>
      <trkpt lat="43.21369" lon="5.81362">
        <ele>210.440155</ele>
        <time>2022-08-14T06:36:13Z</time>
      </trkpt>
      <trkpt lat="43.21368" lon="5.81392">
        <ele>209.202515</ele>
        <time>2022-08-14T06:36:15Z</time>
      </trkpt>
      <trkpt lat="43.21367" lon="5.81422">
        <ele>208.63913</ele>
        <time>2022-08-14T06:36:17Z</time>
      </trkpt>
      <trkpt lat="43.21357" lon="5.81448">
        <ele>207.64534</ele>
        <time>2022-08-14T06:36:19Z</time>
      </trkpt>
      <trkpt lat="43.21339" lon="5.81463">
        <ele>207.218674</ele>
        <time>2022-08-14T06:36:21Z</time>
      </trkpt>
      <trkpt lat="43.21319" lon="5.81461">
        <ele>206.518234</ele>
        <time>2022-08-14T06:36:23Z</time>
      </trkpt>
      <trkpt lat="43.21307" lon="5.81444">
        <ele>206.245895</ele>
        <time>2022-08-14T06:36:25Z</time>
      </trkpt>
      <trkpt lat="43.21303" lon="5.81421">
        <ele>206.013382</ele>
        <time>2022-08-14T06:36:27Z</time>
      </trkpt>
      <trkpt lat="43.21299" lon="5.81399">
        <ele>205.653854</ele>
        <time>2022-08-14T06:36:29Z</time>
      </trkpt>
      <trkpt lat="43.21296" lon="5.81377">
        <ele>205.501129</ele>
        <time>2022-08-14T06:36:31Z</time>
      </trkpt>
      <trkpt lat="43.21293" lon="5.81357">
        <ele>205.183685</ele>
        <time>2022-08-14T06:36:33Z</time>
      </trkpt>
      <trkpt lat="43.21289" lon="5.81337">
        <ele>205.003754</ele>
        <time>2022-08-14T06:36:35Z</time>
      </trkpt>
      <trkpt lat="43.21287" lon="5.81317">
        <ele>204.806763</ele>
        <time>2022-08-14T06:36:37Z</time>
      </trkpt>
      <trkpt lat="43.21284" lon="5.81298">
        <ele>204.375122</ele>
        <time>2022-08-14T06:36:39Z</time>
      </trkpt>
      <trkpt lat="43.2128" lon="5.81279">
        <ele>204.156326</ele>
        <time>2022-08-14T06:36:41Z</time>
      </trkpt>
      <trkpt lat="43.21276" lon="5.81259">
        <ele>203.760254</ele>
        <time>2022-08-14T06:36:43Z</time>
      </trkpt>
      <trkpt lat="43.21273" lon="5.8124">
        <ele>203.601349</ele>
        <time>2022-08-14T06:36:45Z</time>
      </trkpt>
      <trkpt lat="43.21269" lon="5.81222">
        <ele>203.477982</ele>
        <time>2022-08-14T06:36:47Z</time>
      </trkpt>
      <trkpt lat="43.21264" lon="5.81205">
        <ele>203.350922</ele>
        <time>2022-08-14T06:36:49Z</time>
      </trkpt>
      <trkpt lat="43.21257" lon="5.81188">
        <ele>203.343216</ele>
        <time>2022-08-14T06:36:51Z</time>
      </trkpt>
      <trkpt lat="43.2125" lon="5.81172">
        <ele>203.398041</ele>
        <time>2022-08-14T06:36:53Z</time>
      </trkpt>
      <trkpt lat="43.21241" lon="5.81157">
        <ele>203.441193</ele>
        <time>2022-08-14T06:36:55Z</time>
      </trkpt>
      <trkpt lat="43.21231" lon="5.81144">
        <ele>203.525391</ele>
        <time>2022-08-14T06:36:57Z</time>
      </trkpt>
      <trkpt lat="43.21219" lon="5.81132">
        <ele>203.567871</ele>
        <time>2022-08-14T06:36:59Z</time>
      </trkpt>
      <trkpt lat="43.21205" lon="5.81122">
        <ele>203.61026</ele>
        <time>2022-08-14T06:37:01Z</time>
      </trkpt>
      <trkpt lat="43.21189" lon="5.81116">
        <ele>203.693695</ele>
        <time>2022-08-14T06:37:03Z</time>
      </trkpt>
      <trkpt lat="43.21172" lon="5.81114">
        <ele>203.731155</ele>
        <time>2022-08-14T06:37:05Z</time>
      </trkpt>
      <trkpt lat="43.21154" lon="5.81115">
        <ele>203.776337</ele>
        <time>2022-08-14T06:37:07Z</time>
      </trkpt>
      <trkpt lat="43.21135" lon="5.81119">
        <ele>203.770432</ele>
        <time>2022-08-14T06:37:09Z</time>
      </trkpt>
      <trkpt lat="43.21116" lon="5.81123">
        <ele>203.664841</ele>
        <time>2022-08-14T06:37:11Z</time>
      </trkpt>
      <trkpt lat="43.21096" lon="5.8113">
        <ele>203.559357</ele>
        <time>2022-08-14T06:37:13Z</time>
      </trkpt>
      <trkpt lat="43.21077" lon="5.81138">
        <ele>203.408081</ele>
        <time>2022-08-14T06:37:15Z</time>
      </trkpt>
      <trkpt lat="43.21058" lon="5.81142">
        <ele>202.949539</ele>
        <time>2022-08-14T06:37:17Z</time>
      </trkpt>
      <trkpt lat="43.21039" lon="5.81148">
        <ele>202.278152</ele>
        <time>2022-08-14T06:37:19Z</time>
      </trkpt>
      <trkpt lat="43.21019" lon="5.81155">
        <ele>201.850296</ele>
        <time>2022-08-14T06:37:21Z</time>
      </trkpt>
      <trkpt lat="43.20999" lon="5.81164">
        <ele>200.824432</ele>
        <time>2022-08-14T06:37:23Z</time>
      </trkpt>
      <trkpt lat="43.20978" lon="5.81173">
        <ele>200.239456</ele>
        <time>2022-08-14T06:37:25Z</time>
      </trkpt>
      <trkpt lat="43.20958" lon="5.81184">
        <ele>199.615768</ele>
        <time>2022-08-14T06:37:27Z</time>
      </trkpt>
      <trkpt lat="43.20938" lon="5.81192">
        <ele>198.29509</ele>
        <time>2022-08-14T06:37:29Z</time>
      </trkpt>
      <trkpt lat="43.20917" lon="5.81195">
        <ele>196.916992</ele>
        <time>2022-08-14T06:37:31Z</time>
      </trkpt>
      <trkpt lat="43.20896" lon="5.81196">
        <ele>196.214935</ele>
        <time>2022-08-14T06:37:33Z</time>
      </trkpt>
      <trkpt lat="43.20875" lon="5.81195">
        <ele>195.510086</ele>
        <time>2022-08-14T06:37:35Z</time>
      </trkpt>
      <trkpt lat="43.20855" lon="5.81191">
        <ele>194.110443</ele>
        <time>2022-08-14T06:37:37Z</time>
      </trkpt>
      <trkpt lat="43.20838" lon="5.81185">
        <ele>193.425705</ele>
        <time>2022-08-14T06:37:39Z</time>
      </trkpt>
      <trkpt lat="43.20822" lon="5.81177">
        <ele>192.104004</ele>
        <time>2022-08-14T06:37:41Z</time>
      </trkpt>
      <trkpt lat="43.20805" lon="5.81168">
        <ele>191.47168</ele>
        <time>2022-08-14T06:37:43Z</time>
      </trkpt>
      <trkpt lat="43.20791" lon="5.81156">
        <ele>190.267776</ele>
        <time>2022-08-14T06:37:45Z</time>
      </trkpt>
      <trkpt lat="43.20777" lon="5.81144">
        <ele>189.703247</ele>
        <time>2022-08-14T06:37:47Z</time>
      </trkpt>
      <trkpt lat="43.20763" lon="5.81132">
        <ele>188.653046</ele>
        <time>2022-08-14T06:37:49Z</time>
      </trkpt>
      <trkpt lat="43.20751" lon="5.8112">
        <ele>188.166016</ele>
        <time>2022-08-14T06:37:51Z</time>
      </trkpt>
      <trkpt lat="43.20739" lon="5.81109">
        <ele>187.701416</ele>
        <time>2022-08-14T06:37:53Z</time>
      </trkpt>
      <trkpt lat="43.20728" lon="5.81098">
        <ele>186.829437</ele>
        <time>2022-08-14T06:37:55Z</time>
      </trkpt>
      <trkpt lat="43.20715" lon="5.81087">
        <ele>186.417633</ele>
        <time>2022-08-14T06:37:57Z</time>
      </trkpt>
      <trkpt lat="43.20704" lon="5.81076">
        <ele>186.019577</ele>
        <time>2022-08-14T06:37:59Z</time>
      </trkpt>
      <trkpt lat="43.20691" lon="5.81065">
        <ele>185.263031</ele>
        <time>2022-08-14T06:38:01Z</time>
      </trkpt>
      <trkpt lat="43.20679" lon="5.81054">
        <ele>184.90657</ele>
        <time>2022-08-14T06:38:03Z</time>
      </trkpt>
      <trkpt lat="43.20667" lon="5.81043">
        <ele>184.25235</ele>
        <time>2022-08-14T06:38:05Z</time>
      </trkpt>
      <trkpt lat="43.20655" lon="5.81032">
        <ele>183.959427</ele>
        <time>2022-08-14T06:38:07Z</time>
      </trkpt>
      <trkpt lat="43.20642" lon="5.81021">
        <ele>183.459839</ele>
        <time>2022-08-14T06:38:09Z</time>
      </trkpt>
      <trkpt lat="43.2063" lon="5.8101">
        <ele>183.255402</ele>
        <time>2022-08-14T06:38:11Z</time>
      </trkpt>
      <trkpt lat="43.20617" lon="5.80999">
        <ele>182.930542</ele>
        <time>2022-08-14T06:38:13Z</time>
      </trkpt>
      <trkpt lat="43.20604" lon="5.80987">
        <ele>182.811691</ele>
        <time>2022-08-14T06:38:15Z</time>
      </trkpt>
      <trkpt lat="43.20591" lon="5.80976">
        <ele>182.669525</ele>
        <time>2022-08-14T06:38:17Z</time>
      </trkpt>
      <trkpt lat="43.20578" lon="5.80966">
        <ele>182.644989</ele>
        <time>2022-08-14T06:38:19Z</time>
      </trkpt>
      <trkpt lat="43.20567" lon="5.80955">
        <ele>182.677643</ele>
        <time>2022-08-14T06:38:21Z</time>
      </trkpt>
      <trkpt lat="43.20554" lon="5.80944">
        <ele>182.734299</ele>
        <time>2022-08-14T06:38:23Z</time>
      </trkpt>
      <trkpt lat="43.20542" lon="5.80933">
        <ele>182.892242</ele>
        <time>2022-08-14T06:38:25Z</time>
      </trkpt>
      <trkpt lat="43.20529" lon="5.80921">
        <ele>182.997574</ele>
        <time>2022-08-14T06:38:27Z</time>
      </trkpt>
      <trkpt lat="43.20517" lon="5.8091">
        <ele>183.242615</ele>
        <time>2022-08-14T06:38:29Z</time>
      </trkpt>
      <trkpt lat="43.20504" lon="5.80899">
        <ele>183.377777</ele>
        <time>2022-08-14T06:38:31Z</time>
      </trkpt>
      <trkpt lat="43.20491" lon="5.80887">
        <ele>183.640823</ele>
        <time>2022-08-14T06:38:33Z</time>
      </trkpt>
      <trkpt lat="43.20478" lon="5.80875">
        <ele>183.758881</ele>
        <time>2022-08-14T06:38:35Z</time>
      </trkpt>
      <trkpt lat="43.20465" lon="5.80864">
        <ele>183.948853</ele>
        <time>2022-08-14T06:38:37Z</time>
      </trkpt>
      <trkpt lat="43.20451" lon="5.80851">
        <ele>184.017059</ele>
        <time>2022-08-14T06:38:39Z</time>
      </trkpt>
      <trkpt lat="43.20437" lon="5.80838">
        <ele>184.061447</ele>
        <time>2022-08-14T06:38:41Z</time>
      </trkpt>
      <trkpt lat="43.20421" lon="5.80826">
        <ele>184.07077</ele>
        <time>2022-08-14T06:38:43Z</time>
      </trkpt>
      <trkpt lat="43.20405" lon="5.80812">
        <ele>184.033646</ele>
        <time>2022-08-14T06:38:45Z</time>
      </trkpt>
      <trkpt lat="43.20388" lon="5.808">
        <ele>183.876907</ele>
        <time>2022-08-14T06:38:47Z</time>
      </trkpt>
      <trkpt lat="43.2037" lon="5.80791">
        <ele>183.759003</ele>
        <time>2022-08-14T06:38:49Z</time>
      </trkpt>
      <trkpt lat="43.20351" lon="5.80784">
        <ele>183.449509</ele>
        <time>2022-08-14T06:38:51Z</time>
      </trkpt>
      <trkpt lat="43.20333" lon="5.80779">
        <ele>183.0513</ele>
        <time>2022-08-14T06:38:53Z</time>
      </trkpt>
      <trkpt lat="43.20313" lon="5.80778">
        <ele>182.813522</ele>
        <time>2022-08-14T06:38:55Z</time>
      </trkpt>
      <trkpt lat="43.20294" lon="5.80781">
        <ele>182.256226</ele>
        <time>2022-08-14T06:38:57Z</time>
      </trkpt>
      <trkpt lat="43.20274" lon="5.80784">
        <ele>181.940643</ele>
        <time>2022-08-14T06:38:59Z</time>
      </trkpt>
      <trkpt lat="43.20255" lon="5.80788">
        <ele>181.221451</ele>
        <time>2022-08-14T06:39:01Z</time>
      </trkpt>
      <trkpt lat="43.20235" lon="5.8079">
        <ele>180.814804</ele>
        <time>2022-08-14T06:39:03Z</time>
      </trkpt>
      <trkpt lat="43.20216" lon="5.80793">
        <ele>179.914993</ele>
        <time>2022-08-14T06:39:05Z</time>
      </trkpt>
      <trkpt lat="43.20196" lon="5.80796">
        <ele>178.927399</ele>
        <time>2022-08-14T06:39:07Z</time>
      </trkpt>
      <trkpt lat="43.20176" lon="5.80799">
        <ele>178.406647</ele>
        <time>2022-08-14T06:39:09Z</time>
      </trkpt>
      <trkpt lat="43.20156" lon="5.80801">
        <ele>177.316055</ele>
        <time>2022-08-14T06:39:11Z</time>
      </trkpt>
      <trkpt lat="43.20136" lon="5.80803">
        <ele>176.754791</ele>
        <time>2022-08-14T06:39:13Z</time>
      </trkpt>
      <trkpt lat="43.20115" lon="5.80802">
        <ele>175.615417</ele>
        <time>2022-08-14T06:39:15Z</time>
      </trkpt>
      <trkpt lat="43.20094" lon="5.80801">
        <ele>175.041855</ele>
        <time>2022-08-14T06:39:17Z</time>
      </trkpt>
      <trkpt lat="43.20073" lon="5.80798">
        <ele>173.902924</ele>
        <time>2022-08-14T06:39:19Z</time>
      </trkpt>
      <trkpt lat="43.20052" lon="5.80793">
        <ele>173.343414</ele>
        <time>2022-08-14T06:39:21Z</time>
      </trkpt>
      <trkpt lat="43.20031" lon="5.80786">
        <ele>172.245087</ele>
        <time>2022-08-14T06:39:23Z</time>
      </trkpt>
      <trkpt lat="43.20012" lon="5.80777">
        <ele>171.706787</ele>
        <time>2022-08-14T06:39:25Z</time>
      </trkpt>
      <trkpt lat="43.19994" lon="5.80767">
        <ele>170.658081</ele>
        <time>2022-08-14T06:39:27Z</time>
      </trkpt>
      <trkpt lat="43.19976" lon="5.80756">
        <ele>170.148682</ele>
        <time>2022-08-14T06:39:29Z</time>
      </trkpt>
      <trkpt lat="43.19961" lon="5.80746">
        <ele>169.164795</ele>
        <time>2022-08-14T06:39:31Z</time>
      </trkpt>
      <trkpt lat="43.19947" lon="5.8074">
        <ele>168.693527</ele>
        <time>2022-08-14T06:39:33Z</time>
      </trkpt>
      <trkpt lat="43.19934" lon="5.80731">
        <ele>167.798752</ele>
        <time>2022-08-14T06:39:35Z</time>
      </trkpt>
      <trkpt lat="43.1992" lon="5.80723">
        <ele>167.377838</ele>
        <time>2022-08-14T06:39:37Z</time>
      </trkpt>
      <trkpt lat="43.19908" lon="5.80714">
        <ele>166.975998</ele>
        <time>2022-08-14T06:39:39Z</time>
      </trkpt>
      <trkpt lat="43.19896" lon="5.80706">
        <ele>166.232986</ele>
        <time>2022-08-14T06:39:41Z</time>
      </trkpt>
      <trkpt lat="43.19884" lon="5.80696">
        <ele>165.89241</ele>
        <time>2022-08-14T06:39:43Z</time>
      </trkpt>
      <trkpt lat="43.19873" lon="5.80689">
        <ele>165.572708</ele>
        <time>2022-08-14T06:39:45Z</time>
      </trkpt>
      <trkpt lat="43.19862" lon="5.80683">
        <ele>165.007401</ele>
        <time>2022-08-14T06:39:47Z</time>
      </trkpt>
      <trkpt lat="43.19851" lon="5.80674">
        <ele>164.763214</ele>
        <time>2022-08-14T06:39:49Z</time>
      </trkpt>
      <trkpt lat="43.19838" lon="5.80665">
        <ele>164.369431</ele>
        <time>2022-08-14T06:39:51Z</time>
      </trkpt>
      <trkpt lat="43.19826" lon="5.80658">
        <ele>164.216644</ele>
        <time>2022-08-14T06:39:53Z</time>
      </trkpt>
      <trkpt lat="43.19814" lon="5.8065">
        <ele>164.017822</ele>
        <time>2022-08-14T06:39:55Z</time>
      </trkpt>
      <trkpt lat="43.19803" lon="5.80644">
        <ele>163.973145</ele>
        <time>2022-08-14T06:39:57Z</time>
      </trkpt>
      <trkpt lat="43.19792" lon="5.80638">
        <ele>163.981934</ele>
        <time>2022-08-14T06:39:59Z</time>
      </trkpt>
      <trkpt lat="43.1978" lon="5.80631">
        <ele>164.106903</ele>
        <time>2022-08-14T06:40:01Z</time>
      </trkpt>
      <trkpt lat="43.19769" lon="5.80625">
        <ele>164.208984</ele>
        <time>2022-08-14T06:40:03Z</time>
      </trkpt>
      <trkpt lat="43.19759" lon="5.8062">
        <ele>164.485443</ele>
        <time>2022-08-14T06:40:05Z</time>
      </trkpt>
      <trkpt lat="43.1975" lon="5.80617">
        <ele>164.65274</ele>
        <time>2022-08-14T06:40:07Z</time>
      </trkpt>
      <trkpt lat="43.19739" lon="5.80611">
        <ele>165.031723</ele>
        <time>2022-08-14T06:40:09Z</time>
      </trkpt>
      <trkpt lat="43.1973" lon="5.80606">
        <ele>165.240036</ele>
        <time>2022-08-14T06:40:11Z</time>
      </trkpt>
      <trkpt lat="43.1972" lon="5.80602">
        <ele>165.686432</ele>
        <time>2022-08-14T06:40:13Z</time>
      </trkpt>
      <trkpt lat="43.19709" lon="5.80599">
        <ele>165.920807</ele>
        <time>2022-08-14T06:40:15Z</time>
      </trkpt>
      <trkpt lat="43.19697" lon="5.80595">
        <ele>166.40947</ele>
        <time>2022-08-14T06:40:17Z</time>
      </trkpt>
      <trkpt lat="43.19685" lon="5.80592">
        <ele>166.662445</ele>
        <time>2022-08-14T06:40:19Z</time>
      </trkpt>
      <trkpt lat="43.19672" lon="5.80589">
        <ele>166.920013</ele>
        <time>2022-08-14T06:40:21Z</time>
      </trkpt>
      <trkpt lat="43.19661" lon="5.8059">
        <ele>167.444138</ele>
        <time>2022-08-14T06:40:23Z</time>
      </trkpt>
      <trkpt lat="43.1965" lon="5.80591">
        <ele>167.709961</ele>
        <time>2022-08-14T06:40:25Z</time>
      </trkpt>
      <trkpt lat="43.1964" lon="5.80593">
        <ele>167.97702</ele>
        <time>2022-08-14T06:40:27Z</time>
      </trkpt>
      <trkpt lat="43.1963" lon="5.80597">
        <ele>168.510956</ele>
        <time>2022-08-14T06:40:29Z</time>
      </trkpt>
      <trkpt lat="43.19621" lon="5.806">
        <ele>168.775604</ele>
        <time>2022-08-14T06:40:31Z</time>
      </trkpt>
      <trkpt lat="43.19609" lon="5.80604">
        <ele>169.293259</ele>
        <time>2022-08-14T06:40:33Z</time>
      </trkpt>
      <trkpt lat="43.19599" lon="5.8061">
        <ele>169.543549</ele>
        <time>2022-08-14T06:40:35Z</time>
      </trkpt>
      <trkpt lat="43.1959" lon="5.80618">
        <ele>170.022797</ele>
        <time>2022-08-14T06:40:37Z</time>
      </trkpt>
      <trkpt lat="43.19579" lon="5.80625">
        <ele>170.249054</ele>
        <time>2022-08-14T06:40:39Z</time>
      </trkpt>
      <trkpt lat="43.19568" lon="5.80633">
        <ele>170.654083</ele>
        <time>2022-08-14T06:40:41Z</time>
      </trkpt>
      <trkpt lat="43.1956" lon="5.80643">
        <ele>170.837982</ele>
        <time>2022-08-14T06:40:43Z</time>
      </trkpt>
      <trkpt lat="43.19554" lon="5.80657">
        <ele>171.159637</ele>
        <time>2022-08-14T06:40:45Z</time>
      </trkpt>
      <trkpt lat="43.19548" lon="5.80671">
        <ele>171.298584</ele>
        <time>2022-08-14T06:40:47Z</time>
      </trkpt>
      <trkpt lat="43.19541" lon="5.80684">
        <ele>171.423096</ele>
        <time>2022-08-14T06:40:49Z</time>
      </trkpt>
      <trkpt lat="43.19532" lon="5.80696">
        <ele>171.638458</ele>
        <time>2022-08-14T06:40:51Z</time>
      </trkpt>
      <trkpt lat="43.19525" lon="5.80707">
        <ele>171.813019</ele>
        <time>2022-08-14T06:40:53Z</time>
      </trkpt>
      <trkpt lat="43.19519" lon="5.80715">
        <ele>171.885056</ele>
        <time>2022-08-14T06:40:55Z</time>
      </trkpt>
      <trkpt lat="43.19511" lon="5.80722">
        <ele>171.948029</ele>
        <time>2022-08-14T06:40:57Z</time>
      </trkpt>
      <trkpt lat="43.195" lon="5.80734">
        <ele>172.055176</ele>
        <time>2022-08-14T06:40:59Z</time>
      </trkpt>
      <trkpt lat="43.1949" lon="5.80744">
        <ele>172.14798</ele>
        <time>2022-08-14T06:41:01Z</time>
      </trkpt>
      <trkpt lat="43.19481" lon="5.80756">
        <ele>172.190979</ele>
        <time>2022-08-14T06:41:03Z</time>
      </trkpt>
      <trkpt lat="43.19473" lon="5.80768">
        <ele>172.233047</ele>
        <time>2022-08-14T06:41:05Z</time>
      </trkpt>
      <trkpt lat="43.19465" lon="5.80781">
        <ele>172.315689</ele>
        <time>2022-08-14T06:41:07Z</time>
      </trkpt>
      <trkpt lat="43.19457" lon="5.80794">
        <ele>172.394791</ele>
        <time>2022-08-14T06:41:09Z</time>
      </trkpt>
      <trkpt lat="43.19449" lon="5.80807">
        <ele>172.471191</ele>
        <time>2022-08-14T06:41:11Z</time>
      </trkpt>
      <trkpt lat="43.1944" lon="5.80819">
        <ele>172.54599</ele>
        <time>2022-08-14T06:41:13Z</time>
      </trkpt>
      <trkpt lat="43.19431" lon="5.80831">
        <ele>172.620773</ele>
        <time>2022-08-14T06:41:15Z</time>
      </trkpt>
      <trkpt lat="43.19423" lon="5.80841">
        <ele>172.660004</ele>
        <time>2022-08-14T06:41:17Z</time>
      </trkpt>
      <trkpt lat="43.19414" lon="5.80854">
        <ele>172.740631</ele>
        <time>2022-08-14T06:41:19Z</time>
      </trkpt>
      <trkpt lat="43.19405" lon="5.80865">
        <ele>172.824661</ele>
        <time>2022-08-14T06:41:21Z</time>
      </trkpt>
      <trkpt lat="43.19397" lon="5.80875">
        <ele>172.914627</ele>
        <time>2022-08-14T06:41:23Z</time>
      </trkpt>
      <trkpt lat="43.1939" lon="5.80884">
        <ele>173.011154</ele>
        <time>2022-08-14T06:41:25Z</time>
      </trkpt>
      <trkpt lat="43.19382" lon="5.80895">
        <ele>173.063263</ele>
        <time>2022-08-14T06:41:27Z</time>
      </trkpt>
      <trkpt lat="43.19372" lon="5.80904">
        <ele>173.175262</ele>
        <time>2022-08-14T06:41:29Z</time>
      </trkpt>
      <trkpt lat="43.19365" lon="5.80912">
        <ele>173.304092</ele>
        <time>2022-08-14T06:41:31Z</time>
      </trkpt>
      <trkpt lat="43.19358" lon="5.8092">
        <ele>173.452713</ele>
        <time>2022-08-14T06:41:33Z</time>
      </trkpt>
      <trkpt lat="43.1935" lon="5.80929">
        <ele>173.536285</ele>
        <time>2022-08-14T06:41:35Z</time>
      </trkpt>
      <trkpt lat="43.19342" lon="5.80943">
        <ele>173.717255</ele>
        <time>2022-08-14T06:41:37Z</time>
      </trkpt>
      <trkpt lat="43.19333" lon="5.80954">
        <ele>173.922485</ele>
        <time>2022-08-14T06:41:39Z</time>
      </trkpt>
      <trkpt lat="43.19323" lon="5.80969">
        <ele>174.034576</ele>
        <time>2022-08-14T06:41:41Z</time>
      </trkpt>
      <trkpt lat="43.19312" lon="5.80983">
        <ele>174.152771</ele>
        <time>2022-08-14T06:41:43Z</time>
      </trkpt>
      <trkpt lat="43.19302" lon="5.80995">
        <ele>174.405792</ele>
        <time>2022-08-14T06:41:45Z</time>
      </trkpt>
      <trkpt lat="43.19292" lon="5.81009">
        <ele>174.539627</ele>
        <time>2022-08-14T06:41:47Z</time>
      </trkpt>
      <trkpt lat="43.19283" lon="5.81022">
        <ele>174.818329</ele>
        <time>2022-08-14T06:41:49Z</time>
      </trkpt>
      <trkpt lat="43.19273" lon="5.81034">
        <ele>174.962067</ele>
        <time>2022-08-14T06:41:51Z</time>
      </trkpt>
      <trkpt lat="43.19264" lon="5.81046">
        <ele>175.108353</ele>
        <time>2022-08-14T06:41:53Z</time>
      </trkpt>
      <trkpt lat="43.19254" lon="5.8106">
        <ele>175.403656</ele>
        <time>2022-08-14T06:41:55Z</time>
      </trkpt>
      <trkpt lat="43.19244" lon="5.81072">
        <ele>175.55423</ele>
        <time>2022-08-14T06:41:57Z</time>
      </trkpt>
      <trkpt lat="43.19236" lon="5.81085">
        <ele>175.707504</ele>
        <time>2022-08-14T06:41:59Z</time>
      </trkpt>
      <trkpt lat="43.19226" lon="5.81097">
        <ele>176.024673</ele>
        <time>2022-08-14T06:42:01Z</time>
      </trkpt>
      <trkpt lat="43.19217" lon="5.81111">
        <ele>176.190033</ele>
        <time>2022-08-14T06:42:03Z</time>
      </trkpt>
      <trkpt lat="43.19209" lon="5.81126">
        <ele>176.360886</ele>
        <time>2022-08-14T06:42:05Z</time>
      </trkpt>
      <trkpt lat="43.192" lon="5.81138">
        <ele>176.720123</ele>
        <time>2022-08-14T06:42:07Z</time>
      </trkpt>
      <trkpt lat="43.19191" lon="5.81152">
        <ele>176.907425</ele>
        <time>2022-08-14T06:42:09Z</time>
      </trkpt>
      <trkpt lat="43.19183" lon="5.81165">
        <ele>177.30304</ele>
        <time>2022-08-14T06:42:11Z</time>
      </trkpt>
      <trkpt lat="43.19173" lon="5.81177">
        <ele>177.514679</ele>
        <time>2022-08-14T06:42:13Z</time>
      </trkpt>
      <trkpt lat="43.19162" lon="5.81183">
        <ele>177.95137</ele>
        <time>2022-08-14T06:42:15Z</time>
      </trkpt>
      <trkpt lat="43.19149" lon="5.81185">
        <ele>178.174835</ele>
        <time>2022-08-14T06:42:17Z</time>
      </trkpt>
      <trkpt lat="43.19136" lon="5.81188">
        <ele>178.636765</ele>
        <time>2022-08-14T06:42:19Z</time>
      </trkpt>
      <trkpt lat="43.19125" lon="5.81198">
        <ele>178.874481</ele>
        <time>2022-08-14T06:42:21Z</time>
      </trkpt>
      <trkpt lat="43.19116" lon="5.81211">
        <ele>179.368866</ele>
        <time>2022-08-14T06:42:23Z</time>
      </trkpt>
      <trkpt lat="43.19111" lon="5.81227">
        <ele>179.625641</ele>
        <time>2022-08-14T06:42:25Z</time>
      </trkpt>
      <trkpt lat="43.19109" lon="5.81244">
        <ele>179.885895</ele>
        <time>2022-08-14T06:42:27Z</time>
      </trkpt>
      <trkpt lat="43.19105" lon="5.8126">
        <ele>180.150345</ele>
        <time>2022-08-14T06:42:29Z</time>
      </trkpt>
      <trkpt lat="43.19099" lon="5.81275">
        <ele>180.682816</ele>
        <time>2022-08-14T06:42:31Z</time>
      </trkpt>
      <trkpt lat="43.1909" lon="5.81287">
        <ele>180.94812</ele>
        <time>2022-08-14T06:42:33Z</time>
      </trkpt>
      <trkpt lat="43.19081" lon="5.81298">
        <ele>181.471222</ele>
        <time>2022-08-14T06:42:35Z</time>
      </trkpt>
      <trkpt lat="43.19072" lon="5.8131">
        <ele>181.725281</ele>
        <time>2022-08-14T06:42:37Z</time>
      </trkpt>
      <trkpt lat="43.19063" lon="5.81322">
        <ele>182.216949</ele>
        <time>2022-08-14T06:42:39Z</time>
      </trkpt>
      <trkpt lat="43.19054" lon="5.81335">
        <ele>182.455307</ele>
        <time>2022-08-14T06:42:41Z</time>
      </trkpt>
      <trkpt lat="43.19045" lon="5.81347">
        <ele>182.920197</ele>
        <time>2022-08-14T06:42:43Z</time>
      </trkpt>
      <trkpt lat="43.19035" lon="5.81359">
        <ele>183.147369</ele>
        <time>2022-08-14T06:42:45Z</time>
      </trkpt>
      <trkpt lat="43.19026" lon="5.81371">
        <ele>183.594879</ele>
        <time>2022-08-14T06:42:47Z</time>
      </trkpt>
      <trkpt lat="43.19017" lon="5.81383">
        <ele>183.813126</ele>
        <time>2022-08-14T06:42:49Z</time>
      </trkpt>
      <trkpt lat="43.19009" lon="5.81394">
        <ele>184.240097</ele>
        <time>2022-08-14T06:42:51Z</time>
      </trkpt>
      <trkpt lat="43.19" lon="5.81405">
        <ele>184.447479</ele>
        <time>2022-08-14T06:42:53Z</time>
      </trkpt>
      <trkpt lat="43.1899" lon="5.81417">
        <ele>184.846268</ele>
        <time>2022-08-14T06:42:55Z</time>
      </trkpt>
      <trkpt lat="43.18981" lon="5.81429">
        <ele>185.03656</ele>
        <time>2022-08-14T06:42:57Z</time>
      </trkpt>
      <trkpt lat="43.18972" lon="5.81441">
        <ele>185.396942</ele>
        <time>2022-08-14T06:42:59Z</time>
      </trkpt>
      <trkpt lat="43.18964" lon="5.81454">
        <ele>185.566315</ele>
        <time>2022-08-14T06:43:01Z</time>
      </trkpt>
      <trkpt lat="43.18955" lon="5.81467">
        <ele>185.881195</ele>
        <time>2022-08-14T06:43:03Z</time>
      </trkpt>
      <trkpt lat="43.18945" lon="5.81479">
        <ele>186.02594</ele>
        <time>2022-08-14T06:43:05Z</time>
      </trkpt>
      <trkpt lat="43.18935" lon="5.81492">
        <ele>186.157623</ele>
        <time>2022-08-14T06:43:07Z</time>
      </trkpt>
      <trkpt lat="43.18926" lon="5.81505">
        <ele>186.387512</ele>
        <time>2022-08-14T06:43:09Z</time>
      </trkpt>
      <trkpt lat="43.18917" lon="5.81517">
        <ele>186.490402</ele>
        <time>2022-08-14T06:43:11Z</time>
      </trkpt>
      <trkpt lat="43.18908" lon="5.81529">
        <ele>186.671844</ele>
        <time>2022-08-14T06:43:13Z</time>
      </trkpt>
      <trkpt lat="43.18899" lon="5.81541">
        <ele>186.749863</ele>
        <time>2022-08-14T06:43:15Z</time>
      </trkpt>
      <trkpt lat="43.1889" lon="5.81552">
        <ele>186.878082</ele>
        <time>2022-08-14T06:43:17Z</time>
      </trkpt>
      <trkpt lat="43.18881" lon="5.81564">
        <ele>186.927124</ele>
        <time>2022-08-14T06:43:19Z</time>
      </trkpt>
      <trkpt lat="43.18871" lon="5.81576">
        <ele>186.99527</ele>
        <time>2022-08-14T06:43:21Z</time>
      </trkpt>
      <trkpt lat="43.18861" lon="5.81587">
        <ele>187.016235</ele>
        <time>2022-08-14T06:43:23Z</time>
      </trkpt>
      <trkpt lat="43.18852" lon="5.81598">
        <ele>187.040039</ele>
        <time>2022-08-14T06:43:25Z</time>
      </trkpt>
      <trkpt lat="43.18842" lon="5.81608">
        <ele>187.045837</ele>
        <time>2022-08-14T06:43:27Z</time>
      </trkpt>
      <trkpt lat="43.18832" lon="5.81619">
        <ele>187.051544</ele>
        <time>2022-08-14T06:43:29Z</time>
      </trkpt>
      <trkpt lat="43.18823" lon="5.8163">
        <ele>187.055801</ele>
        <time>2022-08-14T06:43:31Z</time>
      </trkpt>
      <trkpt lat="43.18812" lon="5.8164">
        <ele>187.061386</ele>
        <time>2022-08-14T06:43:33Z</time>
      </trkpt>
      <trkpt lat="43.18802" lon="5.81652">
        <ele>187.063782</ele>
        <time>2022-08-14T06:43:35Z</time>
      </trkpt>
      <trkpt lat="43.18791" lon="5.81663">
        <ele>187.066254</ele>
        <time>2022-08-14T06:43:37Z</time>
      </trkpt>
      <trkpt lat="43.1878" lon="5.81674">
        <ele>187.065765</ele>
        <time>2022-08-14T06:43:39Z</time>
      </trkpt>
      <trkpt lat="43.18769" lon="5.81686">
        <ele>187.061218</ele>
        <time>2022-08-14T06:43:41Z</time>
      </trkpt>
      <trkpt lat="43.18757" lon="5.81697">
        <ele>187.053818</ele>
        <time>2022-08-14T06:43:43Z</time>
      </trkpt>
      <trkpt lat="43.18746" lon="5.81708">
        <ele>187.049652</ele>
        <time>2022-08-14T06:43:45Z</time>
      </trkpt>
      <trkpt lat="43.18734" lon="5.81721">
        <ele>187.041489</ele>
        <time>2022-08-14T06:43:47Z</time>
      </trkpt>
      <trkpt lat="43.18723" lon="5.81732">
        <ele>187.03746</ele>
        <time>2022-08-14T06:43:49Z</time>
      </trkpt>
      <trkpt lat="43.18711" lon="5.81744">
        <ele>187.028351</ele>
        <time>2022-08-14T06:43:51Z</time>
      </trkpt>
      <trkpt lat="43.18699" lon="5.81756">
        <ele>187.016754</ele>
        <time>2022-08-14T06:43:53Z</time>
      </trkpt>
      <trkpt lat="43.18688" lon="5.81767">
        <ele>187.010361</ele>
        <time>2022-08-14T06:43:55Z</time>
      </trkpt>
      <trkpt lat="43.18677" lon="5.81778">
        <ele>187.004028</ele>
        <time>2022-08-14T06:43:57Z</time>
      </trkpt>
      <trkpt lat="43.18666" lon="5.81788">
        <ele>186.992554</ele>
        <time>2022-08-14T06:43:59Z</time>
      </trkpt>
      <trkpt lat="43.18655" lon="5.818">
        <ele>186.987717</ele>
        <time>2022-08-14T06:44:01Z</time>
      </trkpt>
      <trkpt lat="43.18644" lon="5.81811">
        <ele>186.979492</ele>
        <time>2022-08-14T06:44:03Z</time>
      </trkpt>
      <trkpt lat="43.18633" lon="5.81823">
        <ele>186.975845</ele>
        <time>2022-08-14T06:44:05Z</time>
      </trkpt>
      <trkpt lat="43.18622" lon="5.81833">
        <ele>186.967529</ele>
        <time>2022-08-14T06:44:07Z</time>
      </trkpt>
      <trkpt lat="43.18612" lon="5.81844">
        <ele>186.96228</ele>
        <time>2022-08-14T06:44:09Z</time>
      </trkpt>
      <trkpt lat="43.18602" lon="5.81855">
        <ele>186.946381</ele>
        <time>2022-08-14T06:44:11Z</time>
      </trkpt>
      <trkpt lat="43.18592" lon="5.81866">
        <ele>186.922134</ele>
        <time>2022-08-14T06:44:13Z</time>
      </trkpt>
      <trkpt lat="43.18582" lon="5.81876">
        <ele>186.906479</ele>
        <time>2022-08-14T06:44:15Z</time>
      </trkpt>
      <trkpt lat="43.18572" lon="5.81887">
        <ele>186.887482</ele>
        <time>2022-08-14T06:44:17Z</time>
      </trkpt>
      <trkpt lat="43.18562" lon="5.81897">
        <ele>186.839111</ele>
        <time>2022-08-14T06:44:19Z</time>
      </trkpt>
      <trkpt lat="43.18552" lon="5.81908">
        <ele>186.809753</ele>
        <time>2022-08-14T06:44:21Z</time>
      </trkpt>
      <trkpt lat="43.18541" lon="5.81918">
        <ele>186.741348</ele>
        <time>2022-08-14T06:44:23Z</time>
      </trkpt>
      <trkpt lat="43.18531" lon="5.81929">
        <ele>186.702484</ele>
        <time>2022-08-14T06:44:25Z</time>
      </trkpt>
      <trkpt lat="43.1852" lon="5.8194">
        <ele>186.660751</ele>
        <time>2022-08-14T06:44:27Z</time>
      </trkpt>
      <trkpt lat="43.1851" lon="5.8195">
        <ele>186.56926</ele>
        <time>2022-08-14T06:44:29Z</time>
      </trkpt>
      <trkpt lat="43.18499" lon="5.81961">
        <ele>186.519852</ele>
        <time>2022-08-14T06:44:31Z</time>
      </trkpt>
      <trkpt lat="43.18487" lon="5.81972">
        <ele>186.415527</ele>
        <time>2022-08-14T06:44:33Z</time>
      </trkpt>
      <trkpt lat="43.18476" lon="5.81984">
        <ele>186.361374</ele>
        <time>2022-08-14T06:44:35Z</time>
      </trkpt>
      <trkpt lat="43.18463" lon="5.81994">
        <ele>186.306061</ele>
        <time>2022-08-14T06:44:37Z</time>
      </trkpt>
      <trkpt lat="43.18451" lon="5.82005">
        <ele>186.191742</ele>
        <time>2022-08-14T06:44:39Z</time>
      </trkpt>
      <trkpt lat="43.18439" lon="5.82016">
        <ele>186.132828</ele>
        <time>2022-08-14T06:44:41Z</time>
      </trkpt>
      <trkpt lat="43.18427" lon="5.82028">
        <ele>186.010117</ele>
        <time>2022-08-14T06:44:43Z</time>
      </trkpt>
      <trkpt lat="43.18415" lon="5.82041">
        <ele>185.945862</ele>
        <time>2022-08-14T06:44:45Z</time>
      </trkpt>
      <trkpt lat="43.18403" lon="5.82054">
        <ele>185.810608</ele>
        <time>2022-08-14T06:44:47Z</time>
      </trkpt>
      <trkpt lat="43.18389" lon="5.82066">
        <ele>185.739349</ele>
        <time>2022-08-14T06:44:49Z</time>
      </trkpt>
      <trkpt lat="43.18376" lon="5.82079">
        <ele>185.665543</ele>
        <time>2022-08-14T06:44:51Z</time>
      </trkpt>
      <trkpt lat="43.18363" lon="5.82092">
        <ele>185.509628</ele>
        <time>2022-08-14T06:44:53Z</time>
      </trkpt>
      <trkpt lat="43.1835" lon="5.82104">
        <ele>185.427094</ele>
        <time>2022-08-14T06:44:55Z</time>
      </trkpt>
      <trkpt lat="43.18337" lon="5.82116">
        <ele>185.251007</ele>
        <time>2022-08-14T06:44:57Z</time>
      </trkpt>
      <trkpt lat="43.18324" lon="5.82127">
        <ele>185.156799</ele>
        <time>2022-08-14T06:44:59Z</time>
      </trkpt>
      <trkpt lat="43.18311" lon="5.82141">
        <ele>184.954941</ele>
        <time>2022-08-14T06:45:01Z</time>
      </trkpt>
      <trkpt lat="43.18296" lon="5.82151">
        <ele>184.847473</ele>
        <time>2022-08-14T06:45:03Z</time>
      </trkpt>
      <trkpt lat="43.18282" lon="5.82163">
        <ele>184.620209</ele>
        <time>2022-08-14T06:45:05Z</time>
      </trkpt>
      <trkpt lat="43.18269" lon="5.82176">
        <ele>184.501648</ele>
        <time>2022-08-14T06:45:07Z</time>
      </trkpt>
      <trkpt lat="43.18255" lon="5.82192">
        <ele>184.25177</ele>
        <time>2022-08-14T06:45:09Z</time>
      </trkpt>
      <trkpt lat="43.18241" lon="5.82205">
        <ele>183.984833</ele>
        <time>2022-08-14T06:45:11Z</time>
      </trkpt>
      <trkpt lat="43.18227" lon="5.82219">
        <ele>183.844131</ele>
        <time>2022-08-14T06:45:13Z</time>
      </trkpt>
      <trkpt lat="43.18213" lon="5.82231">
        <ele>183.698792</ele>
        <time>2022-08-14T06:45:15Z</time>
      </trkpt>
      <trkpt lat="43.18199" lon="5.82246">
        <ele>183.396332</ele>
        <time>2022-08-14T06:45:17Z</time>
      </trkpt>
      <trkpt lat="43.18185" lon="5.82259">
        <ele>183.241394</ele>
        <time>2022-08-14T06:45:19Z</time>
      </trkpt>
      <trkpt lat="43.18171" lon="5.82272">
        <ele>182.922012</ele>
        <time>2022-08-14T06:45:21Z</time>
      </trkpt>
      <trkpt lat="43.18156" lon="5.82284">
        <ele>182.752777</ele>
        <time>2022-08-14T06:45:23Z</time>
      </trkpt>
      <trkpt lat="43.18082" lon="5.82358">
        <ele>181.739944</ele>
        <time>2022-08-14T06:45:34Z</time>
      </trkpt>
      <trkpt lat="43.18067" lon="5.82372">
        <ele>181.495911</ele>
        <time>2022-08-14T06:45:36Z</time>
      </trkpt>
      <trkpt lat="43.18052" lon="5.82389">
        <ele>180.954834</ele>
        <time>2022-08-14T06:45:38Z</time>
      </trkpt>
      <trkpt lat="43.18039" lon="5.82404">
        <ele>180.667526</ele>
        <time>2022-08-14T06:45:40Z</time>
      </trkpt>
      <trkpt lat="43.18024" lon="5.82417">
        <ele>180.060791</ele>
        <time>2022-08-14T06:45:42Z</time>
      </trkpt>
      <trkpt lat="43.18009" lon="5.82432">
        <ele>179.744461</ele>
        <time>2022-08-14T06:45:44Z</time>
      </trkpt>
      <trkpt lat="43.17996" lon="5.82446">
        <ele>179.421066</ele>
        <time>2022-08-14T06:45:46Z</time>
      </trkpt>
      <trkpt lat="43.17981" lon="5.82459">
        <ele>178.757721</ele>
        <time>2022-08-14T06:45:48Z</time>
      </trkpt>
      <trkpt lat="43.17965" lon="5.82474">
        <ele>178.08345</ele>
        <time>2022-08-14T06:45:50Z</time>
      </trkpt>
      <trkpt lat="43.1795" lon="5.82488">
        <ele>177.744354</ele>
        <time>2022-08-14T06:45:52Z</time>
      </trkpt>
      <trkpt lat="43.17934" lon="5.82503">
        <ele>177.064301</ele>
        <time>2022-08-14T06:45:54Z</time>
      </trkpt>
      <trkpt lat="43.17918" lon="5.82517">
        <ele>176.725677</ele>
        <time>2022-08-14T06:45:56Z</time>
      </trkpt>
      <trkpt lat="43.17886" lon="5.82542">
        <ele>175.406235</ele>
        <time>2022-08-14T06:46:00Z</time>
      </trkpt>
      <trkpt lat="43.17861" lon="5.8256">
        <ele>174.775482</ele>
        <time>2022-08-14T06:46:03Z</time>
      </trkpt>
      <trkpt lat="43.17844" lon="5.82574">
        <ele>174.467682</ele>
        <time>2022-08-14T06:46:05Z</time>
      </trkpt>
      <trkpt lat="43.17829" lon="5.82586">
        <ele>173.867233</ele>
        <time>2022-08-14T06:46:07Z</time>
      </trkpt>
      <trkpt lat="43.17812" lon="5.82596">
        <ele>173.284866</ele>
        <time>2022-08-14T06:46:09Z</time>
      </trkpt>
      <trkpt lat="43.17796" lon="5.82606">
        <ele>172.998489</ele>
        <time>2022-08-14T06:46:11Z</time>
      </trkpt>
      <trkpt lat="43.17779" lon="5.82617">
        <ele>172.426743</ele>
        <time>2022-08-14T06:46:13Z</time>
      </trkpt>
      <trkpt lat="43.17763" lon="5.82627">
        <ele>172.137436</ele>
        <time>2022-08-14T06:46:15Z</time>
      </trkpt>
      <trkpt lat="43.17749" lon="5.8264">
        <ele>171.547577</ele>
        <time>2022-08-14T06:46:17Z</time>
      </trkpt>
      <trkpt lat="43.17735" lon="5.82653">
        <ele>170.946381</ele>
        <time>2022-08-14T06:46:19Z</time>
      </trkpt>
      <trkpt lat="43.17719" lon="5.82663">
        <ele>170.646378</ele>
        <time>2022-08-14T06:46:21Z</time>
      </trkpt>
      <trkpt lat="43.17703" lon="5.82674">
        <ele>170.347824</ele>
        <time>2022-08-14T06:46:23Z</time>
      </trkpt>
      <trkpt lat="43.17685" lon="5.82687">
        <ele>169.760254</ele>
        <time>2022-08-14T06:46:25Z</time>
      </trkpt>
      <trkpt lat="43.17667" lon="5.82697">
        <ele>169.476074</ele>
        <time>2022-08-14T06:46:27Z</time>
      </trkpt>
      <trkpt lat="43.17649" lon="5.82708">
        <ele>168.917999</ele>
        <time>2022-08-14T06:46:29Z</time>
      </trkpt>
      <trkpt lat="43.17631" lon="5.8272">
        <ele>168.649567</ele>
        <time>2022-08-14T06:46:31Z</time>
      </trkpt>
      <trkpt lat="43.17613" lon="5.82732">
        <ele>168.123428</ele>
        <time>2022-08-14T06:46:33Z</time>
      </trkpt>
      <trkpt lat="43.17596" lon="5.82744">
        <ele>167.86734</ele>
        <time>2022-08-14T06:46:35Z</time>
      </trkpt>
      <trkpt lat="43.17579" lon="5.82752">
        <ele>167.614075</ele>
        <time>2022-08-14T06:46:37Z</time>
      </trkpt>
      <trkpt lat="43.17561" lon="5.82753">
        <ele>167.111664</ele>
        <time>2022-08-14T06:46:39Z</time>
      </trkpt>
      <trkpt lat="43.17544" lon="5.82755">
        <ele>166.860565</ele>
        <time>2022-08-14T06:46:41Z</time>
      </trkpt>
      <trkpt lat="43.1753" lon="5.82765">
        <ele>166.353409</ele>
        <time>2022-08-14T06:46:43Z</time>
      </trkpt>
      <trkpt lat="43.17431" lon="5.82851">
        <ele>165.846497</ele>
        <time>2022-08-14T06:46:57Z</time>
      </trkpt>
      <trkpt lat="43.17416" lon="5.82861">
        <ele>165.343246</ele>
        <time>2022-08-14T06:46:59Z</time>
      </trkpt>
      <trkpt lat="43.17402" lon="5.82871">
        <ele>165.092316</ele>
        <time>2022-08-14T06:47:01Z</time>
      </trkpt>
      <trkpt lat="43.17389" lon="5.82882">
        <ele>164.841644</ele>
        <time>2022-08-14T06:47:03Z</time>
      </trkpt>
      <trkpt lat="43.17375" lon="5.82891">
        <ele>164.336441</ele>
        <time>2022-08-14T06:47:05Z</time>
      </trkpt>
      <trkpt lat="43.17362" lon="5.82901">
        <ele>164.079071</ele>
        <time>2022-08-14T06:47:07Z</time>
      </trkpt>
      <trkpt lat="43.17349" lon="5.82913">
        <ele>163.552597</ele>
        <time>2022-08-14T06:47:09Z</time>
      </trkpt>
      <trkpt lat="43.17334" lon="5.82922">
        <ele>163.01004</ele>
        <time>2022-08-14T06:47:11Z</time>
      </trkpt>
      <trkpt lat="43.17322" lon="5.8293">
        <ele>162.733658</ele>
        <time>2022-08-14T06:47:13Z</time>
      </trkpt>
      <trkpt lat="43.17314" lon="5.82937">
        <ele>162.165955</ele>
        <time>2022-08-14T06:47:15Z</time>
      </trkpt>
      <trkpt lat="43.17306" lon="5.82942">
        <ele>161.87851</ele>
        <time>2022-08-14T06:47:17Z</time>
      </trkpt>
      <trkpt lat="43.17298" lon="5.82948">
        <ele>161.303894</ele>
        <time>2022-08-14T06:47:19Z</time>
      </trkpt>
      <trkpt lat="43.17289" lon="5.82956">
        <ele>161.019669</ele>
        <time>2022-08-14T06:47:21Z</time>
      </trkpt>
      <trkpt lat="43.17279" lon="5.82963">
        <ele>160.739517</ele>
        <time>2022-08-14T06:47:23Z</time>
      </trkpt>
      <trkpt lat="43.17269" lon="5.82971">
        <ele>160.195618</ele>
        <time>2022-08-14T06:47:25Z</time>
      </trkpt>
      <trkpt lat="43.17257" lon="5.8298">
        <ele>159.933441</ele>
        <time>2022-08-14T06:47:27Z</time>
      </trkpt>
      <trkpt lat="43.17245" lon="5.82988">
        <ele>159.432587</ele>
        <time>2022-08-14T06:47:29Z</time>
      </trkpt>
      <trkpt lat="43.17232" lon="5.82996">
        <ele>158.963287</ele>
        <time>2022-08-14T06:47:31Z</time>
      </trkpt>
      <trkpt lat="43.1722" lon="5.83004">
        <ele>158.739105</ele>
        <time>2022-08-14T06:47:33Z</time>
      </trkpt>
      <trkpt lat="43.17207" lon="5.83012">
        <ele>158.521942</ele>
        <time>2022-08-14T06:47:35Z</time>
      </trkpt>
      <trkpt lat="43.17194" lon="5.83022">
        <ele>158.104752</ele>
        <time>2022-08-14T06:47:37Z</time>
      </trkpt>
      <trkpt lat="43.1718" lon="5.8303">
        <ele>157.901001</ele>
        <time>2022-08-14T06:47:39Z</time>
      </trkpt>
      <trkpt lat="43.17165" lon="5.83037">
        <ele>157.505081</ele>
        <time>2022-08-14T06:47:41Z</time>
      </trkpt>
      <trkpt lat="43.17151" lon="5.83041">
        <ele>157.123596</ele>
        <time>2022-08-14T06:47:43Z</time>
      </trkpt>
      <trkpt lat="43.17132" lon="5.83028">
        <ele>156.935944</ele>
        <time>2022-08-14T06:47:45Z</time>
      </trkpt>
      <trkpt lat="43.17114" lon="5.83023">
        <ele>156.74855</ele>
        <time>2022-08-14T06:47:47Z</time>
      </trkpt>
      <trkpt lat="43.17095" lon="5.83015">
        <ele>156.183807</ele>
        <time>2022-08-14T06:47:49Z</time>
      </trkpt>
      <trkpt lat="43.17078" lon="5.83008">
        <ele>155.993042</ele>
        <time>2022-08-14T06:47:51Z</time>
      </trkpt>
      <trkpt lat="43.17062" lon="5.82998">
        <ele>155.799896</ele>
        <time>2022-08-14T06:47:53Z</time>
      </trkpt>
      <trkpt lat="43.17047" lon="5.82988">
        <ele>155.406052</ele>
        <time>2022-08-14T06:47:55Z</time>
      </trkpt>
      <trkpt lat="43.17033" lon="5.82977">
        <ele>155.206268</ele>
        <time>2022-08-14T06:47:57Z</time>
      </trkpt>
      <trkpt lat="43.17018" lon="5.82966">
        <ele>155.006378</ele>
        <time>2022-08-14T06:47:59Z</time>
      </trkpt>
      <trkpt lat="43.17004" lon="5.82956">
        <ele>154.808563</ele>
        <time>2022-08-14T06:48:01Z</time>
      </trkpt>
      <trkpt lat="43.1699" lon="5.82946">
        <ele>154.421967</ele>
        <time>2022-08-14T06:48:03Z</time>
      </trkpt>
      <trkpt lat="43.16976" lon="5.82936">
        <ele>154.235504</ele>
        <time>2022-08-14T06:48:05Z</time>
      </trkpt>
      <trkpt lat="43.16963" lon="5.82927">
        <ele>153.878632</ele>
        <time>2022-08-14T06:48:07Z</time>
      </trkpt>
      <trkpt lat="43.16949" lon="5.82917">
        <ele>153.712128</ele>
        <time>2022-08-14T06:48:09Z</time>
      </trkpt>
      <trkpt lat="43.16934" lon="5.82908">
        <ele>153.408112</ele>
        <time>2022-08-14T06:48:11Z</time>
      </trkpt>
      <trkpt lat="43.16919" lon="5.829">
        <ele>153.269989</ele>
        <time>2022-08-14T06:48:13Z</time>
      </trkpt>
      <trkpt lat="43.16903" lon="5.82894">
        <ele>153.139847</ele>
        <time>2022-08-14T06:48:15Z</time>
      </trkpt>
      <trkpt lat="43.16887" lon="5.8289">
        <ele>152.898621</ele>
        <time>2022-08-14T06:48:17Z</time>
      </trkpt>
      <trkpt lat="43.16871" lon="5.82885">
        <ele>152.784302</ele>
        <time>2022-08-14T06:48:19Z</time>
      </trkpt>
      <trkpt lat="43.16855" lon="5.82879">
        <ele>152.563553</ele>
        <time>2022-08-14T06:48:21Z</time>
      </trkpt>
      <trkpt lat="43.16838" lon="5.82874">
        <ele>152.456833</ele>
        <time>2022-08-14T06:48:23Z</time>
      </trkpt>
      <trkpt lat="43.16822" lon="5.82869">
        <ele>152.259399</ele>
        <time>2022-08-14T06:48:25Z</time>
      </trkpt>
      <trkpt lat="43.16805" lon="5.82863">
        <ele>152.170822</ele>
        <time>2022-08-14T06:48:27Z</time>
      </trkpt>
      <trkpt lat="43.16789" lon="5.82858">
        <ele>152.024216</ele>
        <time>2022-08-14T06:48:29Z</time>
      </trkpt>
      <trkpt lat="43.16773" lon="5.82852">
        <ele>151.966568</ele>
        <time>2022-08-14T06:48:31Z</time>
      </trkpt>
      <trkpt lat="43.16756" lon="5.82849">
        <ele>151.875458</ele>
        <time>2022-08-14T06:48:33Z</time>
      </trkpt>
      <trkpt lat="43.16739" lon="5.82849">
        <ele>151.837128</ele>
        <time>2022-08-14T06:48:35Z</time>
      </trkpt>
      <trkpt lat="43.16723" lon="5.82852">
        <ele>151.764679</ele>
        <time>2022-08-14T06:48:37Z</time>
      </trkpt>
      <trkpt lat="43.16707" lon="5.82855">
        <ele>151.720764</ele>
        <time>2022-08-14T06:48:39Z</time>
      </trkpt>
      <trkpt lat="43.1669" lon="5.82859">
        <ele>151.600861</ele>
        <time>2022-08-14T06:48:41Z</time>
      </trkpt>
      <trkpt lat="43.16674" lon="5.82863">
        <ele>151.516479</ele>
        <time>2022-08-14T06:48:43Z</time>
      </trkpt>
      <trkpt lat="43.16657" lon="5.82869">
        <ele>151.296829</ele>
        <time>2022-08-14T06:48:45Z</time>
      </trkpt>
      <trkpt lat="43.16641" lon="5.82876">
        <ele>151.148727</ele>
        <time>2022-08-14T06:48:47Z</time>
      </trkpt>
      <trkpt lat="43.16625" lon="5.82885">
        <ele>150.769226</ele>
        <time>2022-08-14T06:48:49Z</time>
      </trkpt>
      <trkpt lat="43.16609" lon="5.82894">
        <ele>150.536041</ele>
        <time>2022-08-14T06:48:51Z</time>
      </trkpt>
      <trkpt lat="43.16593" lon="5.82903">
        <ele>149.98288</ele>
        <time>2022-08-14T06:48:53Z</time>
      </trkpt>
      <trkpt lat="43.16577" lon="5.82912">
        <ele>149.663437</ele>
        <time>2022-08-14T06:48:55Z</time>
      </trkpt>
      <trkpt lat="43.16561" lon="5.8292">
        <ele>148.951447</ele>
        <time>2022-08-14T06:48:57Z</time>
      </trkpt>
      <trkpt lat="43.16545" lon="5.82929">
        <ele>148.569183</ele>
        <time>2022-08-14T06:48:59Z</time>
      </trkpt>
      <trkpt lat="43.16529" lon="5.82938">
        <ele>147.784821</ele>
        <time>2022-08-14T06:49:01Z</time>
      </trkpt>
      <trkpt lat="43.16512" lon="5.82947">
        <ele>147.393356</ele>
        <time>2022-08-14T06:49:03Z</time>
      </trkpt>
      <trkpt lat="43.16496" lon="5.82957">
        <ele>147.010468</ele>
        <time>2022-08-14T06:49:05Z</time>
      </trkpt>
      <trkpt lat="43.1648" lon="5.82969">
        <ele>146.307266</ele>
        <time>2022-08-14T06:49:07Z</time>
      </trkpt>
      <trkpt lat="43.16463" lon="5.82981">
        <ele>145.705963</ele>
        <time>2022-08-14T06:49:09Z</time>
      </trkpt>
      <trkpt lat="43.16447" lon="5.82993">
        <ele>145.466293</ele>
        <time>2022-08-14T06:49:11Z</time>
      </trkpt>
      <trkpt lat="43.16431" lon="5.83006">
        <ele>145.276718</ele>
        <time>2022-08-14T06:49:13Z</time>
      </trkpt>
      <trkpt lat="43.16415" lon="5.83019">
        <ele>145.047714</ele>
        <time>2022-08-14T06:49:15Z</time>
      </trkpt>
      <trkpt lat="43.164" lon="5.83032">
        <ele>145.001541</ele>
        <time>2022-08-14T06:49:17Z</time>
      </trkpt>
      <trkpt lat="43.16385" lon="5.83047">
        <ele>145.014694</ele>
        <time>2022-08-14T06:49:19Z</time>
      </trkpt>
      <trkpt lat="43.16372" lon="5.83064">
        <ele>145.058807</ele>
        <time>2022-08-14T06:49:21Z</time>
      </trkpt>
      <trkpt lat="43.16359" lon="5.83081">
        <ele>145.11496</ele>
        <time>2022-08-14T06:49:23Z</time>
      </trkpt>
      <trkpt lat="43.16348" lon="5.83098">
        <ele>145.229416</ele>
        <time>2022-08-14T06:49:25Z</time>
      </trkpt>
      <trkpt lat="43.16337" lon="5.83116">
        <ele>145.267914</ele>
        <time>2022-08-14T06:49:27Z</time>
      </trkpt>
      <trkpt lat="43.16327" lon="5.83132">
        <ele>145.257721</ele>
        <time>2022-08-14T06:49:29Z</time>
      </trkpt>
      <trkpt lat="43.16318" lon="5.8315">
        <ele>145.201691</ele>
        <time>2022-08-14T06:49:31Z</time>
      </trkpt>
      <trkpt lat="43.1631" lon="5.83168">
        <ele>145.116913</ele>
        <time>2022-08-14T06:49:33Z</time>
      </trkpt>
      <trkpt lat="43.16304" lon="5.83185">
        <ele>144.898605</ele>
        <time>2022-08-14T06:49:35Z</time>
      </trkpt>
      <trkpt lat="43.16301" lon="5.83204">
        <ele>144.783218</ele>
        <time>2022-08-14T06:49:37Z</time>
      </trkpt>
      <trkpt lat="43.16299" lon="5.83223">
        <ele>144.565826</ele>
        <time>2022-08-14T06:49:39Z</time>
      </trkpt>
      <trkpt lat="43.163" lon="5.83241">
        <ele>144.475677</ele>
        <time>2022-08-14T06:49:41Z</time>
      </trkpt>
      <trkpt lat="43.16301" lon="5.83259">
        <ele>144.373016</ele>
        <time>2022-08-14T06:49:43Z</time>
      </trkpt>
      <trkpt lat="43.16301" lon="5.83278">
        <ele>144.364349</ele>
        <time>2022-08-14T06:49:45Z</time>
      </trkpt>
      <trkpt lat="43.16295" lon="5.83296">
        <ele>144.43486</ele>
        <time>2022-08-14T06:49:47Z</time>
      </trkpt>
      <trkpt lat="43.16282" lon="5.83308">
        <ele>144.509613</ele>
        <time>2022-08-14T06:49:49Z</time>
      </trkpt>
      <trkpt lat="43.16265" lon="5.8331">
        <ele>144.606323</ele>
        <time>2022-08-14T06:49:51Z</time>
      </trkpt>
      <trkpt lat="43.16249" lon="5.833">
        <ele>144.847061</ele>
        <time>2022-08-14T06:49:53Z</time>
      </trkpt>
      <trkpt lat="43.16233" lon="5.83288">
        <ele>144.980133</ele>
        <time>2022-08-14T06:49:55Z</time>
      </trkpt>
      <trkpt lat="43.16219" lon="5.83276">
        <ele>145.242401</ele>
        <time>2022-08-14T06:49:57Z</time>
      </trkpt>
      <trkpt lat="43.16202" lon="5.8326">
        <ele>145.363556</ele>
        <time>2022-08-14T06:49:59Z</time>
      </trkpt>
      <trkpt lat="43.16185" lon="5.83244">
        <ele>145.560028</ele>
        <time>2022-08-14T06:50:01Z</time>
      </trkpt>
      <trkpt lat="43.16168" lon="5.83226">
        <ele>145.620697</ele>
        <time>2022-08-14T06:50:03Z</time>
      </trkpt>
      <trkpt lat="43.16152" lon="5.83206">
        <ele>145.65921</ele>
        <time>2022-08-14T06:50:05Z</time>
      </trkpt>
      <trkpt lat="43.16138" lon="5.83186">
        <ele>145.640945</ele>
        <time>2022-08-14T06:50:07Z</time>
      </trkpt>
      <trkpt lat="43.16125" lon="5.83168">
        <ele>145.562881</ele>
        <time>2022-08-14T06:50:09Z</time>
      </trkpt>
      <trkpt lat="43.16112" lon="5.83153">
        <ele>145.266907</ele>
        <time>2022-08-14T06:50:11Z</time>
      </trkpt>
      <trkpt lat="43.16098" lon="5.8314">
        <ele>145.055862</ele>
        <time>2022-08-14T06:50:13Z</time>
      </trkpt>
      <trkpt lat="43.16079" lon="5.83129">
        <ele>144.810883</ele>
        <time>2022-08-14T06:50:15Z</time>
      </trkpt>
      <trkpt lat="43.16051" lon="5.83127">
        <ele>143.944427</ele>
        <time>2022-08-14T06:50:18Z</time>
      </trkpt>
      <trkpt lat="43.16033" lon="5.83131">
        <ele>143.633575</ele>
        <time>2022-08-14T06:50:20Z</time>
      </trkpt>
      <trkpt lat="43.16015" lon="5.83138">
        <ele>143.323975</ele>
        <time>2022-08-14T06:50:22Z</time>
      </trkpt>
      <trkpt lat="43.15998" lon="5.83148">
        <ele>142.756149</ele>
        <time>2022-08-14T06:50:24Z</time>
      </trkpt>
      <trkpt lat="43.15982" lon="5.83161">
        <ele>142.522537</ele>
        <time>2022-08-14T06:50:26Z</time>
      </trkpt>
      <trkpt lat="43.15968" lon="5.83177">
        <ele>142.183212</ele>
        <time>2022-08-14T06:50:28Z</time>
      </trkpt>
      <trkpt lat="43.15954" lon="5.83196">
        <ele>142.079025</ele>
        <time>2022-08-14T06:50:30Z</time>
      </trkpt>
      <trkpt lat="43.15944" lon="5.83217">
        <ele>142.015198</ele>
        <time>2022-08-14T06:50:32Z</time>
      </trkpt>
      <trkpt lat="43.15937" lon="5.8324">
        <ele>142.065094</ele>
        <time>2022-08-14T06:50:34Z</time>
      </trkpt>
      <trkpt lat="43.15935" lon="5.83263">
        <ele>142.290253</ele>
        <time>2022-08-14T06:50:36Z</time>
      </trkpt>
      <trkpt lat="43.15933" lon="5.83286">
        <ele>142.650391</ele>
        <time>2022-08-14T06:50:38Z</time>
      </trkpt>
      <trkpt lat="43.15931" lon="5.8331">
        <ele>143.13623</ele>
        <time>2022-08-14T06:50:40Z</time>
      </trkpt>
      <trkpt lat="43.15928" lon="5.83333">
        <ele>143.415695</ele>
        <time>2022-08-14T06:50:42Z</time>
      </trkpt>
      <trkpt lat="43.15926" lon="5.83358">
        <ele>144.042221</ele>
        <time>2022-08-14T06:50:44Z</time>
      </trkpt>
      <trkpt lat="43.15923" lon="5.83382">
        <ele>144.744873</ele>
        <time>2022-08-14T06:50:46Z</time>
      </trkpt>
      <trkpt lat="43.1592" lon="5.83407">
        <ele>145.125137</ele>
        <time>2022-08-14T06:50:48Z</time>
      </trkpt>
      <trkpt lat="43.15915" lon="5.83429">
        <ele>145.930145</ele>
        <time>2022-08-14T06:50:50Z</time>
      </trkpt>
      <trkpt lat="43.15909" lon="5.83451">
        <ele>146.346222</ele>
        <time>2022-08-14T06:50:52Z</time>
      </trkpt>
      <trkpt lat="43.15901" lon="5.83471">
        <ele>146.764435</ele>
        <time>2022-08-14T06:50:54Z</time>
      </trkpt>
      <trkpt lat="43.15893" lon="5.8349">
        <ele>147.587128</ele>
        <time>2022-08-14T06:50:56Z</time>
      </trkpt>
      <trkpt lat="43.15887" lon="5.8351">
        <ele>147.985992</ele>
        <time>2022-08-14T06:50:58Z</time>
      </trkpt>
      <trkpt lat="43.1588" lon="5.83528">
        <ele>148.755554</ele>
        <time>2022-08-14T06:51:00Z</time>
      </trkpt>
      <trkpt lat="43.15871" lon="5.83544">
        <ele>149.128769</ele>
        <time>2022-08-14T06:51:02Z</time>
      </trkpt>
      <trkpt lat="43.15861" lon="5.83557">
        <ele>149.846695</ele>
        <time>2022-08-14T06:51:04Z</time>
      </trkpt>
      <trkpt lat="43.15849" lon="5.83571">
        <ele>150.190186</ele>
        <time>2022-08-14T06:51:06Z</time>
      </trkpt>
      <trkpt lat="43.15835" lon="5.83587">
        <ele>150.848602</ele>
        <time>2022-08-14T06:51:08Z</time>
      </trkpt>
      <trkpt lat="43.15822" lon="5.83602">
        <ele>151.167435</ele>
        <time>2022-08-14T06:51:10Z</time>
      </trkpt>
      <trkpt lat="43.15809" lon="5.83618">
        <ele>151.819122</ele>
        <time>2022-08-14T06:51:12Z</time>
      </trkpt>
      <trkpt lat="43.15796" lon="5.83634">
        <ele>152.174805</ele>
        <time>2022-08-14T06:51:14Z</time>
      </trkpt>
      <trkpt lat="43.15785" lon="5.83652">
        <ele>153.01236</ele>
        <time>2022-08-14T06:51:16Z</time>
      </trkpt>
      <trkpt lat="43.15775" lon="5.83671">
        <ele>153.515366</ele>
        <time>2022-08-14T06:51:18Z</time>
      </trkpt>
      <trkpt lat="43.15769" lon="5.83692">
        <ele>154.722443</ele>
        <time>2022-08-14T06:51:20Z</time>
      </trkpt>
      <trkpt lat="43.15769" lon="5.83715">
        <ele>155.426239</ele>
        <time>2022-08-14T06:51:22Z</time>
      </trkpt>
      <trkpt lat="43.15773" lon="5.83737">
        <ele>156.18251</ele>
        <time>2022-08-14T06:51:24Z</time>
      </trkpt>
      <trkpt lat="43.15781" lon="5.8376">
        <ele>157.766983</ele>
        <time>2022-08-14T06:51:26Z</time>
      </trkpt>
      <trkpt lat="43.15791" lon="5.83778">
        <ele>158.563095</ele>
        <time>2022-08-14T06:51:28Z</time>
      </trkpt>
      <trkpt lat="43.15802" lon="5.83796">
        <ele>160.077454</ele>
        <time>2022-08-14T06:51:30Z</time>
      </trkpt>
      <trkpt lat="43.15809" lon="5.83816">
        <ele>160.75502</ele>
        <time>2022-08-14T06:51:32Z</time>
      </trkpt>
      <trkpt lat="43.1581" lon="5.83839">
        <ele>161.821915</ele>
        <time>2022-08-14T06:51:34Z</time>
      </trkpt>
      <trkpt lat="43.15801" lon="5.83858">
        <ele>162.19191</ele>
        <time>2022-08-14T06:51:36Z</time>
      </trkpt>
      <trkpt lat="43.1579" lon="5.83875">
        <ele>162.463074</ele>
        <time>2022-08-14T06:51:38Z</time>
      </trkpt>
      <trkpt lat="43.15782" lon="5.83894">
        <ele>162.847504</ele>
        <time>2022-08-14T06:51:40Z</time>
      </trkpt>
      <trkpt lat="43.15778" lon="5.83917">
        <ele>163.04837</ele>
        <time>2022-08-14T06:51:42Z</time>
      </trkpt>
      <trkpt lat="43.15779" lon="5.8394">
        <ele>163.608383</ele>
        <time>2022-08-14T06:51:44Z</time>
      </trkpt>
      <trkpt lat="43.15783" lon="5.83963">
        <ele>163.963409</ele>
        <time>2022-08-14T06:51:46Z</time>
      </trkpt>
      <trkpt lat="43.15793" lon="5.83983">
        <ele>164.847687</ele>
        <time>2022-08-14T06:51:48Z</time>
      </trkpt>
      <trkpt lat="43.15807" lon="5.84001">
        <ele>165.351288</ele>
        <time>2022-08-14T06:51:50Z</time>
      </trkpt>
      <trkpt lat="43.15822" lon="5.84017">
        <ele>165.873596</ele>
        <time>2022-08-14T06:51:52Z</time>
      </trkpt>
      <trkpt lat="43.15839" lon="5.84029">
        <ele>166.85527</ele>
        <time>2022-08-14T06:51:54Z</time>
      </trkpt>
      <trkpt lat="43.15857" lon="5.84036">
        <ele>167.246613</ele>
        <time>2022-08-14T06:51:56Z</time>
      </trkpt>
      <trkpt lat="43.15874" lon="5.84045">
        <ele>167.527802</ele>
        <time>2022-08-14T06:51:58Z</time>
      </trkpt>
      <trkpt lat="43.15889" lon="5.84057">
        <ele>167.731857</ele>
        <time>2022-08-14T06:52:00Z</time>
      </trkpt>
      <trkpt lat="43.15903" lon="5.84072">
        <ele>167.671173</ele>
        <time>2022-08-14T06:52:02Z</time>
      </trkpt>
      <trkpt lat="43.15917" lon="5.8409">
        <ele>167.351425</ele>
        <time>2022-08-14T06:52:04Z</time>
      </trkpt>
      <trkpt lat="43.1593" lon="5.84111">
        <ele>166.902649</ele>
        <time>2022-08-14T06:52:06Z</time>
      </trkpt>
      <trkpt lat="43.15942" lon="5.84134">
        <ele>166.337677</ele>
        <time>2022-08-14T06:52:08Z</time>
      </trkpt>
      <trkpt lat="43.15951" lon="5.8416">
        <ele>166.000061</ele>
        <time>2022-08-14T06:52:10Z</time>
      </trkpt>
      <trkpt lat="43.15956" lon="5.84187">
        <ele>165.161957</ele>
        <time>2022-08-14T06:52:12Z</time>
      </trkpt>
      <trkpt lat="43.15956" lon="5.84216">
        <ele>164.636444</ele>
        <time>2022-08-14T06:52:14Z</time>
      </trkpt>
      <trkpt lat="43.15953" lon="5.84244">
        <ele>163.328842</ele>
        <time>2022-08-14T06:52:16Z</time>
      </trkpt>
      <trkpt lat="43.15952" lon="5.84272">
        <ele>161.666489</ele>
        <time>2022-08-14T06:52:18Z</time>
      </trkpt>
      <trkpt lat="43.15953" lon="5.84301">
        <ele>160.726776</ele>
        <time>2022-08-14T06:52:20Z</time>
      </trkpt>
      <trkpt lat="43.15949" lon="5.84328">
        <ele>159.732269</ele>
        <time>2022-08-14T06:52:22Z</time>
      </trkpt>
      <trkpt lat="43.15934" lon="5.84349">
        <ele>157.65416</ele>
        <time>2022-08-14T06:52:24Z</time>
      </trkpt>
      <trkpt lat="43.15916" lon="5.84361">
        <ele>156.624481</ele>
        <time>2022-08-14T06:52:26Z</time>
      </trkpt>
      <trkpt lat="43.15894" lon="5.84368">
        <ele>154.772598</ele>
        <time>2022-08-14T06:52:28Z</time>
      </trkpt>
      <trkpt lat="43.15873" lon="5.84372">
        <ele>154.019272</ele>
        <time>2022-08-14T06:52:30Z</time>
      </trkpt>
      <trkpt lat="43.15851" lon="5.84376">
        <ele>152.903885</ele>
        <time>2022-08-14T06:52:32Z</time>
      </trkpt>
      <trkpt lat="43.15831" lon="5.84384">
        <ele>152.491501</ele>
        <time>2022-08-14T06:52:34Z</time>
      </trkpt>
      <trkpt lat="43.15812" lon="5.84398">
        <ele>151.724808</ele>
        <time>2022-08-14T06:52:36Z</time>
      </trkpt>
      <trkpt lat="43.15796" lon="5.84418">
        <ele>150.816177</ele>
        <time>2022-08-14T06:52:38Z</time>
      </trkpt>
      <trkpt lat="43.15784" lon="5.84441">
        <ele>149.708511</ele>
        <time>2022-08-14T06:52:40Z</time>
      </trkpt>
      <trkpt lat="43.15773" lon="5.84465">
        <ele>148.378616</ele>
        <time>2022-08-14T06:52:42Z</time>
      </trkpt>
      <trkpt lat="43.15761" lon="5.84487">
        <ele>147.645477</ele>
        <time>2022-08-14T06:52:44Z</time>
      </trkpt>
      <trkpt lat="43.15747" lon="5.84505">
        <ele>146.14389</ele>
        <time>2022-08-14T06:52:46Z</time>
      </trkpt>
      <trkpt lat="43.15727" lon="5.84505">
        <ele>144.714676</ele>
        <time>2022-08-14T06:52:48Z</time>
      </trkpt>
      <trkpt lat="43.15711" lon="5.8449">
        <ele>144.097733</ele>
        <time>2022-08-14T06:52:50Z</time>
      </trkpt>
      <trkpt lat="43.15697" lon="5.8447">
        <ele>143.051132</ele>
        <time>2022-08-14T06:52:52Z</time>
      </trkpt>
      <trkpt lat="43.15682" lon="5.84446">
        <ele>142.569656</ele>
        <time>2022-08-14T06:52:54Z</time>
      </trkpt>
      <trkpt lat="43.15668" lon="5.84424">
        <ele>141.660736</ele>
        <time>2022-08-14T06:52:56Z</time>
      </trkpt>
      <trkpt lat="43.15656" lon="5.84399">
        <ele>140.780121</ele>
        <time>2022-08-14T06:52:58Z</time>
      </trkpt>
      <trkpt lat="43.15646" lon="5.84374">
        <ele>139.863556</ele>
        <time>2022-08-14T06:53:00Z</time>
      </trkpt>
      <trkpt lat="43.15636" lon="5.84352">
        <ele>138.867111</ele>
        <time>2022-08-14T06:53:02Z</time>
      </trkpt>
      <trkpt lat="43.15625" lon="5.84328">
        <ele>137.760498</ele>
        <time>2022-08-14T06:53:04Z</time>
      </trkpt>
      <trkpt lat="43.15611" lon="5.84305">
        <ele>137.15097</ele>
        <time>2022-08-14T06:53:06Z</time>
      </trkpt>
      <trkpt lat="43.15596" lon="5.84288">
        <ele>135.897141</ele>
        <time>2022-08-14T06:53:08Z</time>
      </trkpt>
      <trkpt lat="43.15578" lon="5.84273">
        <ele>135.290619</ele>
        <time>2022-08-14T06:53:10Z</time>
      </trkpt>
      <trkpt lat="43.15559" lon="5.84265">
        <ele>134.228195</ele>
        <time>2022-08-14T06:53:12Z</time>
      </trkpt>
      <trkpt lat="43.15538" lon="5.8427">
        <ele>133.395187</ele>
        <time>2022-08-14T06:53:14Z</time>
      </trkpt>
      <trkpt lat="43.15523" lon="5.84289">
        <ele>132.821701</ele>
        <time>2022-08-14T06:53:16Z</time>
      </trkpt>
      <trkpt lat="43.15515" lon="5.84315">
        <ele>132.315704</ele>
        <time>2022-08-14T06:53:18Z</time>
      </trkpt>
      <trkpt lat="43.15507" lon="5.84341">
        <ele>132.041718</ele>
        <time>2022-08-14T06:53:20Z</time>
      </trkpt>
      <trkpt lat="43.15498" lon="5.84368">
        <ele>131.444778</ele>
        <time>2022-08-14T06:53:22Z</time>
      </trkpt>
      <trkpt lat="43.15485" lon="5.84392">
        <ele>130.681564</ele>
        <time>2022-08-14T06:53:24Z</time>
      </trkpt>
      <trkpt lat="43.15469" lon="5.8441">
        <ele>130.186981</ele>
        <time>2022-08-14T06:53:26Z</time>
      </trkpt>
      <trkpt lat="43.1545" lon="5.84426">
        <ele>129.047211</ele>
        <time>2022-08-14T06:53:28Z</time>
      </trkpt>
      <trkpt lat="43.15432" lon="5.84442">
        <ele>128.435303</ele>
        <time>2022-08-14T06:53:30Z</time>
      </trkpt>
      <trkpt lat="43.15415" lon="5.84459">
        <ele>127.284012</ele>
        <time>2022-08-14T06:53:32Z</time>
      </trkpt>
      <trkpt lat="43.15398" lon="5.84478">
        <ele>126.776024</ele>
        <time>2022-08-14T06:53:34Z</time>
      </trkpt>
      <trkpt lat="43.15381" lon="5.84494">
        <ele>125.925926</ele>
        <time>2022-08-14T06:53:36Z</time>
      </trkpt>
      <trkpt lat="43.15362" lon="5.84504">
        <ele>125.502258</ele>
        <time>2022-08-14T06:53:38Z</time>
      </trkpt>
      <trkpt lat="43.15343" lon="5.84509">
        <ele>125.056137</ele>
        <time>2022-08-14T06:53:40Z</time>
      </trkpt>
      <trkpt lat="43.15324" lon="5.84508">
        <ele>124.084091</ele>
        <time>2022-08-14T06:53:42Z</time>
      </trkpt>
      <trkpt lat="43.15305" lon="5.845">
        <ele>123.572731</ele>
        <time>2022-08-14T06:53:44Z</time>
      </trkpt>
      <trkpt lat="43.15287" lon="5.84491">
        <ele>122.558533</ele>
        <time>2022-08-14T06:53:46Z</time>
      </trkpt>
      <trkpt lat="43.15269" lon="5.84481">
        <ele>121.655128</ele>
        <time>2022-08-14T06:53:48Z</time>
      </trkpt>
      <trkpt lat="43.15251" lon="5.84471">
        <ele>121.298744</ele>
        <time>2022-08-14T06:53:50Z</time>
      </trkpt>
      <trkpt lat="43.15233" lon="5.84464">
        <ele>121.037392</ele>
        <time>2022-08-14T06:53:52Z</time>
      </trkpt>
      <trkpt lat="43.15214" lon="5.84462">
        <ele>120.901306</ele>
        <time>2022-08-14T06:53:54Z</time>
      </trkpt>
      <trkpt lat="43.15195" lon="5.84467">
        <ele>121.321884</ele>
        <time>2022-08-14T06:53:56Z</time>
      </trkpt>
      <trkpt lat="43.15178" lon="5.8448">
        <ele>122.236351</ele>
        <time>2022-08-14T06:53:58Z</time>
      </trkpt>
      <trkpt lat="43.15165" lon="5.845">
        <ele>122.862778</ele>
        <time>2022-08-14T06:54:00Z</time>
      </trkpt>
      <trkpt lat="43.15157" lon="5.84526">
        <ele>124.259399</ele>
        <time>2022-08-14T06:54:02Z</time>
      </trkpt>
      <trkpt lat="43.15157" lon="5.84553">
        <ele>124.950378</ele>
        <time>2022-08-14T06:54:04Z</time>
      </trkpt>
      <trkpt lat="43.15159" lon="5.8458">
        <ele>126.046494</ele>
        <time>2022-08-14T06:54:06Z</time>
      </trkpt>
      <trkpt lat="43.1516" lon="5.84607">
        <ele>126.358963</ele>
        <time>2022-08-14T06:54:08Z</time>
      </trkpt>
      <trkpt lat="43.15162" lon="5.84633">
        <ele>126.40477</ele>
        <time>2022-08-14T06:54:10Z</time>
      </trkpt>
      <trkpt lat="43.15164" lon="5.84659">
        <ele>126.132797</ele>
        <time>2022-08-14T06:54:12Z</time>
      </trkpt>
      <trkpt lat="43.15165" lon="5.84685">
        <ele>125.666466</ele>
        <time>2022-08-14T06:54:14Z</time>
      </trkpt>
      <trkpt lat="43.15167" lon="5.84711">
        <ele>124.355896</ele>
        <time>2022-08-14T06:54:16Z</time>
      </trkpt>
      <trkpt lat="43.15168" lon="5.84734">
        <ele>123.598373</ele>
        <time>2022-08-14T06:54:18Z</time>
      </trkpt>
      <trkpt lat="43.15167" lon="5.84758">
        <ele>122.082985</ele>
        <time>2022-08-14T06:54:20Z</time>
      </trkpt>
      <trkpt lat="43.1516" lon="5.84778">
        <ele>120.645325</ele>
        <time>2022-08-14T06:54:22Z</time>
      </trkpt>
      <trkpt lat="43.1515" lon="5.84796">
        <ele>119.948685</ele>
        <time>2022-08-14T06:54:24Z</time>
      </trkpt>
      <trkpt lat="43.15139" lon="5.84812">
        <ele>119.252335</ele>
        <time>2022-08-14T06:54:26Z</time>
      </trkpt>
      <trkpt lat="43.15126" lon="5.84827">
        <ele>117.847961</ele>
        <time>2022-08-14T06:54:28Z</time>
      </trkpt>
      <trkpt lat="43.15112" lon="5.84837">
        <ele>117.155457</ele>
        <time>2022-08-14T06:54:30Z</time>
      </trkpt>
      <trkpt lat="43.15096" lon="5.84841">
        <ele>115.839157</ele>
        <time>2022-08-14T06:54:32Z</time>
      </trkpt>
      <trkpt lat="43.15079" lon="5.84838">
        <ele>115.218582</ele>
        <time>2022-08-14T06:54:34Z</time>
      </trkpt>
      <trkpt lat="43.15064" lon="5.84831">
        <ele>113.995949</ele>
        <time>2022-08-14T06:54:36Z</time>
      </trkpt>
      <trkpt lat="43.15047" lon="5.84823">
        <ele>113.363998</ele>
        <time>2022-08-14T06:54:38Z</time>
      </trkpt>
      <trkpt lat="43.15032" lon="5.84812">
        <ele>112.003929</ele>
        <time>2022-08-14T06:54:40Z</time>
      </trkpt>
      <trkpt lat="43.15018" lon="5.848">
        <ele>110.428848</ele>
        <time>2022-08-14T06:54:42Z</time>
      </trkpt>
      <trkpt lat="43.15004" lon="5.84787">
        <ele>109.519936</ele>
        <time>2022-08-14T06:54:44Z</time>
      </trkpt>
      <trkpt lat="43.1499" lon="5.84776">
        <ele>107.368591</ele>
        <time>2022-08-14T06:54:46Z</time>
      </trkpt>
      <trkpt lat="43.14977" lon="5.84764">
        <ele>106.143127</ele>
        <time>2022-08-14T06:54:48Z</time>
      </trkpt>
      <trkpt lat="43.14962" lon="5.84752">
        <ele>103.424988</ele>
        <time>2022-08-14T06:54:50Z</time>
      </trkpt>
      <trkpt lat="43.14947" lon="5.84739">
        <ele>100.348709</ele>
        <time>2022-08-14T06:54:52Z</time>
      </trkpt>
      <trkpt lat="43.14932" lon="5.84727">
        <ele>98.68132</ele>
        <time>2022-08-14T06:54:54Z</time>
      </trkpt>
      <trkpt lat="43.14917" lon="5.84714">
        <ele>95.240562</ele>
        <time>2022-08-14T06:54:56Z</time>
      </trkpt>
      <trkpt lat="43.14901" lon="5.84701">
        <ele>93.542229</ele>
        <time>2022-08-14T06:54:58Z</time>
      </trkpt>
      <trkpt lat="43.14887" lon="5.84689">
        <ele>90.427383</ele>
        <time>2022-08-14T06:55:00Z</time>
      </trkpt>
      <trkpt lat="43.14871" lon="5.84677">
        <ele>89.086548</ele>
        <time>2022-08-14T06:55:02Z</time>
      </trkpt>
      <trkpt lat="43.14845" lon="5.84674">
        <ele>86.958023</ele>
        <time>2022-08-14T06:55:05Z</time>
      </trkpt>
      <trkpt lat="43.14831" lon="5.84688">
        <ele>85.611595</ele>
        <time>2022-08-14T06:55:07Z</time>
      </trkpt>
      <trkpt lat="43.14818" lon="5.84705">
        <ele>84.911606</ele>
        <time>2022-08-14T06:55:09Z</time>
      </trkpt>
      <trkpt lat="43.14805" lon="5.84722">
        <ele>84.754601</ele>
        <time>2022-08-14T06:55:11Z</time>
      </trkpt>
      <trkpt lat="43.14793" lon="5.84738">
        <ele>84.680771</ele>
        <time>2022-08-14T06:55:13Z</time>
      </trkpt>
      <trkpt lat="43.14781" lon="5.84754">
        <ele>84.712067</ele>
        <time>2022-08-14T06:55:15Z</time>
      </trkpt>
      <trkpt lat="43.14769" lon="5.84768">
        <ele>84.825409</ele>
        <time>2022-08-14T06:55:17Z</time>
      </trkpt>
      <trkpt lat="43.14756" lon="5.84781">
        <ele>84.896568</ele>
        <time>2022-08-14T06:55:19Z</time>
      </trkpt>
      <trkpt lat="43.14742" lon="5.84793">
        <ele>85.081436</ele>
        <time>2022-08-14T06:55:21Z</time>
      </trkpt>
      <trkpt lat="43.14729" lon="5.84805">
        <ele>85.203804</ele>
        <time>2022-08-14T06:55:23Z</time>
      </trkpt>
      <trkpt lat="43.14714" lon="5.84815">
        <ele>85.506203</ele>
        <time>2022-08-14T06:55:25Z</time>
      </trkpt>
      <trkpt lat="43.14698" lon="5.8482">
        <ele>85.671158</ele>
        <time>2022-08-14T06:55:27Z</time>
      </trkpt>
      <trkpt lat="43.14681" lon="5.84822">
        <ele>85.982567</ele>
        <time>2022-08-14T06:55:29Z</time>
      </trkpt>
      <trkpt lat="43.14664" lon="5.84822">
        <ele>86.114189</ele>
        <time>2022-08-14T06:55:31Z</time>
      </trkpt>
      <trkpt lat="43.14647" lon="5.84819">
        <ele>86.311081</ele>
        <time>2022-08-14T06:55:33Z</time>
      </trkpt>
      <trkpt lat="43.1463" lon="5.84816">
        <ele>86.3769</ele>
        <time>2022-08-14T06:55:35Z</time>
      </trkpt>
      <trkpt lat="43.14613" lon="5.84812">
        <ele>86.432571</ele>
        <time>2022-08-14T06:55:37Z</time>
      </trkpt>
      <trkpt lat="43.14596" lon="5.84808">
        <ele>86.424553</ele>
        <time>2022-08-14T06:55:39Z</time>
      </trkpt>
      <trkpt lat="43.1458" lon="5.84801">
        <ele>86.358231</ele>
        <time>2022-08-14T06:55:41Z</time>
      </trkpt>
      <trkpt lat="43.14566" lon="5.84792">
        <ele>86.299019</ele>
        <time>2022-08-14T06:55:43Z</time>
      </trkpt>
      <trkpt lat="43.14552" lon="5.84783">
        <ele>86.137314</ele>
        <time>2022-08-14T06:55:45Z</time>
      </trkpt>
      <trkpt lat="43.14537" lon="5.84774">
        <ele>86.039337</ele>
        <time>2022-08-14T06:55:47Z</time>
      </trkpt>
      <trkpt lat="43.14523" lon="5.84764">
        <ele>85.811203</ele>
        <time>2022-08-14T06:55:49Z</time>
      </trkpt>
      <trkpt lat="43.14508" lon="5.84755">
        <ele>85.677963</ele>
        <time>2022-08-14T06:55:51Z</time>
      </trkpt>
      <trkpt lat="43.14492" lon="5.84747">
        <ele>85.519669</ele>
        <time>2022-08-14T06:55:53Z</time>
      </trkpt>
      <trkpt lat="43.14476" lon="5.84739">
        <ele>85.100815</ele>
        <time>2022-08-14T06:55:55Z</time>
      </trkpt>
      <trkpt lat="43.14461" lon="5.84731">
        <ele>84.828537</ele>
        <time>2022-08-14T06:55:57Z</time>
      </trkpt>
      <trkpt lat="43.14445" lon="5.84722">
        <ele>84.114449</ele>
        <time>2022-08-14T06:55:59Z</time>
      </trkpt>
      <trkpt lat="43.1443" lon="5.84714">
        <ele>83.658295</ele>
        <time>2022-08-14T06:56:01Z</time>
      </trkpt>
      <trkpt lat="43.14414" lon="5.84706">
        <ele>82.588654</ele>
        <time>2022-08-14T06:56:03Z</time>
      </trkpt>
      <trkpt lat="43.14398" lon="5.84698">
        <ele>81.974396</ele>
        <time>2022-08-14T06:56:05Z</time>
      </trkpt>
      <trkpt lat="43.14382" lon="5.8469">
        <ele>80.658371</ele>
        <time>2022-08-14T06:56:07Z</time>
      </trkpt>
      <trkpt lat="43.14367" lon="5.84682">
        <ele>79.984627</ele>
        <time>2022-08-14T06:56:09Z</time>
      </trkpt>
      <trkpt lat="43.14352" lon="5.84675">
        <ele>78.671387</ele>
        <time>2022-08-14T06:56:11Z</time>
      </trkpt>
      <trkpt lat="43.14337" lon="5.84668">
        <ele>77.458397</ele>
        <time>2022-08-14T06:56:13Z</time>
      </trkpt>
      <trkpt lat="43.14323" lon="5.84659">
        <ele>76.901596</ele>
        <time>2022-08-14T06:56:15Z</time>
      </trkpt>
      <trkpt lat="43.14309" lon="5.84652">
        <ele>76.376511</ele>
        <time>2022-08-14T06:56:17Z</time>
      </trkpt>
      <trkpt lat="43.14294" lon="5.84648">
        <ele>75.448586</ele>
        <time>2022-08-14T06:56:19Z</time>
      </trkpt>
      <trkpt lat="43.1428" lon="5.84644">
        <ele>75.058411</ele>
        <time>2022-08-14T06:56:21Z</time>
      </trkpt>
      <trkpt lat="43.14265" lon="5.84641">
        <ele>74.717979</ele>
        <time>2022-08-14T06:56:23Z</time>
      </trkpt>
      <trkpt lat="43.1425" lon="5.84642">
        <ele>74.216415</ele>
        <time>2022-08-14T06:56:25Z</time>
      </trkpt>
      <trkpt lat="43.14234" lon="5.84646">
        <ele>74.04744</ele>
        <time>2022-08-14T06:56:27Z</time>
      </trkpt>
      <trkpt lat="43.14219" lon="5.84658">
        <ele>73.840591</ele>
        <time>2022-08-14T06:56:29Z</time>
      </trkpt>
      <trkpt lat="43.14208" lon="5.84671">
        <ele>73.790237</ele>
        <time>2022-08-14T06:56:31Z</time>
      </trkpt>
      <trkpt lat="43.14196" lon="5.84683">
        <ele>73.766891</ele>
        <time>2022-08-14T06:56:33Z</time>
      </trkpt>
      <trkpt lat="43.14184" lon="5.84697">
        <ele>73.765884</ele>
        <time>2022-08-14T06:56:35Z</time>
      </trkpt>
      <trkpt lat="43.14172" lon="5.84711">
        <ele>73.767929</ele>
        <time>2022-08-14T06:56:37Z</time>
      </trkpt>
      <trkpt lat="43.1416" lon="5.84726">
        <ele>73.762703</ele>
        <time>2022-08-14T06:56:39Z</time>
      </trkpt>
      <trkpt lat="43.14148" lon="5.84742">
        <ele>73.731796</ele>
        <time>2022-08-14T06:56:41Z</time>
      </trkpt>
      <trkpt lat="43.14137" lon="5.84758">
        <ele>73.704445</ele>
        <time>2022-08-14T06:56:43Z</time>
      </trkpt>
      <trkpt lat="43.14127" lon="5.84774">
        <ele>73.66861</ele>
        <time>2022-08-14T06:56:45Z</time>
      </trkpt>
      <trkpt lat="43.14117" lon="5.8479">
        <ele>73.624985</ele>
        <time>2022-08-14T06:56:47Z</time>
      </trkpt>
      <trkpt lat="43.14106" lon="5.848">
        <ele>73.518867</ele>
        <time>2022-08-14T06:56:49Z</time>
      </trkpt>
      <trkpt lat="43.14093" lon="5.84807">
        <ele>73.457626</ele>
        <time>2022-08-14T06:56:51Z</time>
      </trkpt>
      <trkpt lat="43.14081" lon="5.84815">
        <ele>73.330681</ele>
        <time>2022-08-14T06:56:53Z</time>
      </trkpt>
      <trkpt lat="43.14069" lon="5.84825">
        <ele>73.20723</ele>
        <time>2022-08-14T06:56:55Z</time>
      </trkpt>
      <trkpt lat="43.14058" lon="5.84835">
        <ele>73.150467</ele>
        <time>2022-08-14T06:56:57Z</time>
      </trkpt>
      <trkpt lat="43.14047" lon="5.84847">
        <ele>73.052483</ele>
        <time>2022-08-14T06:56:59Z</time>
      </trkpt>
      <trkpt lat="43.14034" lon="5.84855">
        <ele>73.01207</ele>
        <time>2022-08-14T06:57:01Z</time>
      </trkpt>
      <trkpt lat="43.1402" lon="5.84859">
        <ele>72.976471</ele>
        <time>2022-08-14T06:57:03Z</time>
      </trkpt>
      <trkpt lat="43.14006" lon="5.84858">
        <ele>72.911644</ele>
        <time>2022-08-14T06:57:05Z</time>
      </trkpt>
      <trkpt lat="43.13994" lon="5.84849">
        <ele>72.833206</ele>
        <time>2022-08-14T06:57:07Z</time>
      </trkpt>
      <trkpt lat="43.13986" lon="5.84835">
        <ele>72.779449</ele>
        <time>2022-08-14T06:57:09Z</time>
      </trkpt>
      <trkpt lat="43.13979" lon="5.84819">
        <ele>72.620056</ele>
        <time>2022-08-14T06:57:11Z</time>
      </trkpt>
      <trkpt lat="43.13971" lon="5.84806">
        <ele>72.508797</ele>
        <time>2022-08-14T06:57:13Z</time>
      </trkpt>
      <trkpt lat="43.13962" lon="5.84793">
        <ele>72.213554</ele>
        <time>2022-08-14T06:57:15Z</time>
      </trkpt>
      <trkpt lat="43.13952" lon="5.84786">
        <ele>72.038284</ele>
        <time>2022-08-14T06:57:17Z</time>
      </trkpt>
      <trkpt lat="43.1394" lon="5.84781">
        <ele>71.63002</ele>
        <time>2022-08-14T06:57:19Z</time>
      </trkpt>
      <trkpt lat="43.13928" lon="5.84776">
        <ele>71.404549</ele>
        <time>2022-08-14T06:57:21Z</time>
      </trkpt>
      <trkpt lat="43.13915" lon="5.84771">
        <ele>71.169342</ele>
        <time>2022-08-14T06:57:23Z</time>
      </trkpt>
      <trkpt lat="43.13903" lon="5.84765">
        <ele>70.925201</ele>
        <time>2022-08-14T06:57:25Z</time>
      </trkpt>
      <trkpt lat="43.1389" lon="5.84759">
        <ele>70.677826</ele>
        <time>2022-08-14T06:57:27Z</time>
      </trkpt>
      <trkpt lat="43.13877" lon="5.84752">
        <ele>70.186699</ele>
        <time>2022-08-14T06:57:29Z</time>
      </trkpt>
      <trkpt lat="43.13864" lon="5.84746">
        <ele>69.708427</ele>
        <time>2022-08-14T06:57:31Z</time>
      </trkpt>
      <trkpt lat="43.13851" lon="5.84743">
        <ele>69.476677</ele>
        <time>2022-08-14T06:57:33Z</time>
      </trkpt>
      <trkpt lat="43.13839" lon="5.84739">
        <ele>69.249557</ele>
        <time>2022-08-14T06:57:35Z</time>
      </trkpt>
      <trkpt lat="43.13825" lon="5.84733">
        <ele>68.808708</ele>
        <time>2022-08-14T06:57:37Z</time>
      </trkpt>
      <trkpt lat="43.13812" lon="5.84728">
        <ele>68.370651</ele>
        <time>2022-08-14T06:57:39Z</time>
      </trkpt>
      <trkpt lat="43.13798" lon="5.84723">
        <ele>68.146149</ele>
        <time>2022-08-14T06:57:41Z</time>
      </trkpt>
      <trkpt lat="43.13784" lon="5.84719">
        <ele>67.692886</ele>
        <time>2022-08-14T06:57:43Z</time>
      </trkpt>
      <trkpt lat="43.13769" lon="5.84715">
        <ele>67.22049</ele>
        <time>2022-08-14T06:57:45Z</time>
      </trkpt>
      <trkpt lat="43.13754" lon="5.84713">
        <ele>66.973434</ele>
        <time>2022-08-14T06:57:47Z</time>
      </trkpt>
      <trkpt lat="43.13739" lon="5.8471">
        <ele>66.456635</ele>
        <time>2022-08-14T06:57:49Z</time>
      </trkpt>
      <trkpt lat="43.13725" lon="5.84705">
        <ele>65.913078</ele>
        <time>2022-08-14T06:57:51Z</time>
      </trkpt>
      <trkpt lat="43.13711" lon="5.84701">
        <ele>65.63028</ele>
        <time>2022-08-14T06:57:53Z</time>
      </trkpt>
      <trkpt lat="43.13697" lon="5.84696">
        <ele>65.337662</ele>
        <time>2022-08-14T06:57:55Z</time>
      </trkpt>
      <trkpt lat="43.13681" lon="5.84693">
        <ele>64.736038</ele>
        <time>2022-08-14T06:57:57Z</time>
      </trkpt>
      <trkpt lat="43.13666" lon="5.84688">
        <ele>64.426407</ele>
        <time>2022-08-14T06:57:59Z</time>
      </trkpt>
      <trkpt lat="43.1365" lon="5.84685">
        <ele>63.798065</ele>
        <time>2022-08-14T06:58:01Z</time>
      </trkpt>
      <trkpt lat="43.13633" lon="5.84684">
        <ele>63.482403</ele>
        <time>2022-08-14T06:58:03Z</time>
      </trkpt>
      <trkpt lat="43.13615" lon="5.84685">
        <ele>63.169075</ele>
        <time>2022-08-14T06:58:05Z</time>
      </trkpt>
      <trkpt lat="43.13599" lon="5.84687">
        <ele>62.541435</ele>
        <time>2022-08-14T06:58:07Z</time>
      </trkpt>
      <trkpt lat="43.13583" lon="5.84688">
        <ele>62.221272</ele>
        <time>2022-08-14T06:58:09Z</time>
      </trkpt>
      <trkpt lat="43.13566" lon="5.8469">
        <ele>61.540791</ele>
        <time>2022-08-14T06:58:11Z</time>
      </trkpt>
      <trkpt lat="43.13549" lon="5.84689">
        <ele>61.175732</ele>
        <time>2022-08-14T06:58:13Z</time>
      </trkpt>
      <trkpt lat="43.13533" lon="5.84682">
        <ele>60.799034</ele>
        <time>2022-08-14T06:58:15Z</time>
      </trkpt>
      <trkpt lat="43.13519" lon="5.84674">
        <ele>60.003742</ele>
        <time>2022-08-14T06:58:17Z</time>
      </trkpt>
      <trkpt lat="43.1351" lon="5.84657">
        <ele>59.595387</ele>
        <time>2022-08-14T06:58:19Z</time>
      </trkpt>
      <trkpt lat="43.13496" lon="5.84648">
        <ele>59.180847</ele>
        <time>2022-08-14T06:58:21Z</time>
      </trkpt>
      <trkpt lat="43.13484" lon="5.84637">
        <ele>58.756676</ele>
        <time>2022-08-14T06:58:23Z</time>
      </trkpt>
      <trkpt lat="43.13469" lon="5.84624">
        <ele>57.906311</ele>
        <time>2022-08-14T06:58:25Z</time>
      </trkpt>
      <trkpt lat="43.13454" lon="5.84617">
        <ele>57.489441</ele>
        <time>2022-08-14T06:58:27Z</time>
      </trkpt>
      <trkpt lat="43.13438" lon="5.84613">
        <ele>57.076061</ele>
        <time>2022-08-14T06:58:29Z</time>
      </trkpt>
      <trkpt lat="43.13413" lon="5.84609">
        <ele>56.272255</ele>
        <time>2022-08-14T06:58:32Z</time>
      </trkpt>
      <trkpt lat="43.13396" lon="5.8461">
        <ele>55.088512</ele>
        <time>2022-08-14T06:58:34Z</time>
      </trkpt>
      <trkpt lat="43.13378" lon="5.84611">
        <ele>54.703594</ele>
        <time>2022-08-14T06:58:36Z</time>
      </trkpt>
      <trkpt lat="43.1336" lon="5.84613">
        <ele>53.921761</ele>
        <time>2022-08-14T06:58:38Z</time>
      </trkpt>
      <trkpt lat="43.13335" lon="5.84615">
        <ele>53.532234</ele>
        <time>2022-08-14T06:58:41Z</time>
      </trkpt>
      <trkpt lat="43.1332" lon="5.84608">
        <ele>52.757893</ele>
        <time>2022-08-14T06:58:43Z</time>
      </trkpt>
      <trkpt lat="43.13306" lon="5.84603">
        <ele>52.367268</ele>
        <time>2022-08-14T06:58:45Z</time>
      </trkpt>
      <trkpt lat="43.13283" lon="5.8459">
        <ele>51.189102</ele>
        <time>2022-08-14T06:58:48Z</time>
      </trkpt>
      <trkpt lat="43.13271" lon="5.84579">
        <ele>50.789738</ele>
        <time>2022-08-14T06:58:50Z</time>
      </trkpt>
      <trkpt lat="43.1326" lon="5.84564">
        <ele>50.391048</ele>
        <time>2022-08-14T06:58:52Z</time>
      </trkpt>
      <trkpt lat="43.13246" lon="5.84553">
        <ele>49.986813</ele>
        <time>2022-08-14T06:58:54Z</time>
      </trkpt>
      <trkpt lat="43.13232" lon="5.84542">
        <ele>49.581841</ele>
        <time>2022-08-14T06:58:56Z</time>
      </trkpt>
      <trkpt lat="43.1322" lon="5.84528">
        <ele>49.176701</ele>
        <time>2022-08-14T06:58:58Z</time>
      </trkpt>
      <trkpt lat="43.13209" lon="5.84513">
        <ele>48.38129</ele>
        <time>2022-08-14T06:59:00Z</time>
      </trkpt>
      <trkpt lat="43.13197" lon="5.84499">
        <ele>47.992813</ele>
        <time>2022-08-14T06:59:02Z</time>
      </trkpt>
      <trkpt lat="43.13186" lon="5.84487">
        <ele>47.232132</ele>
        <time>2022-08-14T06:59:04Z</time>
      </trkpt>
      <trkpt lat="43.13174" lon="5.84474">
        <ele>46.865524</ele>
        <time>2022-08-14T06:59:06Z</time>
      </trkpt>
      <trkpt lat="43.13162" lon="5.84462">
        <ele>46.51144</ele>
        <time>2022-08-14T06:59:08Z</time>
      </trkpt>
      <trkpt lat="43.13149" lon="5.84453">
        <ele>46.178593</ele>
        <time>2022-08-14T06:59:10Z</time>
      </trkpt>
      <trkpt lat="43.13127" lon="5.84442">
        <ele>45.588055</ele>
        <time>2022-08-14T06:59:13Z</time>
      </trkpt>
      <trkpt lat="43.13112" lon="5.84435">
        <ele>45.127033</ele>
        <time>2022-08-14T06:59:15Z</time>
      </trkpt>
      <trkpt lat="43.13097" lon="5.8443">
        <ele>44.945049</ele>
        <time>2022-08-14T06:59:17Z</time>
      </trkpt>
      <trkpt lat="43.13081" lon="5.84425">
        <ele>44.78994</ele>
        <time>2022-08-14T06:59:19Z</time>
      </trkpt>
      <trkpt lat="43.13066" lon="5.84421">
        <ele>44.660713</ele>
        <time>2022-08-14T06:59:21Z</time>
      </trkpt>
      <trkpt lat="43.1305" lon="5.8442">
        <ele>44.560944</ele>
        <time>2022-08-14T06:59:23Z</time>
      </trkpt>
      <trkpt lat="43.13035" lon="5.8442">
        <ele>44.494904</ele>
        <time>2022-08-14T06:59:25Z</time>
      </trkpt>
      <trkpt lat="43.1302" lon="5.84419">
        <ele>44.422249</ele>
        <time>2022-08-14T06:59:27Z</time>
      </trkpt>
      <trkpt lat="43.13004" lon="5.8442">
        <ele>44.41103</ele>
        <time>2022-08-14T06:59:29Z</time>
      </trkpt>
      <trkpt lat="43.12989" lon="5.84421">
        <ele>44.426716</ele>
        <time>2022-08-14T06:59:31Z</time>
      </trkpt>
      <trkpt lat="43.12974" lon="5.84423">
        <ele>44.455128</ele>
        <time>2022-08-14T06:59:33Z</time>
      </trkpt>
      <trkpt lat="43.12959" lon="5.84425">
        <ele>44.495842</ele>
        <time>2022-08-14T06:59:35Z</time>
      </trkpt>
      <trkpt lat="43.12943" lon="5.84426">
        <ele>44.599144</ele>
        <time>2022-08-14T06:59:37Z</time>
      </trkpt>
      <trkpt lat="43.12927" lon="5.84426">
        <ele>44.667187</ele>
        <time>2022-08-14T06:59:39Z</time>
      </trkpt>
      <trkpt lat="43.12911" lon="5.84422">
        <ele>44.812553</ele>
        <time>2022-08-14T06:59:41Z</time>
      </trkpt>
      <trkpt lat="43.12898" lon="5.84414">
        <ele>44.893532</ele>
        <time>2022-08-14T06:59:43Z</time>
      </trkpt>
      <trkpt lat="43.12886" lon="5.84399">
        <ele>45.063885</ele>
        <time>2022-08-14T06:59:45Z</time>
      </trkpt>
      <trkpt lat="43.12876" lon="5.84382">
        <ele>45.246849</ele>
        <time>2022-08-14T06:59:47Z</time>
      </trkpt>
      <trkpt lat="43.12864" lon="5.84367">
        <ele>45.340748</ele>
        <time>2022-08-14T06:59:49Z</time>
      </trkpt>
      <trkpt lat="43.12851" lon="5.84352">
        <ele>45.535412</ele>
        <time>2022-08-14T06:59:51Z</time>
      </trkpt>
      <trkpt lat="43.12838" lon="5.84339">
        <ele>45.641224</ele>
        <time>2022-08-14T06:59:53Z</time>
      </trkpt>
      <trkpt lat="43.12823" lon="5.84324">
        <ele>45.862885</ele>
        <time>2022-08-14T06:59:55Z</time>
      </trkpt>
      <trkpt lat="43.1281" lon="5.84308">
        <ele>46.077221</ele>
        <time>2022-08-14T06:59:57Z</time>
      </trkpt>
      <trkpt lat="43.12798" lon="5.84289">
        <ele>46.165703</ele>
        <time>2022-08-14T06:59:59Z</time>
      </trkpt>
      <trkpt lat="43.12787" lon="5.84268">
        <ele>46.234081</ele>
        <time>2022-08-14T07:00:01Z</time>
      </trkpt>
      <trkpt lat="43.12776" lon="5.84246">
        <ele>46.307175</ele>
        <time>2022-08-14T07:00:03Z</time>
      </trkpt>
      <trkpt lat="43.12766" lon="5.84221">
        <ele>46.286495</ele>
        <time>2022-08-14T07:00:05Z</time>
      </trkpt>
      <trkpt lat="43.12756" lon="5.84194">
        <ele>46.236946</ele>
        <time>2022-08-14T07:00:07Z</time>
      </trkpt>
      <trkpt lat="43.12743" lon="5.84168">
        <ele>46.058769</ele>
        <time>2022-08-14T07:00:09Z</time>
      </trkpt>
      <trkpt lat="43.12731" lon="5.84142">
        <ele>45.745636</ele>
        <time>2022-08-14T07:00:11Z</time>
      </trkpt>
      <trkpt lat="43.12719" lon="5.84117">
        <ele>45.547695</ele>
        <time>2022-08-14T07:00:13Z</time>
      </trkpt>
      <trkpt lat="43.12708" lon="5.84091">
        <ele>45.320709</ele>
        <time>2022-08-14T07:00:15Z</time>
      </trkpt>
      <trkpt lat="43.12701" lon="5.84064">
        <ele>44.780975</ele>
        <time>2022-08-14T07:00:17Z</time>
      </trkpt>
      <trkpt lat="43.12697" lon="5.84037">
        <ele>44.472679</ele>
        <time>2022-08-14T07:00:19Z</time>
      </trkpt>
      <trkpt lat="43.12696" lon="5.84009">
        <ele>43.798141</ele>
        <time>2022-08-14T07:00:21Z</time>
      </trkpt>
      <trkpt lat="43.12696" lon="5.83982">
        <ele>43.434669</ele>
        <time>2022-08-14T07:00:23Z</time>
      </trkpt>
      <trkpt lat="43.12695" lon="5.83955">
        <ele>42.666237</ele>
        <time>2022-08-14T07:00:25Z</time>
      </trkpt>
      <trkpt lat="43.12691" lon="5.83929">
        <ele>42.261986</ele>
        <time>2022-08-14T07:00:27Z</time>
      </trkpt>
      <trkpt lat="43.12682" lon="5.83906">
        <ele>41.42577</ele>
        <time>2022-08-14T07:00:29Z</time>
      </trkpt>
      <trkpt lat="43.12668" lon="5.83888">
        <ele>40.999451</ele>
        <time>2022-08-14T07:00:31Z</time>
      </trkpt>
      <trkpt lat="43.12651" lon="5.83876">
        <ele>40.570774</ele>
        <time>2022-08-14T07:00:33Z</time>
      </trkpt>
      <trkpt lat="43.12633" lon="5.83864">
        <ele>40.140827</ele>
        <time>2022-08-14T07:00:35Z</time>
      </trkpt>
      <trkpt lat="43.12616" lon="5.8385">
        <ele>39.29158</ele>
        <time>2022-08-14T07:00:37Z</time>
      </trkpt>
      <trkpt lat="43.12603" lon="5.83833">
        <ele>38.456097</ele>
        <time>2022-08-14T07:00:39Z</time>
      </trkpt>
      <trkpt lat="43.12595" lon="5.8381">
        <ele>38.05056</ele>
        <time>2022-08-14T07:00:41Z</time>
      </trkpt>
      <trkpt lat="43.12591" lon="5.83785">
        <ele>37.652817</ele>
        <time>2022-08-14T07:00:43Z</time>
      </trkpt>
      <trkpt lat="43.12587" lon="5.83762">
        <ele>36.871521</ele>
        <time>2022-08-14T07:00:45Z</time>
      </trkpt>
      <trkpt lat="43.12584" lon="5.83736">
        <ele>36.48481</ele>
        <time>2022-08-14T07:00:47Z</time>
      </trkpt>
      <trkpt lat="43.12579" lon="5.83711">
        <ele>35.717754</ele>
        <time>2022-08-14T07:00:49Z</time>
      </trkpt>
      <trkpt lat="43.12575" lon="5.83687">
        <ele>34.973213</ele>
        <time>2022-08-14T07:00:51Z</time>
      </trkpt>
      <trkpt lat="43.1257" lon="5.83663">
        <ele>34.622055</ele>
        <time>2022-08-14T07:00:53Z</time>
      </trkpt>
      <trkpt lat="43.12564" lon="5.83639">
        <ele>33.981445</ele>
        <time>2022-08-14T07:00:55Z</time>
      </trkpt>
      <trkpt lat="43.1256" lon="5.83616">
        <ele>33.403812</ele>
        <time>2022-08-14T07:00:57Z</time>
      </trkpt>
      <trkpt lat="43.12557" lon="5.83593">
        <ele>33.137459</ele>
        <time>2022-08-14T07:00:59Z</time>
      </trkpt>
      <trkpt lat="43.12562" lon="5.83567">
        <ele>32.640984</ele>
        <time>2022-08-14T07:01:01Z</time>
      </trkpt>
      <trkpt lat="43.12569" lon="5.83541">
        <ele>32.198872</ele>
        <time>2022-08-14T07:01:03Z</time>
      </trkpt>
      <trkpt lat="43.12574" lon="5.83516">
        <ele>31.986994</ele>
        <time>2022-08-14T07:01:05Z</time>
      </trkpt>
      <trkpt lat="43.12576" lon="5.8349">
        <ele>31.593273</ele>
        <time>2022-08-14T07:01:07Z</time>
      </trkpt>
      <trkpt lat="43.12576" lon="5.83465">
        <ele>31.407572</ele>
        <time>2022-08-14T07:01:09Z</time>
      </trkpt>
      <trkpt lat="43.12576" lon="5.83439">
        <ele>31.227253</ele>
        <time>2022-08-14T07:01:11Z</time>
      </trkpt>
      <trkpt lat="43.12577" lon="5.83411">
        <ele>31.050756</ele>
        <time>2022-08-14T07:01:13Z</time>
      </trkpt>
      <trkpt lat="43.12577" lon="5.83385">
        <ele>30.876871</ele>
        <time>2022-08-14T07:01:15Z</time>
      </trkpt>
      <trkpt lat="43.12577" lon="5.83359">
        <ele>30.5294</ele>
        <time>2022-08-14T07:01:17Z</time>
      </trkpt>
      <trkpt lat="43.12579" lon="5.83334">
        <ele>30.189243</ele>
        <time>2022-08-14T07:01:19Z</time>
      </trkpt>
      <trkpt lat="43.12579" lon="5.83309">
        <ele>30.023876</ele>
        <time>2022-08-14T07:01:21Z</time>
      </trkpt>
      <trkpt lat="43.12579" lon="5.83284">
        <ele>29.691746</ele>
        <time>2022-08-14T07:01:23Z</time>
      </trkpt>
      <trkpt lat="43.12579" lon="5.83246">
        <ele>29.375687</ele>
        <time>2022-08-14T07:01:26Z</time>
      </trkpt>
      <trkpt lat="43.12579" lon="5.83221">
        <ele>29.225037</ele>
        <time>2022-08-14T07:01:28Z</time>
      </trkpt>
      <trkpt lat="43.1258" lon="5.83195">
        <ele>29.079065</ele>
        <time>2022-08-14T07:01:30Z</time>
      </trkpt>
      <trkpt lat="43.12582" lon="5.83172">
        <ele>28.939011</ele>
        <time>2022-08-14T07:01:32Z</time>
      </trkpt>
      <trkpt lat="43.12585" lon="5.83148">
        <ele>28.804052</ele>
        <time>2022-08-14T07:01:34Z</time>
      </trkpt>
      <trkpt lat="43.12587" lon="5.83126">
        <ele>28.676035</ele>
        <time>2022-08-14T07:01:36Z</time>
      </trkpt>
      <trkpt lat="43.12581" lon="5.83105">
        <ele>28.554127</ele>
        <time>2022-08-14T07:01:38Z</time>
      </trkpt>
      <trkpt lat="43.12576" lon="5.83085">
        <ele>28.335133</ele>
        <time>2022-08-14T07:01:40Z</time>
      </trkpt>
      <trkpt lat="43.12579" lon="5.83061">
        <ele>28.13999</ele>
        <time>2022-08-14T07:01:42Z</time>
      </trkpt>
      <trkpt lat="43.12579" lon="5.83039">
        <ele>28.049984</ele>
        <time>2022-08-14T07:01:44Z</time>
      </trkpt>
      <trkpt lat="43.1258" lon="5.83016">
        <ele>27.877747</ele>
        <time>2022-08-14T07:01:46Z</time>
      </trkpt>
      <trkpt lat="43.12581" lon="5.82992">
        <ele>27.791824</ele>
        <time>2022-08-14T07:01:48Z</time>
      </trkpt>
      <trkpt lat="43.12581" lon="5.8297">
        <ele>27.703186</ele>
        <time>2022-08-14T07:01:50Z</time>
      </trkpt>
      <trkpt lat="43.12581" lon="5.82947">
        <ele>27.612324</ele>
        <time>2022-08-14T07:01:52Z</time>
      </trkpt>
      <trkpt lat="43.12582" lon="5.82925">
        <ele>27.418888</ele>
        <time>2022-08-14T07:01:54Z</time>
      </trkpt>
      <trkpt lat="43.12583" lon="5.82903">
        <ele>27.321207</ele>
        <time>2022-08-14T07:01:56Z</time>
      </trkpt>
      <trkpt lat="43.12585" lon="5.8287">
        <ele>27.018665</ele>
        <time>2022-08-14T07:01:59Z</time>
      </trkpt>
      <trkpt lat="43.12586" lon="5.82848">
        <ele>26.911905</ele>
        <time>2022-08-14T07:02:01Z</time>
      </trkpt>
      <trkpt lat="43.12586" lon="5.82813">
        <ele>26.691477</ele>
        <time>2022-08-14T07:02:04Z</time>
      </trkpt>
      <trkpt lat="43.12587" lon="5.8279">
        <ele>26.36203</ele>
        <time>2022-08-14T07:02:06Z</time>
      </trkpt>
      <trkpt lat="43.12592" lon="5.82772">
        <ele>26.259115</ele>
        <time>2022-08-14T07:02:08Z</time>
      </trkpt>
      <trkpt lat="43.12598" lon="5.82753">
        <ele>26.073246</ele>
        <time>2022-08-14T07:02:10Z</time>
      </trkpt>
      <trkpt lat="43.12603" lon="5.82734">
        <ele>26.073246</ele>
        <time>2022-08-14T07:02:12Z</time>
      </trkpt>
      <trkpt lat="43.12606" lon="5.82718">
        <ele>25.872396</ele>
        <time>2022-08-14T07:02:14Z</time>
      </trkpt>
      <trkpt lat="43.12612" lon="5.82698">
        <ele>25.82724</ele>
        <time>2022-08-14T07:02:16Z</time>
      </trkpt>
      <trkpt lat="43.1262" lon="5.82679">
        <ele>25.791107</ele>
        <time>2022-08-14T07:02:18Z</time>
      </trkpt>
      <trkpt lat="43.12629" lon="5.82662">
        <ele>25.758642</ele>
        <time>2022-08-14T07:02:20Z</time>
      </trkpt>
      <trkpt lat="43.12638" lon="5.82645">
        <ele>25.757473</ele>
        <time>2022-08-14T07:02:22Z</time>
      </trkpt>
      <trkpt lat="43.12646" lon="5.82633">
        <ele>25.762753</ele>
        <time>2022-08-14T07:02:24Z</time>
      </trkpt>
      <trkpt lat="43.12653" lon="5.82618">
        <ele>25.822336</ele>
        <time>2022-08-14T07:02:26Z</time>
      </trkpt>
      <trkpt lat="43.12662" lon="5.82606">
        <ele>25.850052</ele>
        <time>2022-08-14T07:02:28Z</time>
      </trkpt>
      <trkpt lat="43.12668" lon="5.82597">
        <ele>25.884857</ele>
        <time>2022-08-14T07:02:30Z</time>
      </trkpt>
      <trkpt lat="43.12667" lon="5.82581">
        <ele>25.960003</ele>
        <time>2022-08-14T07:02:32Z</time>
      </trkpt>
      <trkpt lat="43.12668" lon="5.82566">
        <ele>26.049389</ele>
        <time>2022-08-14T07:02:34Z</time>
      </trkpt>
      <trkpt lat="43.1267" lon="5.82552">
        <ele>26.104614</ele>
        <time>2022-08-14T07:02:36Z</time>
      </trkpt>
      <trkpt lat="43.12672" lon="5.82534">
        <ele>26.222357</ele>
        <time>2022-08-14T07:02:38Z</time>
      </trkpt>
      <trkpt lat="43.12676" lon="5.82515">
        <ele>26.289072</ele>
        <time>2022-08-14T07:02:40Z</time>
      </trkpt>
      <trkpt lat="43.12674" lon="5.82494">
        <ele>26.36264</ele>
        <time>2022-08-14T07:02:42Z</time>
      </trkpt>
      <trkpt lat="43.12671" lon="5.82473">
        <ele>26.532705</ele>
        <time>2022-08-14T07:02:44Z</time>
      </trkpt>
      <trkpt lat="43.12667" lon="5.82453">
        <ele>26.628805</ele>
        <time>2022-08-14T07:02:46Z</time>
      </trkpt>
      <trkpt lat="43.12669" lon="5.82434">
        <ele>26.839573</ele>
        <time>2022-08-14T07:02:48Z</time>
      </trkpt>
      <trkpt lat="43.12672" lon="5.82414">
        <ele>27.073719</ele>
        <time>2022-08-14T07:02:50Z</time>
      </trkpt>
      <trkpt lat="43.12677" lon="5.82396">
        <ele>27.19689</ele>
        <time>2022-08-14T07:02:52Z</time>
      </trkpt>
      <trkpt lat="43.1268" lon="5.8238">
        <ele>27.328537</ele>
        <time>2022-08-14T07:02:54Z</time>
      </trkpt>
      <trkpt lat="43.12688" lon="5.82364">
        <ele>27.605801</ele>
        <time>2022-08-14T07:02:56Z</time>
      </trkpt>
      <trkpt lat="43.12695" lon="5.82349">
        <ele>27.901367</ele>
        <time>2022-08-14T07:02:58Z</time>
      </trkpt>
      <trkpt lat="43.127" lon="5.82333">
        <ele>28.050837</ele>
        <time>2022-08-14T07:03:00Z</time>
      </trkpt>
      <trkpt lat="43.12708" lon="5.82316">
        <ele>28.354361</ele>
        <time>2022-08-14T07:03:02Z</time>
      </trkpt>
      <trkpt lat="43.12719" lon="5.82291">
        <ele>28.505459</ele>
        <time>2022-08-14T07:03:04Z</time>
      </trkpt>
      <trkpt lat="43.1273" lon="5.82271">
        <ele>28.800953</ele>
        <time>2022-08-14T07:03:06Z</time>
      </trkpt>
      <trkpt lat="43.12738" lon="5.82251">
        <ele>29.081196</ele>
        <time>2022-08-14T07:03:08Z</time>
      </trkpt>
      <trkpt lat="43.12747" lon="5.82229">
        <ele>29.211313</ele>
        <time>2022-08-14T07:03:10Z</time>
      </trkpt>
      <trkpt lat="43.12754" lon="5.8221">
        <ele>29.336773</ele>
        <time>2022-08-14T07:03:12Z</time>
      </trkpt>
      <trkpt lat="43.12762" lon="5.82191">
        <ele>29.574179</ele>
        <time>2022-08-14T07:03:14Z</time>
      </trkpt>
      <trkpt lat="43.12769" lon="5.82174">
        <ele>29.691233</ele>
        <time>2022-08-14T07:03:16Z</time>
      </trkpt>
      <trkpt lat="43.12775" lon="5.82154">
        <ele>29.920223</ele>
        <time>2022-08-14T07:03:18Z</time>
      </trkpt>
      <trkpt lat="43.12783" lon="5.82138">
        <ele>30.041513</ele>
        <time>2022-08-14T07:03:20Z</time>
      </trkpt>
      <trkpt lat="43.1279" lon="5.8212">
        <ele>30.166233</ele>
        <time>2022-08-14T07:03:22Z</time>
      </trkpt>
      <trkpt lat="43.12795" lon="5.82104">
        <ele>30.419687</ele>
        <time>2022-08-14T07:03:24Z</time>
      </trkpt>
      <trkpt lat="43.12802" lon="5.82087">
        <ele>30.556091</ele>
        <time>2022-08-14T07:03:26Z</time>
      </trkpt>
      <trkpt lat="43.12808" lon="5.8207">
        <ele>30.825781</ele>
        <time>2022-08-14T07:03:28Z</time>
      </trkpt>
      <trkpt lat="43.12815" lon="5.82052">
        <ele>30.958324</ele>
        <time>2022-08-14T07:03:30Z</time>
      </trkpt>
      <trkpt lat="43.12822" lon="5.82035">
        <ele>31.225452</ele>
        <time>2022-08-14T07:03:32Z</time>
      </trkpt>
      <trkpt lat="43.12828" lon="5.82017">
        <ele>31.357437</ele>
        <time>2022-08-14T07:03:34Z</time>
      </trkpt>
      <trkpt lat="43.12836" lon="5.81997">
        <ele>31.616779</ele>
        <time>2022-08-14T07:03:36Z</time>
      </trkpt>
      <trkpt lat="43.12843" lon="5.81983">
        <ele>31.744883</ele>
        <time>2022-08-14T07:03:38Z</time>
      </trkpt>
      <trkpt lat="43.12851" lon="5.81967">
        <ele>32.001629</ele>
        <time>2022-08-14T07:03:40Z</time>
      </trkpt>
      <trkpt lat="43.12857" lon="5.81953">
        <ele>32.131794</ele>
        <time>2022-08-14T07:03:42Z</time>
      </trkpt>
      <trkpt lat="43.12862" lon="5.81936">
        <ele>32.264381</ele>
        <time>2022-08-14T07:03:44Z</time>
      </trkpt>
      <trkpt lat="43.12868" lon="5.81921">
        <ele>32.536339</ele>
        <time>2022-08-14T07:03:46Z</time>
      </trkpt>
      <trkpt lat="43.12875" lon="5.81905">
        <ele>32.675591</ele>
        <time>2022-08-14T07:03:48Z</time>
      </trkpt>
      <trkpt lat="43.1288" lon="5.81886">
        <ele>32.96006</ele>
        <time>2022-08-14T07:03:50Z</time>
      </trkpt>
      <trkpt lat="43.12886" lon="5.81868">
        <ele>33.105843</ele>
        <time>2022-08-14T07:03:52Z</time>
      </trkpt>
      <trkpt lat="43.12893" lon="5.81848">
        <ele>33.405567</ele>
        <time>2022-08-14T07:03:54Z</time>
      </trkpt>
      <trkpt lat="43.129" lon="5.81831">
        <ele>33.559376</ele>
        <time>2022-08-14T07:03:56Z</time>
      </trkpt>
      <trkpt lat="43.12907" lon="5.81814">
        <ele>33.875526</ele>
        <time>2022-08-14T07:03:58Z</time>
      </trkpt>
      <trkpt lat="43.12915" lon="5.81796">
        <ele>34.037865</ele>
        <time>2022-08-14T07:04:00Z</time>
      </trkpt>
      <trkpt lat="43.12924" lon="5.81779">
        <ele>34.202904</ele>
        <time>2022-08-14T07:04:02Z</time>
      </trkpt>
      <trkpt lat="43.12932" lon="5.81766">
        <ele>34.544121</ele>
        <time>2022-08-14T07:04:04Z</time>
      </trkpt>
      <trkpt lat="43.12992" lon="5.81723">
        <ele>34.72086</ele>
        <time>2022-08-14T07:04:14Z</time>
      </trkpt>
      <trkpt lat="43.13002" lon="5.81711">
        <ele>35.084114</ele>
        <time>2022-08-14T07:04:16Z</time>
      </trkpt>
      <trkpt lat="43.13012" lon="5.81699">
        <ele>35.267193</ele>
        <time>2022-08-14T07:04:18Z</time>
      </trkpt>
      <trkpt lat="43.13022" lon="5.81687">
        <ele>35.628746</ele>
        <time>2022-08-14T07:04:20Z</time>
      </trkpt>
      <trkpt lat="43.13032" lon="5.81672">
        <ele>35.804771</ele>
        <time>2022-08-14T07:04:22Z</time>
      </trkpt>
      <trkpt lat="43.13041" lon="5.81655">
        <ele>35.97683</ele>
        <time>2022-08-14T07:04:24Z</time>
      </trkpt>
      <trkpt lat="43.13049" lon="5.81637">
        <ele>36.307743</ele>
        <time>2022-08-14T07:04:26Z</time>
      </trkpt>
      <trkpt lat="43.13057" lon="5.81621">
        <ele>36.468575</ele>
        <time>2022-08-14T07:04:28Z</time>
      </trkpt>
      <trkpt lat="43.13066" lon="5.81605">
        <ele>36.790825</ele>
        <time>2022-08-14T07:04:30Z</time>
      </trkpt>
      <trkpt lat="43.13073" lon="5.81586">
        <ele>36.957386</ele>
        <time>2022-08-14T07:04:32Z</time>
      </trkpt>
      <trkpt lat="43.13081" lon="5.81569">
        <ele>37.311729</ele>
        <time>2022-08-14T07:04:34Z</time>
      </trkpt>
      <trkpt lat="43.1309" lon="5.81554">
        <ele>37.502258</ele>
        <time>2022-08-14T07:04:36Z</time>
      </trkpt>
      <trkpt lat="43.131" lon="5.81542">
        <ele>37.702301</ele>
        <time>2022-08-14T07:04:38Z</time>
      </trkpt>
      <trkpt lat="43.13112" lon="5.8153">
        <ele>38.12418</ele>
        <time>2022-08-14T07:04:40Z</time>
      </trkpt>
      <trkpt lat="43.13122" lon="5.81519">
        <ele>38.341499</ele>
        <time>2022-08-14T07:04:42Z</time>
      </trkpt>
      <trkpt lat="43.13132" lon="5.81507">
        <ele>38.787697</ele>
        <time>2022-08-14T07:04:44Z</time>
      </trkpt>
      <trkpt lat="43.13142" lon="5.81494">
        <ele>39.015575</ele>
        <time>2022-08-14T07:04:46Z</time>
      </trkpt>
      <trkpt lat="43.13151" lon="5.81483">
        <ele>39.477753</ele>
        <time>2022-08-14T07:04:48Z</time>
      </trkpt>
      <trkpt lat="43.1316" lon="5.81473">
        <ele>39.710743</ele>
        <time>2022-08-14T07:04:50Z</time>
      </trkpt>
      <trkpt lat="43.13169" lon="5.81463">
        <ele>40.177372</ele>
        <time>2022-08-14T07:04:52Z</time>
      </trkpt>
      <trkpt lat="43.13177" lon="5.81455">
        <ele>40.409214</ele>
        <time>2022-08-14T07:04:54Z</time>
      </trkpt>
      <trkpt lat="43.13186" lon="5.81449">
        <ele>40.64016</ele>
        <time>2022-08-14T07:04:56Z</time>
      </trkpt>
      <trkpt lat="43.13194" lon="5.81442">
        <ele>41.095085</ele>
        <time>2022-08-14T07:04:58Z</time>
      </trkpt>
      <trkpt lat="43.13202" lon="5.81436">
        <ele>41.316124</ele>
        <time>2022-08-14T07:05:00Z</time>
      </trkpt>
      <trkpt lat="43.13211" lon="5.81431">
        <ele>41.741726</ele>
        <time>2022-08-14T07:05:02Z</time>
      </trkpt>
      <trkpt lat="43.1322" lon="5.81426">
        <ele>41.944969</ele>
        <time>2022-08-14T07:05:04Z</time>
      </trkpt>
      <trkpt lat="43.13228" lon="5.81422">
        <ele>42.320118</ele>
        <time>2022-08-14T07:05:06Z</time>
      </trkpt>
      <trkpt lat="43.13237" lon="5.81418">
        <ele>42.49308</ele>
        <time>2022-08-14T07:05:08Z</time>
      </trkpt>
      <trkpt lat="43.13246" lon="5.81412">
        <ele>42.809044</ele>
        <time>2022-08-14T07:05:10Z</time>
      </trkpt>
      <trkpt lat="43.13255" lon="5.81405">
        <ele>42.951572</ele>
        <time>2022-08-14T07:05:12Z</time>
      </trkpt>
      <trkpt lat="43.13264" lon="5.814">
        <ele>43.208431</ele>
        <time>2022-08-14T07:05:14Z</time>
      </trkpt>
      <trkpt lat="43.13275" lon="5.81398">
        <ele>43.324444</ele>
        <time>2022-08-14T07:05:16Z</time>
      </trkpt>
      <trkpt lat="43.13285" lon="5.81397">
        <ele>43.536724</ele>
        <time>2022-08-14T07:05:18Z</time>
      </trkpt>
      <trkpt lat="43.13296" lon="5.81396">
        <ele>43.634361</ele>
        <time>2022-08-14T07:05:20Z</time>
      </trkpt>
      <trkpt lat="43.13306" lon="5.81396">
        <ele>43.813427</ele>
        <time>2022-08-14T07:05:22Z</time>
      </trkpt>
      <trkpt lat="43.13315" lon="5.81393">
        <ele>43.894165</ele>
        <time>2022-08-14T07:05:24Z</time>
      </trkpt>
      <trkpt lat="43.13323" lon="5.81388">
        <ele>43.972473</ele>
        <time>2022-08-14T07:05:26Z</time>
      </trkpt>
      <trkpt lat="43.13324" lon="5.81378">
        <ele>44.11388</ele>
        <time>2022-08-14T07:05:28Z</time>
      </trkpt>
      <trkpt lat="43.13319" lon="5.81368">
        <ele>44.176701</ele>
        <time>2022-08-14T07:05:30Z</time>
      </trkpt>
      <trkpt lat="43.13313" lon="5.81358">
        <ele>44.290607</ele>
        <time>2022-08-14T07:05:32Z</time>
      </trkpt>
      <trkpt lat="43.13306" lon="5.81344">
        <ele>44.33839</ele>
        <time>2022-08-14T07:05:34Z</time>
      </trkpt>
      <trkpt lat="43.13299" lon="5.8133">
        <ele>44.419918</ele>
        <time>2022-08-14T07:05:36Z</time>
      </trkpt>
      <trkpt lat="43.13292" lon="5.81316">
        <ele>44.449318</ele>
        <time>2022-08-14T07:05:38Z</time>
      </trkpt>
      <trkpt lat="43.13286" lon="5.81303">
        <ele>44.478207</ele>
        <time>2022-08-14T07:05:40Z</time>
      </trkpt>
      <trkpt lat="43.13279" lon="5.81288">
        <ele>44.477596</ele>
        <time>2022-08-14T07:05:42Z</time>
      </trkpt>
      <trkpt lat="43.13271" lon="5.81274">
        <ele>44.453735</ele>
        <time>2022-08-14T07:05:44Z</time>
      </trkpt>
      <trkpt lat="43.13263" lon="5.8126">
        <ele>44.432995</ele>
        <time>2022-08-14T07:05:46Z</time>
      </trkpt>
      <trkpt lat="43.13255" lon="5.81245">
        <ele>44.378189</ele>
        <time>2022-08-14T07:05:48Z</time>
      </trkpt>
      <trkpt lat="43.13248" lon="5.81231">
        <ele>44.345463</ele>
        <time>2022-08-14T07:05:50Z</time>
      </trkpt>
      <trkpt lat="43.1324" lon="5.81215">
        <ele>44.276279</ele>
        <time>2022-08-14T07:05:52Z</time>
      </trkpt>
      <trkpt lat="43.13231" lon="5.81198">
        <ele>44.242878</ele>
        <time>2022-08-14T07:05:54Z</time>
      </trkpt>
      <trkpt lat="43.13221" lon="5.8118">
        <ele>44.212212</ele>
        <time>2022-08-14T07:05:56Z</time>
      </trkpt>
      <trkpt lat="43.13211" lon="5.8116">
        <ele>44.170586</ele>
        <time>2022-08-14T07:05:58Z</time>
      </trkpt>
      <trkpt lat="43.13202" lon="5.8114">
        <ele>44.172024</ele>
        <time>2022-08-14T07:06:00Z</time>
      </trkpt>
      <trkpt lat="43.13192" lon="5.81124">
        <ele>44.246674</ele>
        <time>2022-08-14T07:06:02Z</time>
      </trkpt>
      <trkpt lat="43.13183" lon="5.81107">
        <ele>44.323082</ele>
        <time>2022-08-14T07:06:04Z</time>
      </trkpt>
      <trkpt lat="43.13174" lon="5.81091">
        <ele>44.42701</ele>
        <time>2022-08-14T07:06:06Z</time>
      </trkpt>
      <trkpt lat="43.13165" lon="5.81075">
        <ele>44.71381</ele>
        <time>2022-08-14T07:06:08Z</time>
      </trkpt>
      <trkpt lat="43.13157" lon="5.81061">
        <ele>45.080269</ele>
        <time>2022-08-14T07:06:10Z</time>
      </trkpt>
      <trkpt lat="43.13149" lon="5.81046">
        <ele>45.290527</ele>
        <time>2022-08-14T07:06:12Z</time>
      </trkpt>
      <trkpt lat="43.1314" lon="5.81032">
        <ele>45.51371</ele>
        <time>2022-08-14T07:06:14Z</time>
      </trkpt>
      <trkpt lat="43.13133" lon="5.81016">
        <ele>45.983822</ele>
        <time>2022-08-14T07:06:16Z</time>
      </trkpt>
      <trkpt lat="43.13125" lon="5.81001">
        <ele>46.223606</ele>
        <time>2022-08-14T07:06:18Z</time>
      </trkpt>
      <trkpt lat="43.13117" lon="5.80985">
        <ele>46.693996</ele>
        <time>2022-08-14T07:06:20Z</time>
      </trkpt>
      <trkpt lat="43.1311" lon="5.80969">
        <ele>46.91848</ele>
        <time>2022-08-14T07:06:22Z</time>
      </trkpt>
      <trkpt lat="43.13102" lon="5.80953">
        <ele>47.133434</ele>
        <time>2022-08-14T07:06:24Z</time>
      </trkpt>
      <trkpt lat="43.13094" lon="5.80936">
        <ele>47.523499</ele>
        <time>2022-08-14T07:06:26Z</time>
      </trkpt>
      <trkpt lat="43.13086" lon="5.8092">
        <ele>47.859394</ele>
        <time>2022-08-14T07:06:28Z</time>
      </trkpt>
      <trkpt lat="43.13078" lon="5.80902">
        <ele>48.005322</ele>
        <time>2022-08-14T07:06:30Z</time>
      </trkpt>
      <trkpt lat="43.1307" lon="5.80885">
        <ele>48.260071</ele>
        <time>2022-08-14T07:06:32Z</time>
      </trkpt>
      <trkpt lat="43.13062" lon="5.80867">
        <ele>48.375908</ele>
        <time>2022-08-14T07:06:34Z</time>
      </trkpt>
      <trkpt lat="43.13054" lon="5.80849">
        <ele>48.58239</ele>
        <time>2022-08-14T07:06:36Z</time>
      </trkpt>
      <trkpt lat="43.13044" lon="5.80832">
        <ele>48.674084</ele>
        <time>2022-08-14T07:06:38Z</time>
      </trkpt>
      <trkpt lat="43.13033" lon="5.80817">
        <ele>48.842827</ele>
        <time>2022-08-14T07:06:40Z</time>
      </trkpt>
      <trkpt lat="43.13019" lon="5.80804">
        <ele>48.921345</ele>
        <time>2022-08-14T07:06:42Z</time>
      </trkpt>
      <trkpt lat="43.13006" lon="5.80792">
        <ele>49.074566</ele>
        <time>2022-08-14T07:06:44Z</time>
      </trkpt>
      <trkpt lat="43.12992" lon="5.80779">
        <ele>49.148602</ele>
        <time>2022-08-14T07:06:46Z</time>
      </trkpt>
      <trkpt lat="43.12978" lon="5.80765">
        <ele>49.291931</ele>
        <time>2022-08-14T07:06:48Z</time>
      </trkpt>
      <trkpt lat="43.12965" lon="5.80751">
        <ele>49.35775</ele>
        <time>2022-08-14T07:06:50Z</time>
      </trkpt>
      <trkpt lat="43.12952" lon="5.80738">
        <ele>49.471436</ele>
        <time>2022-08-14T07:06:52Z</time>
      </trkpt>
      <trkpt lat="43.1294" lon="5.80725">
        <ele>49.509651</ele>
        <time>2022-08-14T07:06:54Z</time>
      </trkpt>
      <trkpt lat="43.12928" lon="5.80711">
        <ele>49.530891</ele>
        <time>2022-08-14T07:06:56Z</time>
      </trkpt>
      <trkpt lat="43.12917" lon="5.80695">
        <ele>49.506584</ele>
        <time>2022-08-14T07:06:58Z</time>
      </trkpt>
      <trkpt lat="43.12907" lon="5.80678">
        <ele>49.389061</ele>
        <time>2022-08-14T07:07:00Z</time>
      </trkpt>
      <trkpt lat="43.12899" lon="5.80661">
        <ele>49.296913</ele>
        <time>2022-08-14T07:07:02Z</time>
      </trkpt>
      <trkpt lat="43.12889" lon="5.80643">
        <ele>49.190208</ele>
        <time>2022-08-14T07:07:04Z</time>
      </trkpt>
      <trkpt lat="43.12878" lon="5.80627">
        <ele>48.920734</ele>
        <time>2022-08-14T07:07:06Z</time>
      </trkpt>
      <trkpt lat="43.12867" lon="5.80613">
        <ele>48.761635</ele>
        <time>2022-08-14T07:07:08Z</time>
      </trkpt>
      <trkpt lat="43.12856" lon="5.80598">
        <ele>48.406666</ele>
        <time>2022-08-14T07:07:10Z</time>
      </trkpt>
      <trkpt lat="43.12852" lon="5.80577">
        <ele>48.002373</ele>
        <time>2022-08-14T07:07:12Z</time>
      </trkpt>
      <trkpt lat="43.12853" lon="5.80555">
        <ele>47.77964</ele>
        <time>2022-08-14T07:07:14Z</time>
      </trkpt>
      <trkpt lat="43.12855" lon="5.80533">
        <ele>47.543304</ele>
        <time>2022-08-14T07:07:16Z</time>
      </trkpt>
      <trkpt lat="43.12858" lon="5.8051">
        <ele>47.043659</ele>
        <time>2022-08-14T07:07:18Z</time>
      </trkpt>
      <trkpt lat="43.12861" lon="5.80488">
        <ele>46.787659</ele>
        <time>2022-08-14T07:07:20Z</time>
      </trkpt>
      <trkpt lat="43.12866" lon="5.80466">
        <ele>46.531368</ele>
        <time>2022-08-14T07:07:22Z</time>
      </trkpt>
      <trkpt lat="43.12874" lon="5.80444">
        <ele>46.278389</ele>
        <time>2022-08-14T07:07:24Z</time>
      </trkpt>
      <trkpt lat="43.12881" lon="5.80423">
        <ele>45.799694</ele>
        <time>2022-08-14T07:07:26Z</time>
      </trkpt>
      <trkpt lat="43.12888" lon="5.80401">
        <ele>45.577854</ele>
        <time>2022-08-14T07:07:28Z</time>
      </trkpt>
      <trkpt lat="43.12896" lon="5.80367">
        <ele>44.977886</ele>
        <time>2022-08-14T07:07:31Z</time>
      </trkpt>
      <trkpt lat="43.12901" lon="5.80344">
        <ele>44.80106</ele>
        <time>2022-08-14T07:07:33Z</time>
      </trkpt>
      <trkpt lat="43.12904" lon="5.80321">
        <ele>44.470604</ele>
        <time>2022-08-14T07:07:35Z</time>
      </trkpt>
      <trkpt lat="43.12905" lon="5.80298">
        <ele>44.314217</ele>
        <time>2022-08-14T07:07:37Z</time>
      </trkpt>
      <trkpt lat="43.12906" lon="5.80276">
        <ele>44.006687</ele>
        <time>2022-08-14T07:07:39Z</time>
      </trkpt>
      <trkpt lat="43.12909" lon="5.80255">
        <ele>43.851017</ele>
        <time>2022-08-14T07:07:41Z</time>
      </trkpt>
      <trkpt lat="43.12912" lon="5.80238">
        <ele>43.534359</ele>
        <time>2022-08-14T07:07:43Z</time>
      </trkpt>
      <trkpt lat="43.12905" lon="5.80223">
        <ele>43.371254</ele>
        <time>2022-08-14T07:07:45Z</time>
      </trkpt>
      <trkpt lat="43.12898" lon="5.80205">
        <ele>43.032986</ele>
        <time>2022-08-14T07:07:47Z</time>
      </trkpt>
      <trkpt lat="43.12896" lon="5.80184">
        <ele>42.694279</ele>
        <time>2022-08-14T07:07:49Z</time>
      </trkpt>
      <trkpt lat="43.12895" lon="5.80161">
        <ele>42.519676</ele>
        <time>2022-08-14T07:07:51Z</time>
      </trkpt>
      <trkpt lat="43.12894" lon="5.80137">
        <ele>42.164696</ele>
        <time>2022-08-14T07:07:53Z</time>
      </trkpt>
      <trkpt lat="43.12893" lon="5.80114">
        <ele>41.97892</ele>
        <time>2022-08-14T07:07:55Z</time>
      </trkpt>
      <trkpt lat="43.12892" lon="5.8009">
        <ele>41.597282</ele>
        <time>2022-08-14T07:07:57Z</time>
      </trkpt>
      <trkpt lat="43.12892" lon="5.80065">
        <ele>41.398109</ele>
        <time>2022-08-14T07:07:59Z</time>
      </trkpt>
      <trkpt lat="43.12891" lon="5.80041">
        <ele>40.988258</ele>
        <time>2022-08-14T07:08:01Z</time>
      </trkpt>
      <trkpt lat="43.12891" lon="5.80018">
        <ele>40.590446</ele>
        <time>2022-08-14T07:08:03Z</time>
      </trkpt>
      <trkpt lat="43.12891" lon="5.79995">
        <ele>40.40826</ele>
        <time>2022-08-14T07:08:05Z</time>
      </trkpt>
      <trkpt lat="43.12891" lon="5.79972">
        <ele>40.105198</ele>
        <time>2022-08-14T07:08:07Z</time>
      </trkpt>
      <trkpt lat="43.12891" lon="5.79949">
        <ele>39.899776</ele>
        <time>2022-08-14T07:08:09Z</time>
      </trkpt>
      <trkpt lat="43.12891" lon="5.79925">
        <ele>39.826706</ele>
        <time>2022-08-14T07:08:11Z</time>
      </trkpt>
      <trkpt lat="43.12891" lon="5.79902">
        <ele>39.729752</ele>
        <time>2022-08-14T07:08:13Z</time>
      </trkpt>
      <trkpt lat="43.12893" lon="5.7988">
        <ele>39.697922</ele>
        <time>2022-08-14T07:08:15Z</time>
      </trkpt>
      <trkpt lat="43.12896" lon="5.79854">
        <ele>39.650566</ele>
        <time>2022-08-14T07:08:18Z</time>
      </trkpt>
      <trkpt lat="43.12888" lon="5.79846">
        <ele>39.617966</ele>
        <time>2022-08-14T07:08:20Z</time>
      </trkpt>
      <trkpt lat="43.12876" lon="5.7985">
        <ele>39.591366</ele>
        <time>2022-08-14T07:08:22Z</time>
      </trkpt>
      <trkpt lat="43.12861" lon="5.79855">
        <ele>39.580059</ele>
        <time>2022-08-14T07:08:24Z</time>
      </trkpt>
      <trkpt lat="43.12846" lon="5.79861">
        <ele>39.569515</ele>
        <time>2022-08-14T07:08:26Z</time>
      </trkpt>
      <trkpt lat="43.12831" lon="5.79869">
        <ele>39.558521</ele>
        <time>2022-08-14T07:08:28Z</time>
      </trkpt>
      <trkpt lat="43.12816" lon="5.79877">
        <ele>39.543983</ele>
        <time>2022-08-14T07:08:30Z</time>
      </trkpt>
      <trkpt lat="43.12803" lon="5.79888">
        <ele>39.507622</ele>
        <time>2022-08-14T07:08:32Z</time>
      </trkpt>
      <trkpt lat="43.1279" lon="5.79902">
        <ele>39.487587</ele>
        <time>2022-08-14T07:08:34Z</time>
      </trkpt>
      <trkpt lat="43.12776" lon="5.79915">
        <ele>39.459461</ele>
        <time>2022-08-14T07:08:36Z</time>
      </trkpt>
      <trkpt lat="43.12764" lon="5.79929">
        <ele>39.427643</ele>
        <time>2022-08-14T07:08:38Z</time>
      </trkpt>
      <trkpt lat="43.12755" lon="5.79946">
        <ele>39.355888</ele>
        <time>2022-08-14T07:08:40Z</time>
      </trkpt>
      <trkpt lat="43.12752" lon="5.79966">
        <ele>39.271133</ele>
        <time>2022-08-14T07:08:42Z</time>
      </trkpt>
      <trkpt lat="43.1275" lon="5.79986">
        <ele>39.176727</ele>
        <time>2022-08-14T07:08:44Z</time>
      </trkpt>
      <trkpt lat="43.12745" lon="5.80005">
        <ele>39.122856</ele>
        <time>2022-08-14T07:08:46Z</time>
      </trkpt>
      <trkpt lat="43.12738" lon="5.80024">
        <ele>39.004311</ele>
        <time>2022-08-14T07:08:48Z</time>
      </trkpt>
      <trkpt lat="43.12729" lon="5.8004">
        <ele>38.883324</ele>
        <time>2022-08-14T07:08:50Z</time>
      </trkpt>
      <trkpt lat="43.12717" lon="5.80053">
        <ele>38.824398</ele>
        <time>2022-08-14T07:08:52Z</time>
      </trkpt>
      <trkpt lat="43.12704" lon="5.80063">
        <ele>38.707924</ele>
        <time>2022-08-14T07:08:54Z</time>
      </trkpt>
      <trkpt lat="43.1269" lon="5.80074">
        <ele>38.63987</ele>
        <time>2022-08-14T07:08:56Z</time>
      </trkpt>
      <trkpt lat="43.12677" lon="5.80085">
        <ele>38.463318</ele>
        <time>2022-08-14T07:08:58Z</time>
      </trkpt>
      <trkpt lat="43.12661" lon="5.80093">
        <ele>38.342186</ele>
        <time>2022-08-14T07:09:00Z</time>
      </trkpt>
      <trkpt lat="43.12645" lon="5.80099">
        <ele>38.19339</ele>
        <time>2022-08-14T07:09:02Z</time>
      </trkpt>
      <trkpt lat="43.1263" lon="5.801">
        <ele>38.016716</ele>
        <time>2022-08-14T07:09:04Z</time>
      </trkpt>
      <trkpt lat="43.12619" lon="5.80088">
        <ele>37.601147</ele>
        <time>2022-08-14T07:09:06Z</time>
      </trkpt>
      <trkpt lat="43.12619" lon="5.80074">
        <ele>37.366486</ele>
        <time>2022-08-14T07:09:08Z</time>
      </trkpt>
      <trkpt lat="43.12621" lon="5.80057">
        <ele>36.846825</ele>
        <time>2022-08-14T07:09:10Z</time>
      </trkpt>
      <trkpt lat="43.12624" lon="5.80039">
        <ele>36.578346</ele>
        <time>2022-08-14T07:09:12Z</time>
      </trkpt>
      <trkpt lat="43.12627" lon="5.80021">
        <ele>36.060665</ele>
        <time>2022-08-14T07:09:14Z</time>
      </trkpt>
      <trkpt lat="43.12629" lon="5.80004">
        <ele>35.824436</ele>
        <time>2022-08-14T07:09:16Z</time>
      </trkpt>
      <trkpt lat="43.12632" lon="5.79986">
        <ele>35.426949</ele>
        <time>2022-08-14T07:09:18Z</time>
      </trkpt>
      <trkpt lat="43.12634" lon="5.79968">
        <ele>35.162136</ele>
        <time>2022-08-14T07:09:20Z</time>
      </trkpt>
      <trkpt lat="43.12637" lon="5.79951">
        <ele>35.073875</ele>
        <time>2022-08-14T07:09:22Z</time>
      </trkpt>
      <trkpt lat="43.1264" lon="5.79933">
        <ele>35.011078</ele>
        <time>2022-08-14T07:09:24Z</time>
      </trkpt>
      <trkpt lat="43.12642" lon="5.79916">
        <ele>34.931442</ele>
        <time>2022-08-14T07:09:26Z</time>
      </trkpt>
      <trkpt lat="43.12647" lon="5.79889">
        <ele>34.899044</ele>
        <time>2022-08-14T07:09:29Z</time>
      </trkpt>
      <trkpt lat="43.1265" lon="5.79871">
        <ele>34.899437</ele>
        <time>2022-08-14T07:09:31Z</time>
      </trkpt>
      <trkpt lat="43.12652" lon="5.79853">
        <ele>34.9286</ele>
        <time>2022-08-14T07:09:33Z</time>
      </trkpt>
      <trkpt lat="43.12655" lon="5.79835">
        <ele>34.951336</ele>
        <time>2022-08-14T07:09:35Z</time>
      </trkpt>
      <trkpt lat="43.12658" lon="5.79817">
        <ele>35.015873</ele>
        <time>2022-08-14T07:09:37Z</time>
      </trkpt>
      <trkpt lat="43.12661" lon="5.798">
        <ele>35.050205</ele>
        <time>2022-08-14T07:09:39Z</time>
      </trkpt>
      <trkpt lat="43.12664" lon="5.79783">
        <ele>35.145241</ele>
        <time>2022-08-14T07:09:41Z</time>
      </trkpt>
      <trkpt lat="43.12666" lon="5.79768">
        <ele>35.19923</ele>
        <time>2022-08-14T07:09:43Z</time>
      </trkpt>
      <trkpt lat="43.12669" lon="5.79752">
        <ele>35.256371</ele>
        <time>2022-08-14T07:09:45Z</time>
      </trkpt>
      <trkpt lat="43.12671" lon="5.79736">
        <ele>35.375603</ele>
        <time>2022-08-14T07:09:47Z</time>
      </trkpt>
      <trkpt lat="43.12672" lon="5.79719">
        <ele>35.434654</ele>
        <time>2022-08-14T07:09:49Z</time>
      </trkpt>
      <trkpt lat="43.12671" lon="5.79703">
        <ele>35.557137</ele>
        <time>2022-08-14T07:09:51Z</time>
      </trkpt>
      <trkpt lat="43.12666" lon="5.79687">
        <ele>35.623905</ele>
        <time>2022-08-14T07:09:53Z</time>
      </trkpt>
      <trkpt lat="43.1266" lon="5.79671">
        <ele>35.784195</ele>
        <time>2022-08-14T07:09:55Z</time>
      </trkpt>
      <trkpt lat="43.12654" lon="5.79656">
        <ele>35.888451</ele>
        <time>2022-08-14T07:09:57Z</time>
      </trkpt>
      <trkpt lat="43.12647" lon="5.79641">
        <ele>36.146397</ele>
        <time>2022-08-14T07:09:59Z</time>
      </trkpt>
      <trkpt lat="43.1264" lon="5.79626">
        <ele>36.295567</ele>
        <time>2022-08-14T07:10:01Z</time>
      </trkpt>
      <trkpt lat="43.12634" lon="5.79611">
        <ele>36.457661</ele>
        <time>2022-08-14T07:10:03Z</time>
      </trkpt>
      <trkpt lat="43.12627" lon="5.79597">
        <ele>36.8311</ele>
        <time>2022-08-14T07:10:05Z</time>
      </trkpt>
      <trkpt lat="43.1262" lon="5.79582">
        <ele>36.8311</ele>
        <time>2022-08-14T07:10:07Z</time>
      </trkpt>
      <trkpt lat="43.12614" lon="5.79568">
        <ele>37.232368</ele>
        <time>2022-08-14T07:10:09Z</time>
      </trkpt>
      <trkpt lat="43.12608" lon="5.79553">
        <ele>37.60088</ele>
        <time>2022-08-14T07:10:11Z</time>
      </trkpt>
      <trkpt lat="43.126" lon="5.79541">
        <ele>37.761547</ele>
        <time>2022-08-14T07:10:13Z</time>
      </trkpt>
      <trkpt lat="43.12594" lon="5.79529">
        <ele>38.006599</ele>
        <time>2022-08-14T07:10:15Z</time>
      </trkpt>
      <trkpt lat="43.12589" lon="5.79517">
        <ele>38.15662</ele>
        <time>2022-08-14T07:10:17Z</time>
      </trkpt>
      <trkpt lat="43.12583" lon="5.79506">
        <ele>38.215492</ele>
        <time>2022-08-14T07:10:19Z</time>
      </trkpt>
      <trkpt lat="43.12578" lon="5.79496">
        <ele>38.270805</ele>
        <time>2022-08-14T07:10:21Z</time>
      </trkpt>
      <trkpt lat="43.12574" lon="5.79486">
        <ele>38.397568</ele>
        <time>2022-08-14T07:10:23Z</time>
      </trkpt>
      <trkpt lat="43.12569" lon="5.79475">
        <ele>38.474506</ele>
        <time>2022-08-14T07:10:25Z</time>
      </trkpt>
      <trkpt lat="43.12564" lon="5.79465">
        <ele>38.672134</ele>
        <time>2022-08-14T07:10:27Z</time>
      </trkpt>
      <trkpt lat="43.12559" lon="5.79456">
        <ele>38.80323</ele>
        <time>2022-08-14T07:10:29Z</time>
      </trkpt>
      <trkpt lat="43.12554" lon="5.79447">
        <ele>38.949642</ele>
        <time>2022-08-14T07:10:31Z</time>
      </trkpt>
      <trkpt lat="43.12549" lon="5.79437">
        <ele>39.289986</ele>
        <time>2022-08-14T07:10:33Z</time>
      </trkpt>
      <trkpt lat="43.12544" lon="5.79427">
        <ele>39.485802</ele>
        <time>2022-08-14T07:10:35Z</time>
      </trkpt>
      <trkpt lat="43.12539" lon="5.79416">
        <ele>39.702538</ele>
        <time>2022-08-14T07:10:37Z</time>
      </trkpt>
      <trkpt lat="43.12534" lon="5.79406">
        <ele>40.186401</ele>
        <time>2022-08-14T07:10:39Z</time>
      </trkpt>
      <trkpt lat="43.12529" lon="5.79396">
        <ele>40.45126</ele>
        <time>2022-08-14T07:10:41Z</time>
      </trkpt>
      <trkpt lat="43.12525" lon="5.79385">
        <ele>41.025627</ele>
        <time>2022-08-14T07:10:43Z</time>
      </trkpt>
      <trkpt lat="43.12519" lon="5.79375">
        <ele>41.336594</ele>
        <time>2022-08-14T07:10:45Z</time>
      </trkpt>
      <trkpt lat="43.12514" lon="5.79365">
        <ele>42.002934</ele>
        <time>2022-08-14T07:10:47Z</time>
      </trkpt>
      <trkpt lat="43.12508" lon="5.79356">
        <ele>42.35714</ele>
        <time>2022-08-14T07:10:49Z</time>
      </trkpt>
      <trkpt lat="43.12502" lon="5.79347">
        <ele>43.101444</ele>
        <time>2022-08-14T07:10:51Z</time>
      </trkpt>
      <trkpt lat="43.12496" lon="5.79338">
        <ele>43.487747</ele>
        <time>2022-08-14T07:10:53Z</time>
      </trkpt>
      <trkpt lat="43.1249" lon="5.79329">
        <ele>44.280788</ele>
        <time>2022-08-14T07:10:55Z</time>
      </trkpt>
      <trkpt lat="43.12484" lon="5.79319">
        <ele>44.689915</ele>
        <time>2022-08-14T07:10:57Z</time>
      </trkpt>
      <trkpt lat="43.12481" lon="5.7931">
        <ele>45.51836</ele>
        <time>2022-08-14T07:10:59Z</time>
      </trkpt>
      <trkpt lat="43.12476" lon="5.793">
        <ele>45.933079</ele>
        <time>2022-08-14T07:11:01Z</time>
      </trkpt>
      <trkpt lat="43.12471" lon="5.79289">
        <ele>46.760017</ele>
        <time>2022-08-14T07:11:03Z</time>
      </trkpt>
      <trkpt lat="43.12467" lon="5.79278">
        <ele>47.172749</ele>
        <time>2022-08-14T07:11:05Z</time>
      </trkpt>
      <trkpt lat="43.1256" lon="5.78848">
        <ele>47.995674</ele>
        <time>2022-08-14T07:11:56Z</time>
      </trkpt>
      <trkpt lat="43.12581" lon="5.78838">
        <ele>48.399414</ele>
        <time>2022-08-14T07:11:58Z</time>
      </trkpt>
      <trkpt lat="43.12596" lon="5.78827">
        <ele>48.790432</ele>
        <time>2022-08-14T07:12:00Z</time>
      </trkpt>
      <trkpt lat="43.12612" lon="5.78814">
        <ele>49.522339</ele>
        <time>2022-08-14T07:12:02Z</time>
      </trkpt>
      <trkpt lat="43.12627" lon="5.78801">
        <ele>49.84898</ele>
        <time>2022-08-14T07:12:04Z</time>
      </trkpt>
      <trkpt lat="43.12645" lon="5.7878">
        <ele>50.42971</ele>
        <time>2022-08-14T07:12:07Z</time>
      </trkpt>
      <trkpt lat="43.12655" lon="5.78767">
        <ele>50.686237</ele>
        <time>2022-08-14T07:12:09Z</time>
      </trkpt>
      <trkpt lat="43.12663" lon="5.7875">
        <ele>51.147499</ele>
        <time>2022-08-14T07:12:11Z</time>
      </trkpt>
      <trkpt lat="43.1267" lon="5.78732">
        <ele>51.348743</ele>
        <time>2022-08-14T07:12:13Z</time>
      </trkpt>
      <trkpt lat="43.12677" lon="5.78712">
        <ele>51.528595</ele>
        <time>2022-08-14T07:12:15Z</time>
      </trkpt>
      <trkpt lat="43.12685" lon="5.78692">
        <ele>51.843292</ele>
        <time>2022-08-14T07:12:17Z</time>
      </trkpt>
      <trkpt lat="43.12692" lon="5.7867">
        <ele>52.095234</ele>
        <time>2022-08-14T07:12:19Z</time>
      </trkpt>
      <trkpt lat="43.12701" lon="5.78644">
        <ele>52.271282</ele>
        <time>2022-08-14T07:12:21Z</time>
      </trkpt>
      <trkpt lat="43.1271" lon="5.78616">
        <ele>52.333942</ele>
        <time>2022-08-14T07:12:23Z</time>
      </trkpt>
      <trkpt lat="43.12719" lon="5.78588">
        <ele>52.40556</ele>
        <time>2022-08-14T07:12:25Z</time>
      </trkpt>
      <trkpt lat="43.12731" lon="5.78562">
        <ele>52.404121</ele>
        <time>2022-08-14T07:12:27Z</time>
      </trkpt>
      <trkpt lat="43.12742" lon="5.78539">
        <ele>52.371593</ele>
        <time>2022-08-14T07:12:29Z</time>
      </trkpt>
      <trkpt lat="43.12754" lon="5.78527">
        <ele>52.313049</ele>
        <time>2022-08-14T07:12:31Z</time>
      </trkpt>
      <trkpt lat="43.12766" lon="5.78518">
        <ele>52.217113</ele>
        <time>2022-08-14T07:12:33Z</time>
      </trkpt>
      <trkpt lat="43.12776" lon="5.78507">
        <ele>52.081932</ele>
        <time>2022-08-14T07:12:35Z</time>
      </trkpt>
      <trkpt lat="43.12784" lon="5.785">
        <ele>51.724861</ele>
        <time>2022-08-14T07:12:37Z</time>
      </trkpt>
      <trkpt lat="43.12791" lon="5.78497">
        <ele>51.268116</ele>
        <time>2022-08-14T07:12:39Z</time>
      </trkpt>
      <trkpt lat="43.12797" lon="5.78497">
        <ele>50.995838</ele>
        <time>2022-08-14T07:12:41Z</time>
      </trkpt>
      <trkpt lat="43.12801" lon="5.78499">
        <ele>46.41547</ele>
        <time>2022-08-14T07:12:59Z</time>
      </trkpt>
      <trkpt lat="43.12802" lon="5.78503">
        <ele>45.762852</ele>
        <time>2022-08-14T07:13:01Z</time>
      </trkpt>
      <trkpt lat="43.12802" lon="5.78507">
        <ele>45.454269</ele>
        <time>2022-08-14T07:13:03Z</time>
      </trkpt>
      <trkpt lat="43.12801" lon="5.78512">
        <ele>45.152676</ele>
        <time>2022-08-14T07:13:05Z</time>
      </trkpt>
      <trkpt lat="43.12798" lon="5.78516">
        <ele>44.564835</ele>
        <time>2022-08-14T07:13:07Z</time>
      </trkpt>
      <trkpt lat="43.12795" lon="5.78519">
        <ele>44.278877</ele>
        <time>2022-08-14T07:13:09Z</time>
      </trkpt>
      <trkpt lat="43.12792" lon="5.78523">
        <ele>43.722313</ele>
        <time>2022-08-14T07:13:11Z</time>
      </trkpt>
      <trkpt lat="43.12789" lon="5.78525">
        <ele>43.452957</ele>
        <time>2022-08-14T07:13:13Z</time>
      </trkpt>
    </trkseg>
  </trk>
</gpx>